<?xml version="1.0" encoding="UTF-8" standalone="no" ?>
<gpx xmlns="http://www.topografix.com/GPX/1/1" xmlns:xsi="http://www.w3.org/2001/XMLSchema-instance" xsi:schemaLocation="http://www.topografix.com/GPX/1/1 http://www.topografix.com/GPX/1/1/gpx.xsd" version="1.1" creator="VisuGPX - https://www.visugpx.com">
  <metadata>
    <name>Sortie VTT du 25 10 15  Monistrol-CHAUSSITRE</name>
    <desc><![CDATA[Sortie VTT sympa proposée le 25 10 15 par Le CLUB Cycliste de Monistrol :  Monistrol sur Loire - Crêt de Chaussitre,   aller-retour avec pique nique à la mi-temps ....
]]></desc>
  </metadata>
  <trk>
    <name><![CDATA[Chaussitre 25 OCT 2015]]></name>
    <trkseg>
      <trkpt lat="45.28607" lon="4.16393">
        <ele>578.76</ele>
        <time>2015-10-25T07:37:21Z</time>
      </trkpt>
      <trkpt lat="45.28597" lon="4.16384">
        <ele>579.31</ele>
        <time>2015-10-25T07:38:36Z</time>
      </trkpt>
      <trkpt lat="45.2858" lon="4.16371">
        <ele>579.38</ele>
        <time>2015-10-25T07:38:42Z</time>
      </trkpt>
      <trkpt lat="45.28562" lon="4.16362">
        <ele>579.26</ele>
        <time>2015-10-25T07:38:47Z</time>
      </trkpt>
      <trkpt lat="45.28543" lon="4.16354">
        <ele>579.21</ele>
        <time>2015-10-25T07:38:52Z</time>
      </trkpt>
      <trkpt lat="45.28524" lon="4.16346">
        <ele>579.26</ele>
        <time>2015-10-25T07:38:57Z</time>
      </trkpt>
      <trkpt lat="45.28504" lon="4.1634">
        <ele>579.3</ele>
        <time>2015-10-25T07:39:02Z</time>
      </trkpt>
      <trkpt lat="45.28484" lon="4.16335">
        <ele>579.47</ele>
        <time>2015-10-25T07:39:07Z</time>
      </trkpt>
      <trkpt lat="45.28465" lon="4.16331">
        <ele>579.73</ele>
        <time>2015-10-25T07:39:12Z</time>
      </trkpt>
      <trkpt lat="45.28446" lon="4.16327">
        <ele>580.04</ele>
        <time>2015-10-25T07:39:17Z</time>
      </trkpt>
      <trkpt lat="45.28427" lon="4.16322">
        <ele>580.58</ele>
        <time>2015-10-25T07:39:22Z</time>
      </trkpt>
      <trkpt lat="45.28406" lon="4.16318">
        <ele>580.96</ele>
        <time>2015-10-25T07:39:27Z</time>
      </trkpt>
      <trkpt lat="45.28388" lon="4.16321">
        <ele>581.66</ele>
        <time>2015-10-25T07:39:32Z</time>
      </trkpt>
      <trkpt lat="45.28371" lon="4.16332">
        <ele>582.39</ele>
        <time>2015-10-25T07:39:37Z</time>
      </trkpt>
      <trkpt lat="45.28352" lon="4.16341">
        <ele>582.72</ele>
        <time>2015-10-25T07:39:42Z</time>
      </trkpt>
      <trkpt lat="45.28332" lon="4.16349">
        <ele>582.84</ele>
        <time>2015-10-25T07:39:47Z</time>
      </trkpt>
      <trkpt lat="45.28312" lon="4.16358">
        <ele>582.85</ele>
        <time>2015-10-25T07:39:52Z</time>
      </trkpt>
      <trkpt lat="45.28293" lon="4.16366">
        <ele>582.98</ele>
        <time>2015-10-25T07:39:57Z</time>
      </trkpt>
      <trkpt lat="45.28275" lon="4.16374">
        <ele>583.08</ele>
        <time>2015-10-25T07:40:02Z</time>
      </trkpt>
      <trkpt lat="45.28257" lon="4.1638">
        <ele>582.97</ele>
        <time>2015-10-25T07:40:14Z</time>
      </trkpt>
      <trkpt lat="45.28235" lon="4.16385">
        <ele>583.16</ele>
        <time>2015-10-25T07:40:20Z</time>
      </trkpt>
      <trkpt lat="45.28213" lon="4.16391">
        <ele>582.9</ele>
        <time>2015-10-25T07:40:25Z</time>
      </trkpt>
      <trkpt lat="45.28192" lon="4.16395">
        <ele>582.77</ele>
        <time>2015-10-25T07:40:30Z</time>
      </trkpt>
      <trkpt lat="45.28172" lon="4.16401">
        <ele>582.75</ele>
        <time>2015-10-25T07:40:35Z</time>
      </trkpt>
      <trkpt lat="45.28152" lon="4.16405">
        <ele>582.72</ele>
        <time>2015-10-25T07:40:40Z</time>
      </trkpt>
      <trkpt lat="45.28132" lon="4.16406">
        <ele>582.86</ele>
        <time>2015-10-25T07:40:45Z</time>
      </trkpt>
      <trkpt lat="45.28113" lon="4.164">
        <ele>582.7</ele>
        <time>2015-10-25T07:40:49Z</time>
      </trkpt>
      <trkpt lat="45.28092" lon="4.16391">
        <ele>582.1</ele>
        <time>2015-10-25T07:40:53Z</time>
      </trkpt>
      <trkpt lat="45.28071" lon="4.16393">
        <ele>581.68</ele>
        <time>2015-10-25T07:40:58Z</time>
      </trkpt>
      <trkpt lat="45.2805" lon="4.16399">
        <ele>582.02</ele>
        <time>2015-10-25T07:41:03Z</time>
      </trkpt>
      <trkpt lat="45.28032" lon="4.16407">
        <ele>582.47</ele>
        <time>2015-10-25T07:41:08Z</time>
      </trkpt>
      <trkpt lat="45.28012" lon="4.16418">
        <ele>583.55</ele>
        <time>2015-10-25T07:41:14Z</time>
      </trkpt>
      <trkpt lat="45.27994" lon="4.16434">
        <ele>584.25</ele>
        <time>2015-10-25T07:41:19Z</time>
      </trkpt>
      <trkpt lat="45.27975" lon="4.16447">
        <ele>584.37</ele>
        <time>2015-10-25T07:41:24Z</time>
      </trkpt>
      <trkpt lat="45.27955" lon="4.16457">
        <ele>584.36</ele>
        <time>2015-10-25T07:41:29Z</time>
      </trkpt>
      <trkpt lat="45.27933" lon="4.16463">
        <ele>584.47</ele>
        <time>2015-10-25T07:41:34Z</time>
      </trkpt>
      <trkpt lat="45.27915" lon="4.16469">
        <ele>584.53</ele>
        <time>2015-10-25T07:41:39Z</time>
      </trkpt>
      <trkpt lat="45.27895" lon="4.16478">
        <ele>585.81</ele>
        <time>2015-10-25T07:41:47Z</time>
      </trkpt>
      <trkpt lat="45.27881" lon="4.165">
        <ele>588.17</ele>
        <time>2015-10-25T07:41:54Z</time>
      </trkpt>
      <trkpt lat="45.27872" lon="4.16524">
        <ele>588.59</ele>
        <time>2015-10-25T07:41:59Z</time>
      </trkpt>
      <trkpt lat="45.27866" lon="4.16556">
        <ele>588.58</ele>
        <time>2015-10-25T07:42:04Z</time>
      </trkpt>
      <trkpt lat="45.27864" lon="4.16587">
        <ele>588.88</ele>
        <time>2015-10-25T07:42:09Z</time>
      </trkpt>
      <trkpt lat="45.27867" lon="4.16614">
        <ele>589.28</ele>
        <time>2015-10-25T07:42:14Z</time>
      </trkpt>
      <trkpt lat="45.27873" lon="4.16644">
        <ele>590.11</ele>
        <time>2015-10-25T07:42:20Z</time>
      </trkpt>
      <trkpt lat="45.2788" lon="4.16674">
        <ele>590.87</ele>
        <time>2015-10-25T07:42:27Z</time>
      </trkpt>
      <trkpt lat="45.27887" lon="4.16699">
        <ele>591.19</ele>
        <time>2015-10-25T07:42:32Z</time>
      </trkpt>
      <trkpt lat="45.27895" lon="4.16732">
        <ele>591.36</ele>
        <time>2015-10-25T07:42:39Z</time>
      </trkpt>
      <trkpt lat="45.27907" lon="4.16763">
        <ele>591.75</ele>
        <time>2015-10-25T07:42:47Z</time>
      </trkpt>
      <trkpt lat="45.27927" lon="4.16754">
        <ele>592.16</ele>
        <time>2015-10-25T07:42:53Z</time>
      </trkpt>
      <trkpt lat="45.27946" lon="4.16746">
        <ele>592.53</ele>
        <time>2015-10-25T07:42:58Z</time>
      </trkpt>
      <trkpt lat="45.27964" lon="4.16739">
        <ele>593.09</ele>
        <time>2015-10-25T07:43:03Z</time>
      </trkpt>
      <trkpt lat="45.27983" lon="4.16736">
        <ele>593.71</ele>
        <time>2015-10-25T07:43:08Z</time>
      </trkpt>
      <trkpt lat="45.28005" lon="4.16737">
        <ele>594.04</ele>
        <time>2015-10-25T07:43:13Z</time>
      </trkpt>
      <trkpt lat="45.28026" lon="4.16735">
        <ele>594.19</ele>
        <time>2015-10-25T07:43:17Z</time>
      </trkpt>
      <trkpt lat="45.28046" lon="4.16725">
        <ele>594.29</ele>
        <time>2015-10-25T07:43:21Z</time>
      </trkpt>
      <trkpt lat="45.2806" lon="4.16708">
        <ele>594.34</ele>
        <time>2015-10-25T07:43:25Z</time>
      </trkpt>
      <trkpt lat="45.28075" lon="4.16688">
        <ele>595.08</ele>
        <time>2015-10-25T07:43:30Z</time>
      </trkpt>
      <trkpt lat="45.2809" lon="4.16667">
        <ele>596.02</ele>
        <time>2015-10-25T07:43:36Z</time>
      </trkpt>
      <trkpt lat="45.28104" lon="4.16651">
        <ele>597.45</ele>
        <time>2015-10-25T07:43:42Z</time>
      </trkpt>
      <trkpt lat="45.28121" lon="4.16637">
        <ele>599.15</ele>
        <time>2015-10-25T07:43:49Z</time>
      </trkpt>
      <trkpt lat="45.28142" lon="4.16633">
        <ele>601.19</ele>
        <time>2015-10-25T07:43:56Z</time>
      </trkpt>
      <trkpt lat="45.28161" lon="4.16633">
        <ele>602.76</ele>
        <time>2015-10-25T07:44:02Z</time>
      </trkpt>
      <trkpt lat="45.28182" lon="4.16633">
        <ele>603.96</ele>
        <time>2015-10-25T07:44:09Z</time>
      </trkpt>
      <trkpt lat="45.28203" lon="4.16635">
        <ele>605.41</ele>
        <time>2015-10-25T07:44:16Z</time>
      </trkpt>
      <trkpt lat="45.28221" lon="4.16637">
        <ele>606.43</ele>
        <time>2015-10-25T07:44:22Z</time>
      </trkpt>
      <trkpt lat="45.28237" lon="4.16645">
        <ele>607.34</ele>
        <time>2015-10-25T07:44:30Z</time>
      </trkpt>
      <trkpt lat="45.2822" lon="4.16661">
        <ele>608.86</ele>
        <time>2015-10-25T07:44:38Z</time>
      </trkpt>
      <trkpt lat="45.28203" lon="4.16678">
        <ele>610.85</ele>
        <time>2015-10-25T07:44:46Z</time>
      </trkpt>
      <trkpt lat="45.28187" lon="4.16695">
        <ele>612.03</ele>
        <time>2015-10-25T07:44:53Z</time>
      </trkpt>
      <trkpt lat="45.28171" lon="4.16713">
        <ele>613.04</ele>
        <time>2015-10-25T07:45:00Z</time>
      </trkpt>
      <trkpt lat="45.28154" lon="4.16733">
        <ele>614.43</ele>
        <time>2015-10-25T07:45:08Z</time>
      </trkpt>
      <trkpt lat="45.2814" lon="4.16756">
        <ele>615.67</ele>
        <time>2015-10-25T07:45:16Z</time>
      </trkpt>
      <trkpt lat="45.28132" lon="4.16781">
        <ele>617.01</ele>
        <time>2015-10-25T07:45:23Z</time>
      </trkpt>
      <trkpt lat="45.28126" lon="4.16808">
        <ele>617.96</ele>
        <time>2015-10-25T07:45:30Z</time>
      </trkpt>
      <trkpt lat="45.28123" lon="4.16834">
        <ele>618.93</ele>
        <time>2015-10-25T07:45:37Z</time>
      </trkpt>
      <trkpt lat="45.28134" lon="4.16854">
        <ele>620.22</ele>
        <time>2015-10-25T07:45:45Z</time>
      </trkpt>
      <trkpt lat="45.28149" lon="4.1687">
        <ele>623.03</ele>
        <time>2015-10-25T07:45:54Z</time>
      </trkpt>
      <trkpt lat="45.28165" lon="4.16886">
        <ele>625.08</ele>
        <time>2015-10-25T07:46:02Z</time>
      </trkpt>
      <trkpt lat="45.28182" lon="4.16902">
        <ele>626.54</ele>
        <time>2015-10-25T07:46:10Z</time>
      </trkpt>
      <trkpt lat="45.28198" lon="4.1692">
        <ele>627.73</ele>
        <time>2015-10-25T07:46:18Z</time>
      </trkpt>
      <trkpt lat="45.28213" lon="4.16935">
        <ele>628.67</ele>
        <time>2015-10-25T07:46:24Z</time>
      </trkpt>
      <trkpt lat="45.28228" lon="4.16952">
        <ele>629.41</ele>
        <time>2015-10-25T07:46:30Z</time>
      </trkpt>
      <trkpt lat="45.28244" lon="4.16968">
        <ele>630</ele>
        <time>2015-10-25T07:46:36Z</time>
      </trkpt>
      <trkpt lat="45.28259" lon="4.16983">
        <ele>630.66</ele>
        <time>2015-10-25T07:46:42Z</time>
      </trkpt>
      <trkpt lat="45.28276" lon="4.17">
        <ele>631.32</ele>
        <time>2015-10-25T07:46:49Z</time>
      </trkpt>
      <trkpt lat="45.2829" lon="4.17015">
        <ele>632.01</ele>
        <time>2015-10-25T07:46:55Z</time>
      </trkpt>
      <trkpt lat="45.28307" lon="4.17033">
        <ele>632.86</ele>
        <time>2015-10-25T07:47:02Z</time>
      </trkpt>
      <trkpt lat="45.28324" lon="4.17048">
        <ele>633.63</ele>
        <time>2015-10-25T07:47:09Z</time>
      </trkpt>
      <trkpt lat="45.28339" lon="4.17066">
        <ele>634.1</ele>
        <time>2015-10-25T07:47:15Z</time>
      </trkpt>
      <trkpt lat="45.28353" lon="4.17082">
        <ele>634.07</ele>
        <time>2015-10-25T07:47:20Z</time>
      </trkpt>
      <trkpt lat="45.2837" lon="4.17099">
        <ele>633.94</ele>
        <time>2015-10-25T07:47:26Z</time>
      </trkpt>
      <trkpt lat="45.28386" lon="4.17116">
        <ele>633.55</ele>
        <time>2015-10-25T07:47:31Z</time>
      </trkpt>
      <trkpt lat="45.28402" lon="4.17133">
        <ele>632.65</ele>
        <time>2015-10-25T07:47:36Z</time>
      </trkpt>
      <trkpt lat="45.28419" lon="4.17151">
        <ele>631.85</ele>
        <time>2015-10-25T07:47:41Z</time>
      </trkpt>
      <trkpt lat="45.28421" lon="4.17174">
        <ele>630.6</ele>
        <time>2015-10-25T07:47:48Z</time>
      </trkpt>
      <trkpt lat="45.28409" lon="4.17195">
        <ele>630.95</ele>
        <time>2015-10-25T07:47:54Z</time>
      </trkpt>
      <trkpt lat="45.28398" lon="4.17216">
        <ele>632.55</ele>
        <time>2015-10-25T07:48:00Z</time>
      </trkpt>
      <trkpt lat="45.28387" lon="4.17241">
        <ele>634.37</ele>
        <time>2015-10-25T07:48:07Z</time>
      </trkpt>
      <trkpt lat="45.28376" lon="4.17264">
        <ele>636.5</ele>
        <time>2015-10-25T07:48:15Z</time>
      </trkpt>
      <trkpt lat="45.28365" lon="4.17287">
        <ele>638.99</ele>
        <time>2015-10-25T07:48:23Z</time>
      </trkpt>
      <trkpt lat="45.28354" lon="4.1731">
        <ele>641.53</ele>
        <time>2015-10-25T07:48:31Z</time>
      </trkpt>
      <trkpt lat="45.28344" lon="4.17331">
        <ele>643.6</ele>
        <time>2015-10-25T07:48:38Z</time>
      </trkpt>
      <trkpt lat="45.28333" lon="4.17354">
        <ele>645.85</ele>
        <time>2015-10-25T07:48:46Z</time>
      </trkpt>
      <trkpt lat="45.28319" lon="4.17375">
        <ele>647.6</ele>
        <time>2015-10-25T07:48:54Z</time>
      </trkpt>
      <trkpt lat="45.28303" lon="4.17391">
        <ele>647.88</ele>
        <time>2015-10-25T07:49:01Z</time>
      </trkpt>
      <trkpt lat="45.28292" lon="4.17416">
        <ele>647.65</ele>
        <time>2015-10-25T07:49:06Z</time>
      </trkpt>
      <trkpt lat="45.28285" lon="4.17441">
        <ele>647.38</ele>
        <time>2015-10-25T07:49:11Z</time>
      </trkpt>
      <trkpt lat="45.28281" lon="4.17466">
        <ele>647.12</ele>
        <time>2015-10-25T07:49:16Z</time>
      </trkpt>
      <trkpt lat="45.28278" lon="4.17493">
        <ele>646.89</ele>
        <time>2015-10-25T07:49:22Z</time>
      </trkpt>
      <trkpt lat="45.28279" lon="4.17519">
        <ele>646.77</ele>
        <time>2015-10-25T07:49:27Z</time>
      </trkpt>
      <trkpt lat="45.28283" lon="4.17547">
        <ele>646.79</ele>
        <time>2015-10-25T07:49:32Z</time>
      </trkpt>
      <trkpt lat="45.28288" lon="4.17574">
        <ele>647.27</ele>
        <time>2015-10-25T07:49:38Z</time>
      </trkpt>
      <trkpt lat="45.28297" lon="4.176">
        <ele>647.88</ele>
        <time>2015-10-25T07:49:44Z</time>
      </trkpt>
      <trkpt lat="45.28306" lon="4.17625">
        <ele>648.82</ele>
        <time>2015-10-25T07:49:50Z</time>
      </trkpt>
      <trkpt lat="45.28319" lon="4.17648">
        <ele>649.87</ele>
        <time>2015-10-25T07:49:57Z</time>
      </trkpt>
      <trkpt lat="45.28331" lon="4.1767">
        <ele>650.95</ele>
        <time>2015-10-25T07:50:03Z</time>
      </trkpt>
      <trkpt lat="45.2834" lon="4.17693">
        <ele>652.24</ele>
        <time>2015-10-25T07:50:10Z</time>
      </trkpt>
      <trkpt lat="45.28341" lon="4.17721">
        <ele>652.84</ele>
        <time>2015-10-25T07:50:16Z</time>
      </trkpt>
      <trkpt lat="45.2833" lon="4.17746">
        <ele>652.84</ele>
        <time>2015-10-25T07:50:22Z</time>
      </trkpt>
      <trkpt lat="45.28315" lon="4.17767">
        <ele>652.64</ele>
        <time>2015-10-25T07:50:28Z</time>
      </trkpt>
      <trkpt lat="45.283" lon="4.17789">
        <ele>652.57</ele>
        <time>2015-10-25T07:50:34Z</time>
      </trkpt>
      <trkpt lat="45.28285" lon="4.1781">
        <ele>652.44</ele>
        <time>2015-10-25T07:50:40Z</time>
      </trkpt>
      <trkpt lat="45.2827" lon="4.17832">
        <ele>652.47</ele>
        <time>2015-10-25T07:50:46Z</time>
      </trkpt>
      <trkpt lat="45.28259" lon="4.17857">
        <ele>652.56</ele>
        <time>2015-10-25T07:50:52Z</time>
      </trkpt>
      <trkpt lat="45.28251" lon="4.17885">
        <ele>652.4</ele>
        <time>2015-10-25T07:51:00Z</time>
      </trkpt>
      <trkpt lat="45.28234" lon="4.17898">
        <ele>650.89</ele>
        <time>2015-10-25T07:51:06Z</time>
      </trkpt>
      <trkpt lat="45.28216" lon="4.17886">
        <ele>648.62</ele>
        <time>2015-10-25T07:51:12Z</time>
      </trkpt>
      <trkpt lat="45.28198" lon="4.17869">
        <ele>646.12</ele>
        <time>2015-10-25T07:51:19Z</time>
      </trkpt>
      <trkpt lat="45.28183" lon="4.17851">
        <ele>643.22</ele>
        <time>2015-10-25T07:51:26Z</time>
      </trkpt>
      <trkpt lat="45.28167" lon="4.17855">
        <ele>640.02</ele>
        <time>2015-10-25T07:51:35Z</time>
      </trkpt>
      <trkpt lat="45.28147" lon="4.17881">
        <ele>639.46</ele>
        <time>2015-10-25T07:51:44Z</time>
      </trkpt>
      <trkpt lat="45.28158" lon="4.17905">
        <ele>640.16</ele>
        <time>2015-10-25T07:51:51Z</time>
      </trkpt>
      <trkpt lat="45.28166" lon="4.17929">
        <ele>642.84</ele>
        <time>2015-10-25T07:51:58Z</time>
      </trkpt>
      <trkpt lat="45.28172" lon="4.17953">
        <ele>644.94</ele>
        <time>2015-10-25T07:52:06Z</time>
      </trkpt>
      <trkpt lat="45.28157" lon="4.17968">
        <ele>646.66</ele>
        <time>2015-10-25T07:52:14Z</time>
      </trkpt>
      <trkpt lat="45.28138" lon="4.17961">
        <ele>647.68</ele>
        <time>2015-10-25T07:52:22Z</time>
      </trkpt>
      <trkpt lat="45.28121" lon="4.17944">
        <ele>649.1</ele>
        <time>2015-10-25T07:52:30Z</time>
      </trkpt>
      <trkpt lat="45.28103" lon="4.17936">
        <ele>651.26</ele>
        <time>2015-10-25T07:52:39Z</time>
      </trkpt>
      <trkpt lat="45.28084" lon="4.17943">
        <ele>653.22</ele>
        <time>2015-10-25T07:52:48Z</time>
      </trkpt>
      <trkpt lat="45.28064" lon="4.17948">
        <ele>654.88</ele>
        <time>2015-10-25T07:52:57Z</time>
      </trkpt>
      <trkpt lat="45.28045" lon="4.17946">
        <ele>656.75</ele>
        <time>2015-10-25T07:53:05Z</time>
      </trkpt>
      <trkpt lat="45.28024" lon="4.17943">
        <ele>659.64</ele>
        <time>2015-10-25T07:53:14Z</time>
      </trkpt>
      <trkpt lat="45.28003" lon="4.17938">
        <ele>661.23</ele>
        <time>2015-10-25T07:53:21Z</time>
      </trkpt>
      <trkpt lat="45.27985" lon="4.17932">
        <ele>663.72</ele>
        <time>2015-10-25T07:53:28Z</time>
      </trkpt>
      <trkpt lat="45.27965" lon="4.1793">
        <ele>666.58</ele>
        <time>2015-10-25T07:53:36Z</time>
      </trkpt>
      <trkpt lat="45.27947" lon="4.17933">
        <ele>668.7</ele>
        <time>2015-10-25T07:53:44Z</time>
      </trkpt>
      <trkpt lat="45.27928" lon="4.17938">
        <ele>670.91</ele>
        <time>2015-10-25T07:53:53Z</time>
      </trkpt>
      <trkpt lat="45.2791" lon="4.17945">
        <ele>673.35</ele>
        <time>2015-10-25T07:54:03Z</time>
      </trkpt>
      <trkpt lat="45.27891" lon="4.17951">
        <ele>674.99</ele>
        <time>2015-10-25T07:54:11Z</time>
      </trkpt>
      <trkpt lat="45.27871" lon="4.17955">
        <ele>676.91</ele>
        <time>2015-10-25T07:54:20Z</time>
      </trkpt>
      <trkpt lat="45.27852" lon="4.17957">
        <ele>678.49</ele>
        <time>2015-10-25T07:54:28Z</time>
      </trkpt>
      <trkpt lat="45.27833" lon="4.17958">
        <ele>680.14</ele>
        <time>2015-10-25T07:54:36Z</time>
      </trkpt>
      <trkpt lat="45.27815" lon="4.17961">
        <ele>681.28</ele>
        <time>2015-10-25T07:54:43Z</time>
      </trkpt>
      <trkpt lat="45.27796" lon="4.17968">
        <ele>682.03</ele>
        <time>2015-10-25T07:54:50Z</time>
      </trkpt>
      <trkpt lat="45.27777" lon="4.17977">
        <ele>682.04</ele>
        <time>2015-10-25T07:54:57Z</time>
      </trkpt>
      <trkpt lat="45.27759" lon="4.17988">
        <ele>681.6</ele>
        <time>2015-10-25T07:55:06Z</time>
      </trkpt>
      <trkpt lat="45.2774" lon="4.17997">
        <ele>681.42</ele>
        <time>2015-10-25T07:55:15Z</time>
      </trkpt>
      <trkpt lat="45.27721" lon="4.18003">
        <ele>681.05</ele>
        <time>2015-10-25T07:55:22Z</time>
      </trkpt>
      <trkpt lat="45.27701" lon="4.18008">
        <ele>680.74</ele>
        <time>2015-10-25T07:55:29Z</time>
      </trkpt>
      <trkpt lat="45.27682" lon="4.18014">
        <ele>680.46</ele>
        <time>2015-10-25T07:55:36Z</time>
      </trkpt>
      <trkpt lat="45.27664" lon="4.1802">
        <ele>680</ele>
        <time>2015-10-25T07:55:44Z</time>
      </trkpt>
      <trkpt lat="45.27645" lon="4.18021">
        <ele>679.71</ele>
        <time>2015-10-25T07:55:50Z</time>
      </trkpt>
      <trkpt lat="45.27626" lon="4.18018">
        <ele>679.12</ele>
        <time>2015-10-25T07:55:59Z</time>
      </trkpt>
      <trkpt lat="45.27607" lon="4.18018">
        <ele>678.69</ele>
        <time>2015-10-25T07:56:07Z</time>
      </trkpt>
      <trkpt lat="45.27586" lon="4.1802">
        <ele>678.28</ele>
        <time>2015-10-25T07:56:13Z</time>
      </trkpt>
      <trkpt lat="45.27566" lon="4.1802">
        <ele>677.93</ele>
        <time>2015-10-25T07:56:18Z</time>
      </trkpt>
      <trkpt lat="45.27548" lon="4.18019">
        <ele>677.24</ele>
        <time>2015-10-25T07:56:22Z</time>
      </trkpt>
      <trkpt lat="45.27529" lon="4.18029">
        <ele>676.58</ele>
        <time>2015-10-25T07:56:26Z</time>
      </trkpt>
      <trkpt lat="45.27509" lon="4.18038">
        <ele>675.7</ele>
        <time>2015-10-25T07:56:31Z</time>
      </trkpt>
      <trkpt lat="45.27492" lon="4.18052">
        <ele>675.05</ele>
        <time>2015-10-25T07:56:35Z</time>
      </trkpt>
      <trkpt lat="45.27477" lon="4.18066">
        <ele>674.16</ele>
        <time>2015-10-25T07:56:38Z</time>
      </trkpt>
      <trkpt lat="45.27458" lon="4.18085">
        <ele>672.78</ele>
        <time>2015-10-25T07:56:42Z</time>
      </trkpt>
      <trkpt lat="45.27443" lon="4.18102">
        <ele>671.56</ele>
        <time>2015-10-25T07:56:46Z</time>
      </trkpt>
      <trkpt lat="45.2743" lon="4.18127">
        <ele>670.62</ele>
        <time>2015-10-25T07:56:51Z</time>
      </trkpt>
      <trkpt lat="45.27418" lon="4.1815">
        <ele>670.22</ele>
        <time>2015-10-25T07:56:55Z</time>
      </trkpt>
      <trkpt lat="45.27402" lon="4.18169">
        <ele>669.73</ele>
        <time>2015-10-25T07:57:00Z</time>
      </trkpt>
      <trkpt lat="45.27387" lon="4.18185">
        <ele>669.78</ele>
        <time>2015-10-25T07:57:05Z</time>
      </trkpt>
      <trkpt lat="45.2737" lon="4.18204">
        <ele>670.15</ele>
        <time>2015-10-25T07:57:11Z</time>
      </trkpt>
      <trkpt lat="45.27352" lon="4.18217">
        <ele>670.48</ele>
        <time>2015-10-25T07:57:17Z</time>
      </trkpt>
      <trkpt lat="45.27335" lon="4.1823">
        <ele>670.7</ele>
        <time>2015-10-25T07:57:23Z</time>
      </trkpt>
      <trkpt lat="45.27316" lon="4.18242">
        <ele>670.55</ele>
        <time>2015-10-25T07:57:28Z</time>
      </trkpt>
      <trkpt lat="45.27297" lon="4.18255">
        <ele>669.98</ele>
        <time>2015-10-25T07:57:33Z</time>
      </trkpt>
      <trkpt lat="45.27278" lon="4.1827">
        <ele>669.54</ele>
        <time>2015-10-25T07:57:40Z</time>
      </trkpt>
      <trkpt lat="45.27261" lon="4.18289">
        <ele>668.44</ele>
        <time>2015-10-25T07:57:45Z</time>
      </trkpt>
      <trkpt lat="45.27244" lon="4.18303">
        <ele>668</ele>
        <time>2015-10-25T07:57:50Z</time>
      </trkpt>
      <trkpt lat="45.27228" lon="4.18317">
        <ele>667.64</ele>
        <time>2015-10-25T07:57:55Z</time>
      </trkpt>
      <trkpt lat="45.27212" lon="4.18331">
        <ele>667.27</ele>
        <time>2015-10-25T07:58:00Z</time>
      </trkpt>
      <trkpt lat="45.27196" lon="4.18347">
        <ele>667.07</ele>
        <time>2015-10-25T07:58:06Z</time>
      </trkpt>
      <trkpt lat="45.2718" lon="4.18366">
        <ele>666.75</ele>
        <time>2015-10-25T07:58:12Z</time>
      </trkpt>
      <trkpt lat="45.27165" lon="4.18383">
        <ele>666.11</ele>
        <time>2015-10-25T07:58:18Z</time>
      </trkpt>
      <trkpt lat="45.27151" lon="4.18398">
        <ele>665.79</ele>
        <time>2015-10-25T07:58:23Z</time>
      </trkpt>
      <trkpt lat="45.27134" lon="4.18411">
        <ele>665.51</ele>
        <time>2015-10-25T07:58:28Z</time>
      </trkpt>
      <trkpt lat="45.27116" lon="4.1841">
        <ele>665.37</ele>
        <time>2015-10-25T07:58:32Z</time>
      </trkpt>
      <trkpt lat="45.27092" lon="4.18396">
        <ele>665.26</ele>
        <time>2015-10-25T07:58:37Z</time>
      </trkpt>
      <trkpt lat="45.27074" lon="4.18376">
        <ele>666.03</ele>
        <time>2015-10-25T07:58:43Z</time>
      </trkpt>
      <trkpt lat="45.27061" lon="4.18355">
        <ele>668.28</ele>
        <time>2015-10-25T07:58:51Z</time>
      </trkpt>
      <trkpt lat="45.27042" lon="4.1834">
        <ele>671.7</ele>
        <time>2015-10-25T07:59:00Z</time>
      </trkpt>
      <trkpt lat="45.27022" lon="4.18347">
        <ele>674.75</ele>
        <time>2015-10-25T07:59:08Z</time>
      </trkpt>
      <trkpt lat="45.27004" lon="4.18362">
        <ele>677.26</ele>
        <time>2015-10-25T07:59:16Z</time>
      </trkpt>
      <trkpt lat="45.26987" lon="4.18373">
        <ele>679.08</ele>
        <time>2015-10-25T07:59:23Z</time>
      </trkpt>
      <trkpt lat="45.26969" lon="4.18387">
        <ele>680.28</ele>
        <time>2015-10-25T07:59:30Z</time>
      </trkpt>
      <trkpt lat="45.26951" lon="4.18401">
        <ele>681.1</ele>
        <time>2015-10-25T07:59:37Z</time>
      </trkpt>
      <trkpt lat="45.26932" lon="4.18418">
        <ele>680.98</ele>
        <time>2015-10-25T07:59:42Z</time>
      </trkpt>
      <trkpt lat="45.26919" lon="4.18439">
        <ele>680.32</ele>
        <time>2015-10-25T07:59:45Z</time>
      </trkpt>
      <trkpt lat="45.26906" lon="4.18467">
        <ele>679.27</ele>
        <time>2015-10-25T07:59:48Z</time>
      </trkpt>
      <trkpt lat="45.26884" lon="4.18484">
        <ele>677.84</ele>
        <time>2015-10-25T07:59:51Z</time>
      </trkpt>
      <trkpt lat="45.26861" lon="4.18495">
        <ele>676.29</ele>
        <time>2015-10-25T07:59:54Z</time>
      </trkpt>
      <trkpt lat="45.26839" lon="4.1851">
        <ele>675.01</ele>
        <time>2015-10-25T07:59:57Z</time>
      </trkpt>
      <trkpt lat="45.26818" lon="4.18507">
        <ele>673.47</ele>
        <time>2015-10-25T08:00:00Z</time>
      </trkpt>
      <trkpt lat="45.26801" lon="4.18488">
        <ele>672.08</ele>
        <time>2015-10-25T08:00:03Z</time>
      </trkpt>
      <trkpt lat="45.26784" lon="4.18476">
        <ele>671.26</ele>
        <time>2015-10-25T08:00:06Z</time>
      </trkpt>
      <trkpt lat="45.26761" lon="4.18467">
        <ele>670.53</ele>
        <time>2015-10-25T08:00:09Z</time>
      </trkpt>
      <trkpt lat="45.26735" lon="4.18475">
        <ele>669.39</ele>
        <time>2015-10-25T08:00:12Z</time>
      </trkpt>
      <trkpt lat="45.26719" lon="4.18488">
        <ele>668.32</ele>
        <time>2015-10-25T08:00:14Z</time>
      </trkpt>
      <trkpt lat="45.26703" lon="4.18504">
        <ele>666.94</ele>
        <time>2015-10-25T08:00:16Z</time>
      </trkpt>
      <trkpt lat="45.26686" lon="4.18514">
        <ele>665.55</ele>
        <time>2015-10-25T08:00:18Z</time>
      </trkpt>
      <trkpt lat="45.26662" lon="4.18527">
        <ele>663.75</ele>
        <time>2015-10-25T08:00:21Z</time>
      </trkpt>
      <trkpt lat="45.26638" lon="4.18538">
        <ele>662.48</ele>
        <time>2015-10-25T08:00:24Z</time>
      </trkpt>
      <trkpt lat="45.26623" lon="4.18551">
        <ele>661.74</ele>
        <time>2015-10-25T08:00:26Z</time>
      </trkpt>
      <trkpt lat="45.26603" lon="4.18574">
        <ele>660.64</ele>
        <time>2015-10-25T08:00:29Z</time>
      </trkpt>
      <trkpt lat="45.26591" lon="4.18597">
        <ele>660.26</ele>
        <time>2015-10-25T08:00:32Z</time>
      </trkpt>
      <trkpt lat="45.26581" lon="4.18625">
        <ele>660.87</ele>
        <time>2015-10-25T08:00:36Z</time>
      </trkpt>
      <trkpt lat="45.26575" lon="4.18654">
        <ele>661.3</ele>
        <time>2015-10-25T08:00:40Z</time>
      </trkpt>
      <trkpt lat="45.26581" lon="4.1868">
        <ele>661.78</ele>
        <time>2015-10-25T08:00:44Z</time>
      </trkpt>
      <trkpt lat="45.26592" lon="4.18705">
        <ele>663.66</ele>
        <time>2015-10-25T08:00:50Z</time>
      </trkpt>
      <trkpt lat="45.26597" lon="4.18729">
        <ele>666.02</ele>
        <time>2015-10-25T08:00:56Z</time>
      </trkpt>
      <trkpt lat="45.266" lon="4.18756">
        <ele>666.86</ele>
        <time>2015-10-25T08:01:01Z</time>
      </trkpt>
      <trkpt lat="45.26599" lon="4.18784">
        <ele>667.06</ele>
        <time>2015-10-25T08:01:06Z</time>
      </trkpt>
      <trkpt lat="45.26596" lon="4.18814">
        <ele>666.82</ele>
        <time>2015-10-25T08:01:11Z</time>
      </trkpt>
      <trkpt lat="45.26593" lon="4.18844">
        <ele>666.29</ele>
        <time>2015-10-25T08:01:16Z</time>
      </trkpt>
      <trkpt lat="45.26591" lon="4.18872">
        <ele>666.5</ele>
        <time>2015-10-25T08:01:21Z</time>
      </trkpt>
      <trkpt lat="45.26584" lon="4.18898">
        <ele>666.95</ele>
        <time>2015-10-25T08:01:26Z</time>
      </trkpt>
      <trkpt lat="45.26575" lon="4.18925">
        <ele>668.3</ele>
        <time>2015-10-25T08:01:34Z</time>
      </trkpt>
      <trkpt lat="45.26583" lon="4.18948">
        <ele>671.61</ele>
        <time>2015-10-25T08:01:43Z</time>
      </trkpt>
      <trkpt lat="45.26596" lon="4.18968">
        <ele>675.08</ele>
        <time>2015-10-25T08:01:52Z</time>
      </trkpt>
      <trkpt lat="45.26607" lon="4.1899">
        <ele>677.49</ele>
        <time>2015-10-25T08:02:01Z</time>
      </trkpt>
      <trkpt lat="45.2662" lon="4.19011">
        <ele>678.8</ele>
        <time>2015-10-25T08:02:09Z</time>
      </trkpt>
      <trkpt lat="45.26635" lon="4.19033">
        <ele>679.89</ele>
        <time>2015-10-25T08:02:18Z</time>
      </trkpt>
      <trkpt lat="45.26655" lon="4.19052">
        <ele>681.43</ele>
        <time>2015-10-25T08:02:28Z</time>
      </trkpt>
      <trkpt lat="45.26673" lon="4.19074">
        <ele>682.24</ele>
        <time>2015-10-25T08:02:36Z</time>
      </trkpt>
      <trkpt lat="45.26691" lon="4.19096">
        <ele>683.17</ele>
        <time>2015-10-25T08:02:44Z</time>
      </trkpt>
      <trkpt lat="45.26708" lon="4.19119">
        <ele>684.21</ele>
        <time>2015-10-25T08:02:52Z</time>
      </trkpt>
      <trkpt lat="45.26725" lon="4.19141">
        <ele>685.45</ele>
        <time>2015-10-25T08:03:00Z</time>
      </trkpt>
      <trkpt lat="45.26745" lon="4.19158">
        <ele>685.97</ele>
        <time>2015-10-25T08:03:07Z</time>
      </trkpt>
      <trkpt lat="45.26758" lon="4.19183">
        <ele>685.6</ele>
        <time>2015-10-25T08:03:13Z</time>
      </trkpt>
      <trkpt lat="45.26761" lon="4.19214">
        <ele>685.52</ele>
        <time>2015-10-25T08:03:19Z</time>
      </trkpt>
      <trkpt lat="45.26771" lon="4.19238">
        <ele>686.88</ele>
        <time>2015-10-25T08:03:26Z</time>
      </trkpt>
      <trkpt lat="45.26787" lon="4.1926">
        <ele>687.79</ele>
        <time>2015-10-25T08:03:33Z</time>
      </trkpt>
      <trkpt lat="45.26781" lon="4.19285">
        <ele>688.28</ele>
        <time>2015-10-25T08:03:40Z</time>
      </trkpt>
      <trkpt lat="45.26762" lon="4.19303">
        <ele>690.07</ele>
        <time>2015-10-25T08:03:49Z</time>
      </trkpt>
      <trkpt lat="45.2675" lon="4.1933">
        <ele>691.67</ele>
        <time>2015-10-25T08:03:57Z</time>
      </trkpt>
      <trkpt lat="45.26755" lon="4.19359">
        <ele>693.65</ele>
        <time>2015-10-25T08:04:06Z</time>
      </trkpt>
      <trkpt lat="45.2677" lon="4.1938">
        <ele>696.31</ele>
        <time>2015-10-25T08:04:16Z</time>
      </trkpt>
      <trkpt lat="45.26787" lon="4.19396">
        <ele>698.5</ele>
        <time>2015-10-25T08:04:25Z</time>
      </trkpt>
      <trkpt lat="45.26803" lon="4.19413">
        <ele>700.51</ele>
        <time>2015-10-25T08:04:34Z</time>
      </trkpt>
      <trkpt lat="45.26821" lon="4.19433">
        <ele>702.49</ele>
        <time>2015-10-25T08:04:44Z</time>
      </trkpt>
      <trkpt lat="45.26836" lon="4.19459">
        <ele>704.7</ele>
        <time>2015-10-25T08:04:53Z</time>
      </trkpt>
      <trkpt lat="45.26827" lon="4.19486">
        <ele>706.62</ele>
        <time>2015-10-25T08:05:01Z</time>
      </trkpt>
      <trkpt lat="45.26817" lon="4.1951">
        <ele>708.36</ele>
        <time>2015-10-25T08:05:11Z</time>
      </trkpt>
      <trkpt lat="45.26804" lon="4.19536">
        <ele>709.54</ele>
        <time>2015-10-25T08:05:20Z</time>
      </trkpt>
      <trkpt lat="45.26783" lon="4.19557">
        <ele>710.79</ele>
        <time>2015-10-25T08:05:30Z</time>
      </trkpt>
      <trkpt lat="45.26761" lon="4.19582">
        <ele>712.43</ele>
        <time>2015-10-25T08:05:39Z</time>
      </trkpt>
      <trkpt lat="45.26747" lon="4.19611">
        <ele>714.85</ele>
        <time>2015-10-25T08:05:47Z</time>
      </trkpt>
      <trkpt lat="45.26737" lon="4.19638">
        <ele>716.61</ele>
        <time>2015-10-25T08:05:54Z</time>
      </trkpt>
      <trkpt lat="45.2673" lon="4.19664">
        <ele>718.08</ele>
        <time>2015-10-25T08:06:02Z</time>
      </trkpt>
      <trkpt lat="45.26731" lon="4.1969">
        <ele>718.5</ele>
        <time>2015-10-25T08:06:08Z</time>
      </trkpt>
      <trkpt lat="45.2674" lon="4.19721">
        <ele>718.15</ele>
        <time>2015-10-25T08:06:13Z</time>
      </trkpt>
      <trkpt lat="45.2675" lon="4.19751">
        <ele>717.25</ele>
        <time>2015-10-25T08:06:17Z</time>
      </trkpt>
      <trkpt lat="45.26757" lon="4.19778">
        <ele>716.55</ele>
        <time>2015-10-25T08:06:20Z</time>
      </trkpt>
      <trkpt lat="45.26762" lon="4.19806">
        <ele>715.78</ele>
        <time>2015-10-25T08:06:23Z</time>
      </trkpt>
      <trkpt lat="45.26755" lon="4.19831">
        <ele>714.21</ele>
        <time>2015-10-25T08:06:26Z</time>
      </trkpt>
      <trkpt lat="45.26742" lon="4.19855">
        <ele>713.06</ele>
        <time>2015-10-25T08:06:29Z</time>
      </trkpt>
      <trkpt lat="45.26728" lon="4.19878">
        <ele>712.31</ele>
        <time>2015-10-25T08:06:32Z</time>
      </trkpt>
      <trkpt lat="45.26712" lon="4.19901">
        <ele>711.58</ele>
        <time>2015-10-25T08:06:35Z</time>
      </trkpt>
      <trkpt lat="45.26695" lon="4.19921">
        <ele>710.95</ele>
        <time>2015-10-25T08:06:38Z</time>
      </trkpt>
      <trkpt lat="45.26679" lon="4.19938">
        <ele>710.55</ele>
        <time>2015-10-25T08:06:41Z</time>
      </trkpt>
      <trkpt lat="45.2666" lon="4.19952">
        <ele>710.17</ele>
        <time>2015-10-25T08:06:45Z</time>
      </trkpt>
      <trkpt lat="45.2664" lon="4.19964">
        <ele>710.01</ele>
        <time>2015-10-25T08:06:50Z</time>
      </trkpt>
      <trkpt lat="45.2662" lon="4.19972">
        <ele>709.86</ele>
        <time>2015-10-25T08:06:55Z</time>
      </trkpt>
      <trkpt lat="45.26599" lon="4.19979">
        <ele>709.83</ele>
        <time>2015-10-25T08:07:00Z</time>
      </trkpt>
      <trkpt lat="45.26578" lon="4.19982">
        <ele>709.86</ele>
        <time>2015-10-25T08:07:05Z</time>
      </trkpt>
      <trkpt lat="45.26557" lon="4.19984">
        <ele>710.07</ele>
        <time>2015-10-25T08:07:10Z</time>
      </trkpt>
      <trkpt lat="45.26538" lon="4.19982">
        <ele>710.6</ele>
        <time>2015-10-25T08:07:15Z</time>
      </trkpt>
      <trkpt lat="45.26518" lon="4.19977">
        <ele>711.17</ele>
        <time>2015-10-25T08:07:20Z</time>
      </trkpt>
      <trkpt lat="45.26499" lon="4.1997">
        <ele>711.67</ele>
        <time>2015-10-25T08:07:25Z</time>
      </trkpt>
      <trkpt lat="45.26481" lon="4.19966">
        <ele>712.28</ele>
        <time>2015-10-25T08:07:30Z</time>
      </trkpt>
      <trkpt lat="45.26462" lon="4.19965">
        <ele>712.93</ele>
        <time>2015-10-25T08:07:35Z</time>
      </trkpt>
      <trkpt lat="45.26444" lon="4.19961">
        <ele>713.76</ele>
        <time>2015-10-25T08:07:40Z</time>
      </trkpt>
      <trkpt lat="45.26423" lon="4.19957">
        <ele>715.17</ele>
        <time>2015-10-25T08:07:46Z</time>
      </trkpt>
      <trkpt lat="45.26402" lon="4.19957">
        <ele>716.38</ele>
        <time>2015-10-25T08:07:52Z</time>
      </trkpt>
      <trkpt lat="45.26381" lon="4.19956">
        <ele>717.47</ele>
        <time>2015-10-25T08:07:58Z</time>
      </trkpt>
      <trkpt lat="45.26359" lon="4.19958">
        <ele>718.72</ele>
        <time>2015-10-25T08:08:04Z</time>
      </trkpt>
      <trkpt lat="45.26354" lon="4.19981">
        <ele>719.44</ele>
        <time>2015-10-25T08:08:09Z</time>
      </trkpt>
      <trkpt lat="45.26359" lon="4.20007">
        <ele>720.14</ele>
        <time>2015-10-25T08:08:14Z</time>
      </trkpt>
      <trkpt lat="45.26351" lon="4.20032">
        <ele>721.8</ele>
        <time>2015-10-25T08:08:21Z</time>
      </trkpt>
      <trkpt lat="45.26338" lon="4.2005">
        <ele>723.47</ele>
        <time>2015-10-25T08:08:28Z</time>
      </trkpt>
      <trkpt lat="45.2633" lon="4.20073">
        <ele>725.24</ele>
        <time>2015-10-25T08:08:35Z</time>
      </trkpt>
      <trkpt lat="45.26322" lon="4.20097">
        <ele>727.01</ele>
        <time>2015-10-25T08:08:42Z</time>
      </trkpt>
      <trkpt lat="45.26319" lon="4.20123">
        <ele>728.44</ele>
        <time>2015-10-25T08:08:49Z</time>
      </trkpt>
      <trkpt lat="45.26313" lon="4.20148">
        <ele>729.94</ele>
        <time>2015-10-25T08:08:56Z</time>
      </trkpt>
      <trkpt lat="45.26297" lon="4.20167">
        <ele>731.11</ele>
        <time>2015-10-25T08:09:03Z</time>
      </trkpt>
      <trkpt lat="45.2628" lon="4.20186">
        <ele>731.73</ele>
        <time>2015-10-25T08:09:09Z</time>
      </trkpt>
      <trkpt lat="45.26265" lon="4.20204">
        <ele>731.99</ele>
        <time>2015-10-25T08:09:15Z</time>
      </trkpt>
      <trkpt lat="45.26249" lon="4.20217">
        <ele>732.12</ele>
        <time>2015-10-25T08:09:21Z</time>
      </trkpt>
      <trkpt lat="45.26231" lon="4.2023">
        <ele>732.75</ele>
        <time>2015-10-25T08:09:28Z</time>
      </trkpt>
      <trkpt lat="45.26214" lon="4.20246">
        <ele>733.53</ele>
        <time>2015-10-25T08:09:35Z</time>
      </trkpt>
      <trkpt lat="45.26196" lon="4.20263">
        <ele>734.15</ele>
        <time>2015-10-25T08:09:43Z</time>
      </trkpt>
      <trkpt lat="45.26182" lon="4.20283">
        <ele>735.37</ele>
        <time>2015-10-25T08:09:50Z</time>
      </trkpt>
      <trkpt lat="45.26166" lon="4.20306">
        <ele>736.49</ele>
        <time>2015-10-25T08:09:58Z</time>
      </trkpt>
      <trkpt lat="45.2615" lon="4.20328">
        <ele>737.63</ele>
        <time>2015-10-25T08:10:06Z</time>
      </trkpt>
      <trkpt lat="45.26134" lon="4.20353">
        <ele>738.62</ele>
        <time>2015-10-25T08:10:14Z</time>
      </trkpt>
      <trkpt lat="45.26121" lon="4.20376">
        <ele>739.33</ele>
        <time>2015-10-25T08:10:21Z</time>
      </trkpt>
      <trkpt lat="45.26108" lon="4.204">
        <ele>739.97</ele>
        <time>2015-10-25T08:10:28Z</time>
      </trkpt>
      <trkpt lat="45.26094" lon="4.20422">
        <ele>740.69</ele>
        <time>2015-10-25T08:10:35Z</time>
      </trkpt>
      <trkpt lat="45.26081" lon="4.20445">
        <ele>741.69</ele>
        <time>2015-10-25T08:10:42Z</time>
      </trkpt>
      <trkpt lat="45.26067" lon="4.20469">
        <ele>742.94</ele>
        <time>2015-10-25T08:10:50Z</time>
      </trkpt>
      <trkpt lat="45.26052" lon="4.20494">
        <ele>744.04</ele>
        <time>2015-10-25T08:10:58Z</time>
      </trkpt>
      <trkpt lat="45.26038" lon="4.20517">
        <ele>745.36</ele>
        <time>2015-10-25T08:11:05Z</time>
      </trkpt>
      <trkpt lat="45.26024" lon="4.20539">
        <ele>746.69</ele>
        <time>2015-10-25T08:11:14Z</time>
      </trkpt>
      <trkpt lat="45.26012" lon="4.20566">
        <ele>748.55</ele>
        <time>2015-10-25T08:11:24Z</time>
      </trkpt>
      <trkpt lat="45.25997" lon="4.20586">
        <ele>750.79</ele>
        <time>2015-10-25T08:11:33Z</time>
      </trkpt>
      <trkpt lat="45.25985" lon="4.2061">
        <ele>752.95</ele>
        <time>2015-10-25T08:11:41Z</time>
      </trkpt>
      <trkpt lat="45.2597" lon="4.20632">
        <ele>755.7</ele>
        <time>2015-10-25T08:11:50Z</time>
      </trkpt>
      <trkpt lat="45.25971" lon="4.20659">
        <ele>758.95</ele>
        <time>2015-10-25T08:11:59Z</time>
      </trkpt>
      <trkpt lat="45.25969" lon="4.20688">
        <ele>761.45</ele>
        <time>2015-10-25T08:12:07Z</time>
      </trkpt>
      <trkpt lat="45.25969" lon="4.20717">
        <ele>762.48</ele>
        <time>2015-10-25T08:12:14Z</time>
      </trkpt>
      <trkpt lat="45.25974" lon="4.20745">
        <ele>762.63</ele>
        <time>2015-10-25T08:12:21Z</time>
      </trkpt>
      <trkpt lat="45.25979" lon="4.20772">
        <ele>762.85</ele>
        <time>2015-10-25T08:12:28Z</time>
      </trkpt>
      <trkpt lat="45.25982" lon="4.20801">
        <ele>763.26</ele>
        <time>2015-10-25T08:12:34Z</time>
      </trkpt>
      <trkpt lat="45.25984" lon="4.20832">
        <ele>764.93</ele>
        <time>2015-10-25T08:12:41Z</time>
      </trkpt>
      <trkpt lat="45.25982" lon="4.20862">
        <ele>766.53</ele>
        <time>2015-10-25T08:12:48Z</time>
      </trkpt>
      <trkpt lat="45.25976" lon="4.20891">
        <ele>767.71</ele>
        <time>2015-10-25T08:12:55Z</time>
      </trkpt>
      <trkpt lat="45.25966" lon="4.20917">
        <ele>769.74</ele>
        <time>2015-10-25T08:13:03Z</time>
      </trkpt>
      <trkpt lat="45.25954" lon="4.20941">
        <ele>772.12</ele>
        <time>2015-10-25T08:13:11Z</time>
      </trkpt>
      <trkpt lat="45.25942" lon="4.20961">
        <ele>773.46</ele>
        <time>2015-10-25T08:13:18Z</time>
      </trkpt>
      <trkpt lat="45.25932" lon="4.20985">
        <ele>774.65</ele>
        <time>2015-10-25T08:13:25Z</time>
      </trkpt>
      <trkpt lat="45.25926" lon="4.21012">
        <ele>776.3</ele>
        <time>2015-10-25T08:13:32Z</time>
      </trkpt>
      <trkpt lat="45.25928" lon="4.2104">
        <ele>777.92</ele>
        <time>2015-10-25T08:13:39Z</time>
      </trkpt>
      <trkpt lat="45.25933" lon="4.21067">
        <ele>779.35</ele>
        <time>2015-10-25T08:13:46Z</time>
      </trkpt>
      <trkpt lat="45.25939" lon="4.21093">
        <ele>780.38</ele>
        <time>2015-10-25T08:13:53Z</time>
      </trkpt>
      <trkpt lat="45.25937" lon="4.2112">
        <ele>781.73</ele>
        <time>2015-10-25T08:14:00Z</time>
      </trkpt>
      <trkpt lat="45.25932" lon="4.2115">
        <ele>782.67</ele>
        <time>2015-10-25T08:14:07Z</time>
      </trkpt>
      <trkpt lat="45.25925" lon="4.21176">
        <ele>783.49</ele>
        <time>2015-10-25T08:14:13Z</time>
      </trkpt>
      <trkpt lat="45.25915" lon="4.212">
        <ele>784.39</ele>
        <time>2015-10-25T08:14:19Z</time>
      </trkpt>
      <trkpt lat="45.25902" lon="4.2122">
        <ele>785.56</ele>
        <time>2015-10-25T08:14:25Z</time>
      </trkpt>
      <trkpt lat="45.25894" lon="4.21247">
        <ele>786.94</ele>
        <time>2015-10-25T08:14:32Z</time>
      </trkpt>
      <trkpt lat="45.25897" lon="4.21276">
        <ele>788.01</ele>
        <time>2015-10-25T08:14:39Z</time>
      </trkpt>
      <trkpt lat="45.25903" lon="4.213">
        <ele>788.83</ele>
        <time>2015-10-25T08:14:45Z</time>
      </trkpt>
      <trkpt lat="45.25911" lon="4.21325">
        <ele>789.41</ele>
        <time>2015-10-25T08:14:51Z</time>
      </trkpt>
      <trkpt lat="45.2592" lon="4.21349">
        <ele>789.7</ele>
        <time>2015-10-25T08:14:57Z</time>
      </trkpt>
      <trkpt lat="45.2592" lon="4.21375">
        <ele>789.83</ele>
        <time>2015-10-25T08:15:04Z</time>
      </trkpt>
      <trkpt lat="45.25904" lon="4.21397">
        <ele>789.72</ele>
        <time>2015-10-25T08:15:11Z</time>
      </trkpt>
      <trkpt lat="45.25888" lon="4.21417">
        <ele>789.3</ele>
        <time>2015-10-25T08:15:16Z</time>
      </trkpt>
      <trkpt lat="45.25874" lon="4.21435">
        <ele>788.82</ele>
        <time>2015-10-25T08:15:20Z</time>
      </trkpt>
      <trkpt lat="45.25857" lon="4.21456">
        <ele>788.06</ele>
        <time>2015-10-25T08:15:24Z</time>
      </trkpt>
      <trkpt lat="45.25845" lon="4.21476">
        <ele>787.33</ele>
        <time>2015-10-25T08:15:27Z</time>
      </trkpt>
      <trkpt lat="45.25833" lon="4.21505">
        <ele>786.43</ele>
        <time>2015-10-25T08:15:31Z</time>
      </trkpt>
      <trkpt lat="45.25821" lon="4.21534">
        <ele>785.94</ele>
        <time>2015-10-25T08:15:35Z</time>
      </trkpt>
      <trkpt lat="45.25817" lon="4.2156">
        <ele>785.45</ele>
        <time>2015-10-25T08:15:38Z</time>
      </trkpt>
      <trkpt lat="45.25823" lon="4.21587">
        <ele>784.9</ele>
        <time>2015-10-25T08:15:42Z</time>
      </trkpt>
      <trkpt lat="45.25837" lon="4.21611">
        <ele>785.26</ele>
        <time>2015-10-25T08:15:47Z</time>
      </trkpt>
      <trkpt lat="45.25851" lon="4.21631">
        <ele>786.35</ele>
        <time>2015-10-25T08:15:52Z</time>
      </trkpt>
      <trkpt lat="45.25867" lon="4.21646">
        <ele>787.25</ele>
        <time>2015-10-25T08:15:57Z</time>
      </trkpt>
      <trkpt lat="45.25884" lon="4.21657">
        <ele>787.93</ele>
        <time>2015-10-25T08:16:02Z</time>
      </trkpt>
      <trkpt lat="45.25904" lon="4.21672">
        <ele>789.11</ele>
        <time>2015-10-25T08:16:08Z</time>
      </trkpt>
      <trkpt lat="45.25921" lon="4.2169">
        <ele>790.19</ele>
        <time>2015-10-25T08:16:14Z</time>
      </trkpt>
      <trkpt lat="45.25935" lon="4.21707">
        <ele>791.88</ele>
        <time>2015-10-25T08:16:20Z</time>
      </trkpt>
      <trkpt lat="45.25951" lon="4.21723">
        <ele>793.17</ele>
        <time>2015-10-25T08:16:26Z</time>
      </trkpt>
      <trkpt lat="45.25964" lon="4.21743">
        <ele>793.98</ele>
        <time>2015-10-25T08:16:31Z</time>
      </trkpt>
      <trkpt lat="45.25978" lon="4.21764">
        <ele>793.86</ele>
        <time>2015-10-25T08:16:36Z</time>
      </trkpt>
      <trkpt lat="45.25994" lon="4.21784">
        <ele>793.76</ele>
        <time>2015-10-25T08:16:41Z</time>
      </trkpt>
      <trkpt lat="45.26012" lon="4.218">
        <ele>793.74</ele>
        <time>2015-10-25T08:16:45Z</time>
      </trkpt>
      <trkpt lat="45.26031" lon="4.21816">
        <ele>793.29</ele>
        <time>2015-10-25T08:16:49Z</time>
      </trkpt>
      <trkpt lat="45.26048" lon="4.2183">
        <ele>792.67</ele>
        <time>2015-10-25T08:16:53Z</time>
      </trkpt>
      <trkpt lat="45.26067" lon="4.21846">
        <ele>792.54</ele>
        <time>2015-10-25T08:16:58Z</time>
      </trkpt>
      <trkpt lat="45.26084" lon="4.21855">
        <ele>792.58</ele>
        <time>2015-10-25T08:17:02Z</time>
      </trkpt>
      <trkpt lat="45.26105" lon="4.21863">
        <ele>792.8</ele>
        <time>2015-10-25T08:17:07Z</time>
      </trkpt>
      <trkpt lat="45.26121" lon="4.21874">
        <ele>793.45</ele>
        <time>2015-10-25T08:17:12Z</time>
      </trkpt>
      <trkpt lat="45.26137" lon="4.21887">
        <ele>794.24</ele>
        <time>2015-10-25T08:17:17Z</time>
      </trkpt>
      <trkpt lat="45.26155" lon="4.21903">
        <ele>795.19</ele>
        <time>2015-10-25T08:17:23Z</time>
      </trkpt>
      <trkpt lat="45.26172" lon="4.21918">
        <ele>796.48</ele>
        <time>2015-10-25T08:17:29Z</time>
      </trkpt>
      <trkpt lat="45.26187" lon="4.21934">
        <ele>797.45</ele>
        <time>2015-10-25T08:17:35Z</time>
      </trkpt>
      <trkpt lat="45.26204" lon="4.21954">
        <ele>798.47</ele>
        <time>2015-10-25T08:17:41Z</time>
      </trkpt>
      <trkpt lat="45.26219" lon="4.21972">
        <ele>799.58</ele>
        <time>2015-10-25T08:17:47Z</time>
      </trkpt>
      <trkpt lat="45.26235" lon="4.2199">
        <ele>800.72</ele>
        <time>2015-10-25T08:17:53Z</time>
      </trkpt>
      <trkpt lat="45.26252" lon="4.22007">
        <ele>801.75</ele>
        <time>2015-10-25T08:17:59Z</time>
      </trkpt>
      <trkpt lat="45.26269" lon="4.22023">
        <ele>802.85</ele>
        <time>2015-10-25T08:18:05Z</time>
      </trkpt>
      <trkpt lat="45.26285" lon="4.22037">
        <ele>803.61</ele>
        <time>2015-10-25T08:18:10Z</time>
      </trkpt>
      <trkpt lat="45.26303" lon="4.22053">
        <ele>804.33</ele>
        <time>2015-10-25T08:18:16Z</time>
      </trkpt>
      <trkpt lat="45.26319" lon="4.22067">
        <ele>805.13</ele>
        <time>2015-10-25T08:18:22Z</time>
      </trkpt>
      <trkpt lat="45.26336" lon="4.22085">
        <ele>806.1</ele>
        <time>2015-10-25T08:18:29Z</time>
      </trkpt>
      <trkpt lat="45.26352" lon="4.22105">
        <ele>807.49</ele>
        <time>2015-10-25T08:18:36Z</time>
      </trkpt>
      <trkpt lat="45.2637" lon="4.22124">
        <ele>808.92</ele>
        <time>2015-10-25T08:18:43Z</time>
      </trkpt>
      <trkpt lat="45.26369" lon="4.22155">
        <ele>809.76</ele>
        <time>2015-10-25T08:18:49Z</time>
      </trkpt>
      <trkpt lat="45.26361" lon="4.22183">
        <ele>810.24</ele>
        <time>2015-10-25T08:18:54Z</time>
      </trkpt>
      <trkpt lat="45.2635" lon="4.22209">
        <ele>810.3</ele>
        <time>2015-10-25T08:18:59Z</time>
      </trkpt>
      <trkpt lat="45.26336" lon="4.22234">
        <ele>810.19</ele>
        <time>2015-10-25T08:19:04Z</time>
      </trkpt>
      <trkpt lat="45.26324" lon="4.22259">
        <ele>810.5</ele>
        <time>2015-10-25T08:19:09Z</time>
      </trkpt>
      <trkpt lat="45.26319" lon="4.22285">
        <ele>810.73</ele>
        <time>2015-10-25T08:19:14Z</time>
      </trkpt>
      <trkpt lat="45.26318" lon="4.22316">
        <ele>811.11</ele>
        <time>2015-10-25T08:19:20Z</time>
      </trkpt>
      <trkpt lat="45.26318" lon="4.22347">
        <ele>811.57</ele>
        <time>2015-10-25T08:19:26Z</time>
      </trkpt>
      <trkpt lat="45.26318" lon="4.22374">
        <ele>812.74</ele>
        <time>2015-10-25T08:19:32Z</time>
      </trkpt>
      <trkpt lat="45.26319" lon="4.22406">
        <ele>812.95</ele>
        <time>2015-10-25T08:19:38Z</time>
      </trkpt>
      <trkpt lat="45.26328" lon="4.22438">
        <ele>812.1</ele>
        <time>2015-10-25T08:19:43Z</time>
      </trkpt>
      <trkpt lat="45.26337" lon="4.22466">
        <ele>811.11</ele>
        <time>2015-10-25T08:19:47Z</time>
      </trkpt>
      <trkpt lat="45.26345" lon="4.2249">
        <ele>810.43</ele>
        <time>2015-10-25T08:19:50Z</time>
      </trkpt>
      <trkpt lat="45.2635" lon="4.22521">
        <ele>809.47</ele>
        <time>2015-10-25T08:19:53Z</time>
      </trkpt>
      <trkpt lat="45.2635" lon="4.22549">
        <ele>808.21</ele>
        <time>2015-10-25T08:19:56Z</time>
      </trkpt>
      <trkpt lat="45.26347" lon="4.22582">
        <ele>807.76</ele>
        <time>2015-10-25T08:20:00Z</time>
      </trkpt>
      <trkpt lat="45.26344" lon="4.22611">
        <ele>807.83</ele>
        <time>2015-10-25T08:20:04Z</time>
      </trkpt>
      <trkpt lat="45.26342" lon="4.22639">
        <ele>808.09</ele>
        <time>2015-10-25T08:20:08Z</time>
      </trkpt>
      <trkpt lat="45.26343" lon="4.22672">
        <ele>808.36</ele>
        <time>2015-10-25T08:20:13Z</time>
      </trkpt>
      <trkpt lat="45.26346" lon="4.227">
        <ele>808.55</ele>
        <time>2015-10-25T08:20:18Z</time>
      </trkpt>
      <trkpt lat="45.2635" lon="4.22729">
        <ele>809.06</ele>
        <time>2015-10-25T08:20:24Z</time>
      </trkpt>
      <trkpt lat="45.26355" lon="4.22754">
        <ele>808.98</ele>
        <time>2015-10-25T08:20:28Z</time>
      </trkpt>
      <trkpt lat="45.26362" lon="4.22781">
        <ele>808.31</ele>
        <time>2015-10-25T08:20:32Z</time>
      </trkpt>
      <trkpt lat="45.26369" lon="4.22808">
        <ele>807.76</ele>
        <time>2015-10-25T08:20:36Z</time>
      </trkpt>
      <trkpt lat="45.26378" lon="4.22835">
        <ele>807.41</ele>
        <time>2015-10-25T08:20:41Z</time>
      </trkpt>
      <trkpt lat="45.26384" lon="4.2286">
        <ele>806.97</ele>
        <time>2015-10-25T08:20:45Z</time>
      </trkpt>
      <trkpt lat="45.2639" lon="4.2289">
        <ele>806.19</ele>
        <time>2015-10-25T08:20:50Z</time>
      </trkpt>
      <trkpt lat="45.26387" lon="4.22918">
        <ele>805.76</ele>
        <time>2015-10-25T08:20:55Z</time>
      </trkpt>
      <trkpt lat="45.26377" lon="4.22944">
        <ele>805.75</ele>
        <time>2015-10-25T08:21:00Z</time>
      </trkpt>
      <trkpt lat="45.26368" lon="4.22966">
        <ele>805.72</ele>
        <time>2015-10-25T08:21:04Z</time>
      </trkpt>
      <trkpt lat="45.26356" lon="4.22992">
        <ele>805.72</ele>
        <time>2015-10-25T08:21:09Z</time>
      </trkpt>
      <trkpt lat="45.26342" lon="4.23016">
        <ele>805.62</ele>
        <time>2015-10-25T08:21:14Z</time>
      </trkpt>
      <trkpt lat="45.26327" lon="4.23038">
        <ele>805.27</ele>
        <time>2015-10-25T08:21:19Z</time>
      </trkpt>
      <trkpt lat="45.26312" lon="4.23059">
        <ele>805.17</ele>
        <time>2015-10-25T08:21:24Z</time>
      </trkpt>
      <trkpt lat="45.26299" lon="4.23077">
        <ele>805.25</ele>
        <time>2015-10-25T08:21:29Z</time>
      </trkpt>
      <trkpt lat="45.26297" lon="4.23102">
        <ele>805.78</ele>
        <time>2015-10-25T08:21:35Z</time>
      </trkpt>
      <trkpt lat="45.26306" lon="4.23128">
        <ele>806.42</ele>
        <time>2015-10-25T08:21:41Z</time>
      </trkpt>
      <trkpt lat="45.26307" lon="4.23155">
        <ele>806.64</ele>
        <time>2015-10-25T08:21:47Z</time>
      </trkpt>
      <trkpt lat="45.26307" lon="4.23183">
        <ele>808.03</ele>
        <time>2015-10-25T08:21:54Z</time>
      </trkpt>
      <trkpt lat="45.263" lon="4.23207">
        <ele>810.04</ele>
        <time>2015-10-25T08:22:01Z</time>
      </trkpt>
      <trkpt lat="45.26282" lon="4.23219">
        <ele>811.61</ele>
        <time>2015-10-25T08:22:08Z</time>
      </trkpt>
      <trkpt lat="45.26265" lon="4.23232">
        <ele>812.23</ele>
        <time>2015-10-25T08:22:13Z</time>
      </trkpt>
      <trkpt lat="45.2625" lon="4.2325">
        <ele>811.96</ele>
        <time>2015-10-25T08:22:17Z</time>
      </trkpt>
      <trkpt lat="45.26244" lon="4.2328">
        <ele>811.24</ele>
        <time>2015-10-25T08:22:22Z</time>
      </trkpt>
      <trkpt lat="45.26239" lon="4.23306">
        <ele>811.17</ele>
        <time>2015-10-25T08:22:27Z</time>
      </trkpt>
      <trkpt lat="45.26239" lon="4.23332">
        <ele>812.02</ele>
        <time>2015-10-25T08:22:37Z</time>
      </trkpt>
      <trkpt lat="45.26239" lon="4.23359">
        <ele>810.97</ele>
        <time>2015-10-25T08:22:46Z</time>
      </trkpt>
      <trkpt lat="45.26237" lon="4.23385">
        <ele>809.75</ele>
        <time>2015-10-25T08:22:53Z</time>
      </trkpt>
      <trkpt lat="45.26234" lon="4.23412">
        <ele>807.25</ele>
        <time>2015-10-25T08:23:01Z</time>
      </trkpt>
      <trkpt lat="45.26232" lon="4.2344">
        <ele>804.43</ele>
        <time>2015-10-25T08:23:09Z</time>
      </trkpt>
      <trkpt lat="45.26225" lon="4.23467">
        <ele>801.57</ele>
        <time>2015-10-25T08:23:15Z</time>
      </trkpt>
      <trkpt lat="45.26238" lon="4.23487">
        <ele>798.34</ele>
        <time>2015-10-25T08:23:22Z</time>
      </trkpt>
      <trkpt lat="45.26243" lon="4.23504">
        <ele>794.43</ele>
        <time>2015-10-25T08:23:31Z</time>
      </trkpt>
      <trkpt lat="45.26225" lon="4.23516">
        <ele>790.58</ele>
        <time>2015-10-25T08:23:38Z</time>
      </trkpt>
      <trkpt lat="45.26222" lon="4.23548">
        <ele>788.74</ele>
        <time>2015-10-25T08:23:44Z</time>
      </trkpt>
      <trkpt lat="45.26212" lon="4.23582">
        <ele>787.55</ele>
        <time>2015-10-25T08:23:53Z</time>
      </trkpt>
      <trkpt lat="45.26202" lon="4.2361">
        <ele>788.97</ele>
        <time>2015-10-25T08:24:02Z</time>
      </trkpt>
      <trkpt lat="45.2619" lon="4.23636">
        <ele>791.27</ele>
        <time>2015-10-25T08:24:11Z</time>
      </trkpt>
      <trkpt lat="45.2618" lon="4.23662">
        <ele>793.2</ele>
        <time>2015-10-25T08:24:19Z</time>
      </trkpt>
      <trkpt lat="45.2617" lon="4.23687">
        <ele>795.31</ele>
        <time>2015-10-25T08:24:27Z</time>
      </trkpt>
      <trkpt lat="45.26161" lon="4.2371">
        <ele>797.32</ele>
        <time>2015-10-25T08:24:35Z</time>
      </trkpt>
      <trkpt lat="45.26153" lon="4.23737">
        <ele>800.52</ele>
        <time>2015-10-25T08:24:45Z</time>
      </trkpt>
      <trkpt lat="45.26146" lon="4.23764">
        <ele>804.05</ele>
        <time>2015-10-25T08:24:55Z</time>
      </trkpt>
      <trkpt lat="45.26138" lon="4.23793">
        <ele>806.53</ele>
        <time>2015-10-25T08:25:05Z</time>
      </trkpt>
      <trkpt lat="45.26132" lon="4.23819">
        <ele>807.8</ele>
        <time>2015-10-25T08:25:13Z</time>
      </trkpt>
      <trkpt lat="45.26119" lon="4.23841">
        <ele>808.97</ele>
        <time>2015-10-25T08:25:21Z</time>
      </trkpt>
      <trkpt lat="45.26104" lon="4.23859">
        <ele>809.9</ele>
        <time>2015-10-25T08:25:29Z</time>
      </trkpt>
      <trkpt lat="45.26089" lon="4.23879">
        <ele>810.38</ele>
        <time>2015-10-25T08:25:37Z</time>
      </trkpt>
      <trkpt lat="45.26073" lon="4.239">
        <ele>810.7</ele>
        <time>2015-10-25T08:25:44Z</time>
      </trkpt>
      <trkpt lat="45.26056" lon="4.2392">
        <ele>810.53</ele>
        <time>2015-10-25T08:25:50Z</time>
      </trkpt>
      <trkpt lat="45.26041" lon="4.23935">
        <ele>809.98</ele>
        <time>2015-10-25T08:25:55Z</time>
      </trkpt>
      <trkpt lat="45.26024" lon="4.2395">
        <ele>809.74</ele>
        <time>2015-10-25T08:26:01Z</time>
      </trkpt>
      <trkpt lat="45.26007" lon="4.23963">
        <ele>809.58</ele>
        <time>2015-10-25T08:26:07Z</time>
      </trkpt>
      <trkpt lat="45.2599" lon="4.23977">
        <ele>810.02</ele>
        <time>2015-10-25T08:26:14Z</time>
      </trkpt>
      <trkpt lat="45.25974" lon="4.23997">
        <ele>811.06</ele>
        <time>2015-10-25T08:26:23Z</time>
      </trkpt>
      <trkpt lat="45.25964" lon="4.24022">
        <ele>812.41</ele>
        <time>2015-10-25T08:26:30Z</time>
      </trkpt>
      <trkpt lat="45.25959" lon="4.24047">
        <ele>813.45</ele>
        <time>2015-10-25T08:26:38Z</time>
      </trkpt>
      <trkpt lat="45.25958" lon="4.24078">
        <ele>814.98</ele>
        <time>2015-10-25T08:26:46Z</time>
      </trkpt>
      <trkpt lat="45.25953" lon="4.24107">
        <ele>816.37</ele>
        <time>2015-10-25T08:26:53Z</time>
      </trkpt>
      <trkpt lat="45.2594" lon="4.24137">
        <ele>817.71</ele>
        <time>2015-10-25T08:27:01Z</time>
      </trkpt>
      <trkpt lat="45.25927" lon="4.24161">
        <ele>819.03</ele>
        <time>2015-10-25T08:27:08Z</time>
      </trkpt>
      <trkpt lat="45.25914" lon="4.24184">
        <ele>820</ele>
        <time>2015-10-25T08:27:15Z</time>
      </trkpt>
      <trkpt lat="45.259" lon="4.24208">
        <ele>820.91</ele>
        <time>2015-10-25T08:27:22Z</time>
      </trkpt>
      <trkpt lat="45.25886" lon="4.24227">
        <ele>821.38</ele>
        <time>2015-10-25T08:27:28Z</time>
      </trkpt>
      <trkpt lat="45.2587" lon="4.24246">
        <ele>821.63</ele>
        <time>2015-10-25T08:27:34Z</time>
      </trkpt>
      <trkpt lat="45.25853" lon="4.24264">
        <ele>821.54</ele>
        <time>2015-10-25T08:27:40Z</time>
      </trkpt>
      <trkpt lat="45.25845" lon="4.24286">
        <ele>820.93</ele>
        <time>2015-10-25T08:27:45Z</time>
      </trkpt>
      <trkpt lat="45.25847" lon="4.24314">
        <ele>820.43</ele>
        <time>2015-10-25T08:27:51Z</time>
      </trkpt>
      <trkpt lat="45.25848" lon="4.24343">
        <ele>820.7</ele>
        <time>2015-10-25T08:27:58Z</time>
      </trkpt>
      <trkpt lat="45.2585" lon="4.24371">
        <ele>820.97</ele>
        <time>2015-10-25T08:28:04Z</time>
      </trkpt>
      <trkpt lat="45.25852" lon="4.24401">
        <ele>821.98</ele>
        <time>2015-10-25T08:28:11Z</time>
      </trkpt>
      <trkpt lat="45.25854" lon="4.24431">
        <ele>823.24</ele>
        <time>2015-10-25T08:28:19Z</time>
      </trkpt>
      <trkpt lat="45.25855" lon="4.24466">
        <ele>823.49</ele>
        <time>2015-10-25T08:28:26Z</time>
      </trkpt>
      <trkpt lat="45.25859" lon="4.245">
        <ele>822.85</ele>
        <time>2015-10-25T08:28:31Z</time>
      </trkpt>
      <trkpt lat="45.2586" lon="4.24532">
        <ele>822.01</ele>
        <time>2015-10-25T08:28:35Z</time>
      </trkpt>
      <trkpt lat="45.2586" lon="4.24563">
        <ele>820.69</ele>
        <time>2015-10-25T08:28:40Z</time>
      </trkpt>
      <trkpt lat="45.25866" lon="4.24592">
        <ele>819.44</ele>
        <time>2015-10-25T08:28:45Z</time>
      </trkpt>
      <trkpt lat="45.25871" lon="4.24624">
        <ele>818.61</ele>
        <time>2015-10-25T08:28:50Z</time>
      </trkpt>
      <trkpt lat="45.25877" lon="4.2465">
        <ele>818.28</ele>
        <time>2015-10-25T08:28:55Z</time>
      </trkpt>
      <trkpt lat="45.25885" lon="4.24676">
        <ele>819.67</ele>
        <time>2015-10-25T08:29:02Z</time>
      </trkpt>
      <trkpt lat="45.25892" lon="4.24704">
        <ele>820.97</ele>
        <time>2015-10-25T08:29:10Z</time>
      </trkpt>
      <trkpt lat="45.25897" lon="4.24734">
        <ele>822.85</ele>
        <time>2015-10-25T08:29:20Z</time>
      </trkpt>
      <trkpt lat="45.25902" lon="4.24768">
        <ele>825.99</ele>
        <time>2015-10-25T08:29:31Z</time>
      </trkpt>
      <trkpt lat="45.25906" lon="4.24802">
        <ele>828.16</ele>
        <time>2015-10-25T08:29:39Z</time>
      </trkpt>
      <trkpt lat="45.25915" lon="4.2483">
        <ele>829.28</ele>
        <time>2015-10-25T08:29:47Z</time>
      </trkpt>
      <trkpt lat="45.25919" lon="4.2486">
        <ele>830.48</ele>
        <time>2015-10-25T08:29:54Z</time>
      </trkpt>
      <trkpt lat="45.25931" lon="4.24887">
        <ele>831.4</ele>
        <time>2015-10-25T08:30:01Z</time>
      </trkpt>
      <trkpt lat="45.25947" lon="4.24903">
        <ele>831.93</ele>
        <time>2015-10-25T08:30:09Z</time>
      </trkpt>
      <trkpt lat="45.25967" lon="4.24917">
        <ele>832.78</ele>
        <time>2015-10-25T08:30:17Z</time>
      </trkpt>
      <trkpt lat="45.25988" lon="4.24932">
        <ele>834.29</ele>
        <time>2015-10-25T08:30:25Z</time>
      </trkpt>
      <trkpt lat="45.26005" lon="4.24949">
        <ele>835.6</ele>
        <time>2015-10-25T08:30:32Z</time>
      </trkpt>
      <trkpt lat="45.2602" lon="4.24973">
        <ele>837.33</ele>
        <time>2015-10-25T08:30:40Z</time>
      </trkpt>
      <trkpt lat="45.26034" lon="4.24994">
        <ele>838.57</ele>
        <time>2015-10-25T08:30:47Z</time>
      </trkpt>
      <trkpt lat="45.2605" lon="4.25008">
        <ele>839.85</ele>
        <time>2015-10-25T08:30:53Z</time>
      </trkpt>
      <trkpt lat="45.26066" lon="4.25023">
        <ele>840.47</ele>
        <time>2015-10-25T08:30:59Z</time>
      </trkpt>
      <trkpt lat="45.26084" lon="4.25039">
        <ele>841.05</ele>
        <time>2015-10-25T08:31:06Z</time>
      </trkpt>
      <trkpt lat="45.26101" lon="4.25055">
        <ele>841.52</ele>
        <time>2015-10-25T08:31:12Z</time>
      </trkpt>
      <trkpt lat="45.26119" lon="4.25071">
        <ele>842.53</ele>
        <time>2015-10-25T08:31:18Z</time>
      </trkpt>
      <trkpt lat="45.2614" lon="4.25085">
        <ele>842.83</ele>
        <time>2015-10-25T08:31:24Z</time>
      </trkpt>
      <trkpt lat="45.26158" lon="4.25097">
        <ele>843.14</ele>
        <time>2015-10-25T08:31:29Z</time>
      </trkpt>
      <trkpt lat="45.26177" lon="4.25109">
        <ele>843.19</ele>
        <time>2015-10-25T08:31:34Z</time>
      </trkpt>
      <trkpt lat="45.26196" lon="4.25124">
        <ele>843.19</ele>
        <time>2015-10-25T08:31:39Z</time>
      </trkpt>
      <trkpt lat="45.26213" lon="4.2514">
        <ele>843.35</ele>
        <time>2015-10-25T08:31:44Z</time>
      </trkpt>
      <trkpt lat="45.26232" lon="4.25156">
        <ele>843.48</ele>
        <time>2015-10-25T08:31:50Z</time>
      </trkpt>
      <trkpt lat="45.26249" lon="4.25172">
        <ele>843.61</ele>
        <time>2015-10-25T08:31:55Z</time>
      </trkpt>
      <trkpt lat="45.26264" lon="4.25191">
        <ele>843.6</ele>
        <time>2015-10-25T08:32:00Z</time>
      </trkpt>
      <trkpt lat="45.26275" lon="4.25213">
        <ele>843.75</ele>
        <time>2015-10-25T08:32:06Z</time>
      </trkpt>
      <trkpt lat="45.26289" lon="4.25243">
        <ele>844.3</ele>
        <time>2015-10-25T08:32:14Z</time>
      </trkpt>
      <trkpt lat="45.26302" lon="4.25275">
        <ele>844.11</ele>
        <time>2015-10-25T08:32:19Z</time>
      </trkpt>
      <trkpt lat="45.26313" lon="4.253">
        <ele>843.6</ele>
        <time>2015-10-25T08:32:23Z</time>
      </trkpt>
      <trkpt lat="45.26326" lon="4.25327">
        <ele>842.79</ele>
        <time>2015-10-25T08:32:28Z</time>
      </trkpt>
      <trkpt lat="45.26337" lon="4.25356">
        <ele>842.13</ele>
        <time>2015-10-25T08:32:33Z</time>
      </trkpt>
      <trkpt lat="45.26351" lon="4.25386">
        <ele>841.85</ele>
        <time>2015-10-25T08:32:39Z</time>
      </trkpt>
      <trkpt lat="45.26363" lon="4.25414">
        <ele>841.8</ele>
        <time>2015-10-25T08:32:44Z</time>
      </trkpt>
      <trkpt lat="45.26375" lon="4.25441">
        <ele>842.09</ele>
        <time>2015-10-25T08:32:49Z</time>
      </trkpt>
      <trkpt lat="45.26389" lon="4.25466">
        <ele>842.3</ele>
        <time>2015-10-25T08:32:53Z</time>
      </trkpt>
      <trkpt lat="45.26403" lon="4.25491">
        <ele>842.09</ele>
        <time>2015-10-25T08:32:57Z</time>
      </trkpt>
      <trkpt lat="45.26414" lon="4.25513">
        <ele>841.62</ele>
        <time>2015-10-25T08:33:02Z</time>
      </trkpt>
      <trkpt lat="45.26428" lon="4.25538">
        <ele>841.09</ele>
        <time>2015-10-25T08:33:07Z</time>
      </trkpt>
      <trkpt lat="45.2644" lon="4.25564">
        <ele>840.91</ele>
        <time>2015-10-25T08:33:12Z</time>
      </trkpt>
      <trkpt lat="45.26448" lon="4.25588">
        <ele>840.78</ele>
        <time>2015-10-25T08:33:16Z</time>
      </trkpt>
      <trkpt lat="45.26455" lon="4.25618">
        <ele>840.71</ele>
        <time>2015-10-25T08:33:21Z</time>
      </trkpt>
      <trkpt lat="45.26464" lon="4.25646">
        <ele>840.98</ele>
        <time>2015-10-25T08:33:26Z</time>
      </trkpt>
      <trkpt lat="45.26474" lon="4.25673">
        <ele>841.2</ele>
        <time>2015-10-25T08:33:32Z</time>
      </trkpt>
      <trkpt lat="45.26484" lon="4.25695">
        <ele>842.17</ele>
        <time>2015-10-25T08:33:38Z</time>
      </trkpt>
      <trkpt lat="45.26495" lon="4.25718">
        <ele>844.65</ele>
        <time>2015-10-25T08:33:45Z</time>
      </trkpt>
      <trkpt lat="45.2651" lon="4.25738">
        <ele>846.34</ele>
        <time>2015-10-25T08:33:52Z</time>
      </trkpt>
      <trkpt lat="45.26526" lon="4.25755">
        <ele>847.15</ele>
        <time>2015-10-25T08:33:58Z</time>
      </trkpt>
      <trkpt lat="45.26541" lon="4.25774">
        <ele>847.84</ele>
        <time>2015-10-25T08:34:04Z</time>
      </trkpt>
      <trkpt lat="45.26555" lon="4.25793">
        <ele>848.62</ele>
        <time>2015-10-25T08:34:10Z</time>
      </trkpt>
      <trkpt lat="45.26569" lon="4.25812">
        <ele>849.54</ele>
        <time>2015-10-25T08:34:16Z</time>
      </trkpt>
      <trkpt lat="45.26584" lon="4.25829">
        <ele>850.93</ele>
        <time>2015-10-25T08:34:23Z</time>
      </trkpt>
      <trkpt lat="45.26602" lon="4.25837">
        <ele>853.25</ele>
        <time>2015-10-25T08:34:31Z</time>
      </trkpt>
      <trkpt lat="45.26623" lon="4.25829">
        <ele>855.61</ele>
        <time>2015-10-25T08:34:41Z</time>
      </trkpt>
      <trkpt lat="45.26647" lon="4.25823">
        <ele>857.38</ele>
        <time>2015-10-25T08:34:50Z</time>
      </trkpt>
      <trkpt lat="45.26673" lon="4.25812">
        <ele>858.27</ele>
        <time>2015-10-25T08:34:59Z</time>
      </trkpt>
      <trkpt lat="45.26693" lon="4.25812">
        <ele>859.31</ele>
        <time>2015-10-25T08:35:08Z</time>
      </trkpt>
      <trkpt lat="45.26694" lon="4.2584">
        <ele>860.85</ele>
        <time>2015-10-25T08:35:17Z</time>
      </trkpt>
      <trkpt lat="45.2669" lon="4.25872">
        <ele>862.36</ele>
        <time>2015-10-25T08:35:26Z</time>
      </trkpt>
      <trkpt lat="45.26681" lon="4.25899">
        <ele>862.34</ele>
        <time>2015-10-25T08:35:33Z</time>
      </trkpt>
      <trkpt lat="45.26675" lon="4.25933">
        <ele>861.53</ele>
        <time>2015-10-25T08:35:39Z</time>
      </trkpt>
      <trkpt lat="45.26671" lon="4.25964">
        <ele>860.72</ele>
        <time>2015-10-25T08:35:43Z</time>
      </trkpt>
      <trkpt lat="45.26668" lon="4.25998">
        <ele>858.6</ele>
        <time>2015-10-25T08:35:47Z</time>
      </trkpt>
      <trkpt lat="45.26664" lon="4.2603">
        <ele>856.37</ele>
        <time>2015-10-25T08:35:51Z</time>
      </trkpt>
      <trkpt lat="45.26664" lon="4.26058">
        <ele>854.77</ele>
        <time>2015-10-25T08:35:55Z</time>
      </trkpt>
      <trkpt lat="45.26667" lon="4.26091">
        <ele>853.17</ele>
        <time>2015-10-25T08:35:59Z</time>
      </trkpt>
      <trkpt lat="45.26677" lon="4.26119">
        <ele>852.11</ele>
        <time>2015-10-25T08:36:03Z</time>
      </trkpt>
      <trkpt lat="45.26693" lon="4.2614">
        <ele>851.43</ele>
        <time>2015-10-25T08:36:08Z</time>
      </trkpt>
      <trkpt lat="45.2671" lon="4.2616">
        <ele>851.21</ele>
        <time>2015-10-25T08:36:14Z</time>
      </trkpt>
      <trkpt lat="45.26723" lon="4.26182">
        <ele>851.22</ele>
        <time>2015-10-25T08:36:19Z</time>
      </trkpt>
      <trkpt lat="45.26741" lon="4.26202">
        <ele>851.37</ele>
        <time>2015-10-25T08:36:25Z</time>
      </trkpt>
      <trkpt lat="45.26756" lon="4.26226">
        <ele>851.46</ele>
        <time>2015-10-25T08:36:33Z</time>
      </trkpt>
      <trkpt lat="45.26761" lon="4.26259">
        <ele>851.62</ele>
        <time>2015-10-25T08:36:40Z</time>
      </trkpt>
      <trkpt lat="45.26764" lon="4.26289">
        <ele>851.77</ele>
        <time>2015-10-25T08:36:46Z</time>
      </trkpt>
      <trkpt lat="45.2677" lon="4.26323">
        <ele>851.42</ele>
        <time>2015-10-25T08:36:54Z</time>
      </trkpt>
      <trkpt lat="45.26773" lon="4.26357">
        <ele>850.83</ele>
        <time>2015-10-25T08:36:59Z</time>
      </trkpt>
      <trkpt lat="45.26772" lon="4.26392">
        <ele>849.75</ele>
        <time>2015-10-25T08:37:04Z</time>
      </trkpt>
      <trkpt lat="45.26778" lon="4.26419">
        <ele>848.52</ele>
        <time>2015-10-25T08:37:08Z</time>
      </trkpt>
      <trkpt lat="45.26797" lon="4.26427">
        <ele>846.5</ele>
        <time>2015-10-25T08:37:13Z</time>
      </trkpt>
      <trkpt lat="45.26817" lon="4.26435">
        <ele>844.11</ele>
        <time>2015-10-25T08:37:17Z</time>
      </trkpt>
      <trkpt lat="45.26837" lon="4.26452">
        <ele>842.08</ele>
        <time>2015-10-25T08:37:20Z</time>
      </trkpt>
      <trkpt lat="45.26856" lon="4.26467">
        <ele>839.17</ele>
        <time>2015-10-25T08:37:23Z</time>
      </trkpt>
      <trkpt lat="45.26875" lon="4.26484">
        <ele>837.35</ele>
        <time>2015-10-25T08:37:26Z</time>
      </trkpt>
      <trkpt lat="45.26896" lon="4.26495">
        <ele>835.43</ele>
        <time>2015-10-25T08:37:29Z</time>
      </trkpt>
      <trkpt lat="45.26915" lon="4.26504">
        <ele>833.8</ele>
        <time>2015-10-25T08:37:32Z</time>
      </trkpt>
      <trkpt lat="45.26937" lon="4.26514">
        <ele>832.13</ele>
        <time>2015-10-25T08:37:36Z</time>
      </trkpt>
      <trkpt lat="45.26945" lon="4.26538">
        <ele>830.33</ele>
        <time>2015-10-25T08:37:41Z</time>
      </trkpt>
      <trkpt lat="45.26935" lon="4.26563">
        <ele>829.13</ele>
        <time>2015-10-25T08:37:46Z</time>
      </trkpt>
      <trkpt lat="45.26923" lon="4.26587">
        <ele>829.02</ele>
        <time>2015-10-25T08:37:52Z</time>
      </trkpt>
      <trkpt lat="45.26912" lon="4.26609">
        <ele>829.38</ele>
        <time>2015-10-25T08:37:58Z</time>
      </trkpt>
      <trkpt lat="45.26901" lon="4.26631">
        <ele>830.19</ele>
        <time>2015-10-25T08:38:05Z</time>
      </trkpt>
      <trkpt lat="45.26889" lon="4.26654">
        <ele>831.31</ele>
        <time>2015-10-25T08:38:12Z</time>
      </trkpt>
      <trkpt lat="45.26877" lon="4.26677">
        <ele>831.98</ele>
        <time>2015-10-25T08:38:19Z</time>
      </trkpt>
      <trkpt lat="45.26866" lon="4.267">
        <ele>832.97</ele>
        <time>2015-10-25T08:38:26Z</time>
      </trkpt>
      <trkpt lat="45.26855" lon="4.26724">
        <ele>833.78</ele>
        <time>2015-10-25T08:38:33Z</time>
      </trkpt>
      <trkpt lat="45.26842" lon="4.26747">
        <ele>834.61</ele>
        <time>2015-10-25T08:38:40Z</time>
      </trkpt>
      <trkpt lat="45.2683" lon="4.2677">
        <ele>835.42</ele>
        <time>2015-10-25T08:38:47Z</time>
      </trkpt>
      <trkpt lat="45.26819" lon="4.26795">
        <ele>836.04</ele>
        <time>2015-10-25T08:38:54Z</time>
      </trkpt>
      <trkpt lat="45.2681" lon="4.26821">
        <ele>837</ele>
        <time>2015-10-25T08:39:01Z</time>
      </trkpt>
      <trkpt lat="45.26803" lon="4.26847">
        <ele>838.19</ele>
        <time>2015-10-25T08:39:09Z</time>
      </trkpt>
      <trkpt lat="45.26792" lon="4.26869">
        <ele>839.23</ele>
        <time>2015-10-25T08:39:16Z</time>
      </trkpt>
      <trkpt lat="45.26779" lon="4.2689">
        <ele>840.23</ele>
        <time>2015-10-25T08:39:23Z</time>
      </trkpt>
      <trkpt lat="45.26767" lon="4.2691">
        <ele>840.96</ele>
        <time>2015-10-25T08:39:30Z</time>
      </trkpt>
      <trkpt lat="45.26753" lon="4.26926">
        <ele>842.64</ele>
        <time>2015-10-25T08:39:40Z</time>
      </trkpt>
      <trkpt lat="45.26735" lon="4.2695">
        <ele>845.19</ele>
        <time>2015-10-25T08:39:56Z</time>
      </trkpt>
      <trkpt lat="45.26718" lon="4.26983">
        <ele>847.48</ele>
        <time>2015-10-25T08:40:10Z</time>
      </trkpt>
      <trkpt lat="45.26698" lon="4.27016">
        <ele>850.13</ele>
        <time>2015-10-25T08:40:24Z</time>
      </trkpt>
      <trkpt lat="45.26666" lon="4.27042">
        <ele>853.11</ele>
        <time>2015-10-25T08:40:37Z</time>
      </trkpt>
      <trkpt lat="45.26641" lon="4.27057">
        <ele>855.3</ele>
        <time>2015-10-25T08:40:48Z</time>
      </trkpt>
      <trkpt lat="45.26621" lon="4.27069">
        <ele>856.74</ele>
        <time>2015-10-25T08:40:59Z</time>
      </trkpt>
      <trkpt lat="45.26602" lon="4.27082">
        <ele>859.39</ele>
        <time>2015-10-25T08:41:09Z</time>
      </trkpt>
      <trkpt lat="45.26585" lon="4.27097">
        <ele>861.81</ele>
        <time>2015-10-25T08:41:19Z</time>
      </trkpt>
      <trkpt lat="45.26572" lon="4.27118">
        <ele>863.95</ele>
        <time>2015-10-25T08:41:30Z</time>
      </trkpt>
      <trkpt lat="45.26559" lon="4.27144">
        <ele>865.71</ele>
        <time>2015-10-25T08:41:42Z</time>
      </trkpt>
      <trkpt lat="45.26547" lon="4.27171">
        <ele>867.66</ele>
        <time>2015-10-25T08:41:53Z</time>
      </trkpt>
      <trkpt lat="45.26532" lon="4.27194">
        <ele>869.59</ele>
        <time>2015-10-25T08:42:03Z</time>
      </trkpt>
      <trkpt lat="45.26518" lon="4.27215">
        <ele>871.12</ele>
        <time>2015-10-25T08:42:13Z</time>
      </trkpt>
      <trkpt lat="45.26505" lon="4.27237">
        <ele>872.7</ele>
        <time>2015-10-25T08:42:23Z</time>
      </trkpt>
      <trkpt lat="45.26492" lon="4.27261">
        <ele>873.98</ele>
        <time>2015-10-25T08:42:34Z</time>
      </trkpt>
      <trkpt lat="45.26477" lon="4.27284">
        <ele>875.24</ele>
        <time>2015-10-25T08:42:44Z</time>
      </trkpt>
      <trkpt lat="45.26465" lon="4.27308">
        <ele>876.07</ele>
        <time>2015-10-25T08:42:54Z</time>
      </trkpt>
      <trkpt lat="45.2646" lon="4.27333">
        <ele>876.63</ele>
        <time>2015-10-25T08:43:33Z</time>
      </trkpt>
      <trkpt lat="45.26442" lon="4.27354">
        <ele>877.1</ele>
        <time>2015-10-25T08:43:50Z</time>
      </trkpt>
      <trkpt lat="45.26429" lon="4.27377">
        <ele>877.29</ele>
        <time>2015-10-25T08:43:59Z</time>
      </trkpt>
      <trkpt lat="45.26415" lon="4.27401">
        <ele>876.95</ele>
        <time>2015-10-25T08:44:06Z</time>
      </trkpt>
      <trkpt lat="45.264" lon="4.27424">
        <ele>876.63</ele>
        <time>2015-10-25T08:44:12Z</time>
      </trkpt>
      <trkpt lat="45.26386" lon="4.27446">
        <ele>876.51</ele>
        <time>2015-10-25T08:44:19Z</time>
      </trkpt>
      <trkpt lat="45.2637" lon="4.27469">
        <ele>876.42</ele>
        <time>2015-10-25T08:44:28Z</time>
      </trkpt>
      <trkpt lat="45.26353" lon="4.2749">
        <ele>876.2</ele>
        <time>2015-10-25T08:44:35Z</time>
      </trkpt>
      <trkpt lat="45.26336" lon="4.27507">
        <ele>876.09</ele>
        <time>2015-10-25T08:44:42Z</time>
      </trkpt>
      <trkpt lat="45.26321" lon="4.27531">
        <ele>875.66</ele>
        <time>2015-10-25T08:44:49Z</time>
      </trkpt>
      <trkpt lat="45.26303" lon="4.27552">
        <ele>875.48</ele>
        <time>2015-10-25T08:44:55Z</time>
      </trkpt>
      <trkpt lat="45.26289" lon="4.27576">
        <ele>874.88</ele>
        <time>2015-10-25T08:45:01Z</time>
      </trkpt>
      <trkpt lat="45.26274" lon="4.27595">
        <ele>874.1</ele>
        <time>2015-10-25T08:45:06Z</time>
      </trkpt>
      <trkpt lat="45.26263" lon="4.27623">
        <ele>872.47</ele>
        <time>2015-10-25T08:45:11Z</time>
      </trkpt>
      <trkpt lat="45.2626" lon="4.27651">
        <ele>871.34</ele>
        <time>2015-10-25T08:45:15Z</time>
      </trkpt>
      <trkpt lat="45.26257" lon="4.27686">
        <ele>870.06</ele>
        <time>2015-10-25T08:45:19Z</time>
      </trkpt>
      <trkpt lat="45.2625" lon="4.27713">
        <ele>868.94</ele>
        <time>2015-10-25T08:45:22Z</time>
      </trkpt>
      <trkpt lat="45.26245" lon="4.27741">
        <ele>867.7</ele>
        <time>2015-10-25T08:45:25Z</time>
      </trkpt>
      <trkpt lat="45.26237" lon="4.27771">
        <ele>866.64</ele>
        <time>2015-10-25T08:45:28Z</time>
      </trkpt>
      <trkpt lat="45.26227" lon="4.27799">
        <ele>865.5</ele>
        <time>2015-10-25T08:45:31Z</time>
      </trkpt>
      <trkpt lat="45.26214" lon="4.27824">
        <ele>864.33</ele>
        <time>2015-10-25T08:45:34Z</time>
      </trkpt>
      <trkpt lat="45.26201" lon="4.27849">
        <ele>863.63</ele>
        <time>2015-10-25T08:45:37Z</time>
      </trkpt>
      <trkpt lat="45.26189" lon="4.27873">
        <ele>862.91</ele>
        <time>2015-10-25T08:45:40Z</time>
      </trkpt>
      <trkpt lat="45.26178" lon="4.27897">
        <ele>862.14</ele>
        <time>2015-10-25T08:45:43Z</time>
      </trkpt>
      <trkpt lat="45.26168" lon="4.2792">
        <ele>861.49</ele>
        <time>2015-10-25T08:45:46Z</time>
      </trkpt>
      <trkpt lat="45.26162" lon="4.2795">
        <ele>860.76</ele>
        <time>2015-10-25T08:45:50Z</time>
      </trkpt>
      <trkpt lat="45.26162" lon="4.27975">
        <ele>860.09</ele>
        <time>2015-10-25T08:45:54Z</time>
      </trkpt>
      <trkpt lat="45.26167" lon="4.28003">
        <ele>859.72</ele>
        <time>2015-10-25T08:45:58Z</time>
      </trkpt>
      <trkpt lat="45.26175" lon="4.28031">
        <ele>859.52</ele>
        <time>2015-10-25T08:46:02Z</time>
      </trkpt>
      <trkpt lat="45.26185" lon="4.28056">
        <ele>859.35</ele>
        <time>2015-10-25T08:46:06Z</time>
      </trkpt>
      <trkpt lat="45.26189" lon="4.28082">
        <ele>859</ele>
        <time>2015-10-25T08:46:10Z</time>
      </trkpt>
      <trkpt lat="45.26191" lon="4.28112">
        <ele>858.74</ele>
        <time>2015-10-25T08:46:15Z</time>
      </trkpt>
      <trkpt lat="45.26191" lon="4.28139">
        <ele>858.75</ele>
        <time>2015-10-25T08:46:20Z</time>
      </trkpt>
      <trkpt lat="45.26191" lon="4.28165">
        <ele>859.09</ele>
        <time>2015-10-25T08:46:25Z</time>
      </trkpt>
      <trkpt lat="45.2619" lon="4.28194">
        <ele>859.05</ele>
        <time>2015-10-25T08:46:31Z</time>
      </trkpt>
      <trkpt lat="45.26188" lon="4.28221">
        <ele>859.57</ele>
        <time>2015-10-25T08:46:37Z</time>
      </trkpt>
      <trkpt lat="45.26188" lon="4.28252">
        <ele>860.34</ele>
        <time>2015-10-25T08:46:44Z</time>
      </trkpt>
      <trkpt lat="45.26189" lon="4.28281">
        <ele>862.73</ele>
        <time>2015-10-25T08:46:53Z</time>
      </trkpt>
      <trkpt lat="45.26189" lon="4.28311">
        <ele>864.88</ele>
        <time>2015-10-25T08:47:03Z</time>
      </trkpt>
      <trkpt lat="45.26185" lon="4.28341">
        <ele>868.06</ele>
        <time>2015-10-25T08:47:13Z</time>
      </trkpt>
      <trkpt lat="45.26179" lon="4.2837">
        <ele>870.48</ele>
        <time>2015-10-25T08:47:22Z</time>
      </trkpt>
      <trkpt lat="45.26179" lon="4.28398">
        <ele>871.84</ele>
        <time>2015-10-25T08:47:30Z</time>
      </trkpt>
      <trkpt lat="45.26183" lon="4.28424">
        <ele>872.86</ele>
        <time>2015-10-25T08:47:37Z</time>
      </trkpt>
      <trkpt lat="45.26192" lon="4.28449">
        <ele>874.31</ele>
        <time>2015-10-25T08:47:46Z</time>
      </trkpt>
      <trkpt lat="45.26197" lon="4.28476">
        <ele>876.38</ele>
        <time>2015-10-25T08:47:56Z</time>
      </trkpt>
      <trkpt lat="45.26194" lon="4.28505">
        <ele>878.41</ele>
        <time>2015-10-25T08:48:05Z</time>
      </trkpt>
      <trkpt lat="45.26191" lon="4.28534">
        <ele>878.69</ele>
        <time>2015-10-25T08:48:12Z</time>
      </trkpt>
      <trkpt lat="45.26195" lon="4.28564">
        <ele>878.16</ele>
        <time>2015-10-25T08:48:18Z</time>
      </trkpt>
      <trkpt lat="45.26202" lon="4.28591">
        <ele>878.19</ele>
        <time>2015-10-25T08:48:24Z</time>
      </trkpt>
      <trkpt lat="45.26208" lon="4.28617">
        <ele>878.61</ele>
        <time>2015-10-25T08:48:30Z</time>
      </trkpt>
      <trkpt lat="45.26213" lon="4.28644">
        <ele>878.82</ele>
        <time>2015-10-25T08:48:36Z</time>
      </trkpt>
      <trkpt lat="45.26217" lon="4.28674">
        <ele>879.03</ele>
        <time>2015-10-25T08:48:43Z</time>
      </trkpt>
      <trkpt lat="45.26221" lon="4.28703">
        <ele>879.54</ele>
        <time>2015-10-25T08:48:50Z</time>
      </trkpt>
      <trkpt lat="45.26229" lon="4.2873">
        <ele>880.41</ele>
        <time>2015-10-25T08:48:56Z</time>
      </trkpt>
      <trkpt lat="45.2624" lon="4.28753">
        <ele>881.01</ele>
        <time>2015-10-25T08:49:02Z</time>
      </trkpt>
      <trkpt lat="45.26254" lon="4.28774">
        <ele>881.5</ele>
        <time>2015-10-25T08:49:08Z</time>
      </trkpt>
      <trkpt lat="45.26267" lon="4.28795">
        <ele>882.35</ele>
        <time>2015-10-25T08:49:15Z</time>
      </trkpt>
      <trkpt lat="45.26279" lon="4.28822">
        <ele>883.17</ele>
        <time>2015-10-25T08:49:22Z</time>
      </trkpt>
      <trkpt lat="45.26288" lon="4.28846">
        <ele>883.78</ele>
        <time>2015-10-25T08:49:28Z</time>
      </trkpt>
      <trkpt lat="45.26293" lon="4.28876">
        <ele>884.35</ele>
        <time>2015-10-25T08:49:35Z</time>
      </trkpt>
      <trkpt lat="45.26295" lon="4.28905">
        <ele>884.75</ele>
        <time>2015-10-25T08:49:41Z</time>
      </trkpt>
      <trkpt lat="45.26299" lon="4.28933">
        <ele>885.59</ele>
        <time>2015-10-25T08:49:47Z</time>
      </trkpt>
      <trkpt lat="45.263" lon="4.28959">
        <ele>886.44</ele>
        <time>2015-10-25T08:49:53Z</time>
      </trkpt>
      <trkpt lat="45.26301" lon="4.2899">
        <ele>887.5</ele>
        <time>2015-10-25T08:50:00Z</time>
      </trkpt>
      <trkpt lat="45.26301" lon="4.29016">
        <ele>888.71</ele>
        <time>2015-10-25T08:50:06Z</time>
      </trkpt>
      <trkpt lat="45.263" lon="4.29044">
        <ele>889.56</ele>
        <time>2015-10-25T08:50:12Z</time>
      </trkpt>
      <trkpt lat="45.263" lon="4.29071">
        <ele>889.77</ele>
        <time>2015-10-25T08:50:17Z</time>
      </trkpt>
      <trkpt lat="45.26299" lon="4.29098">
        <ele>889.59</ele>
        <time>2015-10-25T08:50:22Z</time>
      </trkpt>
      <trkpt lat="45.26296" lon="4.29124">
        <ele>889</ele>
        <time>2015-10-25T08:50:26Z</time>
      </trkpt>
      <trkpt lat="45.26295" lon="4.29153">
        <ele>888.12</ele>
        <time>2015-10-25T08:50:30Z</time>
      </trkpt>
      <trkpt lat="45.26297" lon="4.29187">
        <ele>886.82</ele>
        <time>2015-10-25T08:50:34Z</time>
      </trkpt>
      <trkpt lat="45.26302" lon="4.29221">
        <ele>885.35</ele>
        <time>2015-10-25T08:50:38Z</time>
      </trkpt>
      <trkpt lat="45.26301" lon="4.29247">
        <ele>884.12</ele>
        <time>2015-10-25T08:50:41Z</time>
      </trkpt>
      <trkpt lat="45.263" lon="4.29274">
        <ele>882.9</ele>
        <time>2015-10-25T08:50:44Z</time>
      </trkpt>
      <trkpt lat="45.26303" lon="4.29301">
        <ele>881.82</ele>
        <time>2015-10-25T08:50:47Z</time>
      </trkpt>
      <trkpt lat="45.26303" lon="4.29328">
        <ele>880.74</ele>
        <time>2015-10-25T08:50:50Z</time>
      </trkpt>
      <trkpt lat="45.26293" lon="4.29355">
        <ele>879.27</ele>
        <time>2015-10-25T08:50:53Z</time>
      </trkpt>
      <trkpt lat="45.26278" lon="4.2938">
        <ele>877.38</ele>
        <time>2015-10-25T08:50:56Z</time>
      </trkpt>
      <trkpt lat="45.26264" lon="4.29401">
        <ele>876.31</ele>
        <time>2015-10-25T08:50:59Z</time>
      </trkpt>
      <trkpt lat="45.26251" lon="4.29418">
        <ele>875.24</ele>
        <time>2015-10-25T08:51:02Z</time>
      </trkpt>
      <trkpt lat="45.26237" lon="4.29443">
        <ele>873.94</ele>
        <time>2015-10-25T08:51:06Z</time>
      </trkpt>
      <trkpt lat="45.26225" lon="4.29464">
        <ele>873.14</ele>
        <time>2015-10-25T08:51:10Z</time>
      </trkpt>
      <trkpt lat="45.26211" lon="4.29487">
        <ele>872.7</ele>
        <time>2015-10-25T08:51:14Z</time>
      </trkpt>
      <trkpt lat="45.262" lon="4.29509">
        <ele>872.63</ele>
        <time>2015-10-25T08:51:18Z</time>
      </trkpt>
      <trkpt lat="45.26189" lon="4.29529">
        <ele>872.59</ele>
        <time>2015-10-25T08:51:22Z</time>
      </trkpt>
      <trkpt lat="45.26179" lon="4.29551">
        <ele>872.76</ele>
        <time>2015-10-25T08:51:26Z</time>
      </trkpt>
      <trkpt lat="45.26168" lon="4.29573">
        <ele>873.14</ele>
        <time>2015-10-25T08:51:31Z</time>
      </trkpt>
      <trkpt lat="45.26157" lon="4.29597">
        <ele>874.03</ele>
        <time>2015-10-25T08:51:37Z</time>
      </trkpt>
      <trkpt lat="45.26146" lon="4.29619">
        <ele>874.73</ele>
        <time>2015-10-25T08:51:43Z</time>
      </trkpt>
      <trkpt lat="45.26133" lon="4.29639">
        <ele>875.11</ele>
        <time>2015-10-25T08:51:49Z</time>
      </trkpt>
      <trkpt lat="45.26118" lon="4.29661">
        <ele>875.01</ele>
        <time>2015-10-25T08:51:55Z</time>
      </trkpt>
      <trkpt lat="45.26104" lon="4.29679">
        <ele>874.66</ele>
        <time>2015-10-25T08:52:00Z</time>
      </trkpt>
      <trkpt lat="45.26092" lon="4.297">
        <ele>874.27</ele>
        <time>2015-10-25T08:52:05Z</time>
      </trkpt>
      <trkpt lat="45.26078" lon="4.29718">
        <ele>874.22</ele>
        <time>2015-10-25T08:52:10Z</time>
      </trkpt>
      <trkpt lat="45.26065" lon="4.29737">
        <ele>874.23</ele>
        <time>2015-10-25T08:52:15Z</time>
      </trkpt>
      <trkpt lat="45.26051" lon="4.29757">
        <ele>874.22</ele>
        <time>2015-10-25T08:52:20Z</time>
      </trkpt>
      <trkpt lat="45.26036" lon="4.2978">
        <ele>874.29</ele>
        <time>2015-10-25T08:52:26Z</time>
      </trkpt>
      <trkpt lat="45.2602" lon="4.298">
        <ele>874.34</ele>
        <time>2015-10-25T08:52:32Z</time>
      </trkpt>
      <trkpt lat="45.26004" lon="4.29819">
        <ele>874.36</ele>
        <time>2015-10-25T08:52:38Z</time>
      </trkpt>
      <trkpt lat="45.25987" lon="4.29838">
        <ele>874.64</ele>
        <time>2015-10-25T08:52:44Z</time>
      </trkpt>
      <trkpt lat="45.25971" lon="4.29856">
        <ele>874.63</ele>
        <time>2015-10-25T08:52:49Z</time>
      </trkpt>
      <trkpt lat="45.25955" lon="4.29874">
        <ele>874.45</ele>
        <time>2015-10-25T08:52:54Z</time>
      </trkpt>
      <trkpt lat="45.25939" lon="4.29893">
        <ele>874.21</ele>
        <time>2015-10-25T08:52:59Z</time>
      </trkpt>
      <trkpt lat="45.25925" lon="4.2991">
        <ele>873.95</ele>
        <time>2015-10-25T08:53:03Z</time>
      </trkpt>
      <trkpt lat="45.25911" lon="4.29927">
        <ele>873.79</ele>
        <time>2015-10-25T08:53:07Z</time>
      </trkpt>
      <trkpt lat="45.25897" lon="4.29945">
        <ele>873.57</ele>
        <time>2015-10-25T08:53:11Z</time>
      </trkpt>
      <trkpt lat="45.25883" lon="4.29964">
        <ele>873.28</ele>
        <time>2015-10-25T08:53:15Z</time>
      </trkpt>
      <trkpt lat="45.2587" lon="4.29982">
        <ele>872.98</ele>
        <time>2015-10-25T08:53:19Z</time>
      </trkpt>
      <trkpt lat="45.25856" lon="4.30003">
        <ele>872.66</ele>
        <time>2015-10-25T08:53:24Z</time>
      </trkpt>
      <trkpt lat="45.25843" lon="4.30022">
        <ele>872.35</ele>
        <time>2015-10-25T08:53:29Z</time>
      </trkpt>
      <trkpt lat="45.25829" lon="4.30043">
        <ele>872.24</ele>
        <time>2015-10-25T08:53:34Z</time>
      </trkpt>
      <trkpt lat="45.25818" lon="4.30065">
        <ele>872.34</ele>
        <time>2015-10-25T08:53:42Z</time>
      </trkpt>
      <trkpt lat="45.25807" lon="4.3009">
        <ele>872.82</ele>
        <time>2015-10-25T08:53:48Z</time>
      </trkpt>
      <trkpt lat="45.25795" lon="4.30112">
        <ele>873.19</ele>
        <time>2015-10-25T08:53:53Z</time>
      </trkpt>
      <trkpt lat="45.25782" lon="4.30133">
        <ele>872.94</ele>
        <time>2015-10-25T08:53:58Z</time>
      </trkpt>
      <trkpt lat="45.25775" lon="4.30159">
        <ele>871.9</ele>
        <time>2015-10-25T08:54:03Z</time>
      </trkpt>
      <trkpt lat="45.25777" lon="4.30192">
        <ele>871.02</ele>
        <time>2015-10-25T08:54:07Z</time>
      </trkpt>
      <trkpt lat="45.2578" lon="4.30219">
        <ele>870.14</ele>
        <time>2015-10-25T08:54:10Z</time>
      </trkpt>
      <trkpt lat="45.25785" lon="4.3025">
        <ele>868.9</ele>
        <time>2015-10-25T08:54:14Z</time>
      </trkpt>
      <trkpt lat="45.25782" lon="4.3028">
        <ele>867.95</ele>
        <time>2015-10-25T08:54:18Z</time>
      </trkpt>
      <trkpt lat="45.25771" lon="4.30302">
        <ele>867.53</ele>
        <time>2015-10-25T08:54:21Z</time>
      </trkpt>
      <trkpt lat="45.25756" lon="4.30328">
        <ele>867.24</ele>
        <time>2015-10-25T08:54:25Z</time>
      </trkpt>
      <trkpt lat="45.25741" lon="4.30354">
        <ele>867.14</ele>
        <time>2015-10-25T08:54:29Z</time>
      </trkpt>
      <trkpt lat="45.25725" lon="4.30376">
        <ele>866.93</ele>
        <time>2015-10-25T08:54:33Z</time>
      </trkpt>
      <trkpt lat="45.25709" lon="4.30392">
        <ele>867.03</ele>
        <time>2015-10-25T08:54:37Z</time>
      </trkpt>
      <trkpt lat="45.25691" lon="4.30407">
        <ele>867.63</ele>
        <time>2015-10-25T08:54:42Z</time>
      </trkpt>
      <trkpt lat="45.25675" lon="4.3042">
        <ele>868.51</ele>
        <time>2015-10-25T08:54:47Z</time>
      </trkpt>
      <trkpt lat="45.25664" lon="4.30439">
        <ele>869.32</ele>
        <time>2015-10-25T08:54:52Z</time>
      </trkpt>
      <trkpt lat="45.2566" lon="4.30466">
        <ele>870.19</ele>
        <time>2015-10-25T08:54:57Z</time>
      </trkpt>
      <trkpt lat="45.25663" lon="4.30494">
        <ele>870.72</ele>
        <time>2015-10-25T08:55:02Z</time>
      </trkpt>
      <trkpt lat="45.25668" lon="4.30522">
        <ele>871.1</ele>
        <time>2015-10-25T08:55:07Z</time>
      </trkpt>
      <trkpt lat="45.25673" lon="4.30552">
        <ele>871.2</ele>
        <time>2015-10-25T08:55:12Z</time>
      </trkpt>
      <trkpt lat="45.25678" lon="4.3058">
        <ele>871.06</ele>
        <time>2015-10-25T08:55:16Z</time>
      </trkpt>
      <trkpt lat="45.25684" lon="4.30608">
        <ele>871.01</ele>
        <time>2015-10-25T08:55:20Z</time>
      </trkpt>
      <trkpt lat="45.25691" lon="4.30637">
        <ele>870.85</ele>
        <time>2015-10-25T08:55:24Z</time>
      </trkpt>
      <trkpt lat="45.25697" lon="4.30665">
        <ele>870.57</ele>
        <time>2015-10-25T08:55:28Z</time>
      </trkpt>
      <trkpt lat="45.25703" lon="4.30692">
        <ele>870.58</ele>
        <time>2015-10-25T08:55:32Z</time>
      </trkpt>
      <trkpt lat="45.25711" lon="4.30716">
        <ele>870.68</ele>
        <time>2015-10-25T08:55:36Z</time>
      </trkpt>
      <trkpt lat="45.25718" lon="4.30743">
        <ele>870.88</ele>
        <time>2015-10-25T08:55:41Z</time>
      </trkpt>
      <trkpt lat="45.25725" lon="4.30771">
        <ele>871.28</ele>
        <time>2015-10-25T08:55:46Z</time>
      </trkpt>
      <trkpt lat="45.25727" lon="4.30799">
        <ele>871.6</ele>
        <time>2015-10-25T08:55:51Z</time>
      </trkpt>
      <trkpt lat="45.2572" lon="4.30829">
        <ele>872.86</ele>
        <time>2015-10-25T08:55:57Z</time>
      </trkpt>
      <trkpt lat="45.25706" lon="4.30853">
        <ele>873.71</ele>
        <time>2015-10-25T08:56:02Z</time>
      </trkpt>
      <trkpt lat="45.25692" lon="4.30877">
        <ele>873.97</ele>
        <time>2015-10-25T08:56:07Z</time>
      </trkpt>
      <trkpt lat="45.25678" lon="4.309">
        <ele>874.5</ele>
        <time>2015-10-25T08:56:12Z</time>
      </trkpt>
      <trkpt lat="45.25667" lon="4.30924">
        <ele>875.06</ele>
        <time>2015-10-25T08:56:17Z</time>
      </trkpt>
      <trkpt lat="45.25662" lon="4.3095">
        <ele>875.48</ele>
        <time>2015-10-25T08:56:22Z</time>
      </trkpt>
      <trkpt lat="45.25663" lon="4.30977">
        <ele>876.27</ele>
        <time>2015-10-25T08:56:27Z</time>
      </trkpt>
      <trkpt lat="45.25665" lon="4.31005">
        <ele>877.09</ele>
        <time>2015-10-25T08:56:32Z</time>
      </trkpt>
      <trkpt lat="45.25664" lon="4.31035">
        <ele>877.47</ele>
        <time>2015-10-25T08:56:37Z</time>
      </trkpt>
      <trkpt lat="45.25661" lon="4.31066">
        <ele>877.55</ele>
        <time>2015-10-25T08:56:42Z</time>
      </trkpt>
      <trkpt lat="45.25656" lon="4.31097">
        <ele>877.44</ele>
        <time>2015-10-25T08:56:47Z</time>
      </trkpt>
      <trkpt lat="45.25659" lon="4.31128">
        <ele>877.57</ele>
        <time>2015-10-25T08:56:52Z</time>
      </trkpt>
      <trkpt lat="45.25659" lon="4.31155">
        <ele>877.47</ele>
        <time>2015-10-25T08:56:55Z</time>
      </trkpt>
      <trkpt lat="45.25662" lon="4.31187">
        <ele>876.6</ele>
        <time>2015-10-25T08:56:58Z</time>
      </trkpt>
      <trkpt lat="45.25667" lon="4.31221">
        <ele>875.46</ele>
        <time>2015-10-25T08:57:01Z</time>
      </trkpt>
      <trkpt lat="45.25672" lon="4.31253">
        <ele>874.41</ele>
        <time>2015-10-25T08:57:04Z</time>
      </trkpt>
      <trkpt lat="45.25673" lon="4.31284">
        <ele>873.64</ele>
        <time>2015-10-25T08:57:07Z</time>
      </trkpt>
      <trkpt lat="45.25663" lon="4.31315">
        <ele>872.67</ele>
        <time>2015-10-25T08:57:10Z</time>
      </trkpt>
      <trkpt lat="45.25651" lon="4.31347">
        <ele>871.6</ele>
        <time>2015-10-25T08:57:13Z</time>
      </trkpt>
      <trkpt lat="45.25642" lon="4.3138">
        <ele>870.49</ele>
        <time>2015-10-25T08:57:16Z</time>
      </trkpt>
      <trkpt lat="45.25639" lon="4.31416">
        <ele>869.52</ele>
        <time>2015-10-25T08:57:19Z</time>
      </trkpt>
      <trkpt lat="45.25642" lon="4.31454">
        <ele>868.51</ele>
        <time>2015-10-25T08:57:22Z</time>
      </trkpt>
      <trkpt lat="45.25646" lon="4.31479">
        <ele>867.84</ele>
        <time>2015-10-25T08:57:24Z</time>
      </trkpt>
      <trkpt lat="45.25657" lon="4.31514">
        <ele>866.7</ele>
        <time>2015-10-25T08:57:27Z</time>
      </trkpt>
      <trkpt lat="45.25675" lon="4.3154">
        <ele>865.65</ele>
        <time>2015-10-25T08:57:30Z</time>
      </trkpt>
      <trkpt lat="45.25693" lon="4.31559">
        <ele>864.91</ele>
        <time>2015-10-25T08:57:33Z</time>
      </trkpt>
      <trkpt lat="45.2571" lon="4.31575">
        <ele>865.3</ele>
        <time>2015-10-25T08:57:37Z</time>
      </trkpt>
      <trkpt lat="45.25727" lon="4.31591">
        <ele>867.66</ele>
        <time>2015-10-25T08:57:43Z</time>
      </trkpt>
      <trkpt lat="45.25745" lon="4.31606">
        <ele>870.23</ele>
        <time>2015-10-25T08:57:49Z</time>
      </trkpt>
      <trkpt lat="45.25763" lon="4.31615">
        <ele>872.47</ele>
        <time>2015-10-25T08:57:55Z</time>
      </trkpt>
      <trkpt lat="45.25782" lon="4.31619">
        <ele>874.28</ele>
        <time>2015-10-25T08:58:02Z</time>
      </trkpt>
      <trkpt lat="45.25801" lon="4.31626">
        <ele>875.36</ele>
        <time>2015-10-25T08:58:08Z</time>
      </trkpt>
      <trkpt lat="45.2582" lon="4.31631">
        <ele>876.14</ele>
        <time>2015-10-25T08:58:14Z</time>
      </trkpt>
      <trkpt lat="45.2584" lon="4.31636">
        <ele>877.14</ele>
        <time>2015-10-25T08:58:20Z</time>
      </trkpt>
      <trkpt lat="45.2586" lon="4.31641">
        <ele>878.09</ele>
        <time>2015-10-25T08:58:26Z</time>
      </trkpt>
      <trkpt lat="45.25879" lon="4.31646">
        <ele>878.49</ele>
        <time>2015-10-25T08:58:31Z</time>
      </trkpt>
      <trkpt lat="45.25899" lon="4.3165">
        <ele>878.86</ele>
        <time>2015-10-25T08:58:37Z</time>
      </trkpt>
      <trkpt lat="45.2592" lon="4.31656">
        <ele>879.5</ele>
        <time>2015-10-25T08:58:43Z</time>
      </trkpt>
      <trkpt lat="45.25942" lon="4.31662">
        <ele>880.11</ele>
        <time>2015-10-25T08:58:49Z</time>
      </trkpt>
      <trkpt lat="45.25963" lon="4.31667">
        <ele>880.31</ele>
        <time>2015-10-25T08:58:54Z</time>
      </trkpt>
      <trkpt lat="45.25984" lon="4.31672">
        <ele>880.27</ele>
        <time>2015-10-25T08:58:59Z</time>
      </trkpt>
      <trkpt lat="45.26005" lon="4.31681">
        <ele>880.05</ele>
        <time>2015-10-25T08:59:04Z</time>
      </trkpt>
      <trkpt lat="45.26023" lon="4.31698">
        <ele>880.03</ele>
        <time>2015-10-25T08:59:09Z</time>
      </trkpt>
      <trkpt lat="45.26036" lon="4.31719">
        <ele>880.02</ele>
        <time>2015-10-25T08:59:14Z</time>
      </trkpt>
      <trkpt lat="45.26047" lon="4.3174">
        <ele>880.28</ele>
        <time>2015-10-25T08:59:19Z</time>
      </trkpt>
      <trkpt lat="45.26057" lon="4.31763">
        <ele>881.11</ele>
        <time>2015-10-25T08:59:25Z</time>
      </trkpt>
      <trkpt lat="45.26064" lon="4.31789">
        <ele>882.23</ele>
        <time>2015-10-25T08:59:32Z</time>
      </trkpt>
      <trkpt lat="45.26071" lon="4.31815">
        <ele>883.8</ele>
        <time>2015-10-25T08:59:39Z</time>
      </trkpt>
      <trkpt lat="45.26085" lon="4.31835">
        <ele>885.91</ele>
        <time>2015-10-25T08:59:47Z</time>
      </trkpt>
      <trkpt lat="45.26101" lon="4.31852">
        <ele>888.37</ele>
        <time>2015-10-25T08:59:55Z</time>
      </trkpt>
      <trkpt lat="45.26114" lon="4.31874">
        <ele>890.66</ele>
        <time>2015-10-25T09:00:04Z</time>
      </trkpt>
      <trkpt lat="45.26124" lon="4.31898">
        <ele>892.89</ele>
        <time>2015-10-25T09:00:13Z</time>
      </trkpt>
      <trkpt lat="45.26134" lon="4.31912">
        <ele>896.03</ele>
        <time>2015-10-25T09:00:24Z</time>
      </trkpt>
      <trkpt lat="45.26149" lon="4.31892">
        <ele>898.99</ele>
        <time>2015-10-25T09:00:35Z</time>
      </trkpt>
      <trkpt lat="45.26165" lon="4.31876">
        <ele>901.31</ele>
        <time>2015-10-25T09:00:45Z</time>
      </trkpt>
      <trkpt lat="45.26173" lon="4.31852">
        <ele>902.68</ele>
        <time>2015-10-25T09:00:53Z</time>
      </trkpt>
      <trkpt lat="45.26179" lon="4.31822">
        <ele>902.8</ele>
        <time>2015-10-25T09:01:00Z</time>
      </trkpt>
      <trkpt lat="45.26192" lon="4.31798">
        <ele>902.38</ele>
        <time>2015-10-25T09:01:05Z</time>
      </trkpt>
      <trkpt lat="45.26207" lon="4.31769">
        <ele>901.97</ele>
        <time>2015-10-25T09:01:09Z</time>
      </trkpt>
      <trkpt lat="45.2622" lon="4.31749">
        <ele>901.23</ele>
        <time>2015-10-25T09:01:12Z</time>
      </trkpt>
      <trkpt lat="45.26236" lon="4.31731">
        <ele>900.09</ele>
        <time>2015-10-25T09:01:15Z</time>
      </trkpt>
      <trkpt lat="45.26255" lon="4.3172">
        <ele>899.26</ele>
        <time>2015-10-25T09:01:18Z</time>
      </trkpt>
      <trkpt lat="45.26275" lon="4.31711">
        <ele>898.51</ele>
        <time>2015-10-25T09:01:21Z</time>
      </trkpt>
      <trkpt lat="45.26296" lon="4.31702">
        <ele>897.75</ele>
        <time>2015-10-25T09:01:24Z</time>
      </trkpt>
      <trkpt lat="45.26316" lon="4.31694">
        <ele>896.98</ele>
        <time>2015-10-25T09:01:27Z</time>
      </trkpt>
      <trkpt lat="45.26333" lon="4.3169">
        <ele>894.88</ele>
        <time>2015-10-25T09:01:32Z</time>
      </trkpt>
      <trkpt lat="45.26351" lon="4.31685">
        <ele>893.71</ele>
        <time>2015-10-25T09:01:38Z</time>
      </trkpt>
      <trkpt lat="45.26371" lon="4.31684">
        <ele>893.39</ele>
        <time>2015-10-25T09:01:45Z</time>
      </trkpt>
      <trkpt lat="45.2639" lon="4.31684">
        <ele>893.54</ele>
        <time>2015-10-25T09:01:52Z</time>
      </trkpt>
      <trkpt lat="45.26409" lon="4.31686">
        <ele>893.79</ele>
        <time>2015-10-25T09:01:58Z</time>
      </trkpt>
      <trkpt lat="45.26428" lon="4.31689">
        <ele>893.73</ele>
        <time>2015-10-25T09:02:04Z</time>
      </trkpt>
      <trkpt lat="45.26448" lon="4.3169">
        <ele>893.58</ele>
        <time>2015-10-25T09:02:10Z</time>
      </trkpt>
      <trkpt lat="45.2647" lon="4.31693">
        <ele>893.39</ele>
        <time>2015-10-25T09:02:16Z</time>
      </trkpt>
      <trkpt lat="45.26488" lon="4.31701">
        <ele>893</ele>
        <time>2015-10-25T09:02:22Z</time>
      </trkpt>
      <trkpt lat="45.26507" lon="4.31707">
        <ele>892.84</ele>
        <time>2015-10-25T09:02:28Z</time>
      </trkpt>
      <trkpt lat="45.26526" lon="4.31707">
        <ele>892.21</ele>
        <time>2015-10-25T09:02:33Z</time>
      </trkpt>
      <trkpt lat="45.26545" lon="4.31705">
        <ele>891.3</ele>
        <time>2015-10-25T09:02:37Z</time>
      </trkpt>
      <trkpt lat="45.26564" lon="4.31693">
        <ele>889.49</ele>
        <time>2015-10-25T09:02:41Z</time>
      </trkpt>
      <trkpt lat="45.26587" lon="4.31682">
        <ele>887.47</ele>
        <time>2015-10-25T09:02:45Z</time>
      </trkpt>
      <trkpt lat="45.26608" lon="4.31676">
        <ele>885.21</ele>
        <time>2015-10-25T09:02:49Z</time>
      </trkpt>
      <trkpt lat="45.26622" lon="4.31661">
        <ele>883.49</ele>
        <time>2015-10-25T09:02:53Z</time>
      </trkpt>
      <trkpt lat="45.26637" lon="4.31632">
        <ele>882.02</ele>
        <time>2015-10-25T09:02:58Z</time>
      </trkpt>
      <trkpt lat="45.26656" lon="4.31609">
        <ele>880.62</ele>
        <time>2015-10-25T09:03:02Z</time>
      </trkpt>
      <trkpt lat="45.26673" lon="4.31592">
        <ele>879.55</ele>
        <time>2015-10-25T09:03:05Z</time>
      </trkpt>
      <trkpt lat="45.2669" lon="4.31574">
        <ele>878.5</ele>
        <time>2015-10-25T09:03:09Z</time>
      </trkpt>
      <trkpt lat="45.26711" lon="4.31553">
        <ele>875.35</ele>
        <time>2015-10-25T09:03:27Z</time>
      </trkpt>
      <trkpt lat="45.26712" lon="4.31579">
        <ele>876.54</ele>
        <time>2015-10-25T09:03:46Z</time>
      </trkpt>
      <trkpt lat="45.26703" lon="4.31603">
        <ele>879.66</ele>
        <time>2015-10-25T09:03:57Z</time>
      </trkpt>
      <trkpt lat="45.26696" lon="4.31628">
        <ele>882.47</ele>
        <time>2015-10-25T09:04:09Z</time>
      </trkpt>
      <trkpt lat="45.26695" lon="4.31667">
        <ele>885.1</ele>
        <time>2015-10-25T09:04:20Z</time>
      </trkpt>
      <trkpt lat="45.26693" lon="4.31706">
        <ele>886.94</ele>
        <time>2015-10-25T09:04:31Z</time>
      </trkpt>
      <trkpt lat="45.26695" lon="4.31743">
        <ele>887.75</ele>
        <time>2015-10-25T09:04:40Z</time>
      </trkpt>
      <trkpt lat="45.26708" lon="4.31771">
        <ele>888.3</ele>
        <time>2015-10-25T09:04:47Z</time>
      </trkpt>
      <trkpt lat="45.26719" lon="4.31802">
        <ele>887.91</ele>
        <time>2015-10-25T09:04:53Z</time>
      </trkpt>
      <trkpt lat="45.26723" lon="4.31834">
        <ele>887.77</ele>
        <time>2015-10-25T09:05:00Z</time>
      </trkpt>
      <trkpt lat="45.26723" lon="4.31868">
        <ele>888.02</ele>
        <time>2015-10-25T09:05:07Z</time>
      </trkpt>
      <trkpt lat="45.26717" lon="4.31897">
        <ele>888.33</ele>
        <time>2015-10-25T09:05:14Z</time>
      </trkpt>
      <trkpt lat="45.26713" lon="4.31925">
        <ele>889.17</ele>
        <time>2015-10-25T09:05:21Z</time>
      </trkpt>
      <trkpt lat="45.26708" lon="4.31953">
        <ele>890.47</ele>
        <time>2015-10-25T09:05:28Z</time>
      </trkpt>
      <trkpt lat="45.26703" lon="4.31978">
        <ele>891.62</ele>
        <time>2015-10-25T09:05:34Z</time>
      </trkpt>
      <trkpt lat="45.26699" lon="4.32005">
        <ele>892.53</ele>
        <time>2015-10-25T09:05:39Z</time>
      </trkpt>
      <trkpt lat="45.26696" lon="4.32031">
        <ele>893.81</ele>
        <time>2015-10-25T09:05:45Z</time>
      </trkpt>
      <trkpt lat="45.26694" lon="4.3206">
        <ele>895.54</ele>
        <time>2015-10-25T09:05:52Z</time>
      </trkpt>
      <trkpt lat="45.26696" lon="4.32087">
        <ele>897.03</ele>
        <time>2015-10-25T09:05:59Z</time>
      </trkpt>
      <trkpt lat="45.26702" lon="4.32113">
        <ele>898.39</ele>
        <time>2015-10-25T09:06:06Z</time>
      </trkpt>
      <trkpt lat="45.2671" lon="4.32139">
        <ele>899.79</ele>
        <time>2015-10-25T09:06:10Z</time>
      </trkpt>
      <trkpt lat="45.26718" lon="4.32164">
        <ele>900.62</ele>
        <time>2015-10-25T09:06:16Z</time>
      </trkpt>
      <trkpt lat="45.26726" lon="4.32192">
        <ele>900.9</ele>
        <time>2015-10-25T09:06:22Z</time>
      </trkpt>
      <trkpt lat="45.26733" lon="4.32217">
        <ele>901.4</ele>
        <time>2015-10-25T09:06:28Z</time>
      </trkpt>
      <trkpt lat="45.26743" lon="4.32243">
        <ele>902.09</ele>
        <time>2015-10-25T09:06:34Z</time>
      </trkpt>
      <trkpt lat="45.26752" lon="4.3227">
        <ele>902.54</ele>
        <time>2015-10-25T09:06:40Z</time>
      </trkpt>
      <trkpt lat="45.26757" lon="4.32299">
        <ele>902.46</ele>
        <time>2015-10-25T09:06:46Z</time>
      </trkpt>
      <trkpt lat="45.26764" lon="4.32325">
        <ele>902.9</ele>
        <time>2015-10-25T09:06:52Z</time>
      </trkpt>
      <trkpt lat="45.26775" lon="4.3235">
        <ele>903.5</ele>
        <time>2015-10-25T09:06:58Z</time>
      </trkpt>
      <trkpt lat="45.26784" lon="4.32377">
        <ele>904.11</ele>
        <time>2015-10-25T09:07:04Z</time>
      </trkpt>
      <trkpt lat="45.26786" lon="4.32403">
        <ele>904.72</ele>
        <time>2015-10-25T09:07:10Z</time>
      </trkpt>
      <trkpt lat="45.26791" lon="4.32432">
        <ele>906.71</ele>
        <time>2015-10-25T09:07:17Z</time>
      </trkpt>
      <trkpt lat="45.26795" lon="4.32459">
        <ele>908.86</ele>
        <time>2015-10-25T09:07:24Z</time>
      </trkpt>
      <trkpt lat="45.26794" lon="4.32489">
        <ele>910.11</ele>
        <time>2015-10-25T09:07:30Z</time>
      </trkpt>
      <trkpt lat="45.26792" lon="4.32519">
        <ele>910.89</ele>
        <time>2015-10-25T09:07:36Z</time>
      </trkpt>
      <trkpt lat="45.2679" lon="4.32548">
        <ele>911.71</ele>
        <time>2015-10-25T09:07:42Z</time>
      </trkpt>
      <trkpt lat="45.2679" lon="4.32578">
        <ele>912.27</ele>
        <time>2015-10-25T09:07:47Z</time>
      </trkpt>
      <trkpt lat="45.26786" lon="4.32603">
        <ele>911.81</ele>
        <time>2015-10-25T09:07:50Z</time>
      </trkpt>
      <trkpt lat="45.26779" lon="4.32633">
        <ele>910.94</ele>
        <time>2015-10-25T09:07:53Z</time>
      </trkpt>
      <trkpt lat="45.26771" lon="4.32663">
        <ele>909.73</ele>
        <time>2015-10-25T09:07:56Z</time>
      </trkpt>
      <trkpt lat="45.26765" lon="4.32692">
        <ele>908.67</ele>
        <time>2015-10-25T09:07:59Z</time>
      </trkpt>
      <trkpt lat="45.2676" lon="4.32718">
        <ele>908.07</ele>
        <time>2015-10-25T09:08:02Z</time>
      </trkpt>
      <trkpt lat="45.26752" lon="4.32744">
        <ele>908.09</ele>
        <time>2015-10-25T09:08:06Z</time>
      </trkpt>
      <trkpt lat="45.26743" lon="4.32769">
        <ele>908.84</ele>
        <time>2015-10-25T09:08:11Z</time>
      </trkpt>
      <trkpt lat="45.26733" lon="4.32795">
        <ele>910.39</ele>
        <time>2015-10-25T09:08:17Z</time>
      </trkpt>
      <trkpt lat="45.26724" lon="4.32823">
        <ele>911.72</ele>
        <time>2015-10-25T09:08:23Z</time>
      </trkpt>
      <trkpt lat="45.26716" lon="4.32847">
        <ele>912.94</ele>
        <time>2015-10-25T09:08:28Z</time>
      </trkpt>
      <trkpt lat="45.26707" lon="4.32872">
        <ele>914.06</ele>
        <time>2015-10-25T09:08:33Z</time>
      </trkpt>
      <trkpt lat="45.26702" lon="4.32897">
        <ele>915.13</ele>
        <time>2015-10-25T09:08:38Z</time>
      </trkpt>
      <trkpt lat="45.26697" lon="4.32924">
        <ele>915.56</ele>
        <time>2015-10-25T09:08:43Z</time>
      </trkpt>
      <trkpt lat="45.26694" lon="4.32952">
        <ele>915.66</ele>
        <time>2015-10-25T09:08:50Z</time>
      </trkpt>
      <trkpt lat="45.26697" lon="4.32976">
        <ele>915.25</ele>
        <time>2015-10-25T09:09:44Z</time>
      </trkpt>
      <trkpt lat="45.2669" lon="4.33005">
        <ele>915.56</ele>
        <time>2015-10-25T09:10:15Z</time>
      </trkpt>
      <trkpt lat="45.26681" lon="4.33031">
        <ele>916.6</ele>
        <time>2015-10-25T09:10:25Z</time>
      </trkpt>
      <trkpt lat="45.26675" lon="4.33057">
        <ele>916.72</ele>
        <time>2015-10-25T09:10:31Z</time>
      </trkpt>
      <trkpt lat="45.26668" lon="4.33082">
        <ele>916.46</ele>
        <time>2015-10-25T09:10:37Z</time>
      </trkpt>
      <trkpt lat="45.26663" lon="4.3311">
        <ele>916.38</ele>
        <time>2015-10-25T09:10:43Z</time>
      </trkpt>
      <trkpt lat="45.26659" lon="4.33136">
        <ele>916.73</ele>
        <time>2015-10-25T09:10:49Z</time>
      </trkpt>
      <trkpt lat="45.26653" lon="4.33164">
        <ele>917.01</ele>
        <time>2015-10-25T09:10:56Z</time>
      </trkpt>
      <trkpt lat="45.26643" lon="4.33196">
        <ele>917.56</ele>
        <time>2015-10-25T09:11:02Z</time>
      </trkpt>
      <trkpt lat="45.26635" lon="4.33223">
        <ele>917.49</ele>
        <time>2015-10-25T09:11:07Z</time>
      </trkpt>
      <trkpt lat="45.26629" lon="4.33246">
        <ele>917.4</ele>
        <time>2015-10-25T09:11:12Z</time>
      </trkpt>
      <trkpt lat="45.26622" lon="4.33273">
        <ele>917.46</ele>
        <time>2015-10-25T09:11:18Z</time>
      </trkpt>
      <trkpt lat="45.26618" lon="4.33302">
        <ele>917.83</ele>
        <time>2015-10-25T09:11:24Z</time>
      </trkpt>
      <trkpt lat="45.26611" lon="4.3333">
        <ele>918.56</ele>
        <time>2015-10-25T09:11:30Z</time>
      </trkpt>
      <trkpt lat="45.26602" lon="4.33353">
        <ele>919.43</ele>
        <time>2015-10-25T09:11:36Z</time>
      </trkpt>
      <trkpt lat="45.26595" lon="4.33376">
        <ele>920.18</ele>
        <time>2015-10-25T09:11:42Z</time>
      </trkpt>
      <trkpt lat="45.2659" lon="4.33405">
        <ele>920.95</ele>
        <time>2015-10-25T09:11:48Z</time>
      </trkpt>
      <trkpt lat="45.26585" lon="4.3343">
        <ele>921.3</ele>
        <time>2015-10-25T09:11:53Z</time>
      </trkpt>
      <trkpt lat="45.26578" lon="4.33455">
        <ele>921.58</ele>
        <time>2015-10-25T09:11:58Z</time>
      </trkpt>
      <trkpt lat="45.26571" lon="4.3348">
        <ele>921.97</ele>
        <time>2015-10-25T09:12:03Z</time>
      </trkpt>
      <trkpt lat="45.26564" lon="4.33504">
        <ele>922.32</ele>
        <time>2015-10-25T09:12:08Z</time>
      </trkpt>
      <trkpt lat="45.26563" lon="4.3353">
        <ele>922.96</ele>
        <time>2015-10-25T09:12:13Z</time>
      </trkpt>
      <trkpt lat="45.2657" lon="4.33557">
        <ele>923.78</ele>
        <time>2015-10-25T09:12:19Z</time>
      </trkpt>
      <trkpt lat="45.26579" lon="4.33582">
        <ele>924.22</ele>
        <time>2015-10-25T09:12:25Z</time>
      </trkpt>
      <trkpt lat="45.26591" lon="4.33605">
        <ele>924.21</ele>
        <time>2015-10-25T09:12:31Z</time>
      </trkpt>
      <trkpt lat="45.26605" lon="4.33626">
        <ele>923.84</ele>
        <time>2015-10-25T09:12:36Z</time>
      </trkpt>
      <trkpt lat="45.2662" lon="4.33649">
        <ele>922.95</ele>
        <time>2015-10-25T09:12:40Z</time>
      </trkpt>
      <trkpt lat="45.26638" lon="4.33669">
        <ele>921.9</ele>
        <time>2015-10-25T09:12:44Z</time>
      </trkpt>
      <trkpt lat="45.2666" lon="4.33668">
        <ele>921.23</ele>
        <time>2015-10-25T09:12:48Z</time>
      </trkpt>
      <trkpt lat="45.26682" lon="4.3366">
        <ele>920.91</ele>
        <time>2015-10-25T09:12:52Z</time>
      </trkpt>
      <trkpt lat="45.26701" lon="4.3366">
        <ele>920.56</ele>
        <time>2015-10-25T09:12:57Z</time>
      </trkpt>
      <trkpt lat="45.26716" lon="4.33678">
        <ele>921.09</ele>
        <time>2015-10-25T09:13:03Z</time>
      </trkpt>
      <trkpt lat="45.26735" lon="4.33689">
        <ele>923.12</ele>
        <time>2015-10-25T09:13:11Z</time>
      </trkpt>
      <trkpt lat="45.26752" lon="4.33702">
        <ele>925.02</ele>
        <time>2015-10-25T09:13:19Z</time>
      </trkpt>
      <trkpt lat="45.26766" lon="4.33725">
        <ele>927.75</ele>
        <time>2015-10-25T09:13:27Z</time>
      </trkpt>
      <trkpt lat="45.26778" lon="4.33751">
        <ele>929.21</ele>
        <time>2015-10-25T09:13:34Z</time>
      </trkpt>
      <trkpt lat="45.26784" lon="4.33777">
        <ele>929.94</ele>
        <time>2015-10-25T09:13:40Z</time>
      </trkpt>
      <trkpt lat="45.26788" lon="4.33806">
        <ele>930.33</ele>
        <time>2015-10-25T09:13:46Z</time>
      </trkpt>
      <trkpt lat="45.26791" lon="4.33837">
        <ele>930.6</ele>
        <time>2015-10-25T09:13:52Z</time>
      </trkpt>
      <trkpt lat="45.26795" lon="4.33863">
        <ele>930.71</ele>
        <time>2015-10-25T09:13:57Z</time>
      </trkpt>
      <trkpt lat="45.26805" lon="4.33889">
        <ele>930.59</ele>
        <time>2015-10-25T09:14:02Z</time>
      </trkpt>
      <trkpt lat="45.26814" lon="4.33914">
        <ele>930.68</ele>
        <time>2015-10-25T09:14:07Z</time>
      </trkpt>
      <trkpt lat="45.26826" lon="4.33938">
        <ele>931.04</ele>
        <time>2015-10-25T09:14:13Z</time>
      </trkpt>
      <trkpt lat="45.26837" lon="4.33961">
        <ele>932.03</ele>
        <time>2015-10-25T09:14:19Z</time>
      </trkpt>
      <trkpt lat="45.26845" lon="4.33986">
        <ele>933.81</ele>
        <time>2015-10-25T09:14:26Z</time>
      </trkpt>
      <trkpt lat="45.2685" lon="4.34014">
        <ele>935.7</ele>
        <time>2015-10-25T09:14:34Z</time>
      </trkpt>
      <trkpt lat="45.26852" lon="4.3404">
        <ele>938.2</ele>
        <time>2015-10-25T09:14:42Z</time>
      </trkpt>
      <trkpt lat="45.26853" lon="4.34068">
        <ele>941.86</ele>
        <time>2015-10-25T09:14:52Z</time>
      </trkpt>
      <trkpt lat="45.26858" lon="4.34096">
        <ele>944.74</ele>
        <time>2015-10-25T09:15:01Z</time>
      </trkpt>
      <trkpt lat="45.26859" lon="4.34121">
        <ele>948.14</ele>
        <time>2015-10-25T09:15:10Z</time>
      </trkpt>
      <trkpt lat="45.26849" lon="4.34146">
        <ele>949.91</ele>
        <time>2015-10-25T09:15:18Z</time>
      </trkpt>
      <trkpt lat="45.26838" lon="4.3417">
        <ele>951.3</ele>
        <time>2015-10-25T09:15:25Z</time>
      </trkpt>
      <trkpt lat="45.26829" lon="4.34194">
        <ele>952.57</ele>
        <time>2015-10-25T09:15:32Z</time>
      </trkpt>
      <trkpt lat="45.26829" lon="4.34221">
        <ele>953.97</ele>
        <time>2015-10-25T09:15:39Z</time>
      </trkpt>
      <trkpt lat="45.26829" lon="4.3425">
        <ele>955.7</ele>
        <time>2015-10-25T09:15:47Z</time>
      </trkpt>
      <trkpt lat="45.26828" lon="4.34279">
        <ele>957.13</ele>
        <time>2015-10-25T09:15:55Z</time>
      </trkpt>
      <trkpt lat="45.26825" lon="4.34309">
        <ele>957.99</ele>
        <time>2015-10-25T09:16:02Z</time>
      </trkpt>
      <trkpt lat="45.2682" lon="4.34337">
        <ele>958.49</ele>
        <time>2015-10-25T09:16:09Z</time>
      </trkpt>
      <trkpt lat="45.26816" lon="4.34364">
        <ele>959.14</ele>
        <time>2015-10-25T09:16:16Z</time>
      </trkpt>
      <trkpt lat="45.26811" lon="4.3439">
        <ele>959.8</ele>
        <time>2015-10-25T09:16:25Z</time>
      </trkpt>
      <trkpt lat="45.2682" lon="4.34402">
        <ele>960.1</ele>
        <time>2015-10-25T09:16:36Z</time>
      </trkpt>
      <trkpt lat="45.2684" lon="4.34396">
        <ele>960</ele>
        <time>2015-10-25T09:16:44Z</time>
      </trkpt>
      <trkpt lat="45.26859" lon="4.3438">
        <ele>959.9</ele>
        <time>2015-10-25T09:16:50Z</time>
      </trkpt>
      <trkpt lat="45.26881" lon="4.34385">
        <ele>959.37</ele>
        <time>2015-10-25T09:16:55Z</time>
      </trkpt>
      <trkpt lat="45.26896" lon="4.34403">
        <ele>958.85</ele>
        <time>2015-10-25T09:16:58Z</time>
      </trkpt>
      <trkpt lat="45.26913" lon="4.34423">
        <ele>957.85</ele>
        <time>2015-10-25T09:17:01Z</time>
      </trkpt>
      <trkpt lat="45.26928" lon="4.34444">
        <ele>956.47</ele>
        <time>2015-10-25T09:17:04Z</time>
      </trkpt>
      <trkpt lat="45.26934" lon="4.34474">
        <ele>954.91</ele>
        <time>2015-10-25T09:17:07Z</time>
      </trkpt>
      <trkpt lat="45.26938" lon="4.34507">
        <ele>953.05</ele>
        <time>2015-10-25T09:17:10Z</time>
      </trkpt>
      <trkpt lat="45.2694" lon="4.34535">
        <ele>949.93</ele>
        <time>2015-10-25T09:17:13Z</time>
      </trkpt>
      <trkpt lat="45.26948" lon="4.34558">
        <ele>947.33</ele>
        <time>2015-10-25T09:17:16Z</time>
      </trkpt>
      <trkpt lat="45.26971" lon="4.34569">
        <ele>944.46</ele>
        <time>2015-10-25T09:17:19Z</time>
      </trkpt>
      <trkpt lat="45.26994" lon="4.34577">
        <ele>940.16</ele>
        <time>2015-10-25T09:17:23Z</time>
      </trkpt>
      <trkpt lat="45.27009" lon="4.34561">
        <ele>936.77</ele>
        <time>2015-10-25T09:17:27Z</time>
      </trkpt>
      <trkpt lat="45.2702" lon="4.34534">
        <ele>934.7</ele>
        <time>2015-10-25T09:17:31Z</time>
      </trkpt>
      <trkpt lat="45.27029" lon="4.34504">
        <ele>933.37</ele>
        <time>2015-10-25T09:17:35Z</time>
      </trkpt>
      <trkpt lat="45.27039" lon="4.34477">
        <ele>932.21</ele>
        <time>2015-10-25T09:17:39Z</time>
      </trkpt>
      <trkpt lat="45.27054" lon="4.34455">
        <ele>931.66</ele>
        <time>2015-10-25T09:17:43Z</time>
      </trkpt>
      <trkpt lat="45.27068" lon="4.34434">
        <ele>930.96</ele>
        <time>2015-10-25T09:17:46Z</time>
      </trkpt>
      <trkpt lat="45.27083" lon="4.34408">
        <ele>929.71</ele>
        <time>2015-10-25T09:17:50Z</time>
      </trkpt>
      <trkpt lat="45.27099" lon="4.34387">
        <ele>927.99</ele>
        <time>2015-10-25T09:17:54Z</time>
      </trkpt>
      <trkpt lat="45.2712" lon="4.34377">
        <ele>924.68</ele>
        <time>2015-10-25T09:18:01Z</time>
      </trkpt>
      <trkpt lat="45.27139" lon="4.34377">
        <ele>919.53</ele>
        <time>2015-10-25T09:18:09Z</time>
      </trkpt>
      <trkpt lat="45.27146" lon="4.34406">
        <ele>917.29</ele>
        <time>2015-10-25T09:18:14Z</time>
      </trkpt>
      <trkpt lat="45.27147" lon="4.34434">
        <ele>916.44</ele>
        <time>2015-10-25T09:18:18Z</time>
      </trkpt>
      <trkpt lat="45.27145" lon="4.34463">
        <ele>915.71</ele>
        <time>2015-10-25T09:18:22Z</time>
      </trkpt>
      <trkpt lat="45.27142" lon="4.34494">
        <ele>913.99</ele>
        <time>2015-10-25T09:18:28Z</time>
      </trkpt>
      <trkpt lat="45.27146" lon="4.34527">
        <ele>913.47</ele>
        <time>2015-10-25T09:18:34Z</time>
      </trkpt>
      <trkpt lat="45.27144" lon="4.34558">
        <ele>913.61</ele>
        <time>2015-10-25T09:18:39Z</time>
      </trkpt>
      <trkpt lat="45.27135" lon="4.34589">
        <ele>913.73</ele>
        <time>2015-10-25T09:18:44Z</time>
      </trkpt>
      <trkpt lat="45.27121" lon="4.34624">
        <ele>913.71</ele>
        <time>2015-10-25T09:18:51Z</time>
      </trkpt>
      <trkpt lat="45.27111" lon="4.34657">
        <ele>913.43</ele>
        <time>2015-10-25T09:18:57Z</time>
      </trkpt>
      <trkpt lat="45.27099" lon="4.34693">
        <ele>912.57</ele>
        <time>2015-10-25T09:19:03Z</time>
      </trkpt>
      <trkpt lat="45.27091" lon="4.34722">
        <ele>911.59</ele>
        <time>2015-10-25T09:19:08Z</time>
      </trkpt>
      <trkpt lat="45.27088" lon="4.3476">
        <ele>909.8</ele>
        <time>2015-10-25T09:19:15Z</time>
      </trkpt>
      <trkpt lat="45.27075" lon="4.34797">
        <ele>908.57</ele>
        <time>2015-10-25T09:19:19Z</time>
      </trkpt>
      <trkpt lat="45.2706" lon="4.34818">
        <ele>907.21</ele>
        <time>2015-10-25T09:19:22Z</time>
      </trkpt>
      <trkpt lat="45.27038" lon="4.3484">
        <ele>905.48</ele>
        <time>2015-10-25T09:19:26Z</time>
      </trkpt>
      <trkpt lat="45.27018" lon="4.34851">
        <ele>904.33</ele>
        <time>2015-10-25T09:19:29Z</time>
      </trkpt>
      <trkpt lat="45.26997" lon="4.34853">
        <ele>902.33</ele>
        <time>2015-10-25T09:19:32Z</time>
      </trkpt>
      <trkpt lat="45.26978" lon="4.34839">
        <ele>901.2</ele>
        <time>2015-10-25T09:19:36Z</time>
      </trkpt>
      <trkpt lat="45.26959" lon="4.34824">
        <ele>900.66</ele>
        <time>2015-10-25T09:19:40Z</time>
      </trkpt>
      <trkpt lat="45.26941" lon="4.34809">
        <ele>900.44</ele>
        <time>2015-10-25T09:19:44Z</time>
      </trkpt>
      <trkpt lat="45.26918" lon="4.34798">
        <ele>899.35</ele>
        <time>2015-10-25T09:19:49Z</time>
      </trkpt>
      <trkpt lat="45.26892" lon="4.34797">
        <ele>898.68</ele>
        <time>2015-10-25T09:19:54Z</time>
      </trkpt>
      <trkpt lat="45.26869" lon="4.34809">
        <ele>898.38</ele>
        <time>2015-10-25T09:19:58Z</time>
      </trkpt>
      <trkpt lat="45.26856" lon="4.34825">
        <ele>897.68</ele>
        <time>2015-10-25T09:20:02Z</time>
      </trkpt>
      <trkpt lat="45.26854" lon="4.34853">
        <ele>896.92</ele>
        <time>2015-10-25T09:20:07Z</time>
      </trkpt>
      <trkpt lat="45.26856" lon="4.34882">
        <ele>897.04</ele>
        <time>2015-10-25T09:20:12Z</time>
      </trkpt>
      <trkpt lat="45.26857" lon="4.34907">
        <ele>897.63</ele>
        <time>2015-10-25T09:20:17Z</time>
      </trkpt>
      <trkpt lat="45.26862" lon="4.34934">
        <ele>899.32</ele>
        <time>2015-10-25T09:20:24Z</time>
      </trkpt>
      <trkpt lat="45.26859" lon="4.34966">
        <ele>901.8</ele>
        <time>2015-10-25T09:20:34Z</time>
      </trkpt>
      <trkpt lat="45.26852" lon="4.34999">
        <ele>904.1</ele>
        <time>2015-10-25T09:20:44Z</time>
      </trkpt>
      <trkpt lat="45.26848" lon="4.35034">
        <ele>905.58</ele>
        <time>2015-10-25T09:20:53Z</time>
      </trkpt>
      <trkpt lat="45.26848" lon="4.35072">
        <ele>905.32</ele>
        <time>2015-10-25T09:21:00Z</time>
      </trkpt>
      <trkpt lat="45.26852" lon="4.35104">
        <ele>905</ele>
        <time>2015-10-25T09:21:07Z</time>
      </trkpt>
      <trkpt lat="45.26862" lon="4.35133">
        <ele>905.26</ele>
        <time>2015-10-25T09:21:14Z</time>
      </trkpt>
      <trkpt lat="45.26866" lon="4.35163">
        <ele>905.67</ele>
        <time>2015-10-25T09:21:19Z</time>
      </trkpt>
      <trkpt lat="45.26869" lon="4.35196">
        <ele>907.48</ele>
        <time>2015-10-25T09:21:27Z</time>
      </trkpt>
      <trkpt lat="45.26872" lon="4.35233">
        <ele>907.87</ele>
        <time>2015-10-25T09:21:34Z</time>
      </trkpt>
      <trkpt lat="45.26865" lon="4.35264">
        <ele>907.12</ele>
        <time>2015-10-25T09:21:39Z</time>
      </trkpt>
      <trkpt lat="45.26852" lon="4.35289">
        <ele>905.87</ele>
        <time>2015-10-25T09:21:43Z</time>
      </trkpt>
      <trkpt lat="45.26832" lon="4.35313">
        <ele>904.84</ele>
        <time>2015-10-25T09:21:47Z</time>
      </trkpt>
      <trkpt lat="45.26818" lon="4.3534">
        <ele>903.97</ele>
        <time>2015-10-25T09:21:51Z</time>
      </trkpt>
      <trkpt lat="45.26813" lon="4.35371">
        <ele>903.36</ele>
        <time>2015-10-25T09:21:55Z</time>
      </trkpt>
      <trkpt lat="45.26815" lon="4.35401">
        <ele>902.96</ele>
        <time>2015-10-25T09:21:59Z</time>
      </trkpt>
      <trkpt lat="45.26817" lon="4.35428">
        <ele>903.18</ele>
        <time>2015-10-25T09:22:04Z</time>
      </trkpt>
      <trkpt lat="45.2681" lon="4.35458">
        <ele>903.69</ele>
        <time>2015-10-25T09:22:09Z</time>
      </trkpt>
      <trkpt lat="45.26803" lon="4.35487">
        <ele>903.36</ele>
        <time>2015-10-25T09:22:13Z</time>
      </trkpt>
      <trkpt lat="45.26797" lon="4.35519">
        <ele>902.76</ele>
        <time>2015-10-25T09:22:17Z</time>
      </trkpt>
      <trkpt lat="45.26798" lon="4.3555">
        <ele>902.41</ele>
        <time>2015-10-25T09:22:21Z</time>
      </trkpt>
      <trkpt lat="45.26802" lon="4.35577">
        <ele>901.95</ele>
        <time>2015-10-25T09:22:25Z</time>
      </trkpt>
      <trkpt lat="45.2681" lon="4.35606">
        <ele>901.32</ele>
        <time>2015-10-25T09:22:30Z</time>
      </trkpt>
      <trkpt lat="45.26809" lon="4.35637">
        <ele>900.74</ele>
        <time>2015-10-25T09:22:35Z</time>
      </trkpt>
      <trkpt lat="45.26804" lon="4.35665">
        <ele>899.89</ele>
        <time>2015-10-25T09:22:39Z</time>
      </trkpt>
      <trkpt lat="45.26802" lon="4.35692">
        <ele>898.46</ele>
        <time>2015-10-25T09:22:43Z</time>
      </trkpt>
      <trkpt lat="45.26804" lon="4.35723">
        <ele>896.73</ele>
        <time>2015-10-25T09:22:47Z</time>
      </trkpt>
      <trkpt lat="45.26819" lon="4.35743">
        <ele>894.21</ele>
        <time>2015-10-25T09:22:51Z</time>
      </trkpt>
      <trkpt lat="45.2684" lon="4.35747">
        <ele>892.23</ele>
        <time>2015-10-25T09:22:55Z</time>
      </trkpt>
      <trkpt lat="45.26861" lon="4.35754">
        <ele>890.94</ele>
        <time>2015-10-25T09:23:00Z</time>
      </trkpt>
      <trkpt lat="45.26879" lon="4.35772">
        <ele>890.03</ele>
        <time>2015-10-25T09:23:04Z</time>
      </trkpt>
      <trkpt lat="45.26885" lon="4.35807">
        <ele>889.6</ele>
        <time>2015-10-25T09:23:09Z</time>
      </trkpt>
      <trkpt lat="45.26892" lon="4.35835">
        <ele>889.56</ele>
        <time>2015-10-25T09:23:13Z</time>
      </trkpt>
      <trkpt lat="45.26896" lon="4.35863">
        <ele>889.32</ele>
        <time>2015-10-25T09:23:17Z</time>
      </trkpt>
      <trkpt lat="45.26897" lon="4.3589">
        <ele>888.66</ele>
        <time>2015-10-25T09:23:21Z</time>
      </trkpt>
      <trkpt lat="45.26889" lon="4.35916">
        <ele>887.92</ele>
        <time>2015-10-25T09:23:25Z</time>
      </trkpt>
      <trkpt lat="45.26874" lon="4.35936">
        <ele>887.51</ele>
        <time>2015-10-25T09:23:29Z</time>
      </trkpt>
      <trkpt lat="45.26858" lon="4.35956">
        <ele>887.12</ele>
        <time>2015-10-25T09:23:33Z</time>
      </trkpt>
      <trkpt lat="45.26846" lon="4.35977">
        <ele>886.84</ele>
        <time>2015-10-25T09:23:36Z</time>
      </trkpt>
      <trkpt lat="45.26845" lon="4.36003">
        <ele>886.33</ele>
        <time>2015-10-25T09:23:39Z</time>
      </trkpt>
      <trkpt lat="45.26858" lon="4.36025">
        <ele>885.92</ele>
        <time>2015-10-25T09:23:43Z</time>
      </trkpt>
      <trkpt lat="45.26876" lon="4.36044">
        <ele>885.4</ele>
        <time>2015-10-25T09:23:47Z</time>
      </trkpt>
      <trkpt lat="45.26892" lon="4.36068">
        <ele>884.86</ele>
        <time>2015-10-25T09:23:51Z</time>
      </trkpt>
      <trkpt lat="45.26904" lon="4.36099">
        <ele>883.87</ele>
        <time>2015-10-25T09:23:55Z</time>
      </trkpt>
      <trkpt lat="45.26908" lon="4.36127">
        <ele>882.85</ele>
        <time>2015-10-25T09:23:58Z</time>
      </trkpt>
      <trkpt lat="45.26903" lon="4.36162">
        <ele>881.17</ele>
        <time>2015-10-25T09:24:01Z</time>
      </trkpt>
      <trkpt lat="45.269" lon="4.36195">
        <ele>878.37</ele>
        <time>2015-10-25T09:24:04Z</time>
      </trkpt>
      <trkpt lat="45.26908" lon="4.36227">
        <ele>876.9</ele>
        <time>2015-10-25T09:24:07Z</time>
      </trkpt>
      <trkpt lat="45.26928" lon="4.36251">
        <ele>875.34</ele>
        <time>2015-10-25T09:24:10Z</time>
      </trkpt>
      <trkpt lat="45.26951" lon="4.36266">
        <ele>873.85</ele>
        <time>2015-10-25T09:24:13Z</time>
      </trkpt>
      <trkpt lat="45.26973" lon="4.36274">
        <ele>872.38</ele>
        <time>2015-10-25T09:24:16Z</time>
      </trkpt>
      <trkpt lat="45.26992" lon="4.3628">
        <ele>871.54</ele>
        <time>2015-10-25T09:24:19Z</time>
      </trkpt>
      <trkpt lat="45.27011" lon="4.36295">
        <ele>871.13</ele>
        <time>2015-10-25T09:24:23Z</time>
      </trkpt>
      <trkpt lat="45.2702" lon="4.3632">
        <ele>871.35</ele>
        <time>2015-10-25T09:24:27Z</time>
      </trkpt>
      <trkpt lat="45.27026" lon="4.36345">
        <ele>871.44</ele>
        <time>2015-10-25T09:24:32Z</time>
      </trkpt>
      <trkpt lat="45.27024" lon="4.3637">
        <ele>871.36</ele>
        <time>2015-10-25T09:24:37Z</time>
      </trkpt>
      <trkpt lat="45.27019" lon="4.36397">
        <ele>871.91</ele>
        <time>2015-10-25T09:24:43Z</time>
      </trkpt>
      <trkpt lat="45.27013" lon="4.36423">
        <ele>872.8</ele>
        <time>2015-10-25T09:24:49Z</time>
      </trkpt>
      <trkpt lat="45.27006" lon="4.36451">
        <ele>874.13</ele>
        <time>2015-10-25T09:24:56Z</time>
      </trkpt>
      <trkpt lat="45.26996" lon="4.36476">
        <ele>875.48</ele>
        <time>2015-10-25T09:25:03Z</time>
      </trkpt>
      <trkpt lat="45.26984" lon="4.36497">
        <ele>877.3</ele>
        <time>2015-10-25T09:25:10Z</time>
      </trkpt>
      <trkpt lat="45.26982" lon="4.36527">
        <ele>879.43</ele>
        <time>2015-10-25T09:25:18Z</time>
      </trkpt>
      <trkpt lat="45.26981" lon="4.36556">
        <ele>877.71</ele>
        <time>2015-10-25T09:25:24Z</time>
      </trkpt>
      <trkpt lat="45.26979" lon="4.36583">
        <ele>875.56</ele>
        <time>2015-10-25T09:25:29Z</time>
      </trkpt>
      <trkpt lat="45.2697" lon="4.36608">
        <ele>873.72</ele>
        <time>2015-10-25T09:25:34Z</time>
      </trkpt>
      <trkpt lat="45.26967" lon="4.36637">
        <ele>871.62</ele>
        <time>2015-10-25T09:25:40Z</time>
      </trkpt>
      <trkpt lat="45.26976" lon="4.3667">
        <ele>867.35</ele>
        <time>2015-10-25T09:25:51Z</time>
      </trkpt>
      <trkpt lat="45.26986" lon="4.36694">
        <ele>866.14</ele>
        <time>2015-10-25T09:26:26Z</time>
      </trkpt>
      <trkpt lat="45.27012" lon="4.36704">
        <ele>866.54</ele>
        <time>2015-10-25T09:26:49Z</time>
      </trkpt>
      <trkpt lat="45.27027" lon="4.36691">
        <ele>867.02</ele>
        <time>2015-10-25T09:26:56Z</time>
      </trkpt>
      <trkpt lat="45.27039" lon="4.36666">
        <ele>867.78</ele>
        <time>2015-10-25T09:27:04Z</time>
      </trkpt>
      <trkpt lat="45.27059" lon="4.36653">
        <ele>869.23</ele>
        <time>2015-10-25T09:27:14Z</time>
      </trkpt>
      <trkpt lat="45.2708" lon="4.36644">
        <ele>871.68</ele>
        <time>2015-10-25T09:27:24Z</time>
      </trkpt>
      <trkpt lat="45.27103" lon="4.36638">
        <ele>874.62</ele>
        <time>2015-10-25T09:27:35Z</time>
      </trkpt>
      <trkpt lat="45.27123" lon="4.36626">
        <ele>877.24</ele>
        <time>2015-10-25T09:27:48Z</time>
      </trkpt>
      <trkpt lat="45.27138" lon="4.36604">
        <ele>877.29</ele>
        <time>2015-10-25T09:27:54Z</time>
      </trkpt>
      <trkpt lat="45.27142" lon="4.36578">
        <ele>877.06</ele>
        <time>2015-10-25T09:28:00Z</time>
      </trkpt>
      <trkpt lat="45.27147" lon="4.36553">
        <ele>877.14</ele>
        <time>2015-10-25T09:28:08Z</time>
      </trkpt>
      <trkpt lat="45.27159" lon="4.36529">
        <ele>877.5</ele>
        <time>2015-10-25T09:28:15Z</time>
      </trkpt>
      <trkpt lat="45.27167" lon="4.36504">
        <ele>877.15</ele>
        <time>2015-10-25T09:28:21Z</time>
      </trkpt>
      <trkpt lat="45.27167" lon="4.36474">
        <ele>877.23</ele>
        <time>2015-10-25T09:28:28Z</time>
      </trkpt>
      <trkpt lat="45.27167" lon="4.36446">
        <ele>877.53</ele>
        <time>2015-10-25T09:28:34Z</time>
      </trkpt>
      <trkpt lat="45.27171" lon="4.36415">
        <ele>877.39</ele>
        <time>2015-10-25T09:28:42Z</time>
      </trkpt>
      <trkpt lat="45.27179" lon="4.36387">
        <ele>879.24</ele>
        <time>2015-10-25T09:28:50Z</time>
      </trkpt>
      <trkpt lat="45.27189" lon="4.36363">
        <ele>882.76</ele>
        <time>2015-10-25T09:28:57Z</time>
      </trkpt>
      <trkpt lat="45.27204" lon="4.36342">
        <ele>886.7</ele>
        <time>2015-10-25T09:29:04Z</time>
      </trkpt>
      <trkpt lat="45.27221" lon="4.36323">
        <ele>889.67</ele>
        <time>2015-10-25T09:29:11Z</time>
      </trkpt>
      <trkpt lat="45.27235" lon="4.363">
        <ele>891.51</ele>
        <time>2015-10-25T09:29:17Z</time>
      </trkpt>
      <trkpt lat="45.2725" lon="4.36279">
        <ele>892.85</ele>
        <time>2015-10-25T09:29:23Z</time>
      </trkpt>
      <trkpt lat="45.2726" lon="4.36254">
        <ele>894.76</ele>
        <time>2015-10-25T09:29:30Z</time>
      </trkpt>
      <trkpt lat="45.27267" lon="4.36227">
        <ele>896.5</ele>
        <time>2015-10-25T09:29:37Z</time>
      </trkpt>
      <trkpt lat="45.27282" lon="4.36209">
        <ele>897.84</ele>
        <time>2015-10-25T09:29:44Z</time>
      </trkpt>
      <trkpt lat="45.27301" lon="4.36217">
        <ele>900.14</ele>
        <time>2015-10-25T09:29:52Z</time>
      </trkpt>
      <trkpt lat="45.27316" lon="4.36237">
        <ele>901.63</ele>
        <time>2015-10-25T09:30:00Z</time>
      </trkpt>
      <trkpt lat="45.27331" lon="4.36254">
        <ele>903.57</ele>
        <time>2015-10-25T09:30:08Z</time>
      </trkpt>
      <trkpt lat="45.27348" lon="4.36271">
        <ele>905.71</ele>
        <time>2015-10-25T09:30:15Z</time>
      </trkpt>
      <trkpt lat="45.27364" lon="4.36284">
        <ele>907.68</ele>
        <time>2015-10-25T09:30:21Z</time>
      </trkpt>
      <trkpt lat="45.27378" lon="4.36307">
        <ele>909.79</ele>
        <time>2015-10-25T09:30:28Z</time>
      </trkpt>
      <trkpt lat="45.2738" lon="4.36335">
        <ele>911.91</ele>
        <time>2015-10-25T09:30:35Z</time>
      </trkpt>
      <trkpt lat="45.27382" lon="4.36361">
        <ele>914.42</ele>
        <time>2015-10-25T09:30:42Z</time>
      </trkpt>
      <trkpt lat="45.27382" lon="4.36368">
        <ele>917.4</ele>
        <time>2015-10-25T09:31:42Z</time>
      </trkpt>
      <trkpt lat="45.27395" lon="4.36387">
        <ele>917.58</ele>
        <time>2015-10-25T09:32:40Z</time>
      </trkpt>
      <trkpt lat="45.27407" lon="4.36409">
        <ele>919.27</ele>
        <time>2015-10-25T09:32:49Z</time>
      </trkpt>
      <trkpt lat="45.27418" lon="4.36429">
        <ele>921.14</ele>
        <time>2015-10-25T09:32:58Z</time>
      </trkpt>
      <trkpt lat="45.27431" lon="4.36449">
        <ele>922.47</ele>
        <time>2015-10-25T09:33:06Z</time>
      </trkpt>
      <trkpt lat="45.27444" lon="4.36468">
        <ele>924.58</ele>
        <time>2015-10-25T09:33:15Z</time>
      </trkpt>
      <trkpt lat="45.27457" lon="4.36487">
        <ele>926.34</ele>
        <time>2015-10-25T09:33:24Z</time>
      </trkpt>
      <trkpt lat="45.27469" lon="4.36507">
        <ele>928.74</ele>
        <time>2015-10-25T09:33:33Z</time>
      </trkpt>
      <trkpt lat="45.27482" lon="4.36527">
        <ele>930.69</ele>
        <time>2015-10-25T09:33:42Z</time>
      </trkpt>
      <trkpt lat="45.275" lon="4.36536">
        <ele>931.4</ele>
        <time>2015-10-25T09:33:49Z</time>
      </trkpt>
      <trkpt lat="45.27521" lon="4.36542">
        <ele>931.25</ele>
        <time>2015-10-25T09:33:55Z</time>
      </trkpt>
      <trkpt lat="45.27539" lon="4.36549">
        <ele>931.1</ele>
        <time>2015-10-25T09:34:01Z</time>
      </trkpt>
      <trkpt lat="45.27558" lon="4.36553">
        <ele>931.64</ele>
        <time>2015-10-25T09:34:08Z</time>
      </trkpt>
      <trkpt lat="45.27578" lon="4.36559">
        <ele>932.92</ele>
        <time>2015-10-25T09:34:14Z</time>
      </trkpt>
      <trkpt lat="45.27598" lon="4.36565">
        <ele>935.29</ele>
        <time>2015-10-25T09:34:19Z</time>
      </trkpt>
      <trkpt lat="45.27617" lon="4.36568">
        <ele>938.48</ele>
        <time>2015-10-25T09:34:25Z</time>
      </trkpt>
      <trkpt lat="45.27636" lon="4.36569">
        <ele>940.51</ele>
        <time>2015-10-25T09:34:32Z</time>
      </trkpt>
      <trkpt lat="45.27655" lon="4.3657">
        <ele>941.73</ele>
        <time>2015-10-25T09:34:39Z</time>
      </trkpt>
      <trkpt lat="45.27673" lon="4.36571">
        <ele>942.29</ele>
        <time>2015-10-25T09:34:45Z</time>
      </trkpt>
      <trkpt lat="45.27692" lon="4.36574">
        <ele>942.91</ele>
        <time>2015-10-25T09:34:52Z</time>
      </trkpt>
      <trkpt lat="45.27713" lon="4.36575">
        <ele>943.36</ele>
        <time>2015-10-25T09:34:59Z</time>
      </trkpt>
      <trkpt lat="45.27731" lon="4.36579">
        <ele>944.49</ele>
        <time>2015-10-25T09:35:07Z</time>
      </trkpt>
      <trkpt lat="45.27749" lon="4.36586">
        <ele>946.45</ele>
        <time>2015-10-25T09:35:15Z</time>
      </trkpt>
      <trkpt lat="45.27768" lon="4.36585">
        <ele>948.65</ele>
        <time>2015-10-25T09:35:23Z</time>
      </trkpt>
      <trkpt lat="45.27781" lon="4.36566">
        <ele>949.96</ele>
        <time>2015-10-25T09:35:30Z</time>
      </trkpt>
      <trkpt lat="45.27795" lon="4.36543">
        <ele>950.82</ele>
        <time>2015-10-25T09:35:38Z</time>
      </trkpt>
      <trkpt lat="45.27801" lon="4.36536">
        <ele>951.47</ele>
        <time>2015-10-25T09:36:19Z</time>
      </trkpt>
      <trkpt lat="45.27798" lon="4.36544">
        <ele>952.18</ele>
        <time>2015-10-25T09:42:23Z</time>
      </trkpt>
      <trkpt lat="45.27803" lon="4.36528">
        <ele>952.34</ele>
        <time>2015-10-25T09:45:32Z</time>
      </trkpt>
      <trkpt lat="45.27817" lon="4.36538">
        <ele>952.7</ele>
        <time>2015-10-25T09:46:19Z</time>
      </trkpt>
      <trkpt lat="45.27831" lon="4.3656">
        <ele>952.26</ele>
        <time>2015-10-25T09:46:27Z</time>
      </trkpt>
      <trkpt lat="45.2785" lon="4.36581">
        <ele>951.7</ele>
        <time>2015-10-25T09:46:33Z</time>
      </trkpt>
      <trkpt lat="45.27872" lon="4.36595">
        <ele>951.13</ele>
        <time>2015-10-25T09:46:39Z</time>
      </trkpt>
      <trkpt lat="45.27895" lon="4.36606">
        <ele>950.66</ele>
        <time>2015-10-25T09:46:45Z</time>
      </trkpt>
      <trkpt lat="45.27923" lon="4.36615">
        <ele>950.11</ele>
        <time>2015-10-25T09:46:53Z</time>
      </trkpt>
      <trkpt lat="45.27941" lon="4.36643">
        <ele>949.42</ele>
        <time>2015-10-25T09:47:01Z</time>
      </trkpt>
      <trkpt lat="45.27948" lon="4.36673">
        <ele>949.57</ele>
        <time>2015-10-25T09:47:07Z</time>
      </trkpt>
      <trkpt lat="45.27956" lon="4.36703">
        <ele>949.82</ele>
        <time>2015-10-25T09:47:13Z</time>
      </trkpt>
      <trkpt lat="45.27962" lon="4.36732">
        <ele>949.88</ele>
        <time>2015-10-25T09:47:19Z</time>
      </trkpt>
      <trkpt lat="45.27967" lon="4.36759">
        <ele>949.64</ele>
        <time>2015-10-25T09:47:25Z</time>
      </trkpt>
      <trkpt lat="45.27974" lon="4.36788">
        <ele>949.59</ele>
        <time>2015-10-25T09:47:32Z</time>
      </trkpt>
      <trkpt lat="45.2798" lon="4.36815">
        <ele>949.6</ele>
        <time>2015-10-25T09:47:38Z</time>
      </trkpt>
      <trkpt lat="45.27983" lon="4.36842">
        <ele>949.85</ele>
        <time>2015-10-25T09:47:43Z</time>
      </trkpt>
      <trkpt lat="45.27989" lon="4.3687">
        <ele>949.97</ele>
        <time>2015-10-25T09:47:48Z</time>
      </trkpt>
      <trkpt lat="45.27995" lon="4.369">
        <ele>949.92</ele>
        <time>2015-10-25T09:47:53Z</time>
      </trkpt>
      <trkpt lat="45.28001" lon="4.3693">
        <ele>949.96</ele>
        <time>2015-10-25T09:47:58Z</time>
      </trkpt>
      <trkpt lat="45.2801" lon="4.36956">
        <ele>950.13</ele>
        <time>2015-10-25T09:48:03Z</time>
      </trkpt>
      <trkpt lat="45.2802" lon="4.36982">
        <ele>950.39</ele>
        <time>2015-10-25T09:48:09Z</time>
      </trkpt>
      <trkpt lat="45.28029" lon="4.37006">
        <ele>950.7</ele>
        <time>2015-10-25T09:48:15Z</time>
      </trkpt>
      <trkpt lat="45.2804" lon="4.37033">
        <ele>951.11</ele>
        <time>2015-10-25T09:48:21Z</time>
      </trkpt>
      <trkpt lat="45.28053" lon="4.37062">
        <ele>951.9</ele>
        <time>2015-10-25T09:48:27Z</time>
      </trkpt>
      <trkpt lat="45.28066" lon="4.37085">
        <ele>952.45</ele>
        <time>2015-10-25T09:48:32Z</time>
      </trkpt>
      <trkpt lat="45.28077" lon="4.37107">
        <ele>952.74</ele>
        <time>2015-10-25T09:48:37Z</time>
      </trkpt>
      <trkpt lat="45.2809" lon="4.37132">
        <ele>953.63</ele>
        <time>2015-10-25T09:48:43Z</time>
      </trkpt>
      <trkpt lat="45.28105" lon="4.3715">
        <ele>954.19</ele>
        <time>2015-10-25T09:48:48Z</time>
      </trkpt>
      <trkpt lat="45.28119" lon="4.3717">
        <ele>954.58</ele>
        <time>2015-10-25T09:48:53Z</time>
      </trkpt>
      <trkpt lat="45.28134" lon="4.37191">
        <ele>954.81</ele>
        <time>2015-10-25T09:48:58Z</time>
      </trkpt>
      <trkpt lat="45.28148" lon="4.37211">
        <ele>955.25</ele>
        <time>2015-10-25T09:49:03Z</time>
      </trkpt>
      <trkpt lat="45.28161" lon="4.37232">
        <ele>955.53</ele>
        <time>2015-10-25T09:49:08Z</time>
      </trkpt>
      <trkpt lat="45.28173" lon="4.37256">
        <ele>955.81</ele>
        <time>2015-10-25T09:49:13Z</time>
      </trkpt>
      <trkpt lat="45.28185" lon="4.3728">
        <ele>956.16</ele>
        <time>2015-10-25T09:49:18Z</time>
      </trkpt>
      <trkpt lat="45.28196" lon="4.37306">
        <ele>956.32</ele>
        <time>2015-10-25T09:49:23Z</time>
      </trkpt>
      <trkpt lat="45.28205" lon="4.37332">
        <ele>956.23</ele>
        <time>2015-10-25T09:49:28Z</time>
      </trkpt>
      <trkpt lat="45.28213" lon="4.37358">
        <ele>956.24</ele>
        <time>2015-10-25T09:49:33Z</time>
      </trkpt>
      <trkpt lat="45.28222" lon="4.37383">
        <ele>955.92</ele>
        <time>2015-10-25T09:49:40Z</time>
      </trkpt>
      <trkpt lat="45.28234" lon="4.37408">
        <ele>955.82</ele>
        <time>2015-10-25T09:49:46Z</time>
      </trkpt>
      <trkpt lat="45.28245" lon="4.37433">
        <ele>956.22</ele>
        <time>2015-10-25T09:49:51Z</time>
      </trkpt>
      <trkpt lat="45.28256" lon="4.37454">
        <ele>955.75</ele>
        <time>2015-10-25T09:49:55Z</time>
      </trkpt>
      <trkpt lat="45.28271" lon="4.37477">
        <ele>955.19</ele>
        <time>2015-10-25T09:49:59Z</time>
      </trkpt>
      <trkpt lat="45.28286" lon="4.37498">
        <ele>954.38</ele>
        <time>2015-10-25T09:50:02Z</time>
      </trkpt>
      <trkpt lat="45.28299" lon="4.37524">
        <ele>952.68</ele>
        <time>2015-10-25T09:50:05Z</time>
      </trkpt>
      <trkpt lat="45.28309" lon="4.3755">
        <ele>951.54</ele>
        <time>2015-10-25T09:50:08Z</time>
      </trkpt>
      <trkpt lat="45.28322" lon="4.37576">
        <ele>950.3</ele>
        <time>2015-10-25T09:50:12Z</time>
      </trkpt>
      <trkpt lat="45.28332" lon="4.37599">
        <ele>949.31</ele>
        <time>2015-10-25T09:50:16Z</time>
      </trkpt>
      <trkpt lat="45.2834" lon="4.37624">
        <ele>948.85</ele>
        <time>2015-10-25T09:50:21Z</time>
      </trkpt>
      <trkpt lat="45.28347" lon="4.37654">
        <ele>948.87</ele>
        <time>2015-10-25T09:50:27Z</time>
      </trkpt>
      <trkpt lat="45.28355" lon="4.37684">
        <ele>948.46</ele>
        <time>2015-10-25T09:50:31Z</time>
      </trkpt>
      <trkpt lat="45.28363" lon="4.37708">
        <ele>948.11</ele>
        <time>2015-10-25T09:50:34Z</time>
      </trkpt>
      <trkpt lat="45.28372" lon="4.37744">
        <ele>947.51</ele>
        <time>2015-10-25T09:50:38Z</time>
      </trkpt>
      <trkpt lat="45.28376" lon="4.37777">
        <ele>946.97</ele>
        <time>2015-10-25T09:50:42Z</time>
      </trkpt>
      <trkpt lat="45.28376" lon="4.37807">
        <ele>946.92</ele>
        <time>2015-10-25T09:50:46Z</time>
      </trkpt>
      <trkpt lat="45.28375" lon="4.3784">
        <ele>947.48</ele>
        <time>2015-10-25T09:50:51Z</time>
      </trkpt>
      <trkpt lat="45.28373" lon="4.37868">
        <ele>948.95</ele>
        <time>2015-10-25T09:50:56Z</time>
      </trkpt>
      <trkpt lat="45.28373" lon="4.37895">
        <ele>950.36</ele>
        <time>2015-10-25T09:51:01Z</time>
      </trkpt>
      <trkpt lat="45.28374" lon="4.37923">
        <ele>951.76</ele>
        <time>2015-10-25T09:51:07Z</time>
      </trkpt>
      <trkpt lat="45.28377" lon="4.37952">
        <ele>953.19</ele>
        <time>2015-10-25T09:51:14Z</time>
      </trkpt>
      <trkpt lat="45.28382" lon="4.37978">
        <ele>954.42</ele>
        <time>2015-10-25T09:51:21Z</time>
      </trkpt>
      <trkpt lat="45.28384" lon="4.38006">
        <ele>955.9</ele>
        <time>2015-10-25T09:51:28Z</time>
      </trkpt>
      <trkpt lat="45.28384" lon="4.38035">
        <ele>956.96</ele>
        <time>2015-10-25T09:51:35Z</time>
      </trkpt>
      <trkpt lat="45.28384" lon="4.38061">
        <ele>958.04</ele>
        <time>2015-10-25T09:51:41Z</time>
      </trkpt>
      <trkpt lat="45.28381" lon="4.38088">
        <ele>959.22</ele>
        <time>2015-10-25T09:51:46Z</time>
      </trkpt>
      <trkpt lat="45.28378" lon="4.38115">
        <ele>960.43</ele>
        <time>2015-10-25T09:51:51Z</time>
      </trkpt>
      <trkpt lat="45.28376" lon="4.38141">
        <ele>961.12</ele>
        <time>2015-10-25T09:51:56Z</time>
      </trkpt>
      <trkpt lat="45.28375" lon="4.38168">
        <ele>961.59</ele>
        <time>2015-10-25T09:52:01Z</time>
      </trkpt>
      <trkpt lat="45.28374" lon="4.38197">
        <ele>961.71</ele>
        <time>2015-10-25T09:52:06Z</time>
      </trkpt>
      <trkpt lat="45.28372" lon="4.38222">
        <ele>961.54</ele>
        <time>2015-10-25T09:52:10Z</time>
      </trkpt>
      <trkpt lat="45.28374" lon="4.38249">
        <ele>961.34</ele>
        <time>2015-10-25T09:52:14Z</time>
      </trkpt>
      <trkpt lat="45.28381" lon="4.38275">
        <ele>960.98</ele>
        <time>2015-10-25T09:52:18Z</time>
      </trkpt>
      <trkpt lat="45.28389" lon="4.383">
        <ele>960.76</ele>
        <time>2015-10-25T09:52:22Z</time>
      </trkpt>
      <trkpt lat="45.28397" lon="4.38326">
        <ele>960.8</ele>
        <time>2015-10-25T09:52:26Z</time>
      </trkpt>
      <trkpt lat="45.28402" lon="4.38354">
        <ele>960.88</ele>
        <time>2015-10-25T09:52:30Z</time>
      </trkpt>
      <trkpt lat="45.28406" lon="4.38385">
        <ele>960.61</ele>
        <time>2015-10-25T09:52:34Z</time>
      </trkpt>
      <trkpt lat="45.28408" lon="4.38417">
        <ele>960.23</ele>
        <time>2015-10-25T09:52:38Z</time>
      </trkpt>
      <trkpt lat="45.2841" lon="4.3845">
        <ele>959.76</ele>
        <time>2015-10-25T09:52:42Z</time>
      </trkpt>
      <trkpt lat="45.28412" lon="4.38482">
        <ele>959.35</ele>
        <time>2015-10-25T09:52:46Z</time>
      </trkpt>
      <trkpt lat="45.28414" lon="4.38513">
        <ele>958.99</ele>
        <time>2015-10-25T09:52:50Z</time>
      </trkpt>
      <trkpt lat="45.28415" lon="4.38544">
        <ele>958.96</ele>
        <time>2015-10-25T09:52:54Z</time>
      </trkpt>
      <trkpt lat="45.28418" lon="4.38571">
        <ele>958.67</ele>
        <time>2015-10-25T09:52:58Z</time>
      </trkpt>
      <trkpt lat="45.28403" lon="4.38591">
        <ele>957.8</ele>
        <time>2015-10-25T09:53:03Z</time>
      </trkpt>
      <trkpt lat="45.28382" lon="4.38601">
        <ele>957.33</ele>
        <time>2015-10-25T09:53:07Z</time>
      </trkpt>
      <trkpt lat="45.28367" lon="4.38615">
        <ele>956.7</ele>
        <time>2015-10-25T09:53:10Z</time>
      </trkpt>
      <trkpt lat="45.2835" lon="4.38637">
        <ele>955.75</ele>
        <time>2015-10-25T09:53:14Z</time>
      </trkpt>
      <trkpt lat="45.28329" lon="4.38638">
        <ele>953.52</ele>
        <time>2015-10-25T09:53:18Z</time>
      </trkpt>
      <trkpt lat="45.28321" lon="4.38666">
        <ele>950.8</ele>
        <time>2015-10-25T09:53:23Z</time>
      </trkpt>
      <trkpt lat="45.283" lon="4.38677">
        <ele>948.89</ele>
        <time>2015-10-25T09:53:27Z</time>
      </trkpt>
      <trkpt lat="45.28278" lon="4.38676">
        <ele>946.05</ele>
        <time>2015-10-25T09:53:31Z</time>
      </trkpt>
      <trkpt lat="45.28258" lon="4.38674">
        <ele>944.36</ele>
        <time>2015-10-25T09:53:35Z</time>
      </trkpt>
      <trkpt lat="45.28239" lon="4.38689">
        <ele>943.35</ele>
        <time>2015-10-25T09:53:40Z</time>
      </trkpt>
      <trkpt lat="45.28225" lon="4.3871">
        <ele>943.09</ele>
        <time>2015-10-25T09:53:46Z</time>
      </trkpt>
      <trkpt lat="45.2821" lon="4.38734">
        <ele>942.59</ele>
        <time>2015-10-25T09:53:51Z</time>
      </trkpt>
      <trkpt lat="45.28195" lon="4.38753">
        <ele>941.53</ele>
        <time>2015-10-25T09:53:55Z</time>
      </trkpt>
      <trkpt lat="45.28179" lon="4.3877">
        <ele>940.47</ele>
        <time>2015-10-25T09:53:59Z</time>
      </trkpt>
      <trkpt lat="45.28161" lon="4.38787">
        <ele>939.07</ele>
        <time>2015-10-25T09:54:03Z</time>
      </trkpt>
      <trkpt lat="45.28142" lon="4.38802">
        <ele>937.37</ele>
        <time>2015-10-25T09:54:08Z</time>
      </trkpt>
      <trkpt lat="45.28124" lon="4.38814">
        <ele>936.32</ele>
        <time>2015-10-25T09:54:13Z</time>
      </trkpt>
      <trkpt lat="45.28107" lon="4.38827">
        <ele>935.3</ele>
        <time>2015-10-25T09:54:18Z</time>
      </trkpt>
      <trkpt lat="45.28089" lon="4.38839">
        <ele>934.4</ele>
        <time>2015-10-25T09:54:23Z</time>
      </trkpt>
      <trkpt lat="45.2807" lon="4.3884">
        <ele>933.72</ele>
        <time>2015-10-25T09:54:27Z</time>
      </trkpt>
      <trkpt lat="45.28046" lon="4.38841">
        <ele>932.78</ele>
        <time>2015-10-25T09:54:32Z</time>
      </trkpt>
      <trkpt lat="45.28025" lon="4.3884">
        <ele>931.64</ele>
        <time>2015-10-25T09:54:37Z</time>
      </trkpt>
      <trkpt lat="45.28016" lon="4.38856">
        <ele>929.8</ele>
        <time>2015-10-25T09:54:47Z</time>
      </trkpt>
      <trkpt lat="45.28024" lon="4.38882">
        <ele>929.84</ele>
        <time>2015-10-25T09:54:52Z</time>
      </trkpt>
      <trkpt lat="45.28034" lon="4.3891">
        <ele>929.96</ele>
        <time>2015-10-25T09:54:57Z</time>
      </trkpt>
      <trkpt lat="45.2804" lon="4.38935">
        <ele>929.85</ele>
        <time>2015-10-25T09:55:01Z</time>
      </trkpt>
      <trkpt lat="45.28049" lon="4.38957">
        <ele>929.58</ele>
        <time>2015-10-25T09:55:05Z</time>
      </trkpt>
      <trkpt lat="45.28062" lon="4.38977">
        <ele>929.4</ele>
        <time>2015-10-25T09:55:09Z</time>
      </trkpt>
      <trkpt lat="45.28075" lon="4.38998">
        <ele>929.33</ele>
        <time>2015-10-25T09:55:13Z</time>
      </trkpt>
      <trkpt lat="45.2809" lon="4.39018">
        <ele>928.98</ele>
        <time>2015-10-25T09:55:17Z</time>
      </trkpt>
      <trkpt lat="45.28106" lon="4.39035">
        <ele>928.31</ele>
        <time>2015-10-25T09:55:21Z</time>
      </trkpt>
      <trkpt lat="45.28123" lon="4.39047">
        <ele>927.85</ele>
        <time>2015-10-25T09:55:25Z</time>
      </trkpt>
      <trkpt lat="45.28139" lon="4.39065">
        <ele>927.57</ele>
        <time>2015-10-25T09:55:29Z</time>
      </trkpt>
      <trkpt lat="45.28151" lon="4.39086">
        <ele>927.46</ele>
        <time>2015-10-25T09:55:33Z</time>
      </trkpt>
      <trkpt lat="45.28161" lon="4.39108">
        <ele>927.12</ele>
        <time>2015-10-25T09:55:43Z</time>
      </trkpt>
      <trkpt lat="45.28173" lon="4.39134">
        <ele>927.17</ele>
        <time>2015-10-25T09:55:49Z</time>
      </trkpt>
      <trkpt lat="45.28184" lon="4.39158">
        <ele>927.34</ele>
        <time>2015-10-25T09:55:54Z</time>
      </trkpt>
      <trkpt lat="45.28192" lon="4.39185">
        <ele>928.17</ele>
        <time>2015-10-25T09:56:00Z</time>
      </trkpt>
      <trkpt lat="45.28197" lon="4.39211">
        <ele>928.86</ele>
        <time>2015-10-25T09:56:05Z</time>
      </trkpt>
      <trkpt lat="45.28203" lon="4.39239">
        <ele>929.76</ele>
        <time>2015-10-25T09:56:11Z</time>
      </trkpt>
      <trkpt lat="45.28209" lon="4.39265">
        <ele>930.63</ele>
        <time>2015-10-25T09:56:17Z</time>
      </trkpt>
      <trkpt lat="45.28225" lon="4.39283">
        <ele>932.21</ele>
        <time>2015-10-25T09:56:24Z</time>
      </trkpt>
      <trkpt lat="45.28242" lon="4.39297">
        <ele>934.91</ele>
        <time>2015-10-25T09:56:31Z</time>
      </trkpt>
      <trkpt lat="45.28259" lon="4.39314">
        <ele>937.62</ele>
        <time>2015-10-25T09:56:39Z</time>
      </trkpt>
      <trkpt lat="45.28266" lon="4.39339">
        <ele>938.97</ele>
        <time>2015-10-25T09:56:46Z</time>
      </trkpt>
      <trkpt lat="45.28274" lon="4.39363">
        <ele>940.19</ele>
        <time>2015-10-25T09:56:53Z</time>
      </trkpt>
      <trkpt lat="45.28284" lon="4.39389">
        <ele>941.29</ele>
        <time>2015-10-25T09:56:59Z</time>
      </trkpt>
      <trkpt lat="45.28294" lon="4.39418">
        <ele>942.3</ele>
        <time>2015-10-25T09:57:06Z</time>
      </trkpt>
      <trkpt lat="45.28301" lon="4.39444">
        <ele>943.39</ele>
        <time>2015-10-25T09:57:16Z</time>
      </trkpt>
      <trkpt lat="45.28295" lon="4.39472">
        <ele>943.55</ele>
        <time>2015-10-25T09:57:25Z</time>
      </trkpt>
      <trkpt lat="45.28288" lon="4.39503">
        <ele>943.47</ele>
        <time>2015-10-25T09:57:33Z</time>
      </trkpt>
      <trkpt lat="45.28283" lon="4.39529">
        <ele>943.09</ele>
        <time>2015-10-25T09:57:42Z</time>
      </trkpt>
      <trkpt lat="45.28276" lon="4.39554">
        <ele>942.52</ele>
        <time>2015-10-25T09:57:47Z</time>
      </trkpt>
      <trkpt lat="45.28269" lon="4.39583">
        <ele>941.86</ele>
        <time>2015-10-25T09:57:52Z</time>
      </trkpt>
      <trkpt lat="45.28262" lon="4.3961">
        <ele>941.26</ele>
        <time>2015-10-25T09:57:57Z</time>
      </trkpt>
      <trkpt lat="45.28256" lon="4.39637">
        <ele>940.72</ele>
        <time>2015-10-25T09:58:03Z</time>
      </trkpt>
      <trkpt lat="45.28251" lon="4.39664">
        <ele>941.46</ele>
        <time>2015-10-25T09:58:09Z</time>
      </trkpt>
      <trkpt lat="45.28246" lon="4.3969">
        <ele>942</ele>
        <time>2015-10-25T09:58:14Z</time>
      </trkpt>
      <trkpt lat="45.28242" lon="4.39718">
        <ele>942.31</ele>
        <time>2015-10-25T09:58:19Z</time>
      </trkpt>
      <trkpt lat="45.28237" lon="4.39747">
        <ele>942.8</ele>
        <time>2015-10-25T09:58:24Z</time>
      </trkpt>
      <trkpt lat="45.28231" lon="4.39775">
        <ele>943.09</ele>
        <time>2015-10-25T09:58:29Z</time>
      </trkpt>
      <trkpt lat="45.28225" lon="4.39802">
        <ele>943.55</ele>
        <time>2015-10-25T09:58:34Z</time>
      </trkpt>
      <trkpt lat="45.28213" lon="4.39827">
        <ele>944.14</ele>
        <time>2015-10-25T09:58:40Z</time>
      </trkpt>
      <trkpt lat="45.28201" lon="4.39849">
        <ele>944.56</ele>
        <time>2015-10-25T09:58:45Z</time>
      </trkpt>
      <trkpt lat="45.28195" lon="4.39879">
        <ele>944.7</ele>
        <time>2015-10-25T09:58:50Z</time>
      </trkpt>
      <trkpt lat="45.28198" lon="4.3991">
        <ele>944.85</ele>
        <time>2015-10-25T09:58:55Z</time>
      </trkpt>
      <trkpt lat="45.28207" lon="4.39932">
        <ele>945.31</ele>
        <time>2015-10-25T09:59:00Z</time>
      </trkpt>
      <trkpt lat="45.28201" lon="4.39961">
        <ele>945.61</ele>
        <time>2015-10-25T09:59:06Z</time>
      </trkpt>
      <trkpt lat="45.28195" lon="4.39988">
        <ele>945.94</ele>
        <time>2015-10-25T09:59:11Z</time>
      </trkpt>
      <trkpt lat="45.2819" lon="4.40014">
        <ele>945.74</ele>
        <time>2015-10-25T09:59:15Z</time>
      </trkpt>
      <trkpt lat="45.28179" lon="4.40041">
        <ele>944.89</ele>
        <time>2015-10-25T09:59:19Z</time>
      </trkpt>
      <trkpt lat="45.2816" lon="4.40061">
        <ele>944.14</ele>
        <time>2015-10-25T09:59:23Z</time>
      </trkpt>
      <trkpt lat="45.2814" lon="4.40072">
        <ele>943.45</ele>
        <time>2015-10-25T09:59:27Z</time>
      </trkpt>
      <trkpt lat="45.2812" lon="4.40077">
        <ele>942.25</ele>
        <time>2015-10-25T09:59:33Z</time>
      </trkpt>
      <trkpt lat="45.28101" lon="4.40082">
        <ele>941.57</ele>
        <time>2015-10-25T09:59:39Z</time>
      </trkpt>
      <trkpt lat="45.28082" lon="4.40096">
        <ele>941.06</ele>
        <time>2015-10-25T09:59:45Z</time>
      </trkpt>
      <trkpt lat="45.2808" lon="4.40122">
        <ele>940.58</ele>
        <time>2015-10-25T09:59:49Z</time>
      </trkpt>
      <trkpt lat="45.28081" lon="4.40149">
        <ele>939.95</ele>
        <time>2015-10-25T09:59:53Z</time>
      </trkpt>
      <trkpt lat="45.28068" lon="4.4017">
        <ele>939.12</ele>
        <time>2015-10-25T09:59:58Z</time>
      </trkpt>
      <trkpt lat="45.28053" lon="4.40187">
        <ele>938.86</ele>
        <time>2015-10-25T10:00:04Z</time>
      </trkpt>
      <trkpt lat="45.28037" lon="4.40202">
        <ele>940.15</ele>
        <time>2015-10-25T10:00:11Z</time>
      </trkpt>
      <trkpt lat="45.28018" lon="4.40209">
        <ele>944.31</ele>
        <time>2015-10-25T10:00:21Z</time>
      </trkpt>
      <trkpt lat="45.28" lon="4.40194">
        <ele>947.7</ele>
        <time>2015-10-25T10:00:31Z</time>
      </trkpt>
      <trkpt lat="45.27981" lon="4.40173">
        <ele>949.95</ele>
        <time>2015-10-25T10:00:44Z</time>
      </trkpt>
      <trkpt lat="45.2796" lon="4.40172">
        <ele>952.21</ele>
        <time>2015-10-25T10:00:52Z</time>
      </trkpt>
      <trkpt lat="45.27942" lon="4.4018">
        <ele>956.35</ele>
        <time>2015-10-25T10:01:01Z</time>
      </trkpt>
      <trkpt lat="45.27929" lon="4.40201">
        <ele>959.8</ele>
        <time>2015-10-25T10:01:09Z</time>
      </trkpt>
      <trkpt lat="45.27916" lon="4.40222">
        <ele>962.76</ele>
        <time>2015-10-25T10:01:18Z</time>
      </trkpt>
      <trkpt lat="45.27905" lon="4.40244">
        <ele>966</ele>
        <time>2015-10-25T10:01:30Z</time>
      </trkpt>
      <trkpt lat="45.27889" lon="4.40263">
        <ele>969.1</ele>
        <time>2015-10-25T10:01:41Z</time>
      </trkpt>
      <trkpt lat="45.27871" lon="4.40278">
        <ele>972.09</ele>
        <time>2015-10-25T10:01:50Z</time>
      </trkpt>
      <trkpt lat="45.27865" lon="4.40302">
        <ele>974.91</ele>
        <time>2015-10-25T10:02:42Z</time>
      </trkpt>
      <trkpt lat="45.2787" lon="4.40331">
        <ele>975.81</ele>
        <time>2015-10-25T10:02:54Z</time>
      </trkpt>
      <trkpt lat="45.27875" lon="4.40357">
        <ele>977.01</ele>
        <time>2015-10-25T10:03:03Z</time>
      </trkpt>
      <trkpt lat="45.2788" lon="4.40383">
        <ele>978.13</ele>
        <time>2015-10-25T10:03:12Z</time>
      </trkpt>
      <trkpt lat="45.27884" lon="4.40409">
        <ele>978.8</ele>
        <time>2015-10-25T10:03:21Z</time>
      </trkpt>
      <trkpt lat="45.27883" lon="4.40436">
        <ele>980.25</ele>
        <time>2015-10-25T10:03:31Z</time>
      </trkpt>
      <trkpt lat="45.27879" lon="4.40462">
        <ele>982.47</ele>
        <time>2015-10-25T10:03:42Z</time>
      </trkpt>
      <trkpt lat="45.27871" lon="4.40486">
        <ele>984.33</ele>
        <time>2015-10-25T10:03:53Z</time>
      </trkpt>
      <trkpt lat="45.2785" lon="4.4049">
        <ele>986.29</ele>
        <time>2015-10-25T10:04:02Z</time>
      </trkpt>
      <trkpt lat="45.2783" lon="4.40494">
        <ele>988.28</ele>
        <time>2015-10-25T10:04:12Z</time>
      </trkpt>
      <trkpt lat="45.2781" lon="4.40498">
        <ele>990.52</ele>
        <time>2015-10-25T10:04:23Z</time>
      </trkpt>
      <trkpt lat="45.27812" lon="4.40523">
        <ele>992.56</ele>
        <time>2015-10-25T10:04:34Z</time>
      </trkpt>
      <trkpt lat="45.27818" lon="4.4055">
        <ele>994.37</ele>
        <time>2015-10-25T10:04:46Z</time>
      </trkpt>
      <trkpt lat="45.27823" lon="4.4058">
        <ele>996.29</ele>
        <time>2015-10-25T10:04:58Z</time>
      </trkpt>
      <trkpt lat="45.27829" lon="4.40614">
        <ele>997.24</ele>
        <time>2015-10-25T10:05:09Z</time>
      </trkpt>
      <trkpt lat="45.2782" lon="4.40642">
        <ele>998.81</ele>
        <time>2015-10-25T10:05:20Z</time>
      </trkpt>
      <trkpt lat="45.27811" lon="4.40666">
        <ele>1000.82</ele>
        <time>2015-10-25T10:05:29Z</time>
      </trkpt>
      <trkpt lat="45.27803" lon="4.40691">
        <ele>1004.49</ele>
        <time>2015-10-25T10:05:41Z</time>
      </trkpt>
      <trkpt lat="45.27795" lon="4.40714">
        <ele>1007.07</ele>
        <time>2015-10-25T10:05:53Z</time>
      </trkpt>
      <trkpt lat="45.27787" lon="4.40739">
        <ele>1009.48</ele>
        <time>2015-10-25T10:06:03Z</time>
      </trkpt>
      <trkpt lat="45.27779" lon="4.40763">
        <ele>1012.05</ele>
        <time>2015-10-25T10:06:12Z</time>
      </trkpt>
      <trkpt lat="45.2777" lon="4.40786">
        <ele>1013.86</ele>
        <time>2015-10-25T10:06:22Z</time>
      </trkpt>
      <trkpt lat="45.27759" lon="4.4081">
        <ele>1015.63</ele>
        <time>2015-10-25T10:06:33Z</time>
      </trkpt>
      <trkpt lat="45.2776" lon="4.40832">
        <ele>1018.02</ele>
        <time>2015-10-25T10:06:44Z</time>
      </trkpt>
      <trkpt lat="45.27777" lon="4.40844">
        <ele>1018.8</ele>
        <time>2015-10-25T10:06:54Z</time>
      </trkpt>
      <trkpt lat="45.27795" lon="4.40857">
        <ele>1018.59</ele>
        <time>2015-10-25T10:07:02Z</time>
      </trkpt>
      <trkpt lat="45.27814" lon="4.40869">
        <ele>1018.01</ele>
        <time>2015-10-25T10:07:09Z</time>
      </trkpt>
      <trkpt lat="45.27836" lon="4.40872">
        <ele>1016.93</ele>
        <time>2015-10-25T10:07:18Z</time>
      </trkpt>
      <trkpt lat="45.27859" lon="4.40868">
        <ele>1016.11</ele>
        <time>2015-10-25T10:07:23Z</time>
      </trkpt>
      <trkpt lat="45.27881" lon="4.40865">
        <ele>1015.07</ele>
        <time>2015-10-25T10:07:26Z</time>
      </trkpt>
      <trkpt lat="45.27905" lon="4.40872">
        <ele>1013.87</ele>
        <time>2015-10-25T10:07:29Z</time>
      </trkpt>
      <trkpt lat="45.27927" lon="4.40885">
        <ele>1012.87</ele>
        <time>2015-10-25T10:07:32Z</time>
      </trkpt>
      <trkpt lat="45.27945" lon="4.40901">
        <ele>1011.94</ele>
        <time>2015-10-25T10:07:35Z</time>
      </trkpt>
      <trkpt lat="45.27964" lon="4.40918">
        <ele>1011.12</ele>
        <time>2015-10-25T10:07:38Z</time>
      </trkpt>
      <trkpt lat="45.27981" lon="4.40934">
        <ele>1010.44</ele>
        <time>2015-10-25T10:07:41Z</time>
      </trkpt>
      <trkpt lat="45.28" lon="4.40952">
        <ele>1009.23</ele>
        <time>2015-10-25T10:07:45Z</time>
      </trkpt>
      <trkpt lat="45.28015" lon="4.4097">
        <ele>1008.66</ele>
        <time>2015-10-25T10:07:49Z</time>
      </trkpt>
      <trkpt lat="45.2803" lon="4.4099">
        <ele>1008.23</ele>
        <time>2015-10-25T10:07:54Z</time>
      </trkpt>
      <trkpt lat="45.28043" lon="4.4101">
        <ele>1008.13</ele>
        <time>2015-10-25T10:07:59Z</time>
      </trkpt>
      <trkpt lat="45.28055" lon="4.41032">
        <ele>1008.24</ele>
        <time>2015-10-25T10:08:04Z</time>
      </trkpt>
      <trkpt lat="45.28067" lon="4.41053">
        <ele>1008.69</ele>
        <time>2015-10-25T10:08:09Z</time>
      </trkpt>
      <trkpt lat="45.28078" lon="4.41077">
        <ele>1008.82</ele>
        <time>2015-10-25T10:08:14Z</time>
      </trkpt>
      <trkpt lat="45.28088" lon="4.411">
        <ele>1008.74</ele>
        <time>2015-10-25T10:08:18Z</time>
      </trkpt>
      <trkpt lat="45.28096" lon="4.41124">
        <ele>1008.53</ele>
        <time>2015-10-25T10:08:22Z</time>
      </trkpt>
      <trkpt lat="45.28105" lon="4.41152">
        <ele>1008.01</ele>
        <time>2015-10-25T10:08:27Z</time>
      </trkpt>
      <trkpt lat="45.28113" lon="4.41177">
        <ele>1007.83</ele>
        <time>2015-10-25T10:08:32Z</time>
      </trkpt>
      <trkpt lat="45.28122" lon="4.41203">
        <ele>1007.45</ele>
        <time>2015-10-25T10:08:37Z</time>
      </trkpt>
      <trkpt lat="45.2813" lon="4.41227">
        <ele>1007.16</ele>
        <time>2015-10-25T10:08:41Z</time>
      </trkpt>
      <trkpt lat="45.28138" lon="4.41261">
        <ele>1006.51</ele>
        <time>2015-10-25T10:08:45Z</time>
      </trkpt>
      <trkpt lat="45.28143" lon="4.41291">
        <ele>1005.39</ele>
        <time>2015-10-25T10:08:48Z</time>
      </trkpt>
      <trkpt lat="45.28153" lon="4.41318">
        <ele>1004.1</ele>
        <time>2015-10-25T10:08:51Z</time>
      </trkpt>
      <trkpt lat="45.28168" lon="4.41332">
        <ele>1003.09</ele>
        <time>2015-10-25T10:08:54Z</time>
      </trkpt>
      <trkpt lat="45.2819" lon="4.41343">
        <ele>1001.45</ele>
        <time>2015-10-25T10:08:58Z</time>
      </trkpt>
      <trkpt lat="45.28206" lon="4.41357">
        <ele>1000.21</ele>
        <time>2015-10-25T10:09:01Z</time>
      </trkpt>
      <trkpt lat="45.28221" lon="4.41377">
        <ele>996.87</ele>
        <time>2015-10-25T10:09:06Z</time>
      </trkpt>
      <trkpt lat="45.28216" lon="4.41402">
        <ele>994.57</ele>
        <time>2015-10-25T10:09:14Z</time>
      </trkpt>
      <trkpt lat="45.28206" lon="4.41427">
        <ele>995.81</ele>
        <time>2015-10-25T10:09:24Z</time>
      </trkpt>
      <trkpt lat="45.28202" lon="4.41459">
        <ele>998.85</ele>
        <time>2015-10-25T10:09:37Z</time>
      </trkpt>
      <trkpt lat="45.28197" lon="4.41493">
        <ele>1002.16</ele>
        <time>2015-10-25T10:09:49Z</time>
      </trkpt>
      <trkpt lat="45.28185" lon="4.41521">
        <ele>1006.46</ele>
        <time>2015-10-25T10:10:02Z</time>
      </trkpt>
      <trkpt lat="45.28177" lon="4.41552">
        <ele>1010.74</ele>
        <time>2015-10-25T10:10:17Z</time>
      </trkpt>
      <trkpt lat="45.28175" lon="4.41578">
        <ele>1013.65</ele>
        <time>2015-10-25T10:10:27Z</time>
      </trkpt>
      <trkpt lat="45.28192" lon="4.41583">
        <ele>1014.89</ele>
        <time>2015-10-25T10:11:05Z</time>
      </trkpt>
      <trkpt lat="45.28213" lon="4.41584">
        <ele>1014.16</ele>
        <time>2015-10-25T10:11:16Z</time>
      </trkpt>
      <trkpt lat="45.28236" lon="4.41592">
        <ele>1013.6</ele>
        <time>2015-10-25T10:11:28Z</time>
      </trkpt>
      <trkpt lat="45.28259" lon="4.41594">
        <ele>1012.43</ele>
        <time>2015-10-25T10:11:36Z</time>
      </trkpt>
      <trkpt lat="45.28275" lon="4.41622">
        <ele>1011.55</ele>
        <time>2015-10-25T10:11:44Z</time>
      </trkpt>
      <trkpt lat="45.28285" lon="4.41651">
        <ele>1011.19</ele>
        <time>2015-10-25T10:11:51Z</time>
      </trkpt>
      <trkpt lat="45.2829" lon="4.41685">
        <ele>1010.77</ele>
        <time>2015-10-25T10:11:59Z</time>
      </trkpt>
      <trkpt lat="45.28283" lon="4.41718">
        <ele>1010.55</ele>
        <time>2015-10-25T10:12:08Z</time>
      </trkpt>
      <trkpt lat="45.28278" lon="4.41747">
        <ele>1010.91</ele>
        <time>2015-10-25T10:12:18Z</time>
      </trkpt>
      <trkpt lat="45.28276" lon="4.41779">
        <ele>1012.47</ele>
        <time>2015-10-25T10:12:30Z</time>
      </trkpt>
      <trkpt lat="45.28271" lon="4.4182">
        <ele>1013.81</ele>
        <time>2015-10-25T10:12:45Z</time>
      </trkpt>
      <trkpt lat="45.28273" lon="4.41864">
        <ele>1016.82</ele>
        <time>2015-10-25T10:13:01Z</time>
      </trkpt>
      <trkpt lat="45.28266" lon="4.41898">
        <ele>1020.91</ele>
        <time>2015-10-25T10:13:16Z</time>
      </trkpt>
      <trkpt lat="45.28252" lon="4.41933">
        <ele>1025.1</ele>
        <time>2015-10-25T10:13:35Z</time>
      </trkpt>
      <trkpt lat="45.2824" lon="4.41965">
        <ele>1026.49</ele>
        <time>2015-10-25T10:13:53Z</time>
      </trkpt>
      <trkpt lat="45.28222" lon="4.41997">
        <ele>1027.35</ele>
        <time>2015-10-25T10:14:11Z</time>
      </trkpt>
      <trkpt lat="45.28205" lon="4.41974">
        <ele>1031.44</ele>
        <time>2015-10-25T10:14:37Z</time>
      </trkpt>
      <trkpt lat="45.28171" lon="4.41932">
        <ele>1037.75</ele>
        <time>2015-10-25T10:15:06Z</time>
      </trkpt>
      <trkpt lat="45.28146" lon="4.41912">
        <ele>1040.88</ele>
        <time>2015-10-25T10:15:39Z</time>
      </trkpt>
      <trkpt lat="45.2815" lon="4.41937">
        <ele>1040.76</ele>
        <time>2015-10-25T10:16:05Z</time>
      </trkpt>
      <trkpt lat="45.28151" lon="4.41975">
        <ele>1041.75</ele>
        <time>2015-10-25T10:16:17Z</time>
      </trkpt>
      <trkpt lat="45.28137" lon="4.4202">
        <ele>1042.55</ele>
        <time>2015-10-25T10:16:28Z</time>
      </trkpt>
      <trkpt lat="45.28127" lon="4.42053">
        <ele>1042.91</ele>
        <time>2015-10-25T10:16:37Z</time>
      </trkpt>
      <trkpt lat="45.28123" lon="4.42091">
        <ele>1042.78</ele>
        <time>2015-10-25T10:16:46Z</time>
      </trkpt>
      <trkpt lat="45.28116" lon="4.42125">
        <ele>1042.9</ele>
        <time>2015-10-25T10:16:54Z</time>
      </trkpt>
      <trkpt lat="45.28106" lon="4.42155">
        <ele>1044.05</ele>
        <time>2015-10-25T10:17:03Z</time>
      </trkpt>
      <trkpt lat="45.28111" lon="4.42184">
        <ele>1043.72</ele>
        <time>2015-10-25T10:17:13Z</time>
      </trkpt>
      <trkpt lat="45.28103" lon="4.42219">
        <ele>1042.79</ele>
        <time>2015-10-25T10:17:21Z</time>
      </trkpt>
      <trkpt lat="45.28096" lon="4.42251">
        <ele>1042.39</ele>
        <time>2015-10-25T10:17:29Z</time>
      </trkpt>
      <trkpt lat="45.28093" lon="4.42283">
        <ele>1042.07</ele>
        <time>2015-10-25T10:17:36Z</time>
      </trkpt>
      <trkpt lat="45.28107" lon="4.42312">
        <ele>1041.46</ele>
        <time>2015-10-25T10:17:43Z</time>
      </trkpt>
      <trkpt lat="45.28131" lon="4.42328">
        <ele>1040.69</ele>
        <time>2015-10-25T10:17:51Z</time>
      </trkpt>
      <trkpt lat="45.28153" lon="4.42344">
        <ele>1039.64</ele>
        <time>2015-10-25T10:18:00Z</time>
      </trkpt>
      <trkpt lat="45.28185" lon="4.42354">
        <ele>1039.25</ele>
        <time>2015-10-25T10:18:11Z</time>
      </trkpt>
      <trkpt lat="45.28212" lon="4.4235">
        <ele>1038.42</ele>
        <time>2015-10-25T10:18:19Z</time>
      </trkpt>
      <trkpt lat="45.28241" lon="4.42344">
        <ele>1038.59</ele>
        <time>2015-10-25T10:18:29Z</time>
      </trkpt>
      <trkpt lat="45.28273" lon="4.42356">
        <ele>1039.28</ele>
        <time>2015-10-25T10:18:36Z</time>
      </trkpt>
      <trkpt lat="45.283" lon="4.42361">
        <ele>1039.77</ele>
        <time>2015-10-25T10:18:43Z</time>
      </trkpt>
      <trkpt lat="45.2832" lon="4.42344">
        <ele>1040.86</ele>
        <time>2015-10-25T10:18:50Z</time>
      </trkpt>
      <trkpt lat="45.28339" lon="4.42331">
        <ele>1040.85</ele>
        <time>2015-10-25T10:18:56Z</time>
      </trkpt>
      <trkpt lat="45.28359" lon="4.42317">
        <ele>1040.76</ele>
        <time>2015-10-25T10:19:03Z</time>
      </trkpt>
      <trkpt lat="45.28379" lon="4.42302">
        <ele>1040.77</ele>
        <time>2015-10-25T10:19:10Z</time>
      </trkpt>
      <trkpt lat="45.28398" lon="4.42286">
        <ele>1040.83</ele>
        <time>2015-10-25T10:19:18Z</time>
      </trkpt>
      <trkpt lat="45.28404" lon="4.42311">
        <ele>1041.02</ele>
        <time>2015-10-25T10:19:25Z</time>
      </trkpt>
      <trkpt lat="45.28408" lon="4.42343">
        <ele>1041</ele>
        <time>2015-10-25T10:19:32Z</time>
      </trkpt>
      <trkpt lat="45.28411" lon="4.4237">
        <ele>1041.31</ele>
        <time>2015-10-25T10:19:39Z</time>
      </trkpt>
      <trkpt lat="45.28416" lon="4.42398">
        <ele>1042.15</ele>
        <time>2015-10-25T10:19:47Z</time>
      </trkpt>
      <trkpt lat="45.28423" lon="4.42426">
        <ele>1042.96</ele>
        <time>2015-10-25T10:19:56Z</time>
      </trkpt>
      <trkpt lat="45.2843" lon="4.42453">
        <ele>1044.62</ele>
        <time>2015-10-25T10:20:07Z</time>
      </trkpt>
      <trkpt lat="45.28441" lon="4.42475">
        <ele>1046.62</ele>
        <time>2015-10-25T10:20:17Z</time>
      </trkpt>
      <trkpt lat="45.28455" lon="4.42493">
        <ele>1049.3</ele>
        <time>2015-10-25T10:20:28Z</time>
      </trkpt>
      <trkpt lat="45.28468" lon="4.42514">
        <ele>1050.97</ele>
        <time>2015-10-25T10:20:41Z</time>
      </trkpt>
      <trkpt lat="45.28482" lon="4.42536">
        <ele>1053.01</ele>
        <time>2015-10-25T10:20:54Z</time>
      </trkpt>
      <trkpt lat="45.28494" lon="4.42559">
        <ele>1056</ele>
        <time>2015-10-25T10:21:08Z</time>
      </trkpt>
      <trkpt lat="45.28512" lon="4.42572">
        <ele>1059.05</ele>
        <time>2015-10-25T10:21:23Z</time>
      </trkpt>
      <trkpt lat="45.28534" lon="4.42569">
        <ele>1059.57</ele>
        <time>2015-10-25T10:21:32Z</time>
      </trkpt>
      <trkpt lat="45.28555" lon="4.4257">
        <ele>1058.83</ele>
        <time>2015-10-25T10:21:38Z</time>
      </trkpt>
      <trkpt lat="45.28574" lon="4.42577">
        <ele>1058.01</ele>
        <time>2015-10-25T10:21:48Z</time>
      </trkpt>
      <trkpt lat="45.28594" lon="4.42583">
        <ele>1057.96</ele>
        <time>2015-10-25T10:21:56Z</time>
      </trkpt>
      <trkpt lat="45.28615" lon="4.42589">
        <ele>1057.85</ele>
        <time>2015-10-25T10:22:03Z</time>
      </trkpt>
      <trkpt lat="45.28636" lon="4.42592">
        <ele>1057.9</ele>
        <time>2015-10-25T10:22:11Z</time>
      </trkpt>
      <trkpt lat="45.28656" lon="4.42599">
        <ele>1058.38</ele>
        <time>2015-10-25T10:22:18Z</time>
      </trkpt>
      <trkpt lat="45.28678" lon="4.42608">
        <ele>1058.19</ele>
        <time>2015-10-25T10:22:26Z</time>
      </trkpt>
      <trkpt lat="45.28697" lon="4.42593">
        <ele>1057.97</ele>
        <time>2015-10-25T10:22:33Z</time>
      </trkpt>
      <trkpt lat="45.28713" lon="4.42574">
        <ele>1058.21</ele>
        <time>2015-10-25T10:22:40Z</time>
      </trkpt>
      <trkpt lat="45.28728" lon="4.42554">
        <ele>1058.59</ele>
        <time>2015-10-25T10:22:47Z</time>
      </trkpt>
      <trkpt lat="45.28743" lon="4.42535">
        <ele>1058.17</ele>
        <time>2015-10-25T10:22:53Z</time>
      </trkpt>
      <trkpt lat="45.28761" lon="4.42521">
        <ele>1057.34</ele>
        <time>2015-10-25T10:22:58Z</time>
      </trkpt>
      <trkpt lat="45.28779" lon="4.42506">
        <ele>1056.88</ele>
        <time>2015-10-25T10:23:03Z</time>
      </trkpt>
      <trkpt lat="45.28795" lon="4.42493">
        <ele>1056.75</ele>
        <time>2015-10-25T10:23:08Z</time>
      </trkpt>
      <trkpt lat="45.28807" lon="4.4247">
        <ele>1056.57</ele>
        <time>2015-10-25T10:23:14Z</time>
      </trkpt>
      <trkpt lat="45.28815" lon="4.42447">
        <ele>1056.85</ele>
        <time>2015-10-25T10:23:20Z</time>
      </trkpt>
      <trkpt lat="45.28827" lon="4.42423">
        <ele>1057.59</ele>
        <time>2015-10-25T10:23:27Z</time>
      </trkpt>
      <trkpt lat="45.28842" lon="4.42403">
        <ele>1058.58</ele>
        <time>2015-10-25T10:23:34Z</time>
      </trkpt>
      <trkpt lat="45.28857" lon="4.42378">
        <ele>1060.32</ele>
        <time>2015-10-25T10:23:42Z</time>
      </trkpt>
      <trkpt lat="45.28865" lon="4.42351">
        <ele>1060.42</ele>
        <time>2015-10-25T10:23:47Z</time>
      </trkpt>
      <trkpt lat="45.28871" lon="4.42317">
        <ele>1059.24</ele>
        <time>2015-10-25T10:23:52Z</time>
      </trkpt>
      <trkpt lat="45.28878" lon="4.42291">
        <ele>1057.88</ele>
        <time>2015-10-25T10:23:55Z</time>
      </trkpt>
      <trkpt lat="45.28889" lon="4.42264">
        <ele>1056.11</ele>
        <time>2015-10-25T10:23:59Z</time>
      </trkpt>
      <trkpt lat="45.28902" lon="4.42245">
        <ele>1053.5</ele>
        <time>2015-10-25T10:24:05Z</time>
      </trkpt>
      <trkpt lat="45.28922" lon="4.42238">
        <ele>1053.39</ele>
        <time>2015-10-25T10:24:14Z</time>
      </trkpt>
      <trkpt lat="45.28942" lon="4.42226">
        <ele>1055.07</ele>
        <time>2015-10-25T10:24:24Z</time>
      </trkpt>
      <trkpt lat="45.28962" lon="4.42214">
        <ele>1056</ele>
        <time>2015-10-25T10:24:31Z</time>
      </trkpt>
      <trkpt lat="45.28982" lon="4.42202">
        <ele>1057.12</ele>
        <time>2015-10-25T10:24:38Z</time>
      </trkpt>
      <trkpt lat="45.28996" lon="4.42182">
        <ele>1057.01</ele>
        <time>2015-10-25T10:24:43Z</time>
      </trkpt>
      <trkpt lat="45.2901" lon="4.4216">
        <ele>1056.31</ele>
        <time>2015-10-25T10:24:48Z</time>
      </trkpt>
      <trkpt lat="45.29026" lon="4.4214">
        <ele>1055.14</ele>
        <time>2015-10-25T10:24:54Z</time>
      </trkpt>
      <trkpt lat="45.29043" lon="4.42126">
        <ele>1054.47</ele>
        <time>2015-10-25T10:24:59Z</time>
      </trkpt>
      <trkpt lat="45.2906" lon="4.42111">
        <ele>1053.88</ele>
        <time>2015-10-25T10:25:03Z</time>
      </trkpt>
      <trkpt lat="45.29077" lon="4.4209">
        <ele>1052.72</ele>
        <time>2015-10-25T10:25:07Z</time>
      </trkpt>
      <trkpt lat="45.29091" lon="4.42066">
        <ele>1050.45</ele>
        <time>2015-10-25T10:25:11Z</time>
      </trkpt>
      <trkpt lat="45.2911" lon="4.42041">
        <ele>1048.1</ele>
        <time>2015-10-25T10:25:15Z</time>
      </trkpt>
      <trkpt lat="45.29124" lon="4.42022">
        <ele>1045.65</ele>
        <time>2015-10-25T10:25:19Z</time>
      </trkpt>
      <trkpt lat="45.29141" lon="4.42028">
        <ele>1041.52</ele>
        <time>2015-10-25T10:25:28Z</time>
      </trkpt>
      <trkpt lat="45.29154" lon="4.42049">
        <ele>1042.75</ele>
        <time>2015-10-25T10:25:38Z</time>
      </trkpt>
      <trkpt lat="45.2916" lon="4.42075">
        <ele>1045.82</ele>
        <time>2015-10-25T10:25:51Z</time>
      </trkpt>
      <trkpt lat="45.29168" lon="4.42101">
        <ele>1049.82</ele>
        <time>2015-10-25T10:26:06Z</time>
      </trkpt>
      <trkpt lat="45.29178" lon="4.42126">
        <ele>1052.32</ele>
        <time>2015-10-25T10:26:20Z</time>
      </trkpt>
      <trkpt lat="45.29192" lon="4.42145">
        <ele>1054.62</ele>
        <time>2015-10-25T10:26:35Z</time>
      </trkpt>
      <trkpt lat="45.29207" lon="4.4217">
        <ele>1056.41</ele>
        <time>2015-10-25T10:26:50Z</time>
      </trkpt>
      <trkpt lat="45.29221" lon="4.42194">
        <ele>1057.32</ele>
        <time>2015-10-25T10:27:03Z</time>
      </trkpt>
      <trkpt lat="45.2924" lon="4.42209">
        <ele>1057.61</ele>
        <time>2015-10-25T10:27:17Z</time>
      </trkpt>
      <trkpt lat="45.2926" lon="4.42226">
        <ele>1057.69</ele>
        <time>2015-10-25T10:27:28Z</time>
      </trkpt>
      <trkpt lat="45.29275" lon="4.42252">
        <ele>1058.62</ele>
        <time>2015-10-25T10:27:39Z</time>
      </trkpt>
      <trkpt lat="45.29286" lon="4.42279">
        <ele>1060.66</ele>
        <time>2015-10-25T10:27:53Z</time>
      </trkpt>
      <trkpt lat="45.29305" lon="4.42297">
        <ele>1062.59</ele>
        <time>2015-10-25T10:28:06Z</time>
      </trkpt>
      <trkpt lat="45.29323" lon="4.4232">
        <ele>1065.05</ele>
        <time>2015-10-25T10:28:20Z</time>
      </trkpt>
      <trkpt lat="45.29338" lon="4.42342">
        <ele>1067.72</ele>
        <time>2015-10-25T10:28:33Z</time>
      </trkpt>
      <trkpt lat="45.29349" lon="4.4237">
        <ele>1069.53</ele>
        <time>2015-10-25T10:28:47Z</time>
      </trkpt>
      <trkpt lat="45.29359" lon="4.42399">
        <ele>1072.1</ele>
        <time>2015-10-25T10:29:03Z</time>
      </trkpt>
      <trkpt lat="45.29366" lon="4.4243">
        <ele>1075.73</ele>
        <time>2015-10-25T10:29:19Z</time>
      </trkpt>
      <trkpt lat="45.29378" lon="4.42458">
        <ele>1078.42</ele>
        <time>2015-10-25T10:29:34Z</time>
      </trkpt>
      <trkpt lat="45.29384" lon="4.4249">
        <ele>1080.06</ele>
        <time>2015-10-25T10:29:46Z</time>
      </trkpt>
      <trkpt lat="45.29392" lon="4.42517">
        <ele>1081.42</ele>
        <time>2015-10-25T10:29:58Z</time>
      </trkpt>
      <trkpt lat="45.29404" lon="4.42541">
        <ele>1082.37</ele>
        <time>2015-10-25T10:30:07Z</time>
      </trkpt>
      <trkpt lat="45.29417" lon="4.42564">
        <ele>1082.64</ele>
        <time>2015-10-25T10:30:15Z</time>
      </trkpt>
      <trkpt lat="45.29428" lon="4.42587">
        <ele>1082.96</ele>
        <time>2015-10-25T10:30:24Z</time>
      </trkpt>
      <trkpt lat="45.29438" lon="4.4261">
        <ele>1083.22</ele>
        <time>2015-10-25T10:30:59Z</time>
      </trkpt>
      <trkpt lat="45.29445" lon="4.42637">
        <ele>1083.03</ele>
        <time>2015-10-25T10:31:07Z</time>
      </trkpt>
      <trkpt lat="45.29451" lon="4.42665">
        <ele>1083.42</ele>
        <time>2015-10-25T10:31:15Z</time>
      </trkpt>
      <trkpt lat="45.29454" lon="4.42695">
        <ele>1083.61</ele>
        <time>2015-10-25T10:31:23Z</time>
      </trkpt>
      <trkpt lat="45.29459" lon="4.42721">
        <ele>1084.31</ele>
        <time>2015-10-25T10:31:31Z</time>
      </trkpt>
      <trkpt lat="45.29466" lon="4.42748">
        <ele>1085.26</ele>
        <time>2015-10-25T10:31:39Z</time>
      </trkpt>
      <trkpt lat="45.29473" lon="4.42775">
        <ele>1086.22</ele>
        <time>2015-10-25T10:31:47Z</time>
      </trkpt>
      <trkpt lat="45.29478" lon="4.428">
        <ele>1088.07</ele>
        <time>2015-10-25T10:31:56Z</time>
      </trkpt>
      <trkpt lat="45.29483" lon="4.42826">
        <ele>1089.47</ele>
        <time>2015-10-25T10:32:05Z</time>
      </trkpt>
      <trkpt lat="45.29486" lon="4.42853">
        <ele>1090.9</ele>
        <time>2015-10-25T10:32:13Z</time>
      </trkpt>
      <trkpt lat="45.29487" lon="4.42883">
        <ele>1090.93</ele>
        <time>2015-10-25T10:32:22Z</time>
      </trkpt>
      <trkpt lat="45.29492" lon="4.42912">
        <ele>1090.07</ele>
        <time>2015-10-25T10:32:31Z</time>
      </trkpt>
      <trkpt lat="45.29506" lon="4.42934">
        <ele>1090.62</ele>
        <time>2015-10-25T10:32:42Z</time>
      </trkpt>
      <trkpt lat="45.29525" lon="4.42951">
        <ele>1091.18</ele>
        <time>2015-10-25T10:32:54Z</time>
      </trkpt>
      <trkpt lat="45.29545" lon="4.42949">
        <ele>1091.39</ele>
        <time>2015-10-25T10:33:02Z</time>
      </trkpt>
      <trkpt lat="45.29564" lon="4.42961">
        <ele>1092.48</ele>
        <time>2015-10-25T10:33:12Z</time>
      </trkpt>
      <trkpt lat="45.2958" lon="4.42981">
        <ele>1094.09</ele>
        <time>2015-10-25T10:33:22Z</time>
      </trkpt>
      <trkpt lat="45.29596" lon="4.43008">
        <ele>1096.11</ele>
        <time>2015-10-25T10:33:31Z</time>
      </trkpt>
      <trkpt lat="45.29609" lon="4.43033">
        <ele>1097.55</ele>
        <time>2015-10-25T10:33:40Z</time>
      </trkpt>
      <trkpt lat="45.29622" lon="4.43057">
        <ele>1099.33</ele>
        <time>2015-10-25T10:33:48Z</time>
      </trkpt>
      <trkpt lat="45.29632" lon="4.43085">
        <ele>1101.91</ele>
        <time>2015-10-25T10:33:56Z</time>
      </trkpt>
      <trkpt lat="45.29639" lon="4.43114">
        <ele>1105.4</ele>
        <time>2015-10-25T10:34:07Z</time>
      </trkpt>
      <trkpt lat="45.29645" lon="4.43143">
        <ele>1107.18</ele>
        <time>2015-10-25T10:34:19Z</time>
      </trkpt>
      <trkpt lat="45.29657" lon="4.4317">
        <ele>1109.38</ele>
        <time>2015-10-25T10:34:31Z</time>
      </trkpt>
      <trkpt lat="45.29663" lon="4.43195">
        <ele>1111.62</ele>
        <time>2015-10-25T10:34:42Z</time>
      </trkpt>
      <trkpt lat="45.29668" lon="4.43222">
        <ele>1114.28</ele>
        <time>2015-10-25T10:34:53Z</time>
      </trkpt>
      <trkpt lat="45.29676" lon="4.43247">
        <ele>1116.39</ele>
        <time>2015-10-25T10:35:04Z</time>
      </trkpt>
      <trkpt lat="45.29673" lon="4.43275">
        <ele>1117.15</ele>
        <time>2015-10-25T10:35:14Z</time>
      </trkpt>
      <trkpt lat="45.29669" lon="4.43297">
        <ele>1118.17</ele>
        <time>2015-10-25T10:36:14Z</time>
      </trkpt>
      <trkpt lat="45.29666" lon="4.43324">
        <ele>1118.27</ele>
        <time>2015-10-25T10:37:01Z</time>
      </trkpt>
      <trkpt lat="45.29662" lon="4.43352">
        <ele>1118.75</ele>
        <time>2015-10-25T10:37:11Z</time>
      </trkpt>
      <trkpt lat="45.29657" lon="4.43379">
        <ele>1119.35</ele>
        <time>2015-10-25T10:37:17Z</time>
      </trkpt>
      <trkpt lat="45.29652" lon="4.43406">
        <ele>1119.56</ele>
        <time>2015-10-25T10:37:22Z</time>
      </trkpt>
      <trkpt lat="45.29648" lon="4.43435">
        <ele>1119.98</ele>
        <time>2015-10-25T10:37:27Z</time>
      </trkpt>
      <trkpt lat="45.29644" lon="4.43463">
        <ele>1120.54</ele>
        <time>2015-10-25T10:37:32Z</time>
      </trkpt>
      <trkpt lat="45.2964" lon="4.43489">
        <ele>1121.35</ele>
        <time>2015-10-25T10:37:37Z</time>
      </trkpt>
      <trkpt lat="45.29635" lon="4.43515">
        <ele>1121.72</ele>
        <time>2015-10-25T10:37:42Z</time>
      </trkpt>
      <trkpt lat="45.29631" lon="4.43543">
        <ele>1122.43</ele>
        <time>2015-10-25T10:37:47Z</time>
      </trkpt>
      <trkpt lat="45.29626" lon="4.43574">
        <ele>1122.75</ele>
        <time>2015-10-25T10:37:52Z</time>
      </trkpt>
      <trkpt lat="45.29622" lon="4.43604">
        <ele>1123.07</ele>
        <time>2015-10-25T10:37:57Z</time>
      </trkpt>
      <trkpt lat="45.29619" lon="4.43633">
        <ele>1123.53</ele>
        <time>2015-10-25T10:38:02Z</time>
      </trkpt>
      <trkpt lat="45.29621" lon="4.4366">
        <ele>1123.92</ele>
        <time>2015-10-25T10:38:07Z</time>
      </trkpt>
      <trkpt lat="45.29629" lon="4.43686">
        <ele>1124.33</ele>
        <time>2015-10-25T10:38:13Z</time>
      </trkpt>
      <trkpt lat="45.29644" lon="4.43693">
        <ele>1124.45</ele>
        <time>2015-10-25T10:38:20Z</time>
      </trkpt>
      <trkpt lat="45.29663" lon="4.43693">
        <ele>1124.62</ele>
        <time>2015-10-25T10:38:27Z</time>
      </trkpt>
      <trkpt lat="45.29684" lon="4.43694">
        <ele>1125.38</ele>
        <time>2015-10-25T10:38:35Z</time>
      </trkpt>
      <trkpt lat="45.29704" lon="4.43694">
        <ele>1126.67</ele>
        <time>2015-10-25T10:38:43Z</time>
      </trkpt>
      <trkpt lat="45.29723" lon="4.43697">
        <ele>1128.29</ele>
        <time>2015-10-25T10:38:50Z</time>
      </trkpt>
      <trkpt lat="45.29742" lon="4.43697">
        <ele>1129.98</ele>
        <time>2015-10-25T10:38:58Z</time>
      </trkpt>
      <trkpt lat="45.29762" lon="4.43698">
        <ele>1132.05</ele>
        <time>2015-10-25T10:39:07Z</time>
      </trkpt>
      <trkpt lat="45.29782" lon="4.43705">
        <ele>1134.08</ele>
        <time>2015-10-25T10:39:18Z</time>
      </trkpt>
      <trkpt lat="45.298" lon="4.43713">
        <ele>1135.6</ele>
        <time>2015-10-25T10:39:27Z</time>
      </trkpt>
      <trkpt lat="45.29819" lon="4.43718">
        <ele>1136.54</ele>
        <time>2015-10-25T10:39:36Z</time>
      </trkpt>
      <trkpt lat="45.29837" lon="4.43725">
        <ele>1137.75</ele>
        <time>2015-10-25T10:39:45Z</time>
      </trkpt>
      <trkpt lat="45.29856" lon="4.43727">
        <ele>1138.97</ele>
        <time>2015-10-25T10:39:54Z</time>
      </trkpt>
      <trkpt lat="45.29875" lon="4.43723">
        <ele>1139.73</ele>
        <time>2015-10-25T10:40:02Z</time>
      </trkpt>
      <trkpt lat="45.29894" lon="4.43714">
        <ele>1140.49</ele>
        <time>2015-10-25T10:40:09Z</time>
      </trkpt>
      <trkpt lat="45.29913" lon="4.437">
        <ele>1140.73</ele>
        <time>2015-10-25T10:40:16Z</time>
      </trkpt>
      <trkpt lat="45.29929" lon="4.43685">
        <ele>1140.68</ele>
        <time>2015-10-25T10:40:22Z</time>
      </trkpt>
      <trkpt lat="45.29946" lon="4.43668">
        <ele>1140.91</ele>
        <time>2015-10-25T10:40:30Z</time>
      </trkpt>
      <trkpt lat="45.29964" lon="4.43654">
        <ele>1141.11</ele>
        <time>2015-10-25T10:40:39Z</time>
      </trkpt>
      <trkpt lat="45.29989" lon="4.43641">
        <ele>1141.81</ele>
        <time>2015-10-25T10:40:54Z</time>
      </trkpt>
      <trkpt lat="45.30022" lon="4.43654">
        <ele>1143.75</ele>
        <time>2015-10-25T10:41:10Z</time>
      </trkpt>
      <trkpt lat="45.30049" lon="4.43656">
        <ele>1144.53</ele>
        <time>2015-10-25T10:41:19Z</time>
      </trkpt>
      <trkpt lat="45.30075" lon="4.43664">
        <ele>1144.96</ele>
        <time>2015-10-25T10:41:29Z</time>
      </trkpt>
      <trkpt lat="45.30106" lon="4.43671">
        <ele>1145.87</ele>
        <time>2015-10-25T10:41:40Z</time>
      </trkpt>
      <trkpt lat="45.30133" lon="4.43672">
        <ele>1146.28</ele>
        <time>2015-10-25T10:41:50Z</time>
      </trkpt>
      <trkpt lat="45.30159" lon="4.43676">
        <ele>1146.21</ele>
        <time>2015-10-25T10:41:59Z</time>
      </trkpt>
      <trkpt lat="45.30182" lon="4.43673">
        <ele>1145.28</ele>
        <time>2015-10-25T10:42:06Z</time>
      </trkpt>
      <trkpt lat="45.30207" lon="4.43676">
        <ele>1144.65</ele>
        <time>2015-10-25T10:42:15Z</time>
      </trkpt>
      <trkpt lat="45.30233" lon="4.43684">
        <ele>1144.75</ele>
        <time>2015-10-25T10:42:29Z</time>
      </trkpt>
      <trkpt lat="45.30254" lon="4.43688">
        <ele>1144.9</ele>
        <time>2015-10-25T10:42:35Z</time>
      </trkpt>
      <trkpt lat="45.30278" lon="4.43685">
        <ele>1144.5</ele>
        <time>2015-10-25T10:42:43Z</time>
      </trkpt>
      <trkpt lat="45.30298" lon="4.43682">
        <ele>1143.46</ele>
        <time>2015-10-25T10:42:51Z</time>
      </trkpt>
      <trkpt lat="45.30312" lon="4.43693">
        <ele>1143.18</ele>
        <time>2015-10-25T10:43:35Z</time>
      </trkpt>
      <trkpt lat="45.3031" lon="4.4372">
        <ele>1144.36</ele>
        <time>2015-10-25T10:43:44Z</time>
      </trkpt>
      <trkpt lat="45.30319" lon="4.43746">
        <ele>1146.77</ele>
        <time>2015-10-25T10:43:50Z</time>
      </trkpt>
      <trkpt lat="45.30323" lon="4.43771">
        <ele>1149.74</ele>
        <time>2015-10-25T10:43:56Z</time>
      </trkpt>
      <trkpt lat="45.30326" lon="4.43798">
        <ele>1152.45</ele>
        <time>2015-10-25T10:44:02Z</time>
      </trkpt>
      <trkpt lat="45.30329" lon="4.43824">
        <ele>1154.62</ele>
        <time>2015-10-25T10:44:07Z</time>
      </trkpt>
      <trkpt lat="45.30327" lon="4.43849">
        <ele>1158.49</ele>
        <time>2015-10-25T10:44:13Z</time>
      </trkpt>
      <trkpt lat="45.3031" lon="4.43861">
        <ele>1162.18</ele>
        <time>2015-10-25T10:44:20Z</time>
      </trkpt>
      <trkpt lat="45.30293" lon="4.43872">
        <ele>1165.42</ele>
        <time>2015-10-25T10:44:26Z</time>
      </trkpt>
      <trkpt lat="45.30296" lon="4.43897">
        <ele>1169.52</ele>
        <time>2015-10-25T10:44:34Z</time>
      </trkpt>
      <trkpt lat="45.30287" lon="4.4392">
        <ele>1175.4</ele>
        <time>2015-10-25T10:44:56Z</time>
      </trkpt>
      <trkpt lat="45.30271" lon="4.43937">
        <ele>1179</ele>
        <time>2015-10-25T10:45:19Z</time>
      </trkpt>
      <trkpt lat="45.30274" lon="4.43963">
        <ele>1181.42</ele>
        <time>2015-10-25T10:45:43Z</time>
      </trkpt>
      <trkpt lat="45.30275" lon="4.4399">
        <ele>1183.57</ele>
        <time>2015-10-25T10:45:51Z</time>
      </trkpt>
      <trkpt lat="45.30258" lon="4.44005">
        <ele>1186.91</ele>
        <time>2015-10-25T10:46:00Z</time>
      </trkpt>
      <trkpt lat="45.30247" lon="4.44017">
        <ele>1191.15</ele>
        <time>2015-10-25T10:49:33Z</time>
      </trkpt>
      <trkpt lat="45.30238" lon="4.4404">
        <ele>1194.03</ele>
        <time>2015-10-25T10:49:59Z</time>
      </trkpt>
      <trkpt lat="45.30236" lon="4.44067">
        <ele>1194.76</ele>
        <time>2015-10-25T10:50:10Z</time>
      </trkpt>
      <trkpt lat="45.30227" lon="4.4409">
        <ele>1196.9</ele>
        <time>2015-10-25T10:50:21Z</time>
      </trkpt>
      <trkpt lat="45.30225" lon="4.44114">
        <ele>1199.57</ele>
        <time>2015-10-25T10:50:32Z</time>
      </trkpt>
      <trkpt lat="45.30229" lon="4.4414">
        <ele>1201.88</ele>
        <time>2015-10-25T10:50:44Z</time>
      </trkpt>
      <trkpt lat="45.30229" lon="4.44168">
        <ele>1203.91</ele>
        <time>2015-10-25T10:50:56Z</time>
      </trkpt>
      <trkpt lat="45.30228" lon="4.44194">
        <ele>1205.85</ele>
        <time>2015-10-25T10:51:11Z</time>
      </trkpt>
      <trkpt lat="45.3023" lon="4.44217">
        <ele>1207.36</ele>
        <time>2015-10-25T10:51:25Z</time>
      </trkpt>
      <trkpt lat="45.3024" lon="4.4424">
        <ele>1208.74</ele>
        <time>2015-10-25T10:51:36Z</time>
      </trkpt>
      <trkpt lat="45.3025" lon="4.44262">
        <ele>1209.68</ele>
        <time>2015-10-25T10:51:45Z</time>
      </trkpt>
      <trkpt lat="45.30264" lon="4.44279">
        <ele>1210.76</ele>
        <time>2015-10-25T10:51:53Z</time>
      </trkpt>
      <trkpt lat="45.3028" lon="4.44295">
        <ele>1211.79</ele>
        <time>2015-10-25T10:52:01Z</time>
      </trkpt>
      <trkpt lat="45.30296" lon="4.44311">
        <ele>1212.7</ele>
        <time>2015-10-25T10:52:10Z</time>
      </trkpt>
      <trkpt lat="45.30312" lon="4.44327">
        <ele>1214.1</ele>
        <time>2015-10-25T10:52:19Z</time>
      </trkpt>
      <trkpt lat="45.30329" lon="4.4434">
        <ele>1215.37</ele>
        <time>2015-10-25T10:52:28Z</time>
      </trkpt>
      <trkpt lat="45.30346" lon="4.44355">
        <ele>1216.97</ele>
        <time>2015-10-25T10:52:38Z</time>
      </trkpt>
      <trkpt lat="45.30364" lon="4.44367">
        <ele>1218.51</ele>
        <time>2015-10-25T10:52:48Z</time>
      </trkpt>
      <trkpt lat="45.30383" lon="4.44378">
        <ele>1219.59</ele>
        <time>2015-10-25T10:52:58Z</time>
      </trkpt>
      <trkpt lat="45.30402" lon="4.44388">
        <ele>1221.38</ele>
        <time>2015-10-25T10:53:11Z</time>
      </trkpt>
      <trkpt lat="45.30422" lon="4.44403">
        <ele>1223.33</ele>
        <time>2015-10-25T10:53:24Z</time>
      </trkpt>
      <trkpt lat="45.30442" lon="4.44419">
        <ele>1225.95</ele>
        <time>2015-10-25T10:53:34Z</time>
      </trkpt>
      <trkpt lat="45.30463" lon="4.4443">
        <ele>1228.1</ele>
        <time>2015-10-25T10:53:45Z</time>
      </trkpt>
      <trkpt lat="45.3048" lon="4.44444">
        <ele>1230.14</ele>
        <time>2015-10-25T10:53:55Z</time>
      </trkpt>
      <trkpt lat="45.30496" lon="4.44458">
        <ele>1232.32</ele>
        <time>2015-10-25T10:54:05Z</time>
      </trkpt>
      <trkpt lat="45.30512" lon="4.44474">
        <ele>1234.7</ele>
        <time>2015-10-25T10:54:15Z</time>
      </trkpt>
      <trkpt lat="45.30529" lon="4.44491">
        <ele>1236.96</ele>
        <time>2015-10-25T10:54:26Z</time>
      </trkpt>
      <trkpt lat="45.30542" lon="4.44508">
        <ele>1238.86</ele>
        <time>2015-10-25T10:54:36Z</time>
      </trkpt>
      <trkpt lat="45.30549" lon="4.4453">
        <ele>1242.06</ele>
        <time>2015-10-25T10:55:08Z</time>
      </trkpt>
      <trkpt lat="45.30554" lon="4.44527">
        <ele>1242.82</ele>
        <time>2015-10-25T10:57:16Z</time>
      </trkpt>
      <trkpt lat="45.30572" lon="4.44521">
        <ele>1242.26</ele>
        <time>2015-10-25T10:57:26Z</time>
      </trkpt>
      <trkpt lat="45.30584" lon="4.44499">
        <ele>1241.73</ele>
        <time>2015-10-25T10:57:35Z</time>
      </trkpt>
      <trkpt lat="45.30603" lon="4.4449">
        <ele>1240.57</ele>
        <time>2015-10-25T10:57:43Z</time>
      </trkpt>
      <trkpt lat="45.3062" lon="4.44502">
        <ele>1240.72</ele>
        <time>2015-10-25T10:57:51Z</time>
      </trkpt>
      <trkpt lat="45.30638" lon="4.44498">
        <ele>1241.18</ele>
        <time>2015-10-25T10:57:58Z</time>
      </trkpt>
      <trkpt lat="45.30657" lon="4.44489">
        <ele>1240.71</ele>
        <time>2015-10-25T10:58:04Z</time>
      </trkpt>
      <trkpt lat="45.30676" lon="4.44485">
        <ele>1239.81</ele>
        <time>2015-10-25T10:58:13Z</time>
      </trkpt>
      <trkpt lat="45.30697" lon="4.4448">
        <ele>1239.79</ele>
        <time>2015-10-25T10:58:29Z</time>
      </trkpt>
      <trkpt lat="45.30718" lon="4.44479">
        <ele>1239.71</ele>
        <time>2015-10-25T10:58:34Z</time>
      </trkpt>
      <trkpt lat="45.30736" lon="4.44466">
        <ele>1239.81</ele>
        <time>2015-10-25T10:58:39Z</time>
      </trkpt>
      <trkpt lat="45.30752" lon="4.44453">
        <ele>1240.37</ele>
        <time>2015-10-25T10:58:44Z</time>
      </trkpt>
      <trkpt lat="45.30766" lon="4.44435">
        <ele>1241.39</ele>
        <time>2015-10-25T10:58:50Z</time>
      </trkpt>
      <trkpt lat="45.30772" lon="4.44411">
        <ele>1242.17</ele>
        <time>2015-10-25T10:58:56Z</time>
      </trkpt>
      <trkpt lat="45.30776" lon="4.44384">
        <ele>1242.36</ele>
        <time>2015-10-25T10:59:02Z</time>
      </trkpt>
      <trkpt lat="45.30784" lon="4.44357">
        <ele>1241.89</ele>
        <time>2015-10-25T10:59:08Z</time>
      </trkpt>
      <trkpt lat="45.30791" lon="4.44333">
        <ele>1241.13</ele>
        <time>2015-10-25T10:59:14Z</time>
      </trkpt>
      <trkpt lat="45.30794" lon="4.44307">
        <ele>1239.37</ele>
        <time>2015-10-25T10:59:20Z</time>
      </trkpt>
      <trkpt lat="45.30798" lon="4.44277">
        <ele>1238.04</ele>
        <time>2015-10-25T10:59:25Z</time>
      </trkpt>
      <trkpt lat="45.30803" lon="4.44248">
        <ele>1236.41</ele>
        <time>2015-10-25T10:59:30Z</time>
      </trkpt>
      <trkpt lat="45.30809" lon="4.44221">
        <ele>1234.72</ele>
        <time>2015-10-25T10:59:35Z</time>
      </trkpt>
      <trkpt lat="45.30812" lon="4.44195">
        <ele>1232.08</ele>
        <time>2015-10-25T10:59:42Z</time>
      </trkpt>
      <trkpt lat="45.30813" lon="4.44163">
        <ele>1230</ele>
        <time>2015-10-25T10:59:48Z</time>
      </trkpt>
      <trkpt lat="45.30813" lon="4.44132">
        <ele>1228.53</ele>
        <time>2015-10-25T10:59:53Z</time>
      </trkpt>
      <trkpt lat="45.30812" lon="4.44104">
        <ele>1227.28</ele>
        <time>2015-10-25T10:59:57Z</time>
      </trkpt>
      <trkpt lat="45.30811" lon="4.44074">
        <ele>1226.37</ele>
        <time>2015-10-25T11:00:01Z</time>
      </trkpt>
      <trkpt lat="45.3081" lon="4.44042">
        <ele>1224.77</ele>
        <time>2015-10-25T11:00:06Z</time>
      </trkpt>
      <trkpt lat="45.30805" lon="4.44015">
        <ele>1223.42</ele>
        <time>2015-10-25T11:00:11Z</time>
      </trkpt>
      <trkpt lat="45.30792" lon="4.43999">
        <ele>1222.21</ele>
        <time>2015-10-25T11:00:24Z</time>
      </trkpt>
      <trkpt lat="45.30805" lon="4.44019">
        <ele>1222.73</ele>
        <time>2015-10-25T11:05:33Z</time>
      </trkpt>
      <trkpt lat="45.30815" lon="4.4404">
        <ele>1222.96</ele>
        <time>2015-10-25T11:05:40Z</time>
      </trkpt>
      <trkpt lat="45.30835" lon="4.44049">
        <ele>1223.04</ele>
        <time>2015-10-25T11:05:47Z</time>
      </trkpt>
      <trkpt lat="45.30854" lon="4.44049">
        <ele>1221.42</ele>
        <time>2015-10-25T11:05:55Z</time>
      </trkpt>
      <trkpt lat="45.3087" lon="4.44039">
        <ele>1220.46</ele>
        <time>2015-10-25T11:06:01Z</time>
      </trkpt>
      <trkpt lat="45.30882" lon="4.44016">
        <ele>1218.84</ele>
        <time>2015-10-25T11:06:06Z</time>
      </trkpt>
      <trkpt lat="45.30898" lon="4.43995">
        <ele>1215.16</ele>
        <time>2015-10-25T11:06:12Z</time>
      </trkpt>
      <trkpt lat="45.30916" lon="4.43984">
        <ele>1211.75</ele>
        <time>2015-10-25T11:06:17Z</time>
      </trkpt>
      <trkpt lat="45.30929" lon="4.43966">
        <ele>1208.8</ele>
        <time>2015-10-25T11:06:22Z</time>
      </trkpt>
      <trkpt lat="45.30944" lon="4.43951">
        <ele>1204.81</ele>
        <time>2015-10-25T11:06:28Z</time>
      </trkpt>
      <trkpt lat="45.30961" lon="4.43933">
        <ele>1199.88</ele>
        <time>2015-10-25T11:06:35Z</time>
      </trkpt>
      <trkpt lat="45.30979" lon="4.43927">
        <ele>1196.5</ele>
        <time>2015-10-25T11:06:41Z</time>
      </trkpt>
      <trkpt lat="45.30997" lon="4.4392">
        <ele>1192.2</ele>
        <time>2015-10-25T11:06:48Z</time>
      </trkpt>
      <trkpt lat="45.31016" lon="4.43913">
        <ele>1188.07</ele>
        <time>2015-10-25T11:06:55Z</time>
      </trkpt>
      <trkpt lat="45.31034" lon="4.43903">
        <ele>1184.43</ele>
        <time>2015-10-25T11:07:01Z</time>
      </trkpt>
      <trkpt lat="45.31049" lon="4.43887">
        <ele>1180.66</ele>
        <time>2015-10-25T11:07:07Z</time>
      </trkpt>
      <trkpt lat="45.31067" lon="4.4389">
        <ele>1177.39</ele>
        <time>2015-10-25T11:07:12Z</time>
      </trkpt>
      <trkpt lat="45.31088" lon="4.43889">
        <ele>1175.02</ele>
        <time>2015-10-25T11:07:18Z</time>
      </trkpt>
      <trkpt lat="45.31108" lon="4.43882">
        <ele>1171.5</ele>
        <time>2015-10-25T11:07:24Z</time>
      </trkpt>
      <trkpt lat="45.31127" lon="4.4388">
        <ele>1165.63</ele>
        <time>2015-10-25T11:07:36Z</time>
      </trkpt>
      <trkpt lat="45.31147" lon="4.43873">
        <ele>1162.05</ele>
        <time>2015-10-25T11:07:46Z</time>
      </trkpt>
      <trkpt lat="45.31167" lon="4.43864">
        <ele>1158.39</ele>
        <time>2015-10-25T11:07:53Z</time>
      </trkpt>
      <trkpt lat="45.31186" lon="4.43857">
        <ele>1155.46</ele>
        <time>2015-10-25T11:07:59Z</time>
      </trkpt>
      <trkpt lat="45.31201" lon="4.43839">
        <ele>1151.73</ele>
        <time>2015-10-25T11:08:05Z</time>
      </trkpt>
      <trkpt lat="45.31221" lon="4.43834">
        <ele>1145.65</ele>
        <time>2015-10-25T11:08:13Z</time>
      </trkpt>
      <trkpt lat="45.31242" lon="4.43827">
        <ele>1141.95</ele>
        <time>2015-10-25T11:08:19Z</time>
      </trkpt>
      <trkpt lat="45.3126" lon="4.43823">
        <ele>1138.78</ele>
        <time>2015-10-25T11:08:25Z</time>
      </trkpt>
      <trkpt lat="45.31282" lon="4.43821">
        <ele>1135.19</ele>
        <time>2015-10-25T11:08:32Z</time>
      </trkpt>
      <trkpt lat="45.31303" lon="4.43817">
        <ele>1131.42</ele>
        <time>2015-10-25T11:08:38Z</time>
      </trkpt>
      <trkpt lat="45.31324" lon="4.43809">
        <ele>1128.46</ele>
        <time>2015-10-25T11:08:44Z</time>
      </trkpt>
      <trkpt lat="45.31342" lon="4.438">
        <ele>1124.66</ele>
        <time>2015-10-25T11:08:52Z</time>
      </trkpt>
      <trkpt lat="45.31366" lon="4.43793">
        <ele>1121.23</ele>
        <time>2015-10-25T11:09:00Z</time>
      </trkpt>
      <trkpt lat="45.31385" lon="4.43783">
        <ele>1117.4</ele>
        <time>2015-10-25T11:09:07Z</time>
      </trkpt>
      <trkpt lat="45.31407" lon="4.43789">
        <ele>1114.4</ele>
        <time>2015-10-25T11:09:13Z</time>
      </trkpt>
      <trkpt lat="45.31427" lon="4.43802">
        <ele>1111.78</ele>
        <time>2015-10-25T11:09:18Z</time>
      </trkpt>
      <trkpt lat="45.31451" lon="4.43797">
        <ele>1107.22</ele>
        <time>2015-10-25T11:09:27Z</time>
      </trkpt>
      <trkpt lat="45.31469" lon="4.43773">
        <ele>1103.18</ele>
        <time>2015-10-25T11:09:34Z</time>
      </trkpt>
      <trkpt lat="45.31487" lon="4.43753">
        <ele>1099.56</ele>
        <time>2015-10-25T11:09:39Z</time>
      </trkpt>
      <trkpt lat="45.3151" lon="4.4375">
        <ele>1096.17</ele>
        <time>2015-10-25T11:09:44Z</time>
      </trkpt>
      <trkpt lat="45.3153" lon="4.43762">
        <ele>1094.35</ele>
        <time>2015-10-25T11:09:49Z</time>
      </trkpt>
      <trkpt lat="45.31555" lon="4.43755">
        <ele>1093.51</ele>
        <time>2015-10-25T11:09:56Z</time>
      </trkpt>
      <trkpt lat="45.31576" lon="4.43749">
        <ele>1091.62</ele>
        <time>2015-10-25T11:10:02Z</time>
      </trkpt>
      <trkpt lat="45.31602" lon="4.43755">
        <ele>1088.17</ele>
        <time>2015-10-25T11:10:09Z</time>
      </trkpt>
      <trkpt lat="45.31619" lon="4.43763">
        <ele>1087.26</ele>
        <time>2015-10-25T11:11:30Z</time>
      </trkpt>
      <trkpt lat="45.3163" lon="4.43787">
        <ele>1087.5</ele>
        <time>2015-10-25T11:11:40Z</time>
      </trkpt>
      <trkpt lat="45.31641" lon="4.43811">
        <ele>1087.98</ele>
        <time>2015-10-25T11:11:48Z</time>
      </trkpt>
      <trkpt lat="45.31653" lon="4.43833">
        <ele>1088.69</ele>
        <time>2015-10-25T11:11:56Z</time>
      </trkpt>
      <trkpt lat="45.31668" lon="4.43849">
        <ele>1089.43</ele>
        <time>2015-10-25T11:12:02Z</time>
      </trkpt>
      <trkpt lat="45.31684" lon="4.43868">
        <ele>1089.39</ele>
        <time>2015-10-25T11:12:07Z</time>
      </trkpt>
      <trkpt lat="45.31698" lon="4.43886">
        <ele>1088.86</ele>
        <time>2015-10-25T11:12:11Z</time>
      </trkpt>
      <trkpt lat="45.31714" lon="4.43907">
        <ele>1088.48</ele>
        <time>2015-10-25T11:12:16Z</time>
      </trkpt>
      <trkpt lat="45.3173" lon="4.43927">
        <ele>1088.25</ele>
        <time>2015-10-25T11:12:21Z</time>
      </trkpt>
      <trkpt lat="45.31744" lon="4.43945">
        <ele>1088.04</ele>
        <time>2015-10-25T11:12:26Z</time>
      </trkpt>
      <trkpt lat="45.31759" lon="4.43964">
        <ele>1087.45</ele>
        <time>2015-10-25T11:12:32Z</time>
      </trkpt>
      <trkpt lat="45.31775" lon="4.43984">
        <ele>1086.75</ele>
        <time>2015-10-25T11:12:38Z</time>
      </trkpt>
      <trkpt lat="45.31792" lon="4.44001">
        <ele>1085.59</ele>
        <time>2015-10-25T11:12:50Z</time>
      </trkpt>
      <trkpt lat="45.31806" lon="4.44">
        <ele>1084.11</ele>
        <time>2015-10-25T11:13:30Z</time>
      </trkpt>
      <trkpt lat="45.31794" lon="4.43998">
        <ele>1106.02</ele>
        <time>2015-10-25T11:14:24Z</time>
      </trkpt>
      <trkpt lat="45.3179" lon="4.43982">
        <ele>1085.76</ele>
        <time>2015-10-25T11:55:40Z</time>
      </trkpt>
      <trkpt lat="45.31777" lon="4.43982">
        <ele>1088.65</ele>
        <time>2015-10-25T12:00:29Z</time>
      </trkpt>
      <trkpt lat="45.31759" lon="4.43961">
        <ele>1089.46</ele>
        <time>2015-10-25T12:00:41Z</time>
      </trkpt>
      <trkpt lat="45.31741" lon="4.43944">
        <ele>1090.09</ele>
        <time>2015-10-25T12:00:50Z</time>
      </trkpt>
      <trkpt lat="45.31725" lon="4.43924">
        <ele>1090.63</ele>
        <time>2015-10-25T12:00:58Z</time>
      </trkpt>
      <trkpt lat="45.31709" lon="4.43903">
        <ele>1090.76</ele>
        <time>2015-10-25T12:01:06Z</time>
      </trkpt>
      <trkpt lat="45.31693" lon="4.43883">
        <ele>1091.28</ele>
        <time>2015-10-25T12:01:13Z</time>
      </trkpt>
      <trkpt lat="45.3168" lon="4.43864">
        <ele>1091.43</ele>
        <time>2015-10-25T12:01:20Z</time>
      </trkpt>
      <trkpt lat="45.31664" lon="4.43846">
        <ele>1092.09</ele>
        <time>2015-10-25T12:01:28Z</time>
      </trkpt>
      <trkpt lat="45.31648" lon="4.43828">
        <ele>1092.87</ele>
        <time>2015-10-25T12:01:36Z</time>
      </trkpt>
      <trkpt lat="45.31637" lon="4.438">
        <ele>1092.44</ele>
        <time>2015-10-25T12:01:42Z</time>
      </trkpt>
      <trkpt lat="45.31623" lon="4.43777">
        <ele>1091.79</ele>
        <time>2015-10-25T12:01:49Z</time>
      </trkpt>
      <trkpt lat="45.31612" lon="4.43756">
        <ele>1091.21</ele>
        <time>2015-10-25T12:01:54Z</time>
      </trkpt>
      <trkpt lat="45.31593" lon="4.43747">
        <ele>1090.26</ele>
        <time>2015-10-25T12:02:08Z</time>
      </trkpt>
      <trkpt lat="45.31576" lon="4.43756">
        <ele>1091.47</ele>
        <time>2015-10-25T12:02:19Z</time>
      </trkpt>
      <trkpt lat="45.31555" lon="4.43763">
        <ele>1094.46</ele>
        <time>2015-10-25T12:02:31Z</time>
      </trkpt>
      <trkpt lat="45.31533" lon="4.4376">
        <ele>1096.5</ele>
        <time>2015-10-25T12:02:42Z</time>
      </trkpt>
      <trkpt lat="45.31526" lon="4.43735">
        <ele>1096.76</ele>
        <time>2015-10-25T12:02:51Z</time>
      </trkpt>
      <trkpt lat="45.31518" lon="4.43708">
        <ele>1095.47</ele>
        <time>2015-10-25T12:02:59Z</time>
      </trkpt>
      <trkpt lat="45.31507" lon="4.43682">
        <ele>1092.86</ele>
        <time>2015-10-25T12:03:06Z</time>
      </trkpt>
      <trkpt lat="45.31494" lon="4.4366">
        <ele>1089.47</ele>
        <time>2015-10-25T12:03:15Z</time>
      </trkpt>
      <trkpt lat="45.31473" lon="4.43637">
        <ele>1086.71</ele>
        <time>2015-10-25T12:03:23Z</time>
      </trkpt>
      <trkpt lat="45.31458" lon="4.43617">
        <ele>1085.21</ele>
        <time>2015-10-25T12:03:27Z</time>
      </trkpt>
      <trkpt lat="45.3144" lon="4.43595">
        <ele>1083.23</ele>
        <time>2015-10-25T12:03:32Z</time>
      </trkpt>
      <trkpt lat="45.31422" lon="4.4357">
        <ele>1081.53</ele>
        <time>2015-10-25T12:03:39Z</time>
      </trkpt>
      <trkpt lat="45.31404" lon="4.43546">
        <ele>1080.47</ele>
        <time>2015-10-25T12:03:46Z</time>
      </trkpt>
      <trkpt lat="45.31398" lon="4.43505">
        <ele>1077.86</ele>
        <time>2015-10-25T12:03:57Z</time>
      </trkpt>
      <trkpt lat="45.31388" lon="4.4345">
        <ele>1073.09</ele>
        <time>2015-10-25T12:04:13Z</time>
      </trkpt>
      <trkpt lat="45.31374" lon="4.43416">
        <ele>1068.13</ele>
        <time>2015-10-25T12:04:23Z</time>
      </trkpt>
      <trkpt lat="45.31368" lon="4.43382">
        <ele>1064.8</ele>
        <time>2015-10-25T12:04:30Z</time>
      </trkpt>
      <trkpt lat="45.31352" lon="4.43351">
        <ele>1061.69</ele>
        <time>2015-10-25T12:04:37Z</time>
      </trkpt>
      <trkpt lat="45.31336" lon="4.43324">
        <ele>1059.11</ele>
        <time>2015-10-25T12:04:42Z</time>
      </trkpt>
      <trkpt lat="45.31323" lon="4.43291">
        <ele>1054.89</ele>
        <time>2015-10-25T12:04:49Z</time>
      </trkpt>
      <trkpt lat="45.31305" lon="4.43251">
        <ele>1051.69</ele>
        <time>2015-10-25T12:04:55Z</time>
      </trkpt>
      <trkpt lat="45.31285" lon="4.43205">
        <ele>1049.29</ele>
        <time>2015-10-25T12:05:00Z</time>
      </trkpt>
      <trkpt lat="45.31273" lon="4.43173">
        <ele>1046.63</ele>
        <time>2015-10-25T12:05:05Z</time>
      </trkpt>
      <trkpt lat="45.31253" lon="4.43134">
        <ele>1043.61</ele>
        <time>2015-10-25T12:05:10Z</time>
      </trkpt>
      <trkpt lat="45.31235" lon="4.43105">
        <ele>1041.14</ele>
        <time>2015-10-25T12:05:14Z</time>
      </trkpt>
      <trkpt lat="45.31217" lon="4.43079">
        <ele>1039.22</ele>
        <time>2015-10-25T12:05:18Z</time>
      </trkpt>
      <trkpt lat="45.31204" lon="4.43045">
        <ele>1036.44</ele>
        <time>2015-10-25T12:05:23Z</time>
      </trkpt>
      <trkpt lat="45.31196" lon="4.43011">
        <ele>1033.84</ele>
        <time>2015-10-25T12:05:28Z</time>
      </trkpt>
      <trkpt lat="45.31194" lon="4.42977">
        <ele>1029.42</ele>
        <time>2015-10-25T12:05:34Z</time>
      </trkpt>
      <trkpt lat="45.312" lon="4.42944">
        <ele>1024.22</ele>
        <time>2015-10-25T12:05:39Z</time>
      </trkpt>
      <trkpt lat="45.31202" lon="4.42902">
        <ele>1019.2</ele>
        <time>2015-10-25T12:05:44Z</time>
      </trkpt>
      <trkpt lat="45.31202" lon="4.42863">
        <ele>1014.49</ele>
        <time>2015-10-25T12:05:49Z</time>
      </trkpt>
      <trkpt lat="45.31192" lon="4.42835">
        <ele>1011.22</ele>
        <time>2015-10-25T12:05:53Z</time>
      </trkpt>
      <trkpt lat="45.31204" lon="4.42813">
        <ele>1009.06</ele>
        <time>2015-10-25T12:05:57Z</time>
      </trkpt>
      <trkpt lat="45.31223" lon="4.42805">
        <ele>1007.5</ele>
        <time>2015-10-25T12:06:01Z</time>
      </trkpt>
      <trkpt lat="45.3124" lon="4.42793">
        <ele>1006.61</ele>
        <time>2015-10-25T12:06:05Z</time>
      </trkpt>
      <trkpt lat="45.31259" lon="4.42775">
        <ele>1005.92</ele>
        <time>2015-10-25T12:06:10Z</time>
      </trkpt>
      <trkpt lat="45.31273" lon="4.42751">
        <ele>1005.39</ele>
        <time>2015-10-25T12:06:15Z</time>
      </trkpt>
      <trkpt lat="45.31283" lon="4.4273">
        <ele>1005.5</ele>
        <time>2015-10-25T12:06:20Z</time>
      </trkpt>
      <trkpt lat="45.31293" lon="4.42705">
        <ele>1006.01</ele>
        <time>2015-10-25T12:06:26Z</time>
      </trkpt>
      <trkpt lat="45.31302" lon="4.4268">
        <ele>1006.8</ele>
        <time>2015-10-25T12:06:33Z</time>
      </trkpt>
      <trkpt lat="45.31291" lon="4.42666">
        <ele>1007.91</ele>
        <time>2015-10-25T12:06:47Z</time>
      </trkpt>
      <trkpt lat="45.31272" lon="4.42665">
        <ele>1007.98</ele>
        <time>2015-10-25T12:06:58Z</time>
      </trkpt>
      <trkpt lat="45.31252" lon="4.42656">
        <ele>1007.78</ele>
        <time>2015-10-25T12:07:07Z</time>
      </trkpt>
      <trkpt lat="45.31234" lon="4.42643">
        <ele>1007.33</ele>
        <time>2015-10-25T12:07:14Z</time>
      </trkpt>
      <trkpt lat="45.31219" lon="4.42625">
        <ele>1006.74</ele>
        <time>2015-10-25T12:07:19Z</time>
      </trkpt>
      <trkpt lat="45.31205" lon="4.42606">
        <ele>1005.92</ele>
        <time>2015-10-25T12:07:23Z</time>
      </trkpt>
      <trkpt lat="45.31187" lon="4.42586">
        <ele>1005.09</ele>
        <time>2015-10-25T12:07:28Z</time>
      </trkpt>
      <trkpt lat="45.31172" lon="4.42565">
        <ele>1004.16</ele>
        <time>2015-10-25T12:07:32Z</time>
      </trkpt>
      <trkpt lat="45.3116" lon="4.42541">
        <ele>1002.97</ele>
        <time>2015-10-25T12:07:36Z</time>
      </trkpt>
      <trkpt lat="45.31149" lon="4.42517">
        <ele>1002.21</ele>
        <time>2015-10-25T12:07:40Z</time>
      </trkpt>
      <trkpt lat="45.3114" lon="4.42488">
        <ele>1000.79</ele>
        <time>2015-10-25T12:07:44Z</time>
      </trkpt>
      <trkpt lat="45.31131" lon="4.42461">
        <ele>999.34</ele>
        <time>2015-10-25T12:07:49Z</time>
      </trkpt>
      <trkpt lat="45.3112" lon="4.42433">
        <ele>998</ele>
        <time>2015-10-25T12:07:54Z</time>
      </trkpt>
      <trkpt lat="45.31123" lon="4.42402">
        <ele>996.19</ele>
        <time>2015-10-25T12:07:58Z</time>
      </trkpt>
      <trkpt lat="45.31124" lon="4.42373">
        <ele>995.06</ele>
        <time>2015-10-25T12:08:02Z</time>
      </trkpt>
      <trkpt lat="45.31113" lon="4.42349">
        <ele>994.27</ele>
        <time>2015-10-25T12:08:06Z</time>
      </trkpt>
      <trkpt lat="45.31098" lon="4.4233">
        <ele>993.94</ele>
        <time>2015-10-25T12:08:10Z</time>
      </trkpt>
      <trkpt lat="45.31083" lon="4.42312">
        <ele>993.97</ele>
        <time>2015-10-25T12:08:15Z</time>
      </trkpt>
      <trkpt lat="45.31068" lon="4.4229">
        <ele>994.31</ele>
        <time>2015-10-25T12:08:21Z</time>
      </trkpt>
      <trkpt lat="45.31054" lon="4.42267">
        <ele>994.35</ele>
        <time>2015-10-25T12:08:27Z</time>
      </trkpt>
      <trkpt lat="45.31042" lon="4.42248">
        <ele>994.45</ele>
        <time>2015-10-25T12:08:32Z</time>
      </trkpt>
      <trkpt lat="45.31028" lon="4.42225">
        <ele>994.74</ele>
        <time>2015-10-25T12:08:38Z</time>
      </trkpt>
      <trkpt lat="45.31015" lon="4.42202">
        <ele>994.83</ele>
        <time>2015-10-25T12:08:44Z</time>
      </trkpt>
      <trkpt lat="45.31001" lon="4.42182">
        <ele>995.17</ele>
        <time>2015-10-25T12:08:50Z</time>
      </trkpt>
      <trkpt lat="45.3099" lon="4.42154">
        <ele>995.51</ele>
        <time>2015-10-25T12:08:56Z</time>
      </trkpt>
      <trkpt lat="45.30983" lon="4.42126">
        <ele>996.04</ele>
        <time>2015-10-25T12:09:02Z</time>
      </trkpt>
      <trkpt lat="45.30972" lon="4.42104">
        <ele>996.58</ele>
        <time>2015-10-25T12:09:08Z</time>
      </trkpt>
      <trkpt lat="45.30957" lon="4.42086">
        <ele>996.71</ele>
        <time>2015-10-25T12:09:13Z</time>
      </trkpt>
      <trkpt lat="45.30942" lon="4.42061">
        <ele>996.21</ele>
        <time>2015-10-25T12:09:17Z</time>
      </trkpt>
      <trkpt lat="45.30932" lon="4.42033">
        <ele>995.49</ele>
        <time>2015-10-25T12:09:20Z</time>
      </trkpt>
      <trkpt lat="45.30924" lon="4.42004">
        <ele>994.68</ele>
        <time>2015-10-25T12:09:23Z</time>
      </trkpt>
      <trkpt lat="45.30914" lon="4.41976">
        <ele>993.61</ele>
        <time>2015-10-25T12:09:26Z</time>
      </trkpt>
      <trkpt lat="45.30898" lon="4.41963">
        <ele>992.26</ele>
        <time>2015-10-25T12:09:30Z</time>
      </trkpt>
      <trkpt lat="45.30887" lon="4.41987">
        <ele>991.28</ele>
        <time>2015-10-25T12:09:36Z</time>
      </trkpt>
      <trkpt lat="45.30882" lon="4.42015">
        <ele>991.08</ele>
        <time>2015-10-25T12:09:42Z</time>
      </trkpt>
      <trkpt lat="45.30868" lon="4.42032">
        <ele>990.5</ele>
        <time>2015-10-25T12:09:48Z</time>
      </trkpt>
      <trkpt lat="45.30849" lon="4.42017">
        <ele>989.54</ele>
        <time>2015-10-25T12:09:54Z</time>
      </trkpt>
      <trkpt lat="45.30828" lon="4.42002">
        <ele>988.68</ele>
        <time>2015-10-25T12:09:58Z</time>
      </trkpt>
      <trkpt lat="45.30809" lon="4.41991">
        <ele>987.33</ele>
        <time>2015-10-25T12:10:02Z</time>
      </trkpt>
      <trkpt lat="45.30791" lon="4.41981">
        <ele>985.75</ele>
        <time>2015-10-25T12:10:07Z</time>
      </trkpt>
      <trkpt lat="45.3077" lon="4.4197">
        <ele>983.43</ele>
        <time>2015-10-25T12:10:12Z</time>
      </trkpt>
      <trkpt lat="45.3075" lon="4.4196">
        <ele>982.01</ele>
        <time>2015-10-25T12:10:16Z</time>
      </trkpt>
      <trkpt lat="45.3073" lon="4.41952">
        <ele>980.91</ele>
        <time>2015-10-25T12:10:20Z</time>
      </trkpt>
      <trkpt lat="45.30709" lon="4.41947">
        <ele>979.85</ele>
        <time>2015-10-25T12:10:25Z</time>
      </trkpt>
      <trkpt lat="45.30687" lon="4.41941">
        <ele>978.92</ele>
        <time>2015-10-25T12:10:30Z</time>
      </trkpt>
      <trkpt lat="45.30666" lon="4.41931">
        <ele>978.14</ele>
        <time>2015-10-25T12:10:35Z</time>
      </trkpt>
      <trkpt lat="45.30645" lon="4.41921">
        <ele>977.49</ele>
        <time>2015-10-25T12:10:40Z</time>
      </trkpt>
      <trkpt lat="45.30625" lon="4.41915">
        <ele>976.13</ele>
        <time>2015-10-25T12:10:45Z</time>
      </trkpt>
      <trkpt lat="45.30605" lon="4.41925">
        <ele>974.97</ele>
        <time>2015-10-25T12:10:50Z</time>
      </trkpt>
      <trkpt lat="45.30585" lon="4.41937">
        <ele>973.45</ele>
        <time>2015-10-25T12:10:55Z</time>
      </trkpt>
      <trkpt lat="45.30564" lon="4.41948">
        <ele>971.01</ele>
        <time>2015-10-25T12:11:00Z</time>
      </trkpt>
      <trkpt lat="45.30548" lon="4.41958">
        <ele>968.77</ele>
        <time>2015-10-25T12:11:05Z</time>
      </trkpt>
      <trkpt lat="45.30527" lon="4.41964">
        <ele>966.08</ele>
        <time>2015-10-25T12:11:11Z</time>
      </trkpt>
      <trkpt lat="45.3051" lon="4.41976">
        <ele>963.58</ele>
        <time>2015-10-25T12:11:16Z</time>
      </trkpt>
      <trkpt lat="45.30489" lon="4.4198">
        <ele>961.44</ele>
        <time>2015-10-25T12:11:21Z</time>
      </trkpt>
      <trkpt lat="45.3047" lon="4.41971">
        <ele>958.17</ele>
        <time>2015-10-25T12:11:26Z</time>
      </trkpt>
      <trkpt lat="45.30455" lon="4.41956">
        <ele>955.59</ele>
        <time>2015-10-25T12:11:32Z</time>
      </trkpt>
      <trkpt lat="45.30445" lon="4.41931">
        <ele>952.44</ele>
        <time>2015-10-25T12:11:45Z</time>
      </trkpt>
      <trkpt lat="45.30425" lon="4.41929">
        <ele>951.77</ele>
        <time>2015-10-25T12:11:52Z</time>
      </trkpt>
      <trkpt lat="45.30406" lon="4.41928">
        <ele>953.14</ele>
        <time>2015-10-25T12:12:00Z</time>
      </trkpt>
      <trkpt lat="45.30389" lon="4.41908">
        <ele>955.21</ele>
        <time>2015-10-25T12:12:10Z</time>
      </trkpt>
      <trkpt lat="45.30364" lon="4.41882">
        <ele>958.84</ele>
        <time>2015-10-25T12:12:27Z</time>
      </trkpt>
      <trkpt lat="45.30339" lon="4.41848">
        <ele>961.17</ele>
        <time>2015-10-25T12:12:43Z</time>
      </trkpt>
      <trkpt lat="45.30317" lon="4.41818">
        <ele>963.58</ele>
        <time>2015-10-25T12:13:04Z</time>
      </trkpt>
      <trkpt lat="45.30294" lon="4.41795">
        <ele>964.34</ele>
        <time>2015-10-25T12:13:16Z</time>
      </trkpt>
      <trkpt lat="45.30268" lon="4.41769">
        <ele>967.03</ele>
        <time>2015-10-25T12:13:33Z</time>
      </trkpt>
      <trkpt lat="45.3025" lon="4.41734">
        <ele>967.93</ele>
        <time>2015-10-25T12:13:48Z</time>
      </trkpt>
      <trkpt lat="45.30233" lon="4.41709">
        <ele>967.6</ele>
        <time>2015-10-25T12:13:56Z</time>
      </trkpt>
      <trkpt lat="45.30214" lon="4.41689">
        <ele>967.62</ele>
        <time>2015-10-25T12:14:06Z</time>
      </trkpt>
      <trkpt lat="45.30201" lon="4.41663">
        <ele>967.4</ele>
        <time>2015-10-25T12:14:17Z</time>
      </trkpt>
      <trkpt lat="45.30183" lon="4.4163">
        <ele>966.99</ele>
        <time>2015-10-25T12:14:32Z</time>
      </trkpt>
      <trkpt lat="45.30154" lon="4.41604">
        <ele>967.35</ele>
        <time>2015-10-25T12:14:43Z</time>
      </trkpt>
      <trkpt lat="45.30131" lon="4.41593">
        <ele>968.55</ele>
        <time>2015-10-25T12:14:54Z</time>
      </trkpt>
      <trkpt lat="45.30109" lon="4.41584">
        <ele>969.48</ele>
        <time>2015-10-25T12:15:04Z</time>
      </trkpt>
      <trkpt lat="45.30091" lon="4.41569">
        <ele>969.27</ele>
        <time>2015-10-25T12:15:12Z</time>
      </trkpt>
      <trkpt lat="45.30075" lon="4.41551">
        <ele>969.01</ele>
        <time>2015-10-25T12:15:18Z</time>
      </trkpt>
      <trkpt lat="45.30055" lon="4.41544">
        <ele>968.57</ele>
        <time>2015-10-25T12:15:26Z</time>
      </trkpt>
      <trkpt lat="45.30035" lon="4.41538">
        <ele>969.36</ele>
        <time>2015-10-25T12:15:34Z</time>
      </trkpt>
      <trkpt lat="45.30015" lon="4.41526">
        <ele>969.95</ele>
        <time>2015-10-25T12:15:42Z</time>
      </trkpt>
      <trkpt lat="45.29999" lon="4.41513">
        <ele>969.6</ele>
        <time>2015-10-25T12:15:47Z</time>
      </trkpt>
      <trkpt lat="45.29978" lon="4.41505">
        <ele>969.05</ele>
        <time>2015-10-25T12:15:53Z</time>
      </trkpt>
      <trkpt lat="45.29962" lon="4.41492">
        <ele>968.39</ele>
        <time>2015-10-25T12:15:58Z</time>
      </trkpt>
      <trkpt lat="45.29945" lon="4.41483">
        <ele>967.49</ele>
        <time>2015-10-25T12:16:04Z</time>
      </trkpt>
      <trkpt lat="45.29923" lon="4.41468">
        <ele>967.97</ele>
        <time>2015-10-25T12:16:31Z</time>
      </trkpt>
      <trkpt lat="45.299" lon="4.41453">
        <ele>967.34</ele>
        <time>2015-10-25T12:16:35Z</time>
      </trkpt>
      <trkpt lat="45.29879" lon="4.4144">
        <ele>966.72</ele>
        <time>2015-10-25T12:16:38Z</time>
      </trkpt>
      <trkpt lat="45.29859" lon="4.41426">
        <ele>965.57</ele>
        <time>2015-10-25T12:16:41Z</time>
      </trkpt>
      <trkpt lat="45.29843" lon="4.41414">
        <ele>964.21</ele>
        <time>2015-10-25T12:16:44Z</time>
      </trkpt>
      <trkpt lat="45.29823" lon="4.41409">
        <ele>962.56</ele>
        <time>2015-10-25T12:16:48Z</time>
      </trkpt>
      <trkpt lat="45.29804" lon="4.41406">
        <ele>961.23</ele>
        <time>2015-10-25T12:16:54Z</time>
      </trkpt>
      <trkpt lat="45.29786" lon="4.41397">
        <ele>961.07</ele>
        <time>2015-10-25T12:17:00Z</time>
      </trkpt>
      <trkpt lat="45.29767" lon="4.41394">
        <ele>961.06</ele>
        <time>2015-10-25T12:17:05Z</time>
      </trkpt>
      <trkpt lat="45.29749" lon="4.41395">
        <ele>960.93</ele>
        <time>2015-10-25T12:17:12Z</time>
      </trkpt>
      <trkpt lat="45.29729" lon="4.41398">
        <ele>960.96</ele>
        <time>2015-10-25T12:17:20Z</time>
      </trkpt>
      <trkpt lat="45.29707" lon="4.41395">
        <ele>960.98</ele>
        <time>2015-10-25T12:17:26Z</time>
      </trkpt>
      <trkpt lat="45.29688" lon="4.41388">
        <ele>960.7</ele>
        <time>2015-10-25T12:17:31Z</time>
      </trkpt>
      <trkpt lat="45.29667" lon="4.41381">
        <ele>960.52</ele>
        <time>2015-10-25T12:17:36Z</time>
      </trkpt>
      <trkpt lat="45.29648" lon="4.41376">
        <ele>959.79</ele>
        <time>2015-10-25T12:17:41Z</time>
      </trkpt>
      <trkpt lat="45.29629" lon="4.41373">
        <ele>958.36</ele>
        <time>2015-10-25T12:17:48Z</time>
      </trkpt>
      <trkpt lat="45.29628" lon="4.41347">
        <ele>957.52</ele>
        <time>2015-10-25T12:17:55Z</time>
      </trkpt>
      <trkpt lat="45.29624" lon="4.41315">
        <ele>957.96</ele>
        <time>2015-10-25T12:18:03Z</time>
      </trkpt>
      <trkpt lat="45.29619" lon="4.41287">
        <ele>959.26</ele>
        <time>2015-10-25T12:18:10Z</time>
      </trkpt>
      <trkpt lat="45.29613" lon="4.4126">
        <ele>961.33</ele>
        <time>2015-10-25T12:18:18Z</time>
      </trkpt>
      <trkpt lat="45.29602" lon="4.41233">
        <ele>963.99</ele>
        <time>2015-10-25T12:18:28Z</time>
      </trkpt>
      <trkpt lat="45.29589" lon="4.41213">
        <ele>964.4</ele>
        <time>2015-10-25T12:18:34Z</time>
      </trkpt>
      <trkpt lat="45.29573" lon="4.41195">
        <ele>964.24</ele>
        <time>2015-10-25T12:18:40Z</time>
      </trkpt>
      <trkpt lat="45.29557" lon="4.41175">
        <ele>964.03</ele>
        <time>2015-10-25T12:18:46Z</time>
      </trkpt>
      <trkpt lat="45.29544" lon="4.41152">
        <ele>963.75</ele>
        <time>2015-10-25T12:18:52Z</time>
      </trkpt>
      <trkpt lat="45.29536" lon="4.41122">
        <ele>963.43</ele>
        <time>2015-10-25T12:19:01Z</time>
      </trkpt>
      <trkpt lat="45.29523" lon="4.411">
        <ele>962.75</ele>
        <time>2015-10-25T12:19:06Z</time>
      </trkpt>
      <trkpt lat="45.29509" lon="4.41081">
        <ele>961.67</ele>
        <time>2015-10-25T12:19:11Z</time>
      </trkpt>
      <trkpt lat="45.29492" lon="4.41057">
        <ele>960.45</ele>
        <time>2015-10-25T12:19:19Z</time>
      </trkpt>
      <trkpt lat="45.29472" lon="4.4103">
        <ele>960.05</ele>
        <time>2015-10-25T12:19:25Z</time>
      </trkpt>
      <trkpt lat="45.2946" lon="4.41002">
        <ele>959.5</ele>
        <time>2015-10-25T12:19:32Z</time>
      </trkpt>
      <trkpt lat="45.29447" lon="4.40972">
        <ele>958.27</ele>
        <time>2015-10-25T12:19:40Z</time>
      </trkpt>
      <trkpt lat="45.29459" lon="4.40946">
        <ele>957.75</ele>
        <time>2015-10-25T12:19:45Z</time>
      </trkpt>
      <trkpt lat="45.29475" lon="4.40925">
        <ele>957.08</ele>
        <time>2015-10-25T12:19:49Z</time>
      </trkpt>
      <trkpt lat="45.29485" lon="4.40904">
        <ele>954.89</ele>
        <time>2015-10-25T12:19:54Z</time>
      </trkpt>
      <trkpt lat="45.29466" lon="4.40887">
        <ele>953.07</ele>
        <time>2015-10-25T12:20:01Z</time>
      </trkpt>
      <trkpt lat="45.29447" lon="4.40876">
        <ele>952.39</ele>
        <time>2015-10-25T12:20:06Z</time>
      </trkpt>
      <trkpt lat="45.29426" lon="4.40869">
        <ele>951.46</ele>
        <time>2015-10-25T12:20:11Z</time>
      </trkpt>
      <trkpt lat="45.29406" lon="4.40875">
        <ele>949.78</ele>
        <time>2015-10-25T12:20:16Z</time>
      </trkpt>
      <trkpt lat="45.29383" lon="4.4088">
        <ele>947.97</ele>
        <time>2015-10-25T12:20:21Z</time>
      </trkpt>
      <trkpt lat="45.29364" lon="4.40868">
        <ele>946.83</ele>
        <time>2015-10-25T12:20:25Z</time>
      </trkpt>
      <trkpt lat="45.29343" lon="4.40855">
        <ele>946.12</ele>
        <time>2015-10-25T12:20:30Z</time>
      </trkpt>
      <trkpt lat="45.29324" lon="4.40845">
        <ele>946.84</ele>
        <time>2015-10-25T12:20:37Z</time>
      </trkpt>
      <trkpt lat="45.29307" lon="4.40826">
        <ele>949.98</ele>
        <time>2015-10-25T12:20:46Z</time>
      </trkpt>
      <trkpt lat="45.29293" lon="4.40805">
        <ele>953.36</ele>
        <time>2015-10-25T12:20:55Z</time>
      </trkpt>
      <trkpt lat="45.29282" lon="4.40783">
        <ele>955.32</ele>
        <time>2015-10-25T12:21:01Z</time>
      </trkpt>
      <trkpt lat="45.29268" lon="4.40764">
        <ele>957.92</ele>
        <time>2015-10-25T12:21:08Z</time>
      </trkpt>
      <trkpt lat="45.29253" lon="4.40746">
        <ele>959.57</ele>
        <time>2015-10-25T12:21:16Z</time>
      </trkpt>
      <trkpt lat="45.29238" lon="4.40728">
        <ele>960.93</ele>
        <time>2015-10-25T12:21:24Z</time>
      </trkpt>
      <trkpt lat="45.29219" lon="4.40716">
        <ele>962.35</ele>
        <time>2015-10-25T12:21:32Z</time>
      </trkpt>
      <trkpt lat="45.292" lon="4.40705">
        <ele>962.61</ele>
        <time>2015-10-25T12:21:39Z</time>
      </trkpt>
      <trkpt lat="45.29182" lon="4.40695">
        <ele>962.44</ele>
        <time>2015-10-25T12:21:46Z</time>
      </trkpt>
      <trkpt lat="45.29164" lon="4.40685">
        <ele>962.38</ele>
        <time>2015-10-25T12:21:52Z</time>
      </trkpt>
      <trkpt lat="45.29148" lon="4.40674">
        <ele>962.34</ele>
        <time>2015-10-25T12:21:58Z</time>
      </trkpt>
      <trkpt lat="45.29128" lon="4.40661">
        <ele>962.19</ele>
        <time>2015-10-25T12:22:04Z</time>
      </trkpt>
      <trkpt lat="45.2911" lon="4.40649">
        <ele>961.61</ele>
        <time>2015-10-25T12:22:10Z</time>
      </trkpt>
      <trkpt lat="45.29093" lon="4.40641">
        <ele>961.19</ele>
        <time>2015-10-25T12:22:16Z</time>
      </trkpt>
      <trkpt lat="45.29074" lon="4.40629">
        <ele>960.79</ele>
        <time>2015-10-25T12:22:22Z</time>
      </trkpt>
      <trkpt lat="45.29055" lon="4.40616">
        <ele>960.26</ele>
        <time>2015-10-25T12:22:28Z</time>
      </trkpt>
      <trkpt lat="45.29038" lon="4.40597">
        <ele>959.71</ele>
        <time>2015-10-25T12:22:34Z</time>
      </trkpt>
      <trkpt lat="45.29022" lon="4.40585">
        <ele>959.13</ele>
        <time>2015-10-25T12:22:38Z</time>
      </trkpt>
      <trkpt lat="45.29001" lon="4.40575">
        <ele>958.43</ele>
        <time>2015-10-25T12:22:42Z</time>
      </trkpt>
      <trkpt lat="45.28977" lon="4.40567">
        <ele>957.67</ele>
        <time>2015-10-25T12:22:46Z</time>
      </trkpt>
      <trkpt lat="45.28954" lon="4.40557">
        <ele>955.87</ele>
        <time>2015-10-25T12:22:50Z</time>
      </trkpt>
      <trkpt lat="45.28935" lon="4.40549">
        <ele>954.7</ele>
        <time>2015-10-25T12:22:53Z</time>
      </trkpt>
      <trkpt lat="45.28915" lon="4.40539">
        <ele>953.16</ele>
        <time>2015-10-25T12:22:56Z</time>
      </trkpt>
      <trkpt lat="45.28896" lon="4.40526">
        <ele>951.57</ele>
        <time>2015-10-25T12:22:59Z</time>
      </trkpt>
      <trkpt lat="45.28881" lon="4.40511">
        <ele>950.22</ele>
        <time>2015-10-25T12:23:02Z</time>
      </trkpt>
      <trkpt lat="45.28864" lon="4.40494">
        <ele>949.38</ele>
        <time>2015-10-25T12:23:06Z</time>
      </trkpt>
      <trkpt lat="45.28847" lon="4.40479">
        <ele>950.21</ele>
        <time>2015-10-25T12:23:13Z</time>
      </trkpt>
      <trkpt lat="45.28831" lon="4.40463">
        <ele>953.42</ele>
        <time>2015-10-25T12:23:21Z</time>
      </trkpt>
      <trkpt lat="45.28819" lon="4.40442">
        <ele>955.78</ele>
        <time>2015-10-25T12:23:29Z</time>
      </trkpt>
      <trkpt lat="45.28808" lon="4.4042">
        <ele>957.73</ele>
        <time>2015-10-25T12:23:37Z</time>
      </trkpt>
      <trkpt lat="45.28797" lon="4.40396">
        <ele>959.25</ele>
        <time>2015-10-25T12:23:44Z</time>
      </trkpt>
      <trkpt lat="45.28788" lon="4.40372">
        <ele>959.97</ele>
        <time>2015-10-25T12:23:51Z</time>
      </trkpt>
      <trkpt lat="45.28777" lon="4.40351">
        <ele>960.85</ele>
        <time>2015-10-25T12:23:58Z</time>
      </trkpt>
      <trkpt lat="45.28764" lon="4.40329">
        <ele>961.92</ele>
        <time>2015-10-25T12:24:06Z</time>
      </trkpt>
      <trkpt lat="45.2875" lon="4.40307">
        <ele>963.03</ele>
        <time>2015-10-25T12:24:14Z</time>
      </trkpt>
      <trkpt lat="45.28734" lon="4.40286">
        <ele>963.88</ele>
        <time>2015-10-25T12:24:22Z</time>
      </trkpt>
      <trkpt lat="45.28719" lon="4.40267">
        <ele>964.44</ele>
        <time>2015-10-25T12:24:29Z</time>
      </trkpt>
      <trkpt lat="45.28703" lon="4.40249">
        <ele>965.11</ele>
        <time>2015-10-25T12:24:36Z</time>
      </trkpt>
      <trkpt lat="45.28687" lon="4.40233">
        <ele>965.66</ele>
        <time>2015-10-25T12:24:43Z</time>
      </trkpt>
      <trkpt lat="45.28671" lon="4.40219">
        <ele>966.72</ele>
        <time>2015-10-25T12:24:50Z</time>
      </trkpt>
      <trkpt lat="45.28654" lon="4.40206">
        <ele>967.72</ele>
        <time>2015-10-25T12:24:57Z</time>
      </trkpt>
      <trkpt lat="45.28639" lon="4.40191">
        <ele>968.69</ele>
        <time>2015-10-25T12:25:04Z</time>
      </trkpt>
      <trkpt lat="45.28622" lon="4.40175">
        <ele>968.9</ele>
        <time>2015-10-25T12:25:11Z</time>
      </trkpt>
      <trkpt lat="45.28607" lon="4.4016">
        <ele>968.74</ele>
        <time>2015-10-25T12:25:17Z</time>
      </trkpt>
      <trkpt lat="45.28591" lon="4.40139">
        <ele>967.61</ele>
        <time>2015-10-25T12:26:20Z</time>
      </trkpt>
      <trkpt lat="45.2858" lon="4.40114">
        <ele>967.49</ele>
        <time>2015-10-25T12:26:25Z</time>
      </trkpt>
      <trkpt lat="45.28569" lon="4.40092">
        <ele>967.21</ele>
        <time>2015-10-25T12:26:29Z</time>
      </trkpt>
      <trkpt lat="45.28557" lon="4.40068">
        <ele>966.73</ele>
        <time>2015-10-25T12:26:33Z</time>
      </trkpt>
      <trkpt lat="45.28542" lon="4.40039">
        <ele>966.12</ele>
        <time>2015-10-25T12:26:37Z</time>
      </trkpt>
      <trkpt lat="45.28529" lon="4.40014">
        <ele>964.96</ele>
        <time>2015-10-25T12:26:40Z</time>
      </trkpt>
      <trkpt lat="45.28516" lon="4.39987">
        <ele>964.12</ele>
        <time>2015-10-25T12:26:43Z</time>
      </trkpt>
      <trkpt lat="45.28502" lon="4.39961">
        <ele>963.31</ele>
        <time>2015-10-25T12:26:46Z</time>
      </trkpt>
      <trkpt lat="45.28488" lon="4.39935">
        <ele>962.28</ele>
        <time>2015-10-25T12:26:49Z</time>
      </trkpt>
      <trkpt lat="45.28472" lon="4.39912">
        <ele>961.43</ele>
        <time>2015-10-25T12:26:52Z</time>
      </trkpt>
      <trkpt lat="45.28454" lon="4.3989">
        <ele>960.84</ele>
        <time>2015-10-25T12:26:55Z</time>
      </trkpt>
      <trkpt lat="45.28437" lon="4.3987">
        <ele>960.34</ele>
        <time>2015-10-25T12:26:58Z</time>
      </trkpt>
      <trkpt lat="45.2842" lon="4.39851">
        <ele>959.88</ele>
        <time>2015-10-25T12:27:01Z</time>
      </trkpt>
      <trkpt lat="45.28404" lon="4.39833">
        <ele>959.46</ele>
        <time>2015-10-25T12:27:04Z</time>
      </trkpt>
      <trkpt lat="45.28389" lon="4.39816">
        <ele>958.9</ele>
        <time>2015-10-25T12:27:07Z</time>
      </trkpt>
      <trkpt lat="45.28374" lon="4.39793">
        <ele>958.11</ele>
        <time>2015-10-25T12:27:11Z</time>
      </trkpt>
      <trkpt lat="45.28365" lon="4.39764">
        <ele>957.64</ele>
        <time>2015-10-25T12:27:15Z</time>
      </trkpt>
      <trkpt lat="45.28362" lon="4.39731">
        <ele>957.08</ele>
        <time>2015-10-25T12:27:19Z</time>
      </trkpt>
      <trkpt lat="45.2836" lon="4.39704">
        <ele>956.56</ele>
        <time>2015-10-25T12:27:22Z</time>
      </trkpt>
      <trkpt lat="45.28362" lon="4.39672">
        <ele>955.79</ele>
        <time>2015-10-25T12:27:26Z</time>
      </trkpt>
      <trkpt lat="45.28368" lon="4.39641">
        <ele>955.06</ele>
        <time>2015-10-25T12:27:31Z</time>
      </trkpt>
      <trkpt lat="45.28356" lon="4.39621">
        <ele>954.61</ele>
        <time>2015-10-25T12:27:36Z</time>
      </trkpt>
      <trkpt lat="45.28348" lon="4.39592">
        <ele>953.72</ele>
        <time>2015-10-25T12:27:40Z</time>
      </trkpt>
      <trkpt lat="45.28339" lon="4.39565">
        <ele>951.88</ele>
        <time>2015-10-25T12:27:46Z</time>
      </trkpt>
      <trkpt lat="45.28341" lon="4.39545">
        <ele>949.04</ele>
        <time>2015-10-25T12:28:18Z</time>
      </trkpt>
      <trkpt lat="45.28339" lon="4.39521">
        <ele>948.93</ele>
        <time>2015-10-25T12:29:20Z</time>
      </trkpt>
      <trkpt lat="45.28349" lon="4.39501">
        <ele>949.72</ele>
        <time>2015-10-25T12:29:28Z</time>
      </trkpt>
      <trkpt lat="45.28341" lon="4.39477">
        <ele>950.22</ele>
        <time>2015-10-25T12:29:35Z</time>
      </trkpt>
      <trkpt lat="45.2833" lon="4.39452">
        <ele>950.55</ele>
        <time>2015-10-25T12:29:44Z</time>
      </trkpt>
      <trkpt lat="45.28349" lon="4.39439">
        <ele>950.58</ele>
        <time>2015-10-25T12:29:57Z</time>
      </trkpt>
      <trkpt lat="45.2837" lon="4.39432">
        <ele>950.78</ele>
        <time>2015-10-25T12:30:04Z</time>
      </trkpt>
      <trkpt lat="45.28379" lon="4.39409">
        <ele>951.22</ele>
        <time>2015-10-25T12:30:10Z</time>
      </trkpt>
      <trkpt lat="45.2838" lon="4.39379">
        <ele>951.29</ele>
        <time>2015-10-25T12:30:16Z</time>
      </trkpt>
      <trkpt lat="45.28384" lon="4.39348">
        <ele>951.04</ele>
        <time>2015-10-25T12:30:22Z</time>
      </trkpt>
      <trkpt lat="45.28385" lon="4.39318">
        <ele>950.91</ele>
        <time>2015-10-25T12:30:27Z</time>
      </trkpt>
      <trkpt lat="45.28387" lon="4.3929">
        <ele>951.12</ele>
        <time>2015-10-25T12:30:32Z</time>
      </trkpt>
      <trkpt lat="45.2839" lon="4.39257">
        <ele>952.05</ele>
        <time>2015-10-25T12:30:38Z</time>
      </trkpt>
      <trkpt lat="45.28395" lon="4.39228">
        <ele>952.41</ele>
        <time>2015-10-25T12:30:44Z</time>
      </trkpt>
      <trkpt lat="45.28404" lon="4.39199">
        <ele>952.81</ele>
        <time>2015-10-25T12:30:50Z</time>
      </trkpt>
      <trkpt lat="45.2842" lon="4.39174">
        <ele>952.62</ele>
        <time>2015-10-25T12:30:55Z</time>
      </trkpt>
      <trkpt lat="45.28435" lon="4.39147">
        <ele>952.02</ele>
        <time>2015-10-25T12:30:59Z</time>
      </trkpt>
      <trkpt lat="45.28447" lon="4.39126">
        <ele>951.54</ele>
        <time>2015-10-25T12:31:02Z</time>
      </trkpt>
      <trkpt lat="45.28458" lon="4.39103">
        <ele>950.99</ele>
        <time>2015-10-25T12:31:05Z</time>
      </trkpt>
      <trkpt lat="45.28471" lon="4.39075">
        <ele>950.4</ele>
        <time>2015-10-25T12:31:09Z</time>
      </trkpt>
      <trkpt lat="45.28485" lon="4.39051">
        <ele>950.06</ele>
        <time>2015-10-25T12:31:13Z</time>
      </trkpt>
      <trkpt lat="45.28499" lon="4.3903">
        <ele>949.84</ele>
        <time>2015-10-25T12:31:17Z</time>
      </trkpt>
      <trkpt lat="45.28499" lon="4.39002">
        <ele>949.26</ele>
        <time>2015-10-25T12:31:21Z</time>
      </trkpt>
      <trkpt lat="45.28502" lon="4.38975">
        <ele>948.94</ele>
        <time>2015-10-25T12:31:25Z</time>
      </trkpt>
      <trkpt lat="45.28514" lon="4.38954">
        <ele>948.84</ele>
        <time>2015-10-25T12:31:29Z</time>
      </trkpt>
      <trkpt lat="45.28516" lon="4.38929">
        <ele>949.09</ele>
        <time>2015-10-25T12:31:33Z</time>
      </trkpt>
      <trkpt lat="45.28504" lon="4.3891">
        <ele>949.4</ele>
        <time>2015-10-25T12:31:37Z</time>
      </trkpt>
      <trkpt lat="45.28488" lon="4.38893">
        <ele>949.64</ele>
        <time>2015-10-25T12:31:41Z</time>
      </trkpt>
      <trkpt lat="45.28471" lon="4.38875">
        <ele>949.84</ele>
        <time>2015-10-25T12:31:45Z</time>
      </trkpt>
      <trkpt lat="45.2846" lon="4.38852">
        <ele>950.16</ele>
        <time>2015-10-25T12:31:49Z</time>
      </trkpt>
      <trkpt lat="45.28457" lon="4.38827">
        <ele>950.62</ele>
        <time>2015-10-25T12:31:53Z</time>
      </trkpt>
      <trkpt lat="45.28453" lon="4.38801">
        <ele>951.99</ele>
        <time>2015-10-25T12:31:58Z</time>
      </trkpt>
      <trkpt lat="45.28452" lon="4.38774">
        <ele>953.57</ele>
        <time>2015-10-25T12:32:03Z</time>
      </trkpt>
      <trkpt lat="45.28449" lon="4.38744">
        <ele>954.39</ele>
        <time>2015-10-25T12:32:08Z</time>
      </trkpt>
      <trkpt lat="45.28445" lon="4.38714">
        <ele>954.77</ele>
        <time>2015-10-25T12:32:13Z</time>
      </trkpt>
      <trkpt lat="45.2844" lon="4.38686">
        <ele>955.36</ele>
        <time>2015-10-25T12:32:18Z</time>
      </trkpt>
      <trkpt lat="45.28434" lon="4.38659">
        <ele>955.83</ele>
        <time>2015-10-25T12:32:23Z</time>
      </trkpt>
      <trkpt lat="45.28429" lon="4.38634">
        <ele>957.16</ele>
        <time>2015-10-25T12:32:28Z</time>
      </trkpt>
      <trkpt lat="45.28427" lon="4.38607">
        <ele>959.12</ele>
        <time>2015-10-25T12:32:33Z</time>
      </trkpt>
      <trkpt lat="45.28425" lon="4.38582">
        <ele>960.53</ele>
        <time>2015-10-25T12:32:38Z</time>
      </trkpt>
      <trkpt lat="45.2842" lon="4.38555">
        <ele>961.5</ele>
        <time>2015-10-25T12:32:43Z</time>
      </trkpt>
      <trkpt lat="45.28418" lon="4.38526">
        <ele>961.98</ele>
        <time>2015-10-25T12:32:48Z</time>
      </trkpt>
      <trkpt lat="45.28416" lon="4.38501">
        <ele>962.06</ele>
        <time>2015-10-25T12:32:52Z</time>
      </trkpt>
      <trkpt lat="45.28415" lon="4.38474">
        <ele>962.18</ele>
        <time>2015-10-25T12:32:56Z</time>
      </trkpt>
      <trkpt lat="45.28413" lon="4.38447">
        <ele>962.21</ele>
        <time>2015-10-25T12:33:00Z</time>
      </trkpt>
      <trkpt lat="45.28413" lon="4.38421">
        <ele>962.43</ele>
        <time>2015-10-25T12:33:04Z</time>
      </trkpt>
      <trkpt lat="45.2841" lon="4.3839">
        <ele>962.84</ele>
        <time>2015-10-25T12:33:09Z</time>
      </trkpt>
      <trkpt lat="45.28408" lon="4.3836">
        <ele>963.24</ele>
        <time>2015-10-25T12:33:14Z</time>
      </trkpt>
      <trkpt lat="45.28403" lon="4.38329">
        <ele>963.86</ele>
        <time>2015-10-25T12:33:19Z</time>
      </trkpt>
      <trkpt lat="45.28396" lon="4.383">
        <ele>964.13</ele>
        <time>2015-10-25T12:33:24Z</time>
      </trkpt>
      <trkpt lat="45.28388" lon="4.38274">
        <ele>964.26</ele>
        <time>2015-10-25T12:33:28Z</time>
      </trkpt>
      <trkpt lat="45.2838" lon="4.38248">
        <ele>964.3</ele>
        <time>2015-10-25T12:33:32Z</time>
      </trkpt>
      <trkpt lat="45.28376" lon="4.38219">
        <ele>964.3</ele>
        <time>2015-10-25T12:33:36Z</time>
      </trkpt>
      <trkpt lat="45.28378" lon="4.3819">
        <ele>964.42</ele>
        <time>2015-10-25T12:33:40Z</time>
      </trkpt>
      <trkpt lat="45.28379" lon="4.38163">
        <ele>964.74</ele>
        <time>2015-10-25T12:33:44Z</time>
      </trkpt>
      <trkpt lat="45.28381" lon="4.38137">
        <ele>965.1</ele>
        <time>2015-10-25T12:33:48Z</time>
      </trkpt>
      <trkpt lat="45.28383" lon="4.3811">
        <ele>965.45</ele>
        <time>2015-10-25T12:33:52Z</time>
      </trkpt>
      <trkpt lat="45.28386" lon="4.38082">
        <ele>965.58</ele>
        <time>2015-10-25T12:33:56Z</time>
      </trkpt>
      <trkpt lat="45.28388" lon="4.38051">
        <ele>965.34</ele>
        <time>2015-10-25T12:34:00Z</time>
      </trkpt>
      <trkpt lat="45.28387" lon="4.38022">
        <ele>965.06</ele>
        <time>2015-10-25T12:34:03Z</time>
      </trkpt>
      <trkpt lat="45.28386" lon="4.37988">
        <ele>964.36</ele>
        <time>2015-10-25T12:34:06Z</time>
      </trkpt>
      <trkpt lat="45.28381" lon="4.37954">
        <ele>963.46</ele>
        <time>2015-10-25T12:34:09Z</time>
      </trkpt>
      <trkpt lat="45.28377" lon="4.37918">
        <ele>961.91</ele>
        <time>2015-10-25T12:34:12Z</time>
      </trkpt>
      <trkpt lat="45.28375" lon="4.3788">
        <ele>960.73</ele>
        <time>2015-10-25T12:34:15Z</time>
      </trkpt>
      <trkpt lat="45.28375" lon="4.37853">
        <ele>960</ele>
        <time>2015-10-25T12:34:17Z</time>
      </trkpt>
      <trkpt lat="45.28377" lon="4.37825">
        <ele>959.43</ele>
        <time>2015-10-25T12:34:19Z</time>
      </trkpt>
      <trkpt lat="45.28378" lon="4.37794">
        <ele>958.38</ele>
        <time>2015-10-25T12:34:21Z</time>
      </trkpt>
      <trkpt lat="45.28375" lon="4.37764">
        <ele>956.89</ele>
        <time>2015-10-25T12:34:23Z</time>
      </trkpt>
      <trkpt lat="45.2837" lon="4.37736">
        <ele>955.33</ele>
        <time>2015-10-25T12:34:25Z</time>
      </trkpt>
      <trkpt lat="45.2836" lon="4.37702">
        <ele>953.44</ele>
        <time>2015-10-25T12:34:28Z</time>
      </trkpt>
      <trkpt lat="45.28352" lon="4.37675">
        <ele>952.3</ele>
        <time>2015-10-25T12:34:31Z</time>
      </trkpt>
      <trkpt lat="45.28348" lon="4.3765">
        <ele>952.1</ele>
        <time>2015-10-25T12:34:35Z</time>
      </trkpt>
      <trkpt lat="45.28341" lon="4.37626">
        <ele>952.6</ele>
        <time>2015-10-25T12:34:40Z</time>
      </trkpt>
      <trkpt lat="45.28332" lon="4.376">
        <ele>952.88</ele>
        <time>2015-10-25T12:34:46Z</time>
      </trkpt>
      <trkpt lat="45.28317" lon="4.37573">
        <ele>952.66</ele>
        <time>2015-10-25T12:34:51Z</time>
      </trkpt>
      <trkpt lat="45.28307" lon="4.37546">
        <ele>952.34</ele>
        <time>2015-10-25T12:34:55Z</time>
      </trkpt>
      <trkpt lat="45.28296" lon="4.37518">
        <ele>952.27</ele>
        <time>2015-10-25T12:34:59Z</time>
      </trkpt>
      <trkpt lat="45.28281" lon="4.37492">
        <ele>952.85</ele>
        <time>2015-10-25T12:35:04Z</time>
      </trkpt>
      <trkpt lat="45.28268" lon="4.37473">
        <ele>954.28</ele>
        <time>2015-10-25T12:35:09Z</time>
      </trkpt>
      <trkpt lat="45.28255" lon="4.3745">
        <ele>955.86</ele>
        <time>2015-10-25T12:35:15Z</time>
      </trkpt>
      <trkpt lat="45.28244" lon="4.37424">
        <ele>957.45</ele>
        <time>2015-10-25T12:35:21Z</time>
      </trkpt>
      <trkpt lat="45.28233" lon="4.374">
        <ele>958.26</ele>
        <time>2015-10-25T12:35:27Z</time>
      </trkpt>
      <trkpt lat="45.28223" lon="4.37378">
        <ele>958.68</ele>
        <time>2015-10-25T12:35:32Z</time>
      </trkpt>
      <trkpt lat="45.28214" lon="4.37352">
        <ele>959.06</ele>
        <time>2015-10-25T12:35:37Z</time>
      </trkpt>
      <trkpt lat="45.28205" lon="4.37325">
        <ele>959.01</ele>
        <time>2015-10-25T12:35:42Z</time>
      </trkpt>
      <trkpt lat="45.28196" lon="4.37298">
        <ele>958.93</ele>
        <time>2015-10-25T12:35:47Z</time>
      </trkpt>
      <trkpt lat="45.28184" lon="4.37273">
        <ele>959.11</ele>
        <time>2015-10-25T12:35:52Z</time>
      </trkpt>
      <trkpt lat="45.28173" lon="4.37251">
        <ele>959.09</ele>
        <time>2015-10-25T12:35:56Z</time>
      </trkpt>
      <trkpt lat="45.28162" lon="4.3723">
        <ele>959.22</ele>
        <time>2015-10-25T12:36:00Z</time>
      </trkpt>
      <trkpt lat="45.28148" lon="4.37208">
        <ele>959.37</ele>
        <time>2015-10-25T12:36:05Z</time>
      </trkpt>
      <trkpt lat="45.28135" lon="4.3719">
        <ele>959.27</ele>
        <time>2015-10-25T12:36:09Z</time>
      </trkpt>
      <trkpt lat="45.28119" lon="4.37169">
        <ele>959.13</ele>
        <time>2015-10-25T12:36:13Z</time>
      </trkpt>
      <trkpt lat="45.28104" lon="4.37149">
        <ele>958.98</ele>
        <time>2015-10-25T12:36:17Z</time>
      </trkpt>
      <trkpt lat="45.2809" lon="4.37132">
        <ele>958.8</ele>
        <time>2015-10-25T12:36:21Z</time>
      </trkpt>
      <trkpt lat="45.28079" lon="4.37108">
        <ele>958.49</ele>
        <time>2015-10-25T12:36:25Z</time>
      </trkpt>
      <trkpt lat="45.28068" lon="4.37083">
        <ele>958.01</ele>
        <time>2015-10-25T12:36:29Z</time>
      </trkpt>
      <trkpt lat="45.28057" lon="4.37056">
        <ele>957.22</ele>
        <time>2015-10-25T12:36:34Z</time>
      </trkpt>
      <trkpt lat="45.28046" lon="4.37032">
        <ele>956.36</ele>
        <time>2015-10-25T12:36:39Z</time>
      </trkpt>
      <trkpt lat="45.28035" lon="4.37007">
        <ele>955.79</ele>
        <time>2015-10-25T12:36:45Z</time>
      </trkpt>
      <trkpt lat="45.28027" lon="4.3698">
        <ele>955.25</ele>
        <time>2015-10-25T12:36:52Z</time>
      </trkpt>
      <trkpt lat="45.28016" lon="4.36949">
        <ele>954.66</ele>
        <time>2015-10-25T12:36:57Z</time>
      </trkpt>
      <trkpt lat="45.28008" lon="4.36917">
        <ele>954.2</ele>
        <time>2015-10-25T12:37:01Z</time>
      </trkpt>
      <trkpt lat="45.28" lon="4.36887">
        <ele>953.89</ele>
        <time>2015-10-25T12:37:05Z</time>
      </trkpt>
      <trkpt lat="45.27993" lon="4.3686">
        <ele>953.59</ele>
        <time>2015-10-25T12:37:09Z</time>
      </trkpt>
      <trkpt lat="45.27987" lon="4.36828">
        <ele>953.34</ele>
        <time>2015-10-25T12:37:14Z</time>
      </trkpt>
      <trkpt lat="45.27984" lon="4.36799">
        <ele>953.27</ele>
        <time>2015-10-25T12:37:19Z</time>
      </trkpt>
      <trkpt lat="45.2798" lon="4.36768">
        <ele>953.64</ele>
        <time>2015-10-25T12:37:25Z</time>
      </trkpt>
      <trkpt lat="45.27974" lon="4.36738">
        <ele>953.87</ele>
        <time>2015-10-25T12:37:30Z</time>
      </trkpt>
      <trkpt lat="45.27968" lon="4.36707">
        <ele>954.05</ele>
        <time>2015-10-25T12:37:35Z</time>
      </trkpt>
      <trkpt lat="45.27962" lon="4.36678">
        <ele>953.95</ele>
        <time>2015-10-25T12:37:41Z</time>
      </trkpt>
      <trkpt lat="45.27955" lon="4.36651">
        <ele>953.63</ele>
        <time>2015-10-25T12:37:48Z</time>
      </trkpt>
      <trkpt lat="45.27941" lon="4.36632">
        <ele>953.41</ele>
        <time>2015-10-25T12:37:55Z</time>
      </trkpt>
      <trkpt lat="45.27921" lon="4.36633">
        <ele>953.79</ele>
        <time>2015-10-25T12:38:01Z</time>
      </trkpt>
      <trkpt lat="45.27901" lon="4.36624">
        <ele>954.47</ele>
        <time>2015-10-25T12:38:09Z</time>
      </trkpt>
      <trkpt lat="45.27875" lon="4.36607">
        <ele>954.87</ele>
        <time>2015-10-25T12:38:18Z</time>
      </trkpt>
      <trkpt lat="45.27854" lon="4.36588">
        <ele>955.2</ele>
        <time>2015-10-25T12:38:25Z</time>
      </trkpt>
      <trkpt lat="45.27831" lon="4.36557">
        <ele>955.83</ele>
        <time>2015-10-25T12:38:33Z</time>
      </trkpt>
      <trkpt lat="45.27808" lon="4.36547">
        <ele>956.62</ele>
        <time>2015-10-25T12:38:41Z</time>
      </trkpt>
      <trkpt lat="45.27791" lon="4.36563">
        <ele>956.33</ele>
        <time>2015-10-25T12:38:47Z</time>
      </trkpt>
      <trkpt lat="45.27777" lon="4.36583">
        <ele>956.19</ele>
        <time>2015-10-25T12:38:52Z</time>
      </trkpt>
      <trkpt lat="45.27755" lon="4.36589">
        <ele>955.74</ele>
        <time>2015-10-25T12:38:57Z</time>
      </trkpt>
      <trkpt lat="45.27733" lon="4.36579">
        <ele>954.66</ele>
        <time>2015-10-25T12:39:01Z</time>
      </trkpt>
      <trkpt lat="45.27713" lon="4.36575">
        <ele>953.69</ele>
        <time>2015-10-25T12:39:04Z</time>
      </trkpt>
      <trkpt lat="45.27692" lon="4.36575">
        <ele>951.9</ele>
        <time>2015-10-25T12:39:07Z</time>
      </trkpt>
      <trkpt lat="45.27671" lon="4.36573">
        <ele>950.48</ele>
        <time>2015-10-25T12:39:10Z</time>
      </trkpt>
      <trkpt lat="45.27651" lon="4.36571">
        <ele>949.54</ele>
        <time>2015-10-25T12:39:13Z</time>
      </trkpt>
      <trkpt lat="45.27631" lon="4.3657">
        <ele>948.69</ele>
        <time>2015-10-25T12:39:16Z</time>
      </trkpt>
      <trkpt lat="45.27607" lon="4.36568">
        <ele>947.74</ele>
        <time>2015-10-25T12:39:20Z</time>
      </trkpt>
      <trkpt lat="45.27585" lon="4.36565">
        <ele>946.31</ele>
        <time>2015-10-25T12:39:24Z</time>
      </trkpt>
      <trkpt lat="45.27564" lon="4.36557">
        <ele>945.26</ele>
        <time>2015-10-25T12:39:27Z</time>
      </trkpt>
      <trkpt lat="45.27545" lon="4.36553">
        <ele>944.23</ele>
        <time>2015-10-25T12:39:29Z</time>
      </trkpt>
      <trkpt lat="45.27526" lon="4.36545">
        <ele>942.94</ele>
        <time>2015-10-25T12:39:31Z</time>
      </trkpt>
      <trkpt lat="45.27507" lon="4.36539">
        <ele>940.8</ele>
        <time>2015-10-25T12:39:33Z</time>
      </trkpt>
      <trkpt lat="45.27484" lon="4.36526">
        <ele>939.26</ele>
        <time>2015-10-25T12:39:36Z</time>
      </trkpt>
      <trkpt lat="45.27466" lon="4.36505">
        <ele>938.34</ele>
        <time>2015-10-25T12:39:39Z</time>
      </trkpt>
      <trkpt lat="45.27448" lon="4.36477">
        <ele>937.65</ele>
        <time>2015-10-25T12:39:42Z</time>
      </trkpt>
      <trkpt lat="45.27435" lon="4.36455">
        <ele>937.02</ele>
        <time>2015-10-25T12:39:44Z</time>
      </trkpt>
      <trkpt lat="45.27422" lon="4.36432">
        <ele>935.85</ele>
        <time>2015-10-25T12:39:46Z</time>
      </trkpt>
      <trkpt lat="45.27406" lon="4.36404">
        <ele>933.49</ele>
        <time>2015-10-25T12:39:49Z</time>
      </trkpt>
      <trkpt lat="45.27394" lon="4.36382">
        <ele>930.91</ele>
        <time>2015-10-25T12:39:52Z</time>
      </trkpt>
      <trkpt lat="45.27383" lon="4.36354">
        <ele>927.34</ele>
        <time>2015-10-25T12:39:56Z</time>
      </trkpt>
      <trkpt lat="45.27381" lon="4.36324">
        <ele>924.79</ele>
        <time>2015-10-25T12:39:59Z</time>
      </trkpt>
      <trkpt lat="45.27374" lon="4.36295">
        <ele>923.12</ele>
        <time>2015-10-25T12:40:02Z</time>
      </trkpt>
      <trkpt lat="45.27356" lon="4.36272">
        <ele>921</ele>
        <time>2015-10-25T12:40:05Z</time>
      </trkpt>
      <trkpt lat="45.2734" lon="4.36258">
        <ele>919.45</ele>
        <time>2015-10-25T12:40:07Z</time>
      </trkpt>
      <trkpt lat="45.27325" lon="4.36242">
        <ele>917.62</ele>
        <time>2015-10-25T12:40:09Z</time>
      </trkpt>
      <trkpt lat="45.27307" lon="4.36218">
        <ele>915.02</ele>
        <time>2015-10-25T12:40:12Z</time>
      </trkpt>
      <trkpt lat="45.27289" lon="4.36205">
        <ele>912.1</ele>
        <time>2015-10-25T12:40:15Z</time>
      </trkpt>
      <trkpt lat="45.27272" lon="4.36216">
        <ele>909.63</ele>
        <time>2015-10-25T12:40:18Z</time>
      </trkpt>
      <trkpt lat="45.27263" lon="4.36244">
        <ele>907.05</ele>
        <time>2015-10-25T12:40:21Z</time>
      </trkpt>
      <trkpt lat="45.27255" lon="4.3627">
        <ele>905.41</ele>
        <time>2015-10-25T12:40:24Z</time>
      </trkpt>
      <trkpt lat="45.27241" lon="4.36292">
        <ele>903.65</ele>
        <time>2015-10-25T12:40:27Z</time>
      </trkpt>
      <trkpt lat="45.27228" lon="4.36314">
        <ele>902.11</ele>
        <time>2015-10-25T12:40:30Z</time>
      </trkpt>
      <trkpt lat="45.27213" lon="4.36333">
        <ele>900.49</ele>
        <time>2015-10-25T12:40:33Z</time>
      </trkpt>
      <trkpt lat="45.27196" lon="4.36354">
        <ele>898.44</ele>
        <time>2015-10-25T12:40:37Z</time>
      </trkpt>
      <trkpt lat="45.27185" lon="4.36381">
        <ele>895.49</ele>
        <time>2015-10-25T12:40:41Z</time>
      </trkpt>
      <trkpt lat="45.27176" lon="4.36413">
        <ele>890.92</ele>
        <time>2015-10-25T12:40:45Z</time>
      </trkpt>
      <trkpt lat="45.27171" lon="4.36439">
        <ele>888.36</ele>
        <time>2015-10-25T12:40:48Z</time>
      </trkpt>
      <trkpt lat="45.27171" lon="4.36466">
        <ele>886.13</ele>
        <time>2015-10-25T12:40:51Z</time>
      </trkpt>
      <trkpt lat="45.27172" lon="4.36498">
        <ele>884.47</ele>
        <time>2015-10-25T12:40:55Z</time>
      </trkpt>
      <trkpt lat="45.27167" lon="4.36523">
        <ele>883.64</ele>
        <time>2015-10-25T12:40:59Z</time>
      </trkpt>
      <trkpt lat="45.27154" lon="4.36543">
        <ele>883.28</ele>
        <time>2015-10-25T12:41:04Z</time>
      </trkpt>
      <trkpt lat="45.27149" lon="4.36569">
        <ele>883.2</ele>
        <time>2015-10-25T12:41:09Z</time>
      </trkpt>
      <trkpt lat="45.27145" lon="4.36601">
        <ele>883.34</ele>
        <time>2015-10-25T12:41:14Z</time>
      </trkpt>
      <trkpt lat="45.2713" lon="4.36623">
        <ele>882.88</ele>
        <time>2015-10-25T12:41:19Z</time>
      </trkpt>
      <trkpt lat="45.27112" lon="4.36633">
        <ele>882.62</ele>
        <time>2015-10-25T12:41:25Z</time>
      </trkpt>
      <trkpt lat="45.27088" lon="4.36641">
        <ele>881.45</ele>
        <time>2015-10-25T12:41:30Z</time>
      </trkpt>
      <trkpt lat="45.27069" lon="4.36649">
        <ele>879.53</ele>
        <time>2015-10-25T12:41:34Z</time>
      </trkpt>
      <trkpt lat="45.27049" lon="4.36668">
        <ele>877.22</ele>
        <time>2015-10-25T12:41:39Z</time>
      </trkpt>
      <trkpt lat="45.27036" lon="4.36693">
        <ele>874.3</ele>
        <time>2015-10-25T12:41:45Z</time>
      </trkpt>
      <trkpt lat="45.27018" lon="4.36698">
        <ele>872.5</ele>
        <time>2015-10-25T12:41:54Z</time>
      </trkpt>
      <trkpt lat="45.26995" lon="4.36696">
        <ele>872.25</ele>
        <time>2015-10-25T12:42:23Z</time>
      </trkpt>
      <trkpt lat="45.2698" lon="4.36676">
        <ele>872.1</ele>
        <time>2015-10-25T12:42:46Z</time>
      </trkpt>
      <trkpt lat="45.26972" lon="4.36648">
        <ele>873.23</ele>
        <time>2015-10-25T12:42:55Z</time>
      </trkpt>
      <trkpt lat="45.26979" lon="4.36618">
        <ele>876.45</ele>
        <time>2015-10-25T12:43:06Z</time>
      </trkpt>
      <trkpt lat="45.26984" lon="4.36584">
        <ele>878</ele>
        <time>2015-10-25T12:43:16Z</time>
      </trkpt>
      <trkpt lat="45.26985" lon="4.36551">
        <ele>880.52</ele>
        <time>2015-10-25T12:43:29Z</time>
      </trkpt>
      <trkpt lat="45.26986" lon="4.3652">
        <ele>883.45</ele>
        <time>2015-10-25T12:43:40Z</time>
      </trkpt>
      <trkpt lat="45.26996" lon="4.36486">
        <ele>885.46</ele>
        <time>2015-10-25T12:43:49Z</time>
      </trkpt>
      <trkpt lat="45.27008" lon="4.36456">
        <ele>884.88</ele>
        <time>2015-10-25T12:43:53Z</time>
      </trkpt>
      <trkpt lat="45.27016" lon="4.3643">
        <ele>884.38</ele>
        <time>2015-10-25T12:43:56Z</time>
      </trkpt>
      <trkpt lat="45.27022" lon="4.36403">
        <ele>883.19</ele>
        <time>2015-10-25T12:43:59Z</time>
      </trkpt>
      <trkpt lat="45.27028" lon="4.36376">
        <ele>881.79</ele>
        <time>2015-10-25T12:44:02Z</time>
      </trkpt>
      <trkpt lat="45.2703" lon="4.36347">
        <ele>880.66</ele>
        <time>2015-10-25T12:44:05Z</time>
      </trkpt>
      <trkpt lat="45.27024" lon="4.36319">
        <ele>879.49</ele>
        <time>2015-10-25T12:44:08Z</time>
      </trkpt>
      <trkpt lat="45.27015" lon="4.36296">
        <ele>878.58</ele>
        <time>2015-10-25T12:44:11Z</time>
      </trkpt>
      <trkpt lat="45.26997" lon="4.36278">
        <ele>877.68</ele>
        <time>2015-10-25T12:44:15Z</time>
      </trkpt>
      <trkpt lat="45.26974" lon="4.36271">
        <ele>877.27</ele>
        <time>2015-10-25T12:44:19Z</time>
      </trkpt>
      <trkpt lat="45.26953" lon="4.36263">
        <ele>876.65</ele>
        <time>2015-10-25T12:44:23Z</time>
      </trkpt>
      <trkpt lat="45.26935" lon="4.36251">
        <ele>876.22</ele>
        <time>2015-10-25T12:44:27Z</time>
      </trkpt>
      <trkpt lat="45.26919" lon="4.36237">
        <ele>876.37</ele>
        <time>2015-10-25T12:44:31Z</time>
      </trkpt>
      <trkpt lat="45.26907" lon="4.36216">
        <ele>877.18</ele>
        <time>2015-10-25T12:44:36Z</time>
      </trkpt>
      <trkpt lat="45.26905" lon="4.3619">
        <ele>878.66</ele>
        <time>2015-10-25T12:44:42Z</time>
      </trkpt>
      <trkpt lat="45.2691" lon="4.36164">
        <ele>880.22</ele>
        <time>2015-10-25T12:44:48Z</time>
      </trkpt>
      <trkpt lat="45.26914" lon="4.36138">
        <ele>881.33</ele>
        <time>2015-10-25T12:44:54Z</time>
      </trkpt>
      <trkpt lat="45.26912" lon="4.36113">
        <ele>883.2</ele>
        <time>2015-10-25T12:45:02Z</time>
      </trkpt>
      <trkpt lat="45.26905" lon="4.3609">
        <ele>885.7</ele>
        <time>2015-10-25T12:45:10Z</time>
      </trkpt>
      <trkpt lat="45.26892" lon="4.36068">
        <ele>888.28</ele>
        <time>2015-10-25T12:45:20Z</time>
      </trkpt>
      <trkpt lat="45.26872" lon="4.3605">
        <ele>889.84</ele>
        <time>2015-10-25T12:45:29Z</time>
      </trkpt>
      <trkpt lat="45.26851" lon="4.36027">
        <ele>890.94</ele>
        <time>2015-10-25T12:45:37Z</time>
      </trkpt>
      <trkpt lat="45.26846" lon="4.35994">
        <ele>891.51</ele>
        <time>2015-10-25T12:45:43Z</time>
      </trkpt>
      <trkpt lat="45.26856" lon="4.35971">
        <ele>891.59</ele>
        <time>2015-10-25T12:45:49Z</time>
      </trkpt>
      <trkpt lat="45.2687" lon="4.3595">
        <ele>892.7</ele>
        <time>2015-10-25T12:45:57Z</time>
      </trkpt>
      <trkpt lat="45.26888" lon="4.35925">
        <ele>893.02</ele>
        <time>2015-10-25T12:46:02Z</time>
      </trkpt>
      <trkpt lat="45.26903" lon="4.35901">
        <ele>893.27</ele>
        <time>2015-10-25T12:46:07Z</time>
      </trkpt>
      <trkpt lat="45.26919" lon="4.35881">
        <ele>892.9</ele>
        <time>2015-10-25T12:46:11Z</time>
      </trkpt>
      <trkpt lat="45.2694" lon="4.35868">
        <ele>891.8</ele>
        <time>2015-10-25T12:46:14Z</time>
      </trkpt>
      <trkpt lat="45.26967" lon="4.35868">
        <ele>890.06</ele>
        <time>2015-10-25T12:46:17Z</time>
      </trkpt>
      <trkpt lat="45.26988" lon="4.35865">
        <ele>887.59</ele>
        <time>2015-10-25T12:46:20Z</time>
      </trkpt>
      <trkpt lat="45.27001" lon="4.35842">
        <ele>886.2</ele>
        <time>2015-10-25T12:46:24Z</time>
      </trkpt>
      <trkpt lat="45.27005" lon="4.35816">
        <ele>885.24</ele>
        <time>2015-10-25T12:46:32Z</time>
      </trkpt>
      <trkpt lat="45.2701" lon="4.35791">
        <ele>883.55</ele>
        <time>2015-10-25T12:46:47Z</time>
      </trkpt>
      <trkpt lat="45.2701" lon="4.35761">
        <ele>883.01</ele>
        <time>2015-10-25T12:47:19Z</time>
      </trkpt>
      <trkpt lat="45.27017" lon="4.35729">
        <ele>881.79</ele>
        <time>2015-10-25T12:47:24Z</time>
      </trkpt>
      <trkpt lat="45.2702" lon="4.35701">
        <ele>880.36</ele>
        <time>2015-10-25T12:47:27Z</time>
      </trkpt>
      <trkpt lat="45.27019" lon="4.35665">
        <ele>878.72</ele>
        <time>2015-10-25T12:47:30Z</time>
      </trkpt>
      <trkpt lat="45.27019" lon="4.35634">
        <ele>876.81</ele>
        <time>2015-10-25T12:47:33Z</time>
      </trkpt>
      <trkpt lat="45.27022" lon="4.35604">
        <ele>875.44</ele>
        <time>2015-10-25T12:47:38Z</time>
      </trkpt>
      <trkpt lat="45.27029" lon="4.35576">
        <ele>876.8</ele>
        <time>2015-10-25T12:47:44Z</time>
      </trkpt>
      <trkpt lat="45.27035" lon="4.35546">
        <ele>877.33</ele>
        <time>2015-10-25T12:47:50Z</time>
      </trkpt>
      <trkpt lat="45.27038" lon="4.35517">
        <ele>877.42</ele>
        <time>2015-10-25T12:47:54Z</time>
      </trkpt>
      <trkpt lat="45.27039" lon="4.35489">
        <ele>876.82</ele>
        <time>2015-10-25T12:47:57Z</time>
      </trkpt>
      <trkpt lat="45.27039" lon="4.35462">
        <ele>875.44</ele>
        <time>2015-10-25T12:48:01Z</time>
      </trkpt>
      <trkpt lat="45.27041" lon="4.35434">
        <ele>874.97</ele>
        <time>2015-10-25T12:48:10Z</time>
      </trkpt>
      <trkpt lat="45.27049" lon="4.35404">
        <ele>877.43</ele>
        <time>2015-10-25T12:48:24Z</time>
      </trkpt>
      <trkpt lat="45.27064" lon="4.35377">
        <ele>880.27</ele>
        <time>2015-10-25T12:48:33Z</time>
      </trkpt>
      <trkpt lat="45.27078" lon="4.35349">
        <ele>883.14</ele>
        <time>2015-10-25T12:48:43Z</time>
      </trkpt>
      <trkpt lat="45.27091" lon="4.35313">
        <ele>884.49</ele>
        <time>2015-10-25T12:48:53Z</time>
      </trkpt>
      <trkpt lat="45.271" lon="4.35275">
        <ele>884.13</ele>
        <time>2015-10-25T12:49:00Z</time>
      </trkpt>
      <trkpt lat="45.27108" lon="4.35237">
        <ele>883.32</ele>
        <time>2015-10-25T12:49:05Z</time>
      </trkpt>
      <trkpt lat="45.27123" lon="4.35214">
        <ele>881.47</ele>
        <time>2015-10-25T12:49:10Z</time>
      </trkpt>
      <trkpt lat="45.27144" lon="4.352">
        <ele>879.22</ele>
        <time>2015-10-25T12:49:14Z</time>
      </trkpt>
      <trkpt lat="45.27157" lon="4.35179">
        <ele>876.33</ele>
        <time>2015-10-25T12:49:18Z</time>
      </trkpt>
      <trkpt lat="45.27173" lon="4.35157">
        <ele>873.91</ele>
        <time>2015-10-25T12:49:23Z</time>
      </trkpt>
      <trkpt lat="45.27189" lon="4.35134">
        <ele>870.32</ele>
        <time>2015-10-25T12:49:28Z</time>
      </trkpt>
      <trkpt lat="45.27207" lon="4.35119">
        <ele>866.46</ele>
        <time>2015-10-25T12:49:33Z</time>
      </trkpt>
      <trkpt lat="45.27231" lon="4.35118">
        <ele>862.73</ele>
        <time>2015-10-25T12:49:38Z</time>
      </trkpt>
      <trkpt lat="45.27255" lon="4.35121">
        <ele>860.17</ele>
        <time>2015-10-25T12:49:42Z</time>
      </trkpt>
      <trkpt lat="45.27276" lon="4.35109">
        <ele>857.18</ele>
        <time>2015-10-25T12:49:46Z</time>
      </trkpt>
      <trkpt lat="45.27294" lon="4.35093">
        <ele>854.81</ele>
        <time>2015-10-25T12:49:49Z</time>
      </trkpt>
      <trkpt lat="45.2731" lon="4.35072">
        <ele>853.2</ele>
        <time>2015-10-25T12:49:52Z</time>
      </trkpt>
      <trkpt lat="45.2732" lon="4.35047">
        <ele>851.77</ele>
        <time>2015-10-25T12:49:55Z</time>
      </trkpt>
      <trkpt lat="45.2733" lon="4.35025">
        <ele>850.6</ele>
        <time>2015-10-25T12:49:58Z</time>
      </trkpt>
      <trkpt lat="45.27339" lon="4.34996">
        <ele>849.82</ele>
        <time>2015-10-25T12:50:02Z</time>
      </trkpt>
      <trkpt lat="45.27346" lon="4.34967">
        <ele>849.65</ele>
        <time>2015-10-25T12:50:06Z</time>
      </trkpt>
      <trkpt lat="45.2735" lon="4.3494">
        <ele>849.69</ele>
        <time>2015-10-25T12:50:10Z</time>
      </trkpt>
      <trkpt lat="45.2735" lon="4.34906">
        <ele>849.57</ele>
        <time>2015-10-25T12:50:14Z</time>
      </trkpt>
      <trkpt lat="45.27355" lon="4.34877">
        <ele>849.11</ele>
        <time>2015-10-25T12:50:18Z</time>
      </trkpt>
      <trkpt lat="45.27369" lon="4.34856">
        <ele>848.69</ele>
        <time>2015-10-25T12:50:24Z</time>
      </trkpt>
      <trkpt lat="45.27388" lon="4.34843">
        <ele>849.11</ele>
        <time>2015-10-25T12:50:30Z</time>
      </trkpt>
      <trkpt lat="45.27406" lon="4.34825">
        <ele>852.32</ele>
        <time>2015-10-25T12:50:44Z</time>
      </trkpt>
      <trkpt lat="45.27419" lon="4.34793">
        <ele>854.68</ele>
        <time>2015-10-25T12:50:55Z</time>
      </trkpt>
      <trkpt lat="45.2741" lon="4.34777">
        <ele>858.06</ele>
        <time>2015-10-25T12:51:04Z</time>
      </trkpt>
      <trkpt lat="45.27395" lon="4.34753">
        <ele>861.41</ele>
        <time>2015-10-25T12:51:16Z</time>
      </trkpt>
      <trkpt lat="45.27392" lon="4.34722">
        <ele>863.61</ele>
        <time>2015-10-25T12:51:23Z</time>
      </trkpt>
      <trkpt lat="45.27397" lon="4.3469">
        <ele>866.97</ele>
        <time>2015-10-25T12:51:31Z</time>
      </trkpt>
      <trkpt lat="45.27399" lon="4.3466">
        <ele>869.82</ele>
        <time>2015-10-25T12:51:39Z</time>
      </trkpt>
      <trkpt lat="45.27397" lon="4.34631">
        <ele>872.38</ele>
        <time>2015-10-25T12:51:47Z</time>
      </trkpt>
      <trkpt lat="45.27395" lon="4.346">
        <ele>875</ele>
        <time>2015-10-25T12:51:55Z</time>
      </trkpt>
      <trkpt lat="45.27396" lon="4.34573">
        <ele>878.56</ele>
        <time>2015-10-25T12:52:05Z</time>
      </trkpt>
      <trkpt lat="45.27404" lon="4.34545">
        <ele>881.11</ele>
        <time>2015-10-25T12:52:14Z</time>
      </trkpt>
      <trkpt lat="45.27413" lon="4.3452">
        <ele>883.12</ele>
        <time>2015-10-25T12:52:23Z</time>
      </trkpt>
      <trkpt lat="45.27419" lon="4.34494">
        <ele>883.54</ele>
        <time>2015-10-25T12:52:33Z</time>
      </trkpt>
      <trkpt lat="45.27425" lon="4.34467">
        <ele>884.2</ele>
        <time>2015-10-25T12:52:43Z</time>
      </trkpt>
      <trkpt lat="45.2743" lon="4.34443">
        <ele>884.8</ele>
        <time>2015-10-25T12:52:52Z</time>
      </trkpt>
      <trkpt lat="45.27438" lon="4.34418">
        <ele>886.3</ele>
        <time>2015-10-25T12:53:02Z</time>
      </trkpt>
      <trkpt lat="45.27449" lon="4.34395">
        <ele>887.19</ele>
        <time>2015-10-25T12:53:11Z</time>
      </trkpt>
      <trkpt lat="45.27463" lon="4.34375">
        <ele>888.03</ele>
        <time>2015-10-25T12:53:20Z</time>
      </trkpt>
      <trkpt lat="45.27479" lon="4.34356">
        <ele>887.53</ele>
        <time>2015-10-25T12:53:29Z</time>
      </trkpt>
      <trkpt lat="45.27491" lon="4.34338">
        <ele>888.94</ele>
        <time>2015-10-25T12:53:37Z</time>
      </trkpt>
      <trkpt lat="45.27506" lon="4.34318">
        <ele>889.59</ele>
        <time>2015-10-25T12:53:45Z</time>
      </trkpt>
      <trkpt lat="45.2752" lon="4.34299">
        <ele>890.07</ele>
        <time>2015-10-25T12:53:52Z</time>
      </trkpt>
      <trkpt lat="45.27533" lon="4.3428">
        <ele>890.55</ele>
        <time>2015-10-25T12:53:59Z</time>
      </trkpt>
      <trkpt lat="45.27548" lon="4.34258">
        <ele>891.58</ele>
        <time>2015-10-25T12:54:07Z</time>
      </trkpt>
      <trkpt lat="45.2756" lon="4.34236">
        <ele>892.03</ele>
        <time>2015-10-25T12:54:13Z</time>
      </trkpt>
      <trkpt lat="45.27573" lon="4.34213">
        <ele>892.23</ele>
        <time>2015-10-25T12:54:19Z</time>
      </trkpt>
      <trkpt lat="45.27586" lon="4.3419">
        <ele>892.57</ele>
        <time>2015-10-25T12:54:25Z</time>
      </trkpt>
      <trkpt lat="45.27599" lon="4.34168">
        <ele>892.73</ele>
        <time>2015-10-25T12:54:31Z</time>
      </trkpt>
      <trkpt lat="45.27606" lon="4.3414">
        <ele>892.86</ele>
        <time>2015-10-25T12:54:37Z</time>
      </trkpt>
      <trkpt lat="45.27609" lon="4.34114">
        <ele>893.26</ele>
        <time>2015-10-25T12:54:43Z</time>
      </trkpt>
      <trkpt lat="45.27608" lon="4.34085">
        <ele>894.01</ele>
        <time>2015-10-25T12:54:50Z</time>
      </trkpt>
      <trkpt lat="45.27607" lon="4.34059">
        <ele>895.24</ele>
        <time>2015-10-25T12:55:00Z</time>
      </trkpt>
      <trkpt lat="45.27588" lon="4.34063">
        <ele>896.61</ele>
        <time>2015-10-25T12:55:43Z</time>
      </trkpt>
      <trkpt lat="45.2757" lon="4.34071">
        <ele>897.55</ele>
        <time>2015-10-25T12:55:50Z</time>
      </trkpt>
      <trkpt lat="45.27552" lon="4.34081">
        <ele>899.01</ele>
        <time>2015-10-25T12:55:58Z</time>
      </trkpt>
      <trkpt lat="45.27533" lon="4.34083">
        <ele>901.2</ele>
        <time>2015-10-25T12:56:06Z</time>
      </trkpt>
      <trkpt lat="45.27514" lon="4.3408">
        <ele>903.41</ele>
        <time>2015-10-25T12:56:14Z</time>
      </trkpt>
      <trkpt lat="45.27493" lon="4.34077">
        <ele>905.57</ele>
        <time>2015-10-25T12:56:22Z</time>
      </trkpt>
      <trkpt lat="45.27473" lon="4.34076">
        <ele>907.86</ele>
        <time>2015-10-25T12:56:29Z</time>
      </trkpt>
      <trkpt lat="45.27454" lon="4.34076">
        <ele>908.85</ele>
        <time>2015-10-25T12:56:35Z</time>
      </trkpt>
      <trkpt lat="45.27436" lon="4.3407">
        <ele>909.58</ele>
        <time>2015-10-25T12:56:41Z</time>
      </trkpt>
      <trkpt lat="45.2742" lon="4.34052">
        <ele>910.29</ele>
        <time>2015-10-25T12:56:48Z</time>
      </trkpt>
      <trkpt lat="45.27405" lon="4.34033">
        <ele>911.65</ele>
        <time>2015-10-25T12:56:56Z</time>
      </trkpt>
      <trkpt lat="45.27387" lon="4.34016">
        <ele>913.24</ele>
        <time>2015-10-25T12:57:03Z</time>
      </trkpt>
      <trkpt lat="45.2737" lon="4.34003">
        <ele>914.92</ele>
        <time>2015-10-25T12:57:10Z</time>
      </trkpt>
      <trkpt lat="45.27354" lon="4.33988">
        <ele>916.16</ele>
        <time>2015-10-25T12:57:17Z</time>
      </trkpt>
      <trkpt lat="45.27335" lon="4.33977">
        <ele>917.61</ele>
        <time>2015-10-25T12:57:24Z</time>
      </trkpt>
      <trkpt lat="45.27316" lon="4.33967">
        <ele>918.36</ele>
        <time>2015-10-25T12:57:31Z</time>
      </trkpt>
      <trkpt lat="45.27296" lon="4.33957">
        <ele>919.14</ele>
        <time>2015-10-25T12:57:38Z</time>
      </trkpt>
      <trkpt lat="45.27277" lon="4.33945">
        <ele>920.12</ele>
        <time>2015-10-25T12:57:45Z</time>
      </trkpt>
      <trkpt lat="45.27258" lon="4.33932">
        <ele>921.12</ele>
        <time>2015-10-25T12:57:52Z</time>
      </trkpt>
      <trkpt lat="45.2724" lon="4.33922">
        <ele>922.37</ele>
        <time>2015-10-25T12:57:59Z</time>
      </trkpt>
      <trkpt lat="45.2722" lon="4.33916">
        <ele>923.23</ele>
        <time>2015-10-25T12:58:06Z</time>
      </trkpt>
      <trkpt lat="45.272" lon="4.33912">
        <ele>924.73</ele>
        <time>2015-10-25T12:58:13Z</time>
      </trkpt>
      <trkpt lat="45.27179" lon="4.33909">
        <ele>926.35</ele>
        <time>2015-10-25T12:58:20Z</time>
      </trkpt>
      <trkpt lat="45.27159" lon="4.33897">
        <ele>927.4</ele>
        <time>2015-10-25T12:58:27Z</time>
      </trkpt>
      <trkpt lat="45.27143" lon="4.33882">
        <ele>927.55</ele>
        <time>2015-10-25T12:58:32Z</time>
      </trkpt>
      <trkpt lat="45.27126" lon="4.33868">
        <ele>927.52</ele>
        <time>2015-10-25T12:58:37Z</time>
      </trkpt>
      <trkpt lat="45.27108" lon="4.33856">
        <ele>927.61</ele>
        <time>2015-10-25T12:58:42Z</time>
      </trkpt>
      <trkpt lat="45.27089" lon="4.33848">
        <ele>927.75</ele>
        <time>2015-10-25T12:58:47Z</time>
      </trkpt>
      <trkpt lat="45.2707" lon="4.33841">
        <ele>927.8</ele>
        <time>2015-10-25T12:58:52Z</time>
      </trkpt>
      <trkpt lat="45.27049" lon="4.33835">
        <ele>928.7</ele>
        <time>2015-10-25T12:58:58Z</time>
      </trkpt>
      <trkpt lat="45.27028" lon="4.33826">
        <ele>929.32</ele>
        <time>2015-10-25T12:59:03Z</time>
      </trkpt>
      <trkpt lat="45.2701" lon="4.33816">
        <ele>929.44</ele>
        <time>2015-10-25T12:59:07Z</time>
      </trkpt>
      <trkpt lat="45.26993" lon="4.33807">
        <ele>929.31</ele>
        <time>2015-10-25T12:59:11Z</time>
      </trkpt>
      <trkpt lat="45.26975" lon="4.338">
        <ele>929.07</ele>
        <time>2015-10-25T12:59:15Z</time>
      </trkpt>
      <trkpt lat="45.26957" lon="4.33794">
        <ele>928.84</ele>
        <time>2015-10-25T12:59:19Z</time>
      </trkpt>
      <trkpt lat="45.26935" lon="4.33786">
        <ele>928.57</ele>
        <time>2015-10-25T12:59:24Z</time>
      </trkpt>
      <trkpt lat="45.26914" lon="4.33778">
        <ele>928.2</ele>
        <time>2015-10-25T12:59:29Z</time>
      </trkpt>
      <trkpt lat="45.26892" lon="4.3377">
        <ele>927.97</ele>
        <time>2015-10-25T12:59:34Z</time>
      </trkpt>
      <trkpt lat="45.26872" lon="4.33759">
        <ele>927.96</ele>
        <time>2015-10-25T12:59:39Z</time>
      </trkpt>
      <trkpt lat="45.26853" lon="4.33745">
        <ele>928.09</ele>
        <time>2015-10-25T12:59:44Z</time>
      </trkpt>
      <trkpt lat="45.26835" lon="4.33731">
        <ele>928.17</ele>
        <time>2015-10-25T12:59:49Z</time>
      </trkpt>
      <trkpt lat="45.26817" lon="4.33714">
        <ele>928.55</ele>
        <time>2015-10-25T12:59:54Z</time>
      </trkpt>
      <trkpt lat="45.268" lon="4.33699">
        <ele>929.1</ele>
        <time>2015-10-25T12:59:59Z</time>
      </trkpt>
      <trkpt lat="45.26782" lon="4.33688">
        <ele>929.86</ele>
        <time>2015-10-25T13:00:04Z</time>
      </trkpt>
      <trkpt lat="45.26762" lon="4.33682">
        <ele>930.57</ele>
        <time>2015-10-25T13:00:09Z</time>
      </trkpt>
      <trkpt lat="45.26742" lon="4.33684">
        <ele>930.86</ele>
        <time>2015-10-25T13:00:14Z</time>
      </trkpt>
      <trkpt lat="45.2672" lon="4.33677">
        <ele>930.59</ele>
        <time>2015-10-25T13:00:19Z</time>
      </trkpt>
      <trkpt lat="45.26703" lon="4.33657">
        <ele>929.7</ele>
        <time>2015-10-25T13:00:23Z</time>
      </trkpt>
      <trkpt lat="45.26686" lon="4.33649">
        <ele>928.21</ele>
        <time>2015-10-25T13:00:28Z</time>
      </trkpt>
      <trkpt lat="45.26668" lon="4.33657">
        <ele>927.23</ele>
        <time>2015-10-25T13:00:32Z</time>
      </trkpt>
      <trkpt lat="45.26647" lon="4.33663">
        <ele>926.83</ele>
        <time>2015-10-25T13:00:37Z</time>
      </trkpt>
      <trkpt lat="45.2663" lon="4.33648">
        <ele>926.78</ele>
        <time>2015-10-25T13:00:42Z</time>
      </trkpt>
      <trkpt lat="45.26616" lon="4.33627">
        <ele>927.07</ele>
        <time>2015-10-25T13:00:49Z</time>
      </trkpt>
      <trkpt lat="45.26605" lon="4.33604">
        <ele>928.16</ele>
        <time>2015-10-25T13:00:58Z</time>
      </trkpt>
      <trkpt lat="45.26592" lon="4.33587">
        <ele>929.26</ele>
        <time>2015-10-25T13:01:05Z</time>
      </trkpt>
      <trkpt lat="45.26581" lon="4.33566">
        <ele>930.26</ele>
        <time>2015-10-25T13:01:11Z</time>
      </trkpt>
      <trkpt lat="45.26573" lon="4.33541">
        <ele>930.82</ele>
        <time>2015-10-25T13:01:17Z</time>
      </trkpt>
      <trkpt lat="45.26565" lon="4.33512">
        <ele>931.2</ele>
        <time>2015-10-25T13:01:23Z</time>
      </trkpt>
      <trkpt lat="45.26571" lon="4.33481">
        <ele>930.64</ele>
        <time>2015-10-25T13:01:28Z</time>
      </trkpt>
      <trkpt lat="45.26579" lon="4.33454">
        <ele>930.13</ele>
        <time>2015-10-25T13:01:32Z</time>
      </trkpt>
      <trkpt lat="45.26587" lon="4.33426">
        <ele>929.44</ele>
        <time>2015-10-25T13:01:36Z</time>
      </trkpt>
      <trkpt lat="45.26593" lon="4.33395">
        <ele>928.73</ele>
        <time>2015-10-25T13:01:40Z</time>
      </trkpt>
      <trkpt lat="45.26598" lon="4.33363">
        <ele>928.15</ele>
        <time>2015-10-25T13:01:44Z</time>
      </trkpt>
      <trkpt lat="45.26608" lon="4.33334">
        <ele>927.79</ele>
        <time>2015-10-25T13:01:48Z</time>
      </trkpt>
      <trkpt lat="45.26618" lon="4.33305">
        <ele>927.13</ele>
        <time>2015-10-25T13:01:52Z</time>
      </trkpt>
      <trkpt lat="45.26622" lon="4.33273">
        <ele>926.19</ele>
        <time>2015-10-25T13:01:56Z</time>
      </trkpt>
      <trkpt lat="45.26626" lon="4.33244">
        <ele>924.78</ele>
        <time>2015-10-25T13:02:01Z</time>
      </trkpt>
      <trkpt lat="45.26634" lon="4.33219">
        <ele>924.13</ele>
        <time>2015-10-25T13:02:05Z</time>
      </trkpt>
      <trkpt lat="45.26643" lon="4.33194">
        <ele>923.79</ele>
        <time>2015-10-25T13:02:09Z</time>
      </trkpt>
      <trkpt lat="45.2665" lon="4.33164">
        <ele>923.71</ele>
        <time>2015-10-25T13:02:14Z</time>
      </trkpt>
      <trkpt lat="45.26655" lon="4.33137">
        <ele>923.66</ele>
        <time>2015-10-25T13:02:19Z</time>
      </trkpt>
      <trkpt lat="45.2666" lon="4.33109">
        <ele>923.3</ele>
        <time>2015-10-25T13:02:24Z</time>
      </trkpt>
      <trkpt lat="45.26665" lon="4.33081">
        <ele>923.06</ele>
        <time>2015-10-25T13:02:30Z</time>
      </trkpt>
      <trkpt lat="45.26671" lon="4.33052">
        <ele>922.92</ele>
        <time>2015-10-25T13:02:36Z</time>
      </trkpt>
      <trkpt lat="45.26677" lon="4.33023">
        <ele>922.83</ele>
        <time>2015-10-25T13:02:42Z</time>
      </trkpt>
      <trkpt lat="45.26686" lon="4.33002">
        <ele>922.32</ele>
        <time>2015-10-25T13:02:54Z</time>
      </trkpt>
      <trkpt lat="45.26693" lon="4.3298">
        <ele>919.73</ele>
        <time>2015-10-25T13:03:36Z</time>
      </trkpt>
      <trkpt lat="45.2669" lon="4.32953">
        <ele>922.45</ele>
        <time>2015-10-25T13:04:14Z</time>
      </trkpt>
      <trkpt lat="45.26693" lon="4.32923">
        <ele>922.7</ele>
        <time>2015-10-25T13:04:21Z</time>
      </trkpt>
      <trkpt lat="45.26699" lon="4.32897">
        <ele>922.69</ele>
        <time>2015-10-25T13:04:26Z</time>
      </trkpt>
      <trkpt lat="45.26707" lon="4.32867">
        <ele>922.49</ele>
        <time>2015-10-25T13:04:32Z</time>
      </trkpt>
      <trkpt lat="45.26715" lon="4.32841">
        <ele>921.97</ele>
        <time>2015-10-25T13:04:37Z</time>
      </trkpt>
      <trkpt lat="45.26724" lon="4.32817">
        <ele>921.26</ele>
        <time>2015-10-25T13:04:41Z</time>
      </trkpt>
      <trkpt lat="45.26734" lon="4.32784">
        <ele>920.78</ele>
        <time>2015-10-25T13:04:45Z</time>
      </trkpt>
      <trkpt lat="45.26744" lon="4.32754">
        <ele>919.44</ele>
        <time>2015-10-25T13:04:48Z</time>
      </trkpt>
      <trkpt lat="45.26755" lon="4.32721">
        <ele>918.16</ele>
        <time>2015-10-25T13:04:51Z</time>
      </trkpt>
      <trkpt lat="45.26765" lon="4.32687">
        <ele>916.73</ele>
        <time>2015-10-25T13:04:54Z</time>
      </trkpt>
      <trkpt lat="45.26772" lon="4.32654">
        <ele>915.64</ele>
        <time>2015-10-25T13:04:57Z</time>
      </trkpt>
      <trkpt lat="45.26779" lon="4.32626">
        <ele>914.95</ele>
        <time>2015-10-25T13:05:00Z</time>
      </trkpt>
      <trkpt lat="45.26785" lon="4.32602">
        <ele>914.87</ele>
        <time>2015-10-25T13:05:03Z</time>
      </trkpt>
      <trkpt lat="45.2679" lon="4.32573">
        <ele>915.63</ele>
        <time>2015-10-25T13:05:07Z</time>
      </trkpt>
      <trkpt lat="45.2679" lon="4.32543">
        <ele>917.11</ele>
        <time>2015-10-25T13:05:12Z</time>
      </trkpt>
      <trkpt lat="45.26792" lon="4.32516">
        <ele>918.29</ele>
        <time>2015-10-25T13:05:16Z</time>
      </trkpt>
      <trkpt lat="45.26793" lon="4.32489">
        <ele>918.26</ele>
        <time>2015-10-25T13:05:19Z</time>
      </trkpt>
      <trkpt lat="45.26795" lon="4.3246">
        <ele>917.47</ele>
        <time>2015-10-25T13:05:24Z</time>
      </trkpt>
      <trkpt lat="45.26792" lon="4.32436">
        <ele>917.13</ele>
        <time>2015-10-25T13:05:29Z</time>
      </trkpt>
      <trkpt lat="45.26787" lon="4.32401">
        <ele>916.73</ele>
        <time>2015-10-25T13:05:33Z</time>
      </trkpt>
      <trkpt lat="45.26783" lon="4.32367">
        <ele>915.52</ele>
        <time>2015-10-25T13:05:36Z</time>
      </trkpt>
      <trkpt lat="45.26771" lon="4.32335">
        <ele>913.3</ele>
        <time>2015-10-25T13:05:39Z</time>
      </trkpt>
      <trkpt lat="45.26759" lon="4.32302">
        <ele>911.76</ele>
        <time>2015-10-25T13:05:42Z</time>
      </trkpt>
      <trkpt lat="45.26751" lon="4.32267">
        <ele>910.39</ele>
        <time>2015-10-25T13:05:45Z</time>
      </trkpt>
      <trkpt lat="45.26742" lon="4.32234">
        <ele>909.35</ele>
        <time>2015-10-25T13:05:48Z</time>
      </trkpt>
      <trkpt lat="45.26732" lon="4.32204">
        <ele>908.66</ele>
        <time>2015-10-25T13:05:51Z</time>
      </trkpt>
      <trkpt lat="45.26724" lon="4.32174">
        <ele>908.12</ele>
        <time>2015-10-25T13:05:54Z</time>
      </trkpt>
      <trkpt lat="45.26716" lon="4.32145">
        <ele>907.63</ele>
        <time>2015-10-25T13:05:57Z</time>
      </trkpt>
      <trkpt lat="45.26707" lon="4.32121">
        <ele>907.2</ele>
        <time>2015-10-25T13:06:00Z</time>
      </trkpt>
      <trkpt lat="45.26698" lon="4.32096">
        <ele>906.93</ele>
        <time>2015-10-25T13:06:03Z</time>
      </trkpt>
      <trkpt lat="45.26694" lon="4.32063">
        <ele>906.49</ele>
        <time>2015-10-25T13:06:06Z</time>
      </trkpt>
      <trkpt lat="45.26695" lon="4.32027">
        <ele>905.21</ele>
        <time>2015-10-25T13:06:09Z</time>
      </trkpt>
      <trkpt lat="45.267" lon="4.3199">
        <ele>904.01</ele>
        <time>2015-10-25T13:06:12Z</time>
      </trkpt>
      <trkpt lat="45.26707" lon="4.31955">
        <ele>902.78</ele>
        <time>2015-10-25T13:06:15Z</time>
      </trkpt>
      <trkpt lat="45.26715" lon="4.31923">
        <ele>901.22</ele>
        <time>2015-10-25T13:06:18Z</time>
      </trkpt>
      <trkpt lat="45.26723" lon="4.31899">
        <ele>898.91</ele>
        <time>2015-10-25T13:06:21Z</time>
      </trkpt>
      <trkpt lat="45.26729" lon="4.31869">
        <ele>896.86</ele>
        <time>2015-10-25T13:06:25Z</time>
      </trkpt>
      <trkpt lat="45.26729" lon="4.3184">
        <ele>895.46</ele>
        <time>2015-10-25T13:06:29Z</time>
      </trkpt>
      <trkpt lat="45.26723" lon="4.31812">
        <ele>895.02</ele>
        <time>2015-10-25T13:06:34Z</time>
      </trkpt>
      <trkpt lat="45.26716" lon="4.31788">
        <ele>895.11</ele>
        <time>2015-10-25T13:06:39Z</time>
      </trkpt>
      <trkpt lat="45.26704" lon="4.31766">
        <ele>895.11</ele>
        <time>2015-10-25T13:06:44Z</time>
      </trkpt>
      <trkpt lat="45.26695" lon="4.31742">
        <ele>895.18</ele>
        <time>2015-10-25T13:06:50Z</time>
      </trkpt>
      <trkpt lat="45.26687" lon="4.31714">
        <ele>895.07</ele>
        <time>2015-10-25T13:06:56Z</time>
      </trkpt>
      <trkpt lat="45.26687" lon="4.31684">
        <ele>894.46</ele>
        <time>2015-10-25T13:07:02Z</time>
      </trkpt>
      <trkpt lat="45.26688" lon="4.31648">
        <ele>892.99</ele>
        <time>2015-10-25T13:07:08Z</time>
      </trkpt>
      <trkpt lat="45.26698" lon="4.31618">
        <ele>890.46</ele>
        <time>2015-10-25T13:07:15Z</time>
      </trkpt>
      <trkpt lat="45.26711" lon="4.3158">
        <ele>886.55</ele>
        <time>2015-10-25T13:07:24Z</time>
      </trkpt>
      <trkpt lat="45.26707" lon="4.3157">
        <ele>882.88</ele>
        <time>2015-10-25T13:07:37Z</time>
      </trkpt>
      <trkpt lat="45.26692" lon="4.31589">
        <ele>882.68</ele>
        <time>2015-10-25T13:07:44Z</time>
      </trkpt>
      <trkpt lat="45.26677" lon="4.31612">
        <ele>883.31</ele>
        <time>2015-10-25T13:07:51Z</time>
      </trkpt>
      <trkpt lat="45.2666" lon="4.31636">
        <ele>884.82</ele>
        <time>2015-10-25T13:07:59Z</time>
      </trkpt>
      <trkpt lat="45.26641" lon="4.31661">
        <ele>886.16</ele>
        <time>2015-10-25T13:08:08Z</time>
      </trkpt>
      <trkpt lat="45.26615" lon="4.31675">
        <ele>886.87</ele>
        <time>2015-10-25T13:08:16Z</time>
      </trkpt>
      <trkpt lat="45.26592" lon="4.31681">
        <ele>887.37</ele>
        <time>2015-10-25T13:08:22Z</time>
      </trkpt>
      <trkpt lat="45.26565" lon="4.31696">
        <ele>889.33</ele>
        <time>2015-10-25T13:08:32Z</time>
      </trkpt>
      <trkpt lat="45.26542" lon="4.31704">
        <ele>891.54</ele>
        <time>2015-10-25T13:08:42Z</time>
      </trkpt>
      <trkpt lat="45.26519" lon="4.31707">
        <ele>894.08</ele>
        <time>2015-10-25T13:08:51Z</time>
      </trkpt>
      <trkpt lat="45.26499" lon="4.31703">
        <ele>896.15</ele>
        <time>2015-10-25T13:08:58Z</time>
      </trkpt>
      <trkpt lat="45.2648" lon="4.31694">
        <ele>897.19</ele>
        <time>2015-10-25T13:09:04Z</time>
      </trkpt>
      <trkpt lat="45.26458" lon="4.31689">
        <ele>897.93</ele>
        <time>2015-10-25T13:09:10Z</time>
      </trkpt>
      <trkpt lat="45.26439" lon="4.31687">
        <ele>898.16</ele>
        <time>2015-10-25T13:09:15Z</time>
      </trkpt>
      <trkpt lat="45.26419" lon="4.31685">
        <ele>898.62</ele>
        <time>2015-10-25T13:09:21Z</time>
      </trkpt>
      <trkpt lat="45.26398" lon="4.31682">
        <ele>898.37</ele>
        <time>2015-10-25T13:09:27Z</time>
      </trkpt>
      <trkpt lat="45.26379" lon="4.31681">
        <ele>898.76</ele>
        <time>2015-10-25T13:09:33Z</time>
      </trkpt>
      <trkpt lat="45.26358" lon="4.31683">
        <ele>898.69</ele>
        <time>2015-10-25T13:09:39Z</time>
      </trkpt>
      <trkpt lat="45.26337" lon="4.31686">
        <ele>898.22</ele>
        <time>2015-10-25T13:09:45Z</time>
      </trkpt>
      <trkpt lat="45.26319" lon="4.31692">
        <ele>898.34</ele>
        <time>2015-10-25T13:09:52Z</time>
      </trkpt>
      <trkpt lat="45.26299" lon="4.31698">
        <ele>898.61</ele>
        <time>2015-10-25T13:10:01Z</time>
      </trkpt>
      <trkpt lat="45.2628" lon="4.31704">
        <ele>899.62</ele>
        <time>2015-10-25T13:10:10Z</time>
      </trkpt>
      <trkpt lat="45.26262" lon="4.31709">
        <ele>900.75</ele>
        <time>2015-10-25T13:10:17Z</time>
      </trkpt>
      <trkpt lat="45.26242" lon="4.31719">
        <ele>901.79</ele>
        <time>2015-10-25T13:10:24Z</time>
      </trkpt>
      <trkpt lat="45.26225" lon="4.31732">
        <ele>902.71</ele>
        <time>2015-10-25T13:10:31Z</time>
      </trkpt>
      <trkpt lat="45.2621" lon="4.31753">
        <ele>903.38</ele>
        <time>2015-10-25T13:10:39Z</time>
      </trkpt>
      <trkpt lat="45.26198" lon="4.31777">
        <ele>904.43</ele>
        <time>2015-10-25T13:10:47Z</time>
      </trkpt>
      <trkpt lat="45.26185" lon="4.31798">
        <ele>905.67</ele>
        <time>2015-10-25T13:10:54Z</time>
      </trkpt>
      <trkpt lat="45.26177" lon="4.31826">
        <ele>906.52</ele>
        <time>2015-10-25T13:11:01Z</time>
      </trkpt>
      <trkpt lat="45.26172" lon="4.31855">
        <ele>907.43</ele>
        <time>2015-10-25T13:11:08Z</time>
      </trkpt>
      <trkpt lat="45.26157" lon="4.31877">
        <ele>907.69</ele>
        <time>2015-10-25T13:11:17Z</time>
      </trkpt>
      <trkpt lat="45.26143" lon="4.31895">
        <ele>907.05</ele>
        <time>2015-10-25T13:11:23Z</time>
      </trkpt>
      <trkpt lat="45.26125" lon="4.31894">
        <ele>903.84</ele>
        <time>2015-10-25T13:11:32Z</time>
      </trkpt>
      <trkpt lat="45.26112" lon="4.31866">
        <ele>901.83</ele>
        <time>2015-10-25T13:11:36Z</time>
      </trkpt>
      <trkpt lat="45.26094" lon="4.31843">
        <ele>899.12</ele>
        <time>2015-10-25T13:11:40Z</time>
      </trkpt>
      <trkpt lat="45.26076" lon="4.31827">
        <ele>896.98</ele>
        <time>2015-10-25T13:11:43Z</time>
      </trkpt>
      <trkpt lat="45.26065" lon="4.31799">
        <ele>895.13</ele>
        <time>2015-10-25T13:11:46Z</time>
      </trkpt>
      <trkpt lat="45.26054" lon="4.31761">
        <ele>893.39</ele>
        <time>2015-10-25T13:11:49Z</time>
      </trkpt>
      <trkpt lat="45.26044" lon="4.31738">
        <ele>891.39</ele>
        <time>2015-10-25T13:11:51Z</time>
      </trkpt>
      <trkpt lat="45.26033" lon="4.31716">
        <ele>890.39</ele>
        <time>2015-10-25T13:11:53Z</time>
      </trkpt>
      <trkpt lat="45.26021" lon="4.31696">
        <ele>889.42</ele>
        <time>2015-10-25T13:11:55Z</time>
      </trkpt>
      <trkpt lat="45.25998" lon="4.31676">
        <ele>887.96</ele>
        <time>2015-10-25T13:11:58Z</time>
      </trkpt>
      <trkpt lat="45.25974" lon="4.31666">
        <ele>886.77</ele>
        <time>2015-10-25T13:12:01Z</time>
      </trkpt>
      <trkpt lat="45.25952" lon="4.31661">
        <ele>885.95</ele>
        <time>2015-10-25T13:12:04Z</time>
      </trkpt>
      <trkpt lat="45.25932" lon="4.31656">
        <ele>885.6</ele>
        <time>2015-10-25T13:12:07Z</time>
      </trkpt>
      <trkpt lat="45.25915" lon="4.31651">
        <ele>885.45</ele>
        <time>2015-10-25T13:12:10Z</time>
      </trkpt>
      <trkpt lat="45.25892" lon="4.31644">
        <ele>885.17</ele>
        <time>2015-10-25T13:12:14Z</time>
      </trkpt>
      <trkpt lat="45.25869" lon="4.31639">
        <ele>884.75</ele>
        <time>2015-10-25T13:12:18Z</time>
      </trkpt>
      <trkpt lat="45.25847" lon="4.31633">
        <ele>884.12</ele>
        <time>2015-10-25T13:12:22Z</time>
      </trkpt>
      <trkpt lat="45.25825" lon="4.31627">
        <ele>883.61</ele>
        <time>2015-10-25T13:12:26Z</time>
      </trkpt>
      <trkpt lat="45.25806" lon="4.31623">
        <ele>883.19</ele>
        <time>2015-10-25T13:12:29Z</time>
      </trkpt>
      <trkpt lat="45.25787" lon="4.31616">
        <ele>882.7</ele>
        <time>2015-10-25T13:12:32Z</time>
      </trkpt>
      <trkpt lat="45.25769" lon="4.31611">
        <ele>882</ele>
        <time>2015-10-25T13:12:35Z</time>
      </trkpt>
      <trkpt lat="45.25751" lon="4.31603">
        <ele>881.24</ele>
        <time>2015-10-25T13:12:38Z</time>
      </trkpt>
      <trkpt lat="45.25734" lon="4.31593">
        <ele>880.08</ele>
        <time>2015-10-25T13:12:41Z</time>
      </trkpt>
      <trkpt lat="45.25716" lon="4.31572">
        <ele>878.65</ele>
        <time>2015-10-25T13:12:44Z</time>
      </trkpt>
      <trkpt lat="45.25701" lon="4.31555">
        <ele>877.71</ele>
        <time>2015-10-25T13:12:46Z</time>
      </trkpt>
      <trkpt lat="45.25684" lon="4.31536">
        <ele>876.28</ele>
        <time>2015-10-25T13:12:48Z</time>
      </trkpt>
      <trkpt lat="45.25667" lon="4.31514">
        <ele>874.56</ele>
        <time>2015-10-25T13:12:50Z</time>
      </trkpt>
      <trkpt lat="45.25655" lon="4.31488">
        <ele>872.98</ele>
        <time>2015-10-25T13:12:52Z</time>
      </trkpt>
      <trkpt lat="45.25647" lon="4.31462">
        <ele>871.77</ele>
        <time>2015-10-25T13:12:54Z</time>
      </trkpt>
      <trkpt lat="45.25642" lon="4.31436">
        <ele>870.85</ele>
        <time>2015-10-25T13:12:56Z</time>
      </trkpt>
      <trkpt lat="45.25639" lon="4.31401">
        <ele>870.15</ele>
        <time>2015-10-25T13:12:59Z</time>
      </trkpt>
      <trkpt lat="45.25642" lon="4.31369">
        <ele>870.26</ele>
        <time>2015-10-25T13:13:02Z</time>
      </trkpt>
      <trkpt lat="45.25648" lon="4.31342">
        <ele>870.95</ele>
        <time>2015-10-25T13:13:05Z</time>
      </trkpt>
      <trkpt lat="45.25656" lon="4.31319">
        <ele>871.57</ele>
        <time>2015-10-25T13:13:08Z</time>
      </trkpt>
      <trkpt lat="45.25667" lon="4.31293">
        <ele>872.45</ele>
        <time>2015-10-25T13:13:12Z</time>
      </trkpt>
      <trkpt lat="45.25671" lon="4.31268">
        <ele>873.53</ele>
        <time>2015-10-25T13:13:16Z</time>
      </trkpt>
      <trkpt lat="45.2567" lon="4.31241">
        <ele>874.71</ele>
        <time>2015-10-25T13:13:20Z</time>
      </trkpt>
      <trkpt lat="45.25665" lon="4.31212">
        <ele>875.82</ele>
        <time>2015-10-25T13:13:25Z</time>
      </trkpt>
      <trkpt lat="45.25661" lon="4.31182">
        <ele>877</ele>
        <time>2015-10-25T13:13:30Z</time>
      </trkpt>
      <trkpt lat="45.25659" lon="4.31154">
        <ele>877.75</ele>
        <time>2015-10-25T13:13:35Z</time>
      </trkpt>
      <trkpt lat="45.25662" lon="4.31124">
        <ele>878.79</ele>
        <time>2015-10-25T13:13:41Z</time>
      </trkpt>
      <trkpt lat="45.25661" lon="4.31095">
        <ele>880.67</ele>
        <time>2015-10-25T13:13:47Z</time>
      </trkpt>
      <trkpt lat="45.25663" lon="4.3107">
        <ele>881.88</ele>
        <time>2015-10-25T13:13:53Z</time>
      </trkpt>
      <trkpt lat="45.25666" lon="4.31044">
        <ele>882.16</ele>
        <time>2015-10-25T13:13:58Z</time>
      </trkpt>
      <trkpt lat="45.25669" lon="4.31016">
        <ele>882.22</ele>
        <time>2015-10-25T13:14:03Z</time>
      </trkpt>
      <trkpt lat="45.25668" lon="4.30988">
        <ele>882.14</ele>
        <time>2015-10-25T13:14:08Z</time>
      </trkpt>
      <trkpt lat="45.25666" lon="4.3096">
        <ele>882.06</ele>
        <time>2015-10-25T13:14:13Z</time>
      </trkpt>
      <trkpt lat="45.25667" lon="4.30934">
        <ele>881.79</ele>
        <time>2015-10-25T13:14:17Z</time>
      </trkpt>
      <trkpt lat="45.25675" lon="4.30904">
        <ele>881.05</ele>
        <time>2015-10-25T13:14:21Z</time>
      </trkpt>
      <trkpt lat="45.2569" lon="4.30879">
        <ele>880.34</ele>
        <time>2015-10-25T13:14:25Z</time>
      </trkpt>
      <trkpt lat="45.25703" lon="4.30857">
        <ele>879.62</ele>
        <time>2015-10-25T13:14:29Z</time>
      </trkpt>
      <trkpt lat="45.25716" lon="4.30834">
        <ele>879.11</ele>
        <time>2015-10-25T13:14:33Z</time>
      </trkpt>
      <trkpt lat="45.25727" lon="4.30809">
        <ele>878.84</ele>
        <time>2015-10-25T13:14:37Z</time>
      </trkpt>
      <trkpt lat="45.2573" lon="4.30777">
        <ele>878.68</ele>
        <time>2015-10-25T13:14:41Z</time>
      </trkpt>
      <trkpt lat="45.25725" lon="4.3075">
        <ele>878.27</ele>
        <time>2015-10-25T13:14:44Z</time>
      </trkpt>
      <trkpt lat="45.25717" lon="4.30722">
        <ele>877.69</ele>
        <time>2015-10-25T13:14:47Z</time>
      </trkpt>
      <trkpt lat="45.2571" lon="4.30694">
        <ele>877.13</ele>
        <time>2015-10-25T13:14:50Z</time>
      </trkpt>
      <trkpt lat="45.25703" lon="4.30666">
        <ele>876.71</ele>
        <time>2015-10-25T13:14:53Z</time>
      </trkpt>
      <trkpt lat="45.25696" lon="4.30639">
        <ele>876.28</ele>
        <time>2015-10-25T13:14:56Z</time>
      </trkpt>
      <trkpt lat="45.25689" lon="4.30612">
        <ele>875.96</ele>
        <time>2015-10-25T13:14:59Z</time>
      </trkpt>
      <trkpt lat="45.25681" lon="4.30581">
        <ele>875.39</ele>
        <time>2015-10-25T13:15:03Z</time>
      </trkpt>
      <trkpt lat="45.25675" lon="4.30554">
        <ele>875</ele>
        <time>2015-10-25T13:15:07Z</time>
      </trkpt>
      <trkpt lat="45.25672" lon="4.30526">
        <ele>875.1</ele>
        <time>2015-10-25T13:15:11Z</time>
      </trkpt>
      <trkpt lat="45.25668" lon="4.30499">
        <ele>875.24</ele>
        <time>2015-10-25T13:15:15Z</time>
      </trkpt>
      <trkpt lat="45.25664" lon="4.30471">
        <ele>875.32</ele>
        <time>2015-10-25T13:15:19Z</time>
      </trkpt>
      <trkpt lat="45.25663" lon="4.30445">
        <ele>875.24</ele>
        <time>2015-10-25T13:15:23Z</time>
      </trkpt>
      <trkpt lat="45.25673" lon="4.30419">
        <ele>875.01</ele>
        <time>2015-10-25T13:15:27Z</time>
      </trkpt>
      <trkpt lat="45.25688" lon="4.30402">
        <ele>874.71</ele>
        <time>2015-10-25T13:15:30Z</time>
      </trkpt>
      <trkpt lat="45.25706" lon="4.30388">
        <ele>874.11</ele>
        <time>2015-10-25T13:15:33Z</time>
      </trkpt>
      <trkpt lat="45.25725" lon="4.3037">
        <ele>873.5</ele>
        <time>2015-10-25T13:15:36Z</time>
      </trkpt>
      <trkpt lat="45.25742" lon="4.30349">
        <ele>872.82</ele>
        <time>2015-10-25T13:15:39Z</time>
      </trkpt>
      <trkpt lat="45.25755" lon="4.30327">
        <ele>872.34</ele>
        <time>2015-10-25T13:15:42Z</time>
      </trkpt>
      <trkpt lat="45.25768" lon="4.30306">
        <ele>872</ele>
        <time>2015-10-25T13:15:45Z</time>
      </trkpt>
      <trkpt lat="45.25779" lon="4.30286">
        <ele>871.7</ele>
        <time>2015-10-25T13:15:48Z</time>
      </trkpt>
      <trkpt lat="45.25788" lon="4.30259">
        <ele>871.38</ele>
        <time>2015-10-25T13:15:52Z</time>
      </trkpt>
      <trkpt lat="45.25783" lon="4.30228">
        <ele>871.58</ele>
        <time>2015-10-25T13:15:56Z</time>
      </trkpt>
      <trkpt lat="45.25779" lon="4.30197">
        <ele>871.93</ele>
        <time>2015-10-25T13:16:00Z</time>
      </trkpt>
      <trkpt lat="45.25776" lon="4.30168">
        <ele>872.24</ele>
        <time>2015-10-25T13:16:04Z</time>
      </trkpt>
      <trkpt lat="45.25774" lon="4.30139">
        <ele>873.13</ele>
        <time>2015-10-25T13:16:09Z</time>
      </trkpt>
      <trkpt lat="45.25787" lon="4.30117">
        <ele>874.22</ele>
        <time>2015-10-25T13:16:15Z</time>
      </trkpt>
      <trkpt lat="45.25799" lon="4.30095">
        <ele>875.32</ele>
        <time>2015-10-25T13:16:20Z</time>
      </trkpt>
      <trkpt lat="45.25812" lon="4.3007">
        <ele>876.71</ele>
        <time>2015-10-25T13:16:25Z</time>
      </trkpt>
      <trkpt lat="45.25824" lon="4.30046">
        <ele>877.15</ele>
        <time>2015-10-25T13:16:29Z</time>
      </trkpt>
      <trkpt lat="45.25838" lon="4.30021">
        <ele>877.28</ele>
        <time>2015-10-25T13:16:33Z</time>
      </trkpt>
      <trkpt lat="45.25853" lon="4.3">
        <ele>877.22</ele>
        <time>2015-10-25T13:16:37Z</time>
      </trkpt>
      <trkpt lat="45.25868" lon="4.29979">
        <ele>876.93</ele>
        <time>2015-10-25T13:16:41Z</time>
      </trkpt>
      <trkpt lat="45.25882" lon="4.29956">
        <ele>876.86</ele>
        <time>2015-10-25T13:16:45Z</time>
      </trkpt>
      <trkpt lat="45.25897" lon="4.29936">
        <ele>876.95</ele>
        <time>2015-10-25T13:16:49Z</time>
      </trkpt>
      <trkpt lat="45.25913" lon="4.29917">
        <ele>877.06</ele>
        <time>2015-10-25T13:16:53Z</time>
      </trkpt>
      <trkpt lat="45.25928" lon="4.29899">
        <ele>877.33</ele>
        <time>2015-10-25T13:16:57Z</time>
      </trkpt>
      <trkpt lat="45.25943" lon="4.29881">
        <ele>877.63</ele>
        <time>2015-10-25T13:17:01Z</time>
      </trkpt>
      <trkpt lat="45.25958" lon="4.29863">
        <ele>877.87</ele>
        <time>2015-10-25T13:17:05Z</time>
      </trkpt>
      <trkpt lat="45.25974" lon="4.29846">
        <ele>878.08</ele>
        <time>2015-10-25T13:17:09Z</time>
      </trkpt>
      <trkpt lat="45.2599" lon="4.29828">
        <ele>878.22</ele>
        <time>2015-10-25T13:17:13Z</time>
      </trkpt>
      <trkpt lat="45.26006" lon="4.29811">
        <ele>878.33</ele>
        <time>2015-10-25T13:17:17Z</time>
      </trkpt>
      <trkpt lat="45.26021" lon="4.29792">
        <ele>878.42</ele>
        <time>2015-10-25T13:17:21Z</time>
      </trkpt>
      <trkpt lat="45.26036" lon="4.29772">
        <ele>878.41</ele>
        <time>2015-10-25T13:17:25Z</time>
      </trkpt>
      <trkpt lat="45.26051" lon="4.29751">
        <ele>878.28</ele>
        <time>2015-10-25T13:17:29Z</time>
      </trkpt>
      <trkpt lat="45.26066" lon="4.2973">
        <ele>878.16</ele>
        <time>2015-10-25T13:17:33Z</time>
      </trkpt>
      <trkpt lat="45.26078" lon="4.29711">
        <ele>878.06</ele>
        <time>2015-10-25T13:17:37Z</time>
      </trkpt>
      <trkpt lat="45.26091" lon="4.29693">
        <ele>877.95</ele>
        <time>2015-10-25T13:17:41Z</time>
      </trkpt>
      <trkpt lat="45.26104" lon="4.29672">
        <ele>877.85</ele>
        <time>2015-10-25T13:17:45Z</time>
      </trkpt>
      <trkpt lat="45.26118" lon="4.29651">
        <ele>877.91</ele>
        <time>2015-10-25T13:17:49Z</time>
      </trkpt>
      <trkpt lat="45.26132" lon="4.29631">
        <ele>878.18</ele>
        <time>2015-10-25T13:17:53Z</time>
      </trkpt>
      <trkpt lat="45.26147" lon="4.29608">
        <ele>878.55</ele>
        <time>2015-10-25T13:17:58Z</time>
      </trkpt>
      <trkpt lat="45.26159" lon="4.29585">
        <ele>878.87</ele>
        <time>2015-10-25T13:18:02Z</time>
      </trkpt>
      <trkpt lat="45.2617" lon="4.29559">
        <ele>878.83</ele>
        <time>2015-10-25T13:18:06Z</time>
      </trkpt>
      <trkpt lat="45.26183" lon="4.29532">
        <ele>878.63</ele>
        <time>2015-10-25T13:18:10Z</time>
      </trkpt>
      <trkpt lat="45.26196" lon="4.29505">
        <ele>877.83</ele>
        <time>2015-10-25T13:18:14Z</time>
      </trkpt>
      <trkpt lat="45.26207" lon="4.29482">
        <ele>876.92</ele>
        <time>2015-10-25T13:18:18Z</time>
      </trkpt>
      <trkpt lat="45.26219" lon="4.29463">
        <ele>876.45</ele>
        <time>2015-10-25T13:18:22Z</time>
      </trkpt>
      <trkpt lat="45.26232" lon="4.29439">
        <ele>876.04</ele>
        <time>2015-10-25T13:18:27Z</time>
      </trkpt>
      <trkpt lat="45.26245" lon="4.29417">
        <ele>875.8</ele>
        <time>2015-10-25T13:18:31Z</time>
      </trkpt>
      <trkpt lat="45.2626" lon="4.29392">
        <ele>876.04</ele>
        <time>2015-10-25T13:18:35Z</time>
      </trkpt>
      <trkpt lat="45.26275" lon="4.2937">
        <ele>876.17</ele>
        <time>2015-10-25T13:18:39Z</time>
      </trkpt>
      <trkpt lat="45.26288" lon="4.29349">
        <ele>876.44</ele>
        <time>2015-10-25T13:18:43Z</time>
      </trkpt>
      <trkpt lat="45.26298" lon="4.29326">
        <ele>877.28</ele>
        <time>2015-10-25T13:18:48Z</time>
      </trkpt>
      <trkpt lat="45.263" lon="4.29296">
        <ele>878.94</ele>
        <time>2015-10-25T13:18:54Z</time>
      </trkpt>
      <trkpt lat="45.26296" lon="4.29269">
        <ele>880.55</ele>
        <time>2015-10-25T13:18:59Z</time>
      </trkpt>
      <trkpt lat="45.26297" lon="4.29243">
        <ele>882.05</ele>
        <time>2015-10-25T13:19:04Z</time>
      </trkpt>
      <trkpt lat="45.26299" lon="4.29212">
        <ele>883.7</ele>
        <time>2015-10-25T13:19:10Z</time>
      </trkpt>
      <trkpt lat="45.26294" lon="4.29186">
        <ele>884.78</ele>
        <time>2015-10-25T13:19:15Z</time>
      </trkpt>
      <trkpt lat="45.26291" lon="4.29155">
        <ele>886.21</ele>
        <time>2015-10-25T13:19:21Z</time>
      </trkpt>
      <trkpt lat="45.26292" lon="4.29129">
        <ele>887.54</ele>
        <time>2015-10-25T13:19:27Z</time>
      </trkpt>
      <trkpt lat="45.26296" lon="4.29103">
        <ele>889.39</ele>
        <time>2015-10-25T13:19:34Z</time>
      </trkpt>
      <trkpt lat="45.26299" lon="4.29073">
        <ele>890.52</ele>
        <time>2015-10-25T13:19:41Z</time>
      </trkpt>
      <trkpt lat="45.263" lon="4.29046">
        <ele>891.47</ele>
        <time>2015-10-25T13:19:47Z</time>
      </trkpt>
      <trkpt lat="45.263" lon="4.29017">
        <ele>892.15</ele>
        <time>2015-10-25T13:19:53Z</time>
      </trkpt>
      <trkpt lat="45.26301" lon="4.28991">
        <ele>892.86</ele>
        <time>2015-10-25T13:19:58Z</time>
      </trkpt>
      <trkpt lat="45.263" lon="4.28958">
        <ele>892.4</ele>
        <time>2015-10-25T13:20:03Z</time>
      </trkpt>
      <trkpt lat="45.26298" lon="4.28928">
        <ele>891.77</ele>
        <time>2015-10-25T13:20:07Z</time>
      </trkpt>
      <trkpt lat="45.26295" lon="4.28895">
        <ele>890.95</ele>
        <time>2015-10-25T13:20:11Z</time>
      </trkpt>
      <trkpt lat="45.26293" lon="4.28864">
        <ele>890.42</ele>
        <time>2015-10-25T13:20:15Z</time>
      </trkpt>
      <trkpt lat="45.2629" lon="4.28839">
        <ele>889.53</ele>
        <time>2015-10-25T13:20:19Z</time>
      </trkpt>
      <trkpt lat="45.26281" lon="4.28815">
        <ele>888.11</ele>
        <time>2015-10-25T13:20:25Z</time>
      </trkpt>
      <trkpt lat="45.26268" lon="4.28791">
        <ele>887.44</ele>
        <time>2015-10-25T13:20:31Z</time>
      </trkpt>
      <trkpt lat="45.26254" lon="4.2877">
        <ele>886.75</ele>
        <time>2015-10-25T13:20:36Z</time>
      </trkpt>
      <trkpt lat="45.26242" lon="4.28748">
        <ele>886.35</ele>
        <time>2015-10-25T13:20:40Z</time>
      </trkpt>
      <trkpt lat="45.2623" lon="4.28728">
        <ele>885.99</ele>
        <time>2015-10-25T13:20:44Z</time>
      </trkpt>
      <trkpt lat="45.26224" lon="4.287">
        <ele>884.39</ele>
        <time>2015-10-25T13:20:51Z</time>
      </trkpt>
      <trkpt lat="45.26216" lon="4.28671">
        <ele>883.42</ele>
        <time>2015-10-25T13:21:26Z</time>
      </trkpt>
      <trkpt lat="45.26213" lon="4.28642">
        <ele>882.53</ele>
        <time>2015-10-25T13:22:16Z</time>
      </trkpt>
      <trkpt lat="45.26207" lon="4.28615">
        <ele>882.28</ele>
        <time>2015-10-25T13:22:22Z</time>
      </trkpt>
      <trkpt lat="45.26201" lon="4.28587">
        <ele>882.1</ele>
        <time>2015-10-25T13:22:28Z</time>
      </trkpt>
      <trkpt lat="45.26195" lon="4.28562">
        <ele>881.92</ele>
        <time>2015-10-25T13:22:33Z</time>
      </trkpt>
      <trkpt lat="45.26188" lon="4.28538">
        <ele>881.5</ele>
        <time>2015-10-25T13:22:40Z</time>
      </trkpt>
      <trkpt lat="45.2619" lon="4.28509">
        <ele>881.59</ele>
        <time>2015-10-25T13:22:47Z</time>
      </trkpt>
      <trkpt lat="45.26193" lon="4.28483">
        <ele>882.1</ele>
        <time>2015-10-25T13:22:53Z</time>
      </trkpt>
      <trkpt lat="45.26189" lon="4.28452">
        <ele>882.16</ele>
        <time>2015-10-25T13:22:58Z</time>
      </trkpt>
      <trkpt lat="45.26179" lon="4.28426">
        <ele>880.75</ele>
        <time>2015-10-25T13:23:02Z</time>
      </trkpt>
      <trkpt lat="45.26175" lon="4.28398">
        <ele>879.6</ele>
        <time>2015-10-25T13:23:05Z</time>
      </trkpt>
      <trkpt lat="45.26175" lon="4.28365">
        <ele>878.35</ele>
        <time>2015-10-25T13:23:09Z</time>
      </trkpt>
      <trkpt lat="45.26181" lon="4.28336">
        <ele>876.36</ele>
        <time>2015-10-25T13:23:14Z</time>
      </trkpt>
      <trkpt lat="45.26185" lon="4.28305">
        <ele>874.78</ele>
        <time>2015-10-25T13:23:18Z</time>
      </trkpt>
      <trkpt lat="45.26186" lon="4.28275">
        <ele>872.36</ele>
        <time>2015-10-25T13:23:22Z</time>
      </trkpt>
      <trkpt lat="45.26184" lon="4.28247">
        <ele>869.87</ele>
        <time>2015-10-25T13:23:26Z</time>
      </trkpt>
      <trkpt lat="45.26182" lon="4.2822">
        <ele>868.31</ele>
        <time>2015-10-25T13:23:29Z</time>
      </trkpt>
      <trkpt lat="45.26182" lon="4.28192">
        <ele>866.76</ele>
        <time>2015-10-25T13:23:32Z</time>
      </trkpt>
      <trkpt lat="45.26183" lon="4.28166">
        <ele>865.7</ele>
        <time>2015-10-25T13:23:35Z</time>
      </trkpt>
      <trkpt lat="45.26183" lon="4.28132">
        <ele>864.09</ele>
        <time>2015-10-25T13:23:39Z</time>
      </trkpt>
      <trkpt lat="45.2618" lon="4.28099">
        <ele>862.92</ele>
        <time>2015-10-25T13:23:43Z</time>
      </trkpt>
      <trkpt lat="45.26178" lon="4.28074">
        <ele>862.36</ele>
        <time>2015-10-25T13:23:46Z</time>
      </trkpt>
      <trkpt lat="45.26172" lon="4.2804">
        <ele>862.06</ele>
        <time>2015-10-25T13:23:50Z</time>
      </trkpt>
      <trkpt lat="45.26163" lon="4.28011">
        <ele>861.86</ele>
        <time>2015-10-25T13:23:54Z</time>
      </trkpt>
      <trkpt lat="45.26158" lon="4.27982">
        <ele>861.97</ele>
        <time>2015-10-25T13:23:58Z</time>
      </trkpt>
      <trkpt lat="45.26157" lon="4.2795">
        <ele>862.44</ele>
        <time>2015-10-25T13:24:03Z</time>
      </trkpt>
      <trkpt lat="45.26162" lon="4.2792">
        <ele>862.82</ele>
        <time>2015-10-25T13:24:09Z</time>
      </trkpt>
      <trkpt lat="45.26171" lon="4.27897">
        <ele>863.09</ele>
        <time>2015-10-25T13:24:14Z</time>
      </trkpt>
      <trkpt lat="45.26182" lon="4.27874">
        <ele>863.36</ele>
        <time>2015-10-25T13:24:19Z</time>
      </trkpt>
      <trkpt lat="45.26193" lon="4.27852">
        <ele>863.63</ele>
        <time>2015-10-25T13:24:24Z</time>
      </trkpt>
      <trkpt lat="45.26205" lon="4.27831">
        <ele>863.95</ele>
        <time>2015-10-25T13:24:29Z</time>
      </trkpt>
      <trkpt lat="45.26216" lon="4.2781">
        <ele>864.63</ele>
        <time>2015-10-25T13:24:34Z</time>
      </trkpt>
      <trkpt lat="45.26227" lon="4.27783">
        <ele>865.28</ele>
        <time>2015-10-25T13:24:41Z</time>
      </trkpt>
      <trkpt lat="45.26235" lon="4.27756">
        <ele>865.83</ele>
        <time>2015-10-25T13:24:47Z</time>
      </trkpt>
      <trkpt lat="45.26244" lon="4.27727">
        <ele>866.53</ele>
        <time>2015-10-25T13:24:53Z</time>
      </trkpt>
      <trkpt lat="45.26251" lon="4.27698">
        <ele>867.63</ele>
        <time>2015-10-25T13:25:00Z</time>
      </trkpt>
      <trkpt lat="45.26257" lon="4.2767">
        <ele>869.16</ele>
        <time>2015-10-25T13:25:08Z</time>
      </trkpt>
      <trkpt lat="45.26259" lon="4.27642">
        <ele>870.74</ele>
        <time>2015-10-25T13:25:16Z</time>
      </trkpt>
      <trkpt lat="45.26259" lon="4.27615">
        <ele>872.25</ele>
        <time>2015-10-25T13:25:26Z</time>
      </trkpt>
      <trkpt lat="45.26268" lon="4.27591">
        <ele>873.56</ele>
        <time>2015-10-25T13:25:35Z</time>
      </trkpt>
      <trkpt lat="45.26282" lon="4.27571">
        <ele>875.39</ele>
        <time>2015-10-25T13:25:45Z</time>
      </trkpt>
      <trkpt lat="45.26296" lon="4.27551">
        <ele>876.59</ele>
        <time>2015-10-25T13:25:55Z</time>
      </trkpt>
      <trkpt lat="45.26313" lon="4.27532">
        <ele>877.61</ele>
        <time>2015-10-25T13:26:04Z</time>
      </trkpt>
      <trkpt lat="45.26327" lon="4.27513">
        <ele>878.38</ele>
        <time>2015-10-25T13:26:11Z</time>
      </trkpt>
      <trkpt lat="45.26343" lon="4.27495">
        <ele>878.91</ele>
        <time>2015-10-25T13:26:18Z</time>
      </trkpt>
      <trkpt lat="45.26359" lon="4.27475">
        <ele>879.23</ele>
        <time>2015-10-25T13:26:24Z</time>
      </trkpt>
      <trkpt lat="45.26371" lon="4.27451">
        <ele>879.15</ele>
        <time>2015-10-25T13:26:30Z</time>
      </trkpt>
      <trkpt lat="45.26383" lon="4.27432">
        <ele>879.09</ele>
        <time>2015-10-25T13:26:35Z</time>
      </trkpt>
      <trkpt lat="45.26393" lon="4.27411">
        <ele>879.19</ele>
        <time>2015-10-25T13:26:41Z</time>
      </trkpt>
      <trkpt lat="45.26408" lon="4.27387">
        <ele>879.35</ele>
        <time>2015-10-25T13:26:48Z</time>
      </trkpt>
      <trkpt lat="45.26424" lon="4.27363">
        <ele>879.59</ele>
        <time>2015-10-25T13:26:54Z</time>
      </trkpt>
      <trkpt lat="45.26437" lon="4.27338">
        <ele>879.86</ele>
        <time>2015-10-25T13:26:59Z</time>
      </trkpt>
      <trkpt lat="45.26452" lon="4.27309">
        <ele>879.71</ele>
        <time>2015-10-25T13:27:04Z</time>
      </trkpt>
      <trkpt lat="45.26466" lon="4.27287">
        <ele>879.24</ele>
        <time>2015-10-25T13:27:09Z</time>
      </trkpt>
      <trkpt lat="45.26482" lon="4.27263">
        <ele>878.59</ele>
        <time>2015-10-25T13:27:14Z</time>
      </trkpt>
      <trkpt lat="45.26494" lon="4.27241">
        <ele>878.07</ele>
        <time>2015-10-25T13:27:18Z</time>
      </trkpt>
      <trkpt lat="45.26508" lon="4.2722">
        <ele>877.16</ele>
        <time>2015-10-25T13:27:22Z</time>
      </trkpt>
      <trkpt lat="45.2652" lon="4.27199">
        <ele>875.95</ele>
        <time>2015-10-25T13:27:26Z</time>
      </trkpt>
      <trkpt lat="45.26534" lon="4.27176">
        <ele>874.88</ele>
        <time>2015-10-25T13:27:30Z</time>
      </trkpt>
      <trkpt lat="45.26545" lon="4.27154">
        <ele>873.46</ele>
        <time>2015-10-25T13:27:33Z</time>
      </trkpt>
      <trkpt lat="45.26557" lon="4.27133">
        <ele>872.02</ele>
        <time>2015-10-25T13:27:36Z</time>
      </trkpt>
      <trkpt lat="45.26569" lon="4.2711">
        <ele>870.61</ele>
        <time>2015-10-25T13:27:39Z</time>
      </trkpt>
      <trkpt lat="45.26584" lon="4.2709">
        <ele>868.98</ele>
        <time>2015-10-25T13:27:42Z</time>
      </trkpt>
      <trkpt lat="45.26603" lon="4.27074">
        <ele>866.81</ele>
        <time>2015-10-25T13:27:46Z</time>
      </trkpt>
      <trkpt lat="45.26621" lon="4.27061">
        <ele>863.78</ele>
        <time>2015-10-25T13:27:51Z</time>
      </trkpt>
      <trkpt lat="45.26641" lon="4.27053">
        <ele>860.03</ele>
        <time>2015-10-25T13:27:57Z</time>
      </trkpt>
      <trkpt lat="45.26659" lon="4.27036">
        <ele>857.54</ele>
        <time>2015-10-25T13:28:04Z</time>
      </trkpt>
      <trkpt lat="45.26675" lon="4.27011">
        <ele>854.78</ele>
        <time>2015-10-25T13:28:10Z</time>
      </trkpt>
      <trkpt lat="45.26691" lon="4.26982">
        <ele>852.5</ele>
        <time>2015-10-25T13:28:15Z</time>
      </trkpt>
      <trkpt lat="45.26708" lon="4.26957">
        <ele>851.09</ele>
        <time>2015-10-25T13:28:19Z</time>
      </trkpt>
      <trkpt lat="45.26728" lon="4.26936">
        <ele>849.21</ele>
        <time>2015-10-25T13:28:23Z</time>
      </trkpt>
      <trkpt lat="45.26743" lon="4.26919">
        <ele>847.57</ele>
        <time>2015-10-25T13:28:26Z</time>
      </trkpt>
      <trkpt lat="45.26761" lon="4.26893">
        <ele>846.12</ele>
        <time>2015-10-25T13:28:29Z</time>
      </trkpt>
      <trkpt lat="45.26781" lon="4.26865">
        <ele>844.44</ele>
        <time>2015-10-25T13:28:33Z</time>
      </trkpt>
      <trkpt lat="45.26791" lon="4.26836">
        <ele>843.14</ele>
        <time>2015-10-25T13:28:37Z</time>
      </trkpt>
      <trkpt lat="45.26804" lon="4.26807">
        <ele>841.95</ele>
        <time>2015-10-25T13:28:41Z</time>
      </trkpt>
      <trkpt lat="45.26815" lon="4.26782">
        <ele>841.17</ele>
        <time>2015-10-25T13:28:44Z</time>
      </trkpt>
      <trkpt lat="45.26828" lon="4.26757">
        <ele>840.14</ele>
        <time>2015-10-25T13:28:47Z</time>
      </trkpt>
      <trkpt lat="45.26844" lon="4.26731">
        <ele>839.07</ele>
        <time>2015-10-25T13:28:51Z</time>
      </trkpt>
      <trkpt lat="45.26857" lon="4.26707">
        <ele>837.91</ele>
        <time>2015-10-25T13:28:55Z</time>
      </trkpt>
      <trkpt lat="45.26871" lon="4.26678">
        <ele>836.94</ele>
        <time>2015-10-25T13:28:59Z</time>
      </trkpt>
      <trkpt lat="45.26886" lon="4.2665">
        <ele>836.16</ele>
        <time>2015-10-25T13:29:03Z</time>
      </trkpt>
      <trkpt lat="45.26899" lon="4.26622">
        <ele>835.1</ele>
        <time>2015-10-25T13:29:07Z</time>
      </trkpt>
      <trkpt lat="45.2691" lon="4.266">
        <ele>834.31</ele>
        <time>2015-10-25T13:29:10Z</time>
      </trkpt>
      <trkpt lat="45.26924" lon="4.2657">
        <ele>833.41</ele>
        <time>2015-10-25T13:29:14Z</time>
      </trkpt>
      <trkpt lat="45.26938" lon="4.26543">
        <ele>832.43</ele>
        <time>2015-10-25T13:29:18Z</time>
      </trkpt>
      <trkpt lat="45.26944" lon="4.26518">
        <ele>831.39</ele>
        <time>2015-10-25T13:29:23Z</time>
      </trkpt>
      <trkpt lat="45.26953" lon="4.26498">
        <ele>830.59</ele>
        <time>2015-10-25T13:29:31Z</time>
      </trkpt>
      <trkpt lat="45.26959" lon="4.26471">
        <ele>830.93</ele>
        <time>2015-10-25T13:29:39Z</time>
      </trkpt>
      <trkpt lat="45.26964" lon="4.26446">
        <ele>831.48</ele>
        <time>2015-10-25T13:29:46Z</time>
      </trkpt>
      <trkpt lat="45.26972" lon="4.26422">
        <ele>831.77</ele>
        <time>2015-10-25T13:29:51Z</time>
      </trkpt>
      <trkpt lat="45.26983" lon="4.264">
        <ele>831.61</ele>
        <time>2015-10-25T13:29:57Z</time>
      </trkpt>
      <trkpt lat="45.26997" lon="4.26381">
        <ele>831.32</ele>
        <time>2015-10-25T13:30:04Z</time>
      </trkpt>
      <trkpt lat="45.27014" lon="4.26364">
        <ele>831.12</ele>
        <time>2015-10-25T13:30:11Z</time>
      </trkpt>
      <trkpt lat="45.27034" lon="4.26364">
        <ele>831.2</ele>
        <time>2015-10-25T13:30:19Z</time>
      </trkpt>
      <trkpt lat="45.27058" lon="4.26358">
        <ele>831.08</ele>
        <time>2015-10-25T13:30:27Z</time>
      </trkpt>
      <trkpt lat="45.27085" lon="4.26348">
        <ele>831.4</ele>
        <time>2015-10-25T13:30:34Z</time>
      </trkpt>
      <trkpt lat="45.27106" lon="4.26337">
        <ele>831.9</ele>
        <time>2015-10-25T13:30:40Z</time>
      </trkpt>
      <trkpt lat="45.27123" lon="4.26324">
        <ele>831.93</ele>
        <time>2015-10-25T13:30:46Z</time>
      </trkpt>
      <trkpt lat="45.27144" lon="4.26312">
        <ele>831.46</ele>
        <time>2015-10-25T13:30:53Z</time>
      </trkpt>
      <trkpt lat="45.27175" lon="4.26292">
        <ele>831.53</ele>
        <time>2015-10-25T13:31:03Z</time>
      </trkpt>
      <trkpt lat="45.272" lon="4.26276">
        <ele>831.52</ele>
        <time>2015-10-25T13:31:10Z</time>
      </trkpt>
      <trkpt lat="45.27228" lon="4.2625">
        <ele>831.7</ele>
        <time>2015-10-25T13:31:16Z</time>
      </trkpt>
      <trkpt lat="45.27247" lon="4.26229">
        <ele>831.99</ele>
        <time>2015-10-25T13:31:21Z</time>
      </trkpt>
      <trkpt lat="45.27267" lon="4.26207">
        <ele>832.54</ele>
        <time>2015-10-25T13:31:27Z</time>
      </trkpt>
      <trkpt lat="45.27285" lon="4.26187">
        <ele>833.11</ele>
        <time>2015-10-25T13:31:33Z</time>
      </trkpt>
      <trkpt lat="45.273" lon="4.26166">
        <ele>833.95</ele>
        <time>2015-10-25T13:31:39Z</time>
      </trkpt>
      <trkpt lat="45.2731" lon="4.26142">
        <ele>833.85</ele>
        <time>2015-10-25T13:31:47Z</time>
      </trkpt>
      <trkpt lat="45.27324" lon="4.26115">
        <ele>833.5</ele>
        <time>2015-10-25T13:31:54Z</time>
      </trkpt>
      <trkpt lat="45.27337" lon="4.26088">
        <ele>833.52</ele>
        <time>2015-10-25T13:32:00Z</time>
      </trkpt>
      <trkpt lat="45.27352" lon="4.26062">
        <ele>833.16</ele>
        <time>2015-10-25T13:32:06Z</time>
      </trkpt>
      <trkpt lat="45.27367" lon="4.26035">
        <ele>832.81</ele>
        <time>2015-10-25T13:32:12Z</time>
      </trkpt>
      <trkpt lat="45.27392" lon="4.26007">
        <ele>832.08</ele>
        <time>2015-10-25T13:32:20Z</time>
      </trkpt>
      <trkpt lat="45.27413" lon="4.25983">
        <ele>832.12</ele>
        <time>2015-10-25T13:32:26Z</time>
      </trkpt>
      <trkpt lat="45.27428" lon="4.25962">
        <ele>832.26</ele>
        <time>2015-10-25T13:32:32Z</time>
      </trkpt>
      <trkpt lat="45.27447" lon="4.25929">
        <ele>832.4</ele>
        <time>2015-10-25T13:32:42Z</time>
      </trkpt>
      <trkpt lat="45.27455" lon="4.25898">
        <ele>832.56</ele>
        <time>2015-10-25T13:32:48Z</time>
      </trkpt>
      <trkpt lat="45.27469" lon="4.25873">
        <ele>832.44</ele>
        <time>2015-10-25T13:32:53Z</time>
      </trkpt>
      <trkpt lat="45.27484" lon="4.25851">
        <ele>832.4</ele>
        <time>2015-10-25T13:32:58Z</time>
      </trkpt>
      <trkpt lat="45.27498" lon="4.25829">
        <ele>832.18</ele>
        <time>2015-10-25T13:33:04Z</time>
      </trkpt>
      <trkpt lat="45.27509" lon="4.25806">
        <ele>832.09</ele>
        <time>2015-10-25T13:33:09Z</time>
      </trkpt>
      <trkpt lat="45.27524" lon="4.25781">
        <ele>831.81</ele>
        <time>2015-10-25T13:33:15Z</time>
      </trkpt>
      <trkpt lat="45.27537" lon="4.25758">
        <ele>832.09</ele>
        <time>2015-10-25T13:33:20Z</time>
      </trkpt>
      <trkpt lat="45.27549" lon="4.25726">
        <ele>832.21</ele>
        <time>2015-10-25T13:33:26Z</time>
      </trkpt>
      <trkpt lat="45.27557" lon="4.25692">
        <ele>832.3</ele>
        <time>2015-10-25T13:33:32Z</time>
      </trkpt>
      <trkpt lat="45.27561" lon="4.25664">
        <ele>832.25</ele>
        <time>2015-10-25T13:33:37Z</time>
      </trkpt>
      <trkpt lat="45.2757" lon="4.25632">
        <ele>832.23</ele>
        <time>2015-10-25T13:33:43Z</time>
      </trkpt>
      <trkpt lat="45.27575" lon="4.25606">
        <ele>832.73</ele>
        <time>2015-10-25T13:33:48Z</time>
      </trkpt>
      <trkpt lat="45.27585" lon="4.25581">
        <ele>833.1</ele>
        <time>2015-10-25T13:33:54Z</time>
      </trkpt>
      <trkpt lat="45.27602" lon="4.25559">
        <ele>833.61</ele>
        <time>2015-10-25T13:34:00Z</time>
      </trkpt>
      <trkpt lat="45.27619" lon="4.25545">
        <ele>833.72</ele>
        <time>2015-10-25T13:34:05Z</time>
      </trkpt>
      <trkpt lat="45.27639" lon="4.25533">
        <ele>833.74</ele>
        <time>2015-10-25T13:34:10Z</time>
      </trkpt>
      <trkpt lat="45.27659" lon="4.25519">
        <ele>833.41</ele>
        <time>2015-10-25T13:34:15Z</time>
      </trkpt>
      <trkpt lat="45.27679" lon="4.25506">
        <ele>832.92</ele>
        <time>2015-10-25T13:34:21Z</time>
      </trkpt>
      <trkpt lat="45.27699" lon="4.25485">
        <ele>832.63</ele>
        <time>2015-10-25T13:34:29Z</time>
      </trkpt>
      <trkpt lat="45.27719" lon="4.25468">
        <ele>832.77</ele>
        <time>2015-10-25T13:34:37Z</time>
      </trkpt>
      <trkpt lat="45.27739" lon="4.25439">
        <ele>832.75</ele>
        <time>2015-10-25T13:34:44Z</time>
      </trkpt>
      <trkpt lat="45.27762" lon="4.25417">
        <ele>832.41</ele>
        <time>2015-10-25T13:34:50Z</time>
      </trkpt>
      <trkpt lat="45.27782" lon="4.254">
        <ele>832.32</ele>
        <time>2015-10-25T13:34:55Z</time>
      </trkpt>
      <trkpt lat="45.278" lon="4.25377">
        <ele>832.06</ele>
        <time>2015-10-25T13:35:00Z</time>
      </trkpt>
      <trkpt lat="45.27816" lon="4.25355">
        <ele>831.65</ele>
        <time>2015-10-25T13:35:05Z</time>
      </trkpt>
      <trkpt lat="45.27833" lon="4.25335">
        <ele>831.1</ele>
        <time>2015-10-25T13:35:10Z</time>
      </trkpt>
      <trkpt lat="45.27854" lon="4.25312">
        <ele>830.48</ele>
        <time>2015-10-25T13:35:16Z</time>
      </trkpt>
      <trkpt lat="45.27869" lon="4.25292">
        <ele>830.56</ele>
        <time>2015-10-25T13:35:21Z</time>
      </trkpt>
      <trkpt lat="45.27887" lon="4.25275">
        <ele>830.41</ele>
        <time>2015-10-25T13:35:26Z</time>
      </trkpt>
      <trkpt lat="45.27905" lon="4.25257">
        <ele>829.84</ele>
        <time>2015-10-25T13:35:32Z</time>
      </trkpt>
      <trkpt lat="45.27922" lon="4.25235">
        <ele>829.37</ele>
        <time>2015-10-25T13:35:38Z</time>
      </trkpt>
      <trkpt lat="45.27943" lon="4.25224">
        <ele>829.12</ele>
        <time>2015-10-25T13:35:43Z</time>
      </trkpt>
      <trkpt lat="45.27964" lon="4.2521">
        <ele>828.96</ele>
        <time>2015-10-25T13:35:48Z</time>
      </trkpt>
      <trkpt lat="45.27985" lon="4.252">
        <ele>829.28</ele>
        <time>2015-10-25T13:35:53Z</time>
      </trkpt>
      <trkpt lat="45.28006" lon="4.2519">
        <ele>830.28</ele>
        <time>2015-10-25T13:35:58Z</time>
      </trkpt>
      <trkpt lat="45.28028" lon="4.25182">
        <ele>830.88</ele>
        <time>2015-10-25T13:36:03Z</time>
      </trkpt>
      <trkpt lat="45.28047" lon="4.25174">
        <ele>831.78</ele>
        <time>2015-10-25T13:36:08Z</time>
      </trkpt>
      <trkpt lat="45.28066" lon="4.25167">
        <ele>832.52</ele>
        <time>2015-10-25T13:36:13Z</time>
      </trkpt>
      <trkpt lat="45.28086" lon="4.25159">
        <ele>833.11</ele>
        <time>2015-10-25T13:36:18Z</time>
      </trkpt>
      <trkpt lat="45.28104" lon="4.25149">
        <ele>834.34</ele>
        <time>2015-10-25T13:36:24Z</time>
      </trkpt>
      <trkpt lat="45.28123" lon="4.25138">
        <ele>835.63</ele>
        <time>2015-10-25T13:36:30Z</time>
      </trkpt>
      <trkpt lat="45.28139" lon="4.25123">
        <ele>836.99</ele>
        <time>2015-10-25T13:36:36Z</time>
      </trkpt>
      <trkpt lat="45.28153" lon="4.25103">
        <ele>838.14</ele>
        <time>2015-10-25T13:36:42Z</time>
      </trkpt>
      <trkpt lat="45.28161" lon="4.2508">
        <ele>839.1</ele>
        <time>2015-10-25T13:36:47Z</time>
      </trkpt>
      <trkpt lat="45.28175" lon="4.25057">
        <ele>841.11</ele>
        <time>2015-10-25T13:36:53Z</time>
      </trkpt>
      <trkpt lat="45.28193" lon="4.25045">
        <ele>842.16</ele>
        <time>2015-10-25T13:36:58Z</time>
      </trkpt>
      <trkpt lat="45.28209" lon="4.25031">
        <ele>842.97</ele>
        <time>2015-10-25T13:37:04Z</time>
      </trkpt>
      <trkpt lat="45.28226" lon="4.25014">
        <ele>844.02</ele>
        <time>2015-10-25T13:37:11Z</time>
      </trkpt>
      <trkpt lat="45.28245" lon="4.25011">
        <ele>844.69</ele>
        <time>2015-10-25T13:37:18Z</time>
      </trkpt>
      <trkpt lat="45.28264" lon="4.25006">
        <ele>844.35</ele>
        <time>2015-10-25T13:37:37Z</time>
      </trkpt>
      <trkpt lat="45.28283" lon="4.25004">
        <ele>843.56</ele>
        <time>2015-10-25T13:37:47Z</time>
      </trkpt>
      <trkpt lat="45.28271" lon="4.24992">
        <ele>843.16</ele>
        <time>2015-10-25T13:38:34Z</time>
      </trkpt>
      <trkpt lat="45.28254" lon="4.24974">
        <ele>843.71</ele>
        <time>2015-10-25T13:38:40Z</time>
      </trkpt>
      <trkpt lat="45.28239" lon="4.24957">
        <ele>843.81</ele>
        <time>2015-10-25T13:38:45Z</time>
      </trkpt>
      <trkpt lat="45.28224" lon="4.24942">
        <ele>843.88</ele>
        <time>2015-10-25T13:38:50Z</time>
      </trkpt>
      <trkpt lat="45.28207" lon="4.24923">
        <ele>843.9</ele>
        <time>2015-10-25T13:38:55Z</time>
      </trkpt>
      <trkpt lat="45.2819" lon="4.24905">
        <ele>843.66</ele>
        <time>2015-10-25T13:38:59Z</time>
      </trkpt>
      <trkpt lat="45.28175" lon="4.2488">
        <ele>843.21</ele>
        <time>2015-10-25T13:39:03Z</time>
      </trkpt>
      <trkpt lat="45.28163" lon="4.24853">
        <ele>842.62</ele>
        <time>2015-10-25T13:39:07Z</time>
      </trkpt>
      <trkpt lat="45.28149" lon="4.24827">
        <ele>841.63</ele>
        <time>2015-10-25T13:39:11Z</time>
      </trkpt>
      <trkpt lat="45.28132" lon="4.24808">
        <ele>841.16</ele>
        <time>2015-10-25T13:39:15Z</time>
      </trkpt>
      <trkpt lat="45.28116" lon="4.2479">
        <ele>841.05</ele>
        <time>2015-10-25T13:39:19Z</time>
      </trkpt>
      <trkpt lat="45.281" lon="4.24773">
        <ele>840.56</ele>
        <time>2015-10-25T13:39:23Z</time>
      </trkpt>
      <trkpt lat="45.28085" lon="4.24756">
        <ele>840.07</ele>
        <time>2015-10-25T13:39:27Z</time>
      </trkpt>
      <trkpt lat="45.28071" lon="4.24736">
        <ele>839.57</ele>
        <time>2015-10-25T13:39:31Z</time>
      </trkpt>
      <trkpt lat="45.28057" lon="4.24716">
        <ele>838.77</ele>
        <time>2015-10-25T13:39:35Z</time>
      </trkpt>
      <trkpt lat="45.28045" lon="4.24693">
        <ele>838.23</ele>
        <time>2015-10-25T13:39:39Z</time>
      </trkpt>
      <trkpt lat="45.28035" lon="4.24668">
        <ele>837.8</ele>
        <time>2015-10-25T13:39:43Z</time>
      </trkpt>
      <trkpt lat="45.28025" lon="4.24635">
        <ele>837.01</ele>
        <time>2015-10-25T13:39:47Z</time>
      </trkpt>
      <trkpt lat="45.28011" lon="4.24606">
        <ele>835.98</ele>
        <time>2015-10-25T13:39:50Z</time>
      </trkpt>
      <trkpt lat="45.28" lon="4.24576">
        <ele>834.28</ele>
        <time>2015-10-25T13:39:53Z</time>
      </trkpt>
      <trkpt lat="45.27993" lon="4.24545">
        <ele>833.18</ele>
        <time>2015-10-25T13:39:56Z</time>
      </trkpt>
      <trkpt lat="45.27988" lon="4.24516">
        <ele>832.68</ele>
        <time>2015-10-25T13:39:59Z</time>
      </trkpt>
      <trkpt lat="45.27987" lon="4.24488">
        <ele>832.26</ele>
        <time>2015-10-25T13:40:03Z</time>
      </trkpt>
      <trkpt lat="45.27989" lon="4.24459">
        <ele>831.59</ele>
        <time>2015-10-25T13:40:10Z</time>
      </trkpt>
      <trkpt lat="45.27993" lon="4.24429">
        <ele>831.69</ele>
        <time>2015-10-25T13:40:16Z</time>
      </trkpt>
      <trkpt lat="45.27998" lon="4.24401">
        <ele>831.81</ele>
        <time>2015-10-25T13:40:21Z</time>
      </trkpt>
      <trkpt lat="45.28004" lon="4.24372">
        <ele>832.1</ele>
        <time>2015-10-25T13:40:26Z</time>
      </trkpt>
      <trkpt lat="45.28006" lon="4.24347">
        <ele>832.88</ele>
        <time>2015-10-25T13:40:31Z</time>
      </trkpt>
      <trkpt lat="45.2801" lon="4.24315">
        <ele>833.33</ele>
        <time>2015-10-25T13:40:36Z</time>
      </trkpt>
      <trkpt lat="45.2801" lon="4.24284">
        <ele>833.44</ele>
        <time>2015-10-25T13:40:40Z</time>
      </trkpt>
      <trkpt lat="45.28008" lon="4.24252">
        <ele>833.03</ele>
        <time>2015-10-25T13:40:45Z</time>
      </trkpt>
      <trkpt lat="45.28008" lon="4.24225">
        <ele>832.67</ele>
        <time>2015-10-25T13:40:49Z</time>
      </trkpt>
      <trkpt lat="45.28011" lon="4.24198">
        <ele>832.36</ele>
        <time>2015-10-25T13:40:53Z</time>
      </trkpt>
      <trkpt lat="45.28016" lon="4.2417">
        <ele>832.01</ele>
        <time>2015-10-25T13:40:57Z</time>
      </trkpt>
      <trkpt lat="45.28022" lon="4.24139">
        <ele>831.85</ele>
        <time>2015-10-25T13:41:02Z</time>
      </trkpt>
      <trkpt lat="45.28029" lon="4.24108">
        <ele>831.51</ele>
        <time>2015-10-25T13:41:07Z</time>
      </trkpt>
      <trkpt lat="45.28043" lon="4.24087">
        <ele>831.43</ele>
        <time>2015-10-25T13:41:11Z</time>
      </trkpt>
      <trkpt lat="45.28053" lon="4.24063">
        <ele>831.59</ele>
        <time>2015-10-25T13:41:15Z</time>
      </trkpt>
      <trkpt lat="45.28059" lon="4.24038">
        <ele>831.85</ele>
        <time>2015-10-25T13:41:19Z</time>
      </trkpt>
      <trkpt lat="45.28059" lon="4.2401">
        <ele>832.44</ele>
        <time>2015-10-25T13:41:24Z</time>
      </trkpt>
      <trkpt lat="45.28065" lon="4.2398">
        <ele>833.22</ele>
        <time>2015-10-25T13:41:31Z</time>
      </trkpt>
      <trkpt lat="45.28074" lon="4.2395">
        <ele>834.12</ele>
        <time>2015-10-25T13:41:37Z</time>
      </trkpt>
      <trkpt lat="45.28078" lon="4.23919">
        <ele>834.42</ele>
        <time>2015-10-25T13:41:42Z</time>
      </trkpt>
      <trkpt lat="45.28079" lon="4.23889">
        <ele>834.28</ele>
        <time>2015-10-25T13:41:46Z</time>
      </trkpt>
      <trkpt lat="45.2808" lon="4.23858">
        <ele>833.55</ele>
        <time>2015-10-25T13:41:50Z</time>
      </trkpt>
      <trkpt lat="45.28077" lon="4.23829">
        <ele>832.76</ele>
        <time>2015-10-25T13:41:55Z</time>
      </trkpt>
      <trkpt lat="45.28074" lon="4.23803">
        <ele>831.57</ele>
        <time>2015-10-25T13:42:02Z</time>
      </trkpt>
      <trkpt lat="45.28073" lon="4.2377">
        <ele>829.23</ele>
        <time>2015-10-25T13:42:10Z</time>
      </trkpt>
      <trkpt lat="45.2807" lon="4.23736">
        <ele>827.8</ele>
        <time>2015-10-25T13:42:15Z</time>
      </trkpt>
      <trkpt lat="45.2806" lon="4.23704">
        <ele>826.29</ele>
        <time>2015-10-25T13:42:19Z</time>
      </trkpt>
      <trkpt lat="45.2805" lon="4.23682">
        <ele>825.29</ele>
        <time>2015-10-25T13:42:22Z</time>
      </trkpt>
      <trkpt lat="45.28043" lon="4.2365">
        <ele>824.28</ele>
        <time>2015-10-25T13:42:26Z</time>
      </trkpt>
      <trkpt lat="45.28041" lon="4.23621">
        <ele>823.69</ele>
        <time>2015-10-25T13:42:29Z</time>
      </trkpt>
      <trkpt lat="45.28041" lon="4.23585">
        <ele>823.2</ele>
        <time>2015-10-25T13:42:33Z</time>
      </trkpt>
      <trkpt lat="45.28037" lon="4.23554">
        <ele>822.86</ele>
        <time>2015-10-25T13:42:37Z</time>
      </trkpt>
      <trkpt lat="45.28033" lon="4.23526">
        <ele>822.48</ele>
        <time>2015-10-25T13:42:41Z</time>
      </trkpt>
      <trkpt lat="45.28035" lon="4.23493">
        <ele>822.28</ele>
        <time>2015-10-25T13:42:46Z</time>
      </trkpt>
      <trkpt lat="45.28044" lon="4.23461">
        <ele>822.09</ele>
        <time>2015-10-25T13:42:51Z</time>
      </trkpt>
      <trkpt lat="45.28052" lon="4.23433">
        <ele>822.17</ele>
        <time>2015-10-25T13:42:55Z</time>
      </trkpt>
      <trkpt lat="45.28064" lon="4.23406">
        <ele>822.5</ele>
        <time>2015-10-25T13:42:59Z</time>
      </trkpt>
      <trkpt lat="45.28078" lon="4.23379">
        <ele>822.74</ele>
        <time>2015-10-25T13:43:03Z</time>
      </trkpt>
      <trkpt lat="45.28091" lon="4.23353">
        <ele>823.2</ele>
        <time>2015-10-25T13:43:08Z</time>
      </trkpt>
      <trkpt lat="45.28106" lon="4.23326">
        <ele>823.9</ele>
        <time>2015-10-25T13:43:13Z</time>
      </trkpt>
      <trkpt lat="45.28118" lon="4.23297">
        <ele>824.09</ele>
        <time>2015-10-25T13:43:17Z</time>
      </trkpt>
      <trkpt lat="45.28128" lon="4.2327">
        <ele>824.06</ele>
        <time>2015-10-25T13:43:21Z</time>
      </trkpt>
      <trkpt lat="45.28139" lon="4.23241">
        <ele>824.54</ele>
        <time>2015-10-25T13:43:26Z</time>
      </trkpt>
      <trkpt lat="45.28148" lon="4.23208">
        <ele>825.09</ele>
        <time>2015-10-25T13:43:32Z</time>
      </trkpt>
      <trkpt lat="45.2816" lon="4.2318">
        <ele>825.49</ele>
        <time>2015-10-25T13:43:37Z</time>
      </trkpt>
      <trkpt lat="45.28172" lon="4.23151">
        <ele>826.2</ele>
        <time>2015-10-25T13:43:42Z</time>
      </trkpt>
      <trkpt lat="45.28182" lon="4.23119">
        <ele>826.91</ele>
        <time>2015-10-25T13:43:48Z</time>
      </trkpt>
      <trkpt lat="45.28188" lon="4.23086">
        <ele>827.6</ele>
        <time>2015-10-25T13:43:53Z</time>
      </trkpt>
      <trkpt lat="45.28192" lon="4.2305">
        <ele>827.86</ele>
        <time>2015-10-25T13:43:58Z</time>
      </trkpt>
      <trkpt lat="45.28197" lon="4.23019">
        <ele>827.73</ele>
        <time>2015-10-25T13:44:02Z</time>
      </trkpt>
      <trkpt lat="45.28201" lon="4.22989">
        <ele>827.51</ele>
        <time>2015-10-25T13:44:06Z</time>
      </trkpt>
      <trkpt lat="45.28212" lon="4.22959">
        <ele>827.33</ele>
        <time>2015-10-25T13:44:10Z</time>
      </trkpt>
      <trkpt lat="45.28228" lon="4.22936">
        <ele>826.93</ele>
        <time>2015-10-25T13:44:14Z</time>
      </trkpt>
      <trkpt lat="45.28245" lon="4.22912">
        <ele>826.49</ele>
        <time>2015-10-25T13:44:18Z</time>
      </trkpt>
      <trkpt lat="45.28262" lon="4.22887">
        <ele>825.93</ele>
        <time>2015-10-25T13:44:22Z</time>
      </trkpt>
      <trkpt lat="45.28273" lon="4.22863">
        <ele>825.42</ele>
        <time>2015-10-25T13:44:25Z</time>
      </trkpt>
      <trkpt lat="45.28287" lon="4.2284">
        <ele>824.45</ele>
        <time>2015-10-25T13:44:28Z</time>
      </trkpt>
      <trkpt lat="45.28307" lon="4.22818">
        <ele>823.2</ele>
        <time>2015-10-25T13:44:31Z</time>
      </trkpt>
      <trkpt lat="45.28332" lon="4.22796">
        <ele>821.71</ele>
        <time>2015-10-25T13:44:34Z</time>
      </trkpt>
      <trkpt lat="45.28349" lon="4.22777">
        <ele>820.41</ele>
        <time>2015-10-25T13:44:36Z</time>
      </trkpt>
      <trkpt lat="45.28366" lon="4.22758">
        <ele>818.84</ele>
        <time>2015-10-25T13:44:38Z</time>
      </trkpt>
      <trkpt lat="45.2838" lon="4.22735">
        <ele>817.3</ele>
        <time>2015-10-25T13:44:40Z</time>
      </trkpt>
      <trkpt lat="45.28389" lon="4.22707">
        <ele>815.85</ele>
        <time>2015-10-25T13:44:42Z</time>
      </trkpt>
      <trkpt lat="45.28397" lon="4.22672">
        <ele>813.31</ele>
        <time>2015-10-25T13:44:45Z</time>
      </trkpt>
      <trkpt lat="45.28411" lon="4.2265">
        <ele>809.81</ele>
        <time>2015-10-25T13:44:49Z</time>
      </trkpt>
      <trkpt lat="45.28432" lon="4.2265">
        <ele>807.89</ele>
        <time>2015-10-25T13:44:54Z</time>
      </trkpt>
      <trkpt lat="45.28449" lon="4.2267">
        <ele>806.83</ele>
        <time>2015-10-25T13:45:01Z</time>
      </trkpt>
      <trkpt lat="45.28463" lon="4.22692">
        <ele>806.48</ele>
        <time>2015-10-25T13:45:08Z</time>
      </trkpt>
      <trkpt lat="45.28481" lon="4.22711">
        <ele>806.75</ele>
        <time>2015-10-25T13:45:15Z</time>
      </trkpt>
      <trkpt lat="45.28501" lon="4.2273">
        <ele>806.66</ele>
        <time>2015-10-25T13:45:21Z</time>
      </trkpt>
      <trkpt lat="45.28518" lon="4.22753">
        <ele>806.11</ele>
        <time>2015-10-25T13:45:28Z</time>
      </trkpt>
      <trkpt lat="45.28532" lon="4.22777">
        <ele>806.03</ele>
        <time>2015-10-25T13:45:33Z</time>
      </trkpt>
      <trkpt lat="45.28539" lon="4.22806">
        <ele>805.77</ele>
        <time>2015-10-25T13:45:37Z</time>
      </trkpt>
      <trkpt lat="45.28537" lon="4.22835">
        <ele>805.09</ele>
        <time>2015-10-25T13:45:41Z</time>
      </trkpt>
      <trkpt lat="45.28529" lon="4.22866">
        <ele>804.6</ele>
        <time>2015-10-25T13:45:46Z</time>
      </trkpt>
      <trkpt lat="45.28522" lon="4.22892">
        <ele>804.45</ele>
        <time>2015-10-25T13:45:50Z</time>
      </trkpt>
      <trkpt lat="45.28519" lon="4.22926">
        <ele>803.83</ele>
        <time>2015-10-25T13:45:54Z</time>
      </trkpt>
      <trkpt lat="45.28514" lon="4.2296">
        <ele>801.87</ele>
        <time>2015-10-25T13:45:58Z</time>
      </trkpt>
      <trkpt lat="45.28522" lon="4.22986">
        <ele>799.8</ele>
        <time>2015-10-25T13:46:02Z</time>
      </trkpt>
      <trkpt lat="45.28532" lon="4.23015">
        <ele>796.57</ele>
        <time>2015-10-25T13:46:06Z</time>
      </trkpt>
      <trkpt lat="45.28523" lon="4.23047">
        <ele>793.61</ele>
        <time>2015-10-25T13:46:10Z</time>
      </trkpt>
      <trkpt lat="45.28536" lon="4.23069">
        <ele>791.96</ele>
        <time>2015-10-25T13:46:14Z</time>
      </trkpt>
      <trkpt lat="45.28555" lon="4.23078">
        <ele>790.86</ele>
        <time>2015-10-25T13:46:17Z</time>
      </trkpt>
      <trkpt lat="45.28575" lon="4.23093">
        <ele>789.73</ele>
        <time>2015-10-25T13:46:20Z</time>
      </trkpt>
      <trkpt lat="45.28599" lon="4.23111">
        <ele>787.62</ele>
        <time>2015-10-25T13:46:23Z</time>
      </trkpt>
      <trkpt lat="45.28618" lon="4.23123">
        <ele>785.28</ele>
        <time>2015-10-25T13:46:26Z</time>
      </trkpt>
      <trkpt lat="45.28639" lon="4.23117">
        <ele>781.46</ele>
        <time>2015-10-25T13:46:30Z</time>
      </trkpt>
      <trkpt lat="45.28652" lon="4.23091">
        <ele>777.31</ele>
        <time>2015-10-25T13:46:37Z</time>
      </trkpt>
      <trkpt lat="45.28662" lon="4.23065">
        <ele>775.89</ele>
        <time>2015-10-25T13:46:41Z</time>
      </trkpt>
      <trkpt lat="45.28674" lon="4.23034">
        <ele>774.21</ele>
        <time>2015-10-25T13:46:45Z</time>
      </trkpt>
      <trkpt lat="45.28684" lon="4.23009">
        <ele>772.36</ele>
        <time>2015-10-25T13:46:48Z</time>
      </trkpt>
      <trkpt lat="45.28695" lon="4.22981">
        <ele>770.53</ele>
        <time>2015-10-25T13:46:51Z</time>
      </trkpt>
      <trkpt lat="45.28705" lon="4.22952">
        <ele>769.25</ele>
        <time>2015-10-25T13:46:54Z</time>
      </trkpt>
      <trkpt lat="45.28713" lon="4.22924">
        <ele>767.49</ele>
        <time>2015-10-25T13:46:57Z</time>
      </trkpt>
      <trkpt lat="45.28727" lon="4.22906">
        <ele>765.62</ele>
        <time>2015-10-25T13:47:00Z</time>
      </trkpt>
      <trkpt lat="45.28747" lon="4.22904">
        <ele>763.44</ele>
        <time>2015-10-25T13:47:03Z</time>
      </trkpt>
      <trkpt lat="45.28763" lon="4.22893">
        <ele>761.99</ele>
        <time>2015-10-25T13:47:06Z</time>
      </trkpt>
      <trkpt lat="45.28776" lon="4.22865">
        <ele>760.89</ele>
        <time>2015-10-25T13:47:10Z</time>
      </trkpt>
      <trkpt lat="45.28786" lon="4.22841">
        <ele>760.41</ele>
        <time>2015-10-25T13:47:14Z</time>
      </trkpt>
      <trkpt lat="45.28796" lon="4.22816">
        <ele>760.3</ele>
        <time>2015-10-25T13:47:18Z</time>
      </trkpt>
      <trkpt lat="45.28807" lon="4.22791">
        <ele>760.41</ele>
        <time>2015-10-25T13:47:22Z</time>
      </trkpt>
      <trkpt lat="45.2882" lon="4.22764">
        <ele>760.58</ele>
        <time>2015-10-25T13:47:26Z</time>
      </trkpt>
      <trkpt lat="45.28835" lon="4.22743">
        <ele>761.11</ele>
        <time>2015-10-25T13:47:30Z</time>
      </trkpt>
      <trkpt lat="45.28848" lon="4.22726">
        <ele>761.87</ele>
        <time>2015-10-25T13:47:34Z</time>
      </trkpt>
      <trkpt lat="45.2886" lon="4.22704">
        <ele>762.53</ele>
        <time>2015-10-25T13:47:38Z</time>
      </trkpt>
      <trkpt lat="45.28872" lon="4.22681">
        <ele>762.97</ele>
        <time>2015-10-25T13:47:42Z</time>
      </trkpt>
      <trkpt lat="45.28882" lon="4.22659">
        <ele>763.36</ele>
        <time>2015-10-25T13:47:46Z</time>
      </trkpt>
      <trkpt lat="45.28894" lon="4.22636">
        <ele>763.5</ele>
        <time>2015-10-25T13:47:50Z</time>
      </trkpt>
      <trkpt lat="45.28905" lon="4.22614">
        <ele>763.71</ele>
        <time>2015-10-25T13:47:54Z</time>
      </trkpt>
      <trkpt lat="45.28915" lon="4.22593">
        <ele>763.9</ele>
        <time>2015-10-25T13:47:58Z</time>
      </trkpt>
      <trkpt lat="45.28925" lon="4.22566">
        <ele>764.08</ele>
        <time>2015-10-25T13:48:03Z</time>
      </trkpt>
      <trkpt lat="45.28933" lon="4.22537">
        <ele>764.41</ele>
        <time>2015-10-25T13:48:08Z</time>
      </trkpt>
      <trkpt lat="45.28938" lon="4.22512">
        <ele>764.65</ele>
        <time>2015-10-25T13:48:12Z</time>
      </trkpt>
      <trkpt lat="45.28944" lon="4.22487">
        <ele>764.25</ele>
        <time>2015-10-25T13:48:16Z</time>
      </trkpt>
      <trkpt lat="45.2895" lon="4.22459">
        <ele>763.82</ele>
        <time>2015-10-25T13:48:21Z</time>
      </trkpt>
      <trkpt lat="45.28958" lon="4.22433">
        <ele>763.09</ele>
        <time>2015-10-25T13:48:28Z</time>
      </trkpt>
      <trkpt lat="45.28964" lon="4.22407">
        <ele>762.83</ele>
        <time>2015-10-25T13:48:34Z</time>
      </trkpt>
      <trkpt lat="45.2897" lon="4.2238">
        <ele>762.7</ele>
        <time>2015-10-25T13:48:39Z</time>
      </trkpt>
      <trkpt lat="45.28971" lon="4.22351">
        <ele>762.58</ele>
        <time>2015-10-25T13:48:46Z</time>
      </trkpt>
      <trkpt lat="45.28971" lon="4.2232">
        <ele>762.71</ele>
        <time>2015-10-25T13:48:53Z</time>
      </trkpt>
      <trkpt lat="45.28974" lon="4.22292">
        <ele>762.82</ele>
        <time>2015-10-25T13:48:58Z</time>
      </trkpt>
      <trkpt lat="45.28976" lon="4.22263">
        <ele>762.65</ele>
        <time>2015-10-25T13:49:03Z</time>
      </trkpt>
      <trkpt lat="45.2898" lon="4.22235">
        <ele>762.3</ele>
        <time>2015-10-25T13:49:08Z</time>
      </trkpt>
      <trkpt lat="45.28985" lon="4.22207">
        <ele>762.18</ele>
        <time>2015-10-25T13:49:14Z</time>
      </trkpt>
      <trkpt lat="45.28991" lon="4.22181">
        <ele>762.06</ele>
        <time>2015-10-25T13:49:19Z</time>
      </trkpt>
      <trkpt lat="45.28998" lon="4.22151">
        <ele>761.93</ele>
        <time>2015-10-25T13:49:24Z</time>
      </trkpt>
      <trkpt lat="45.29" lon="4.22125">
        <ele>761.72</ele>
        <time>2015-10-25T13:49:28Z</time>
      </trkpt>
      <trkpt lat="45.29002" lon="4.22098">
        <ele>761.63</ele>
        <time>2015-10-25T13:49:32Z</time>
      </trkpt>
      <trkpt lat="45.29003" lon="4.22072">
        <ele>761.67</ele>
        <time>2015-10-25T13:49:36Z</time>
      </trkpt>
      <trkpt lat="45.29005" lon="4.22043">
        <ele>761.63</ele>
        <time>2015-10-25T13:49:41Z</time>
      </trkpt>
      <trkpt lat="45.29007" lon="4.22015">
        <ele>761.52</ele>
        <time>2015-10-25T13:49:45Z</time>
      </trkpt>
      <trkpt lat="45.2901" lon="4.21988">
        <ele>761.02</ele>
        <time>2015-10-25T13:49:48Z</time>
      </trkpt>
      <trkpt lat="45.29015" lon="4.2196">
        <ele>760.29</ele>
        <time>2015-10-25T13:49:51Z</time>
      </trkpt>
      <trkpt lat="45.29023" lon="4.21932">
        <ele>759.03</ele>
        <time>2015-10-25T13:49:54Z</time>
      </trkpt>
      <trkpt lat="45.29034" lon="4.21902">
        <ele>757.72</ele>
        <time>2015-10-25T13:49:57Z</time>
      </trkpt>
      <trkpt lat="45.29044" lon="4.21868">
        <ele>756.06</ele>
        <time>2015-10-25T13:50:00Z</time>
      </trkpt>
      <trkpt lat="45.2905" lon="4.21836">
        <ele>753.91</ele>
        <time>2015-10-25T13:50:03Z</time>
      </trkpt>
      <trkpt lat="45.29051" lon="4.21807">
        <ele>752.26</ele>
        <time>2015-10-25T13:50:06Z</time>
      </trkpt>
      <trkpt lat="45.29051" lon="4.21782">
        <ele>750.87</ele>
        <time>2015-10-25T13:50:09Z</time>
      </trkpt>
      <trkpt lat="45.29048" lon="4.21748">
        <ele>749.59</ele>
        <time>2015-10-25T13:50:13Z</time>
      </trkpt>
      <trkpt lat="45.29036" lon="4.21725">
        <ele>749</ele>
        <time>2015-10-25T13:50:16Z</time>
      </trkpt>
      <trkpt lat="45.2902" lon="4.21706">
        <ele>748.69</ele>
        <time>2015-10-25T13:50:19Z</time>
      </trkpt>
      <trkpt lat="45.29006" lon="4.21684">
        <ele>748.75</ele>
        <time>2015-10-25T13:50:22Z</time>
      </trkpt>
      <trkpt lat="45.28995" lon="4.2166">
        <ele>748.98</ele>
        <time>2015-10-25T13:50:25Z</time>
      </trkpt>
      <trkpt lat="45.28986" lon="4.21634">
        <ele>749.17</ele>
        <time>2015-10-25T13:50:28Z</time>
      </trkpt>
      <trkpt lat="45.28977" lon="4.21609">
        <ele>749.38</ele>
        <time>2015-10-25T13:50:31Z</time>
      </trkpt>
      <trkpt lat="45.2897" lon="4.21583">
        <ele>749.77</ele>
        <time>2015-10-25T13:50:34Z</time>
      </trkpt>
      <trkpt lat="45.28962" lon="4.21558">
        <ele>750.4</ele>
        <time>2015-10-25T13:50:37Z</time>
      </trkpt>
      <trkpt lat="45.28956" lon="4.21534">
        <ele>750.92</ele>
        <time>2015-10-25T13:50:40Z</time>
      </trkpt>
      <trkpt lat="45.28961" lon="4.21503">
        <ele>752.11</ele>
        <time>2015-10-25T13:50:44Z</time>
      </trkpt>
      <trkpt lat="45.28968" lon="4.21474">
        <ele>753.49</ele>
        <time>2015-10-25T13:50:48Z</time>
      </trkpt>
      <trkpt lat="45.28967" lon="4.21449">
        <ele>754.48</ele>
        <time>2015-10-25T13:50:52Z</time>
      </trkpt>
      <trkpt lat="45.28972" lon="4.21422">
        <ele>755.62</ele>
        <time>2015-10-25T13:50:57Z</time>
      </trkpt>
      <trkpt lat="45.2898" lon="4.21394">
        <ele>757.32</ele>
        <time>2015-10-25T13:51:02Z</time>
      </trkpt>
      <trkpt lat="45.28985" lon="4.21367">
        <ele>758.57</ele>
        <time>2015-10-25T13:51:07Z</time>
      </trkpt>
      <trkpt lat="45.2898" lon="4.21336">
        <ele>759.29</ele>
        <time>2015-10-25T13:51:12Z</time>
      </trkpt>
      <trkpt lat="45.28979" lon="4.21308">
        <ele>759.09</ele>
        <time>2015-10-25T13:51:15Z</time>
      </trkpt>
      <trkpt lat="45.28983" lon="4.21277">
        <ele>758.5</ele>
        <time>2015-10-25T13:51:18Z</time>
      </trkpt>
      <trkpt lat="45.28988" lon="4.21241">
        <ele>757.71</ele>
        <time>2015-10-25T13:51:21Z</time>
      </trkpt>
      <trkpt lat="45.28989" lon="4.21214">
        <ele>756.98</ele>
        <time>2015-10-25T13:51:23Z</time>
      </trkpt>
      <trkpt lat="45.28987" lon="4.21188">
        <ele>755.98</ele>
        <time>2015-10-25T13:51:25Z</time>
      </trkpt>
      <trkpt lat="45.28985" lon="4.2115">
        <ele>753.64</ele>
        <time>2015-10-25T13:51:28Z</time>
      </trkpt>
      <trkpt lat="45.28983" lon="4.21118">
        <ele>752.61</ele>
        <time>2015-10-25T13:51:31Z</time>
      </trkpt>
      <trkpt lat="45.28982" lon="4.21092">
        <ele>752.1</ele>
        <time>2015-10-25T13:51:34Z</time>
      </trkpt>
      <trkpt lat="45.28983" lon="4.21062">
        <ele>751.68</ele>
        <time>2015-10-25T13:51:37Z</time>
      </trkpt>
      <trkpt lat="45.28981" lon="4.21032">
        <ele>750.97</ele>
        <time>2015-10-25T13:51:40Z</time>
      </trkpt>
      <trkpt lat="45.28976" lon="4.21003">
        <ele>749.93</ele>
        <time>2015-10-25T13:51:44Z</time>
      </trkpt>
      <trkpt lat="45.28967" lon="4.20971">
        <ele>749.22</ele>
        <time>2015-10-25T13:51:48Z</time>
      </trkpt>
      <trkpt lat="45.28974" lon="4.20944">
        <ele>748.48</ele>
        <time>2015-10-25T13:51:51Z</time>
      </trkpt>
      <trkpt lat="45.28987" lon="4.20915">
        <ele>747.26</ele>
        <time>2015-10-25T13:51:54Z</time>
      </trkpt>
      <trkpt lat="45.29002" lon="4.20886">
        <ele>746.35</ele>
        <time>2015-10-25T13:51:57Z</time>
      </trkpt>
      <trkpt lat="45.29018" lon="4.20859">
        <ele>745.66</ele>
        <time>2015-10-25T13:52:00Z</time>
      </trkpt>
      <trkpt lat="45.29032" lon="4.20834">
        <ele>745.14</ele>
        <time>2015-10-25T13:52:03Z</time>
      </trkpt>
      <trkpt lat="45.29041" lon="4.20808">
        <ele>744.53</ele>
        <time>2015-10-25T13:52:06Z</time>
      </trkpt>
      <trkpt lat="45.29042" lon="4.2078">
        <ele>744.03</ele>
        <time>2015-10-25T13:52:09Z</time>
      </trkpt>
      <trkpt lat="45.2904" lon="4.20752">
        <ele>743.71</ele>
        <time>2015-10-25T13:52:12Z</time>
      </trkpt>
      <trkpt lat="45.2904" lon="4.20719">
        <ele>743.54</ele>
        <time>2015-10-25T13:52:16Z</time>
      </trkpt>
      <trkpt lat="45.2904" lon="4.20687">
        <ele>743.31</ele>
        <time>2015-10-25T13:52:20Z</time>
      </trkpt>
      <trkpt lat="45.2904" lon="4.20661">
        <ele>742.96</ele>
        <time>2015-10-25T13:52:23Z</time>
      </trkpt>
      <trkpt lat="45.29039" lon="4.20628">
        <ele>742.31</ele>
        <time>2015-10-25T13:52:26Z</time>
      </trkpt>
      <trkpt lat="45.29036" lon="4.20593">
        <ele>741.07</ele>
        <time>2015-10-25T13:52:29Z</time>
      </trkpt>
      <trkpt lat="45.29031" lon="4.20567">
        <ele>740.01</ele>
        <time>2015-10-25T13:52:31Z</time>
      </trkpt>
      <trkpt lat="45.29025" lon="4.20543">
        <ele>738.77</ele>
        <time>2015-10-25T13:52:33Z</time>
      </trkpt>
      <trkpt lat="45.2903" lon="4.20509">
        <ele>736.49</ele>
        <time>2015-10-25T13:52:36Z</time>
      </trkpt>
      <trkpt lat="45.29041" lon="4.20487">
        <ele>734.99</ele>
        <time>2015-10-25T13:52:38Z</time>
      </trkpt>
      <trkpt lat="45.29051" lon="4.20464">
        <ele>733.24</ele>
        <time>2015-10-25T13:52:40Z</time>
      </trkpt>
      <trkpt lat="45.29062" lon="4.2044">
        <ele>732.21</ele>
        <time>2015-10-25T13:52:42Z</time>
      </trkpt>
      <trkpt lat="45.29074" lon="4.20418">
        <ele>730.85</ele>
        <time>2015-10-25T13:52:44Z</time>
      </trkpt>
      <trkpt lat="45.29085" lon="4.20396">
        <ele>729.77</ele>
        <time>2015-10-25T13:52:46Z</time>
      </trkpt>
      <trkpt lat="45.29095" lon="4.20361">
        <ele>728.37</ele>
        <time>2015-10-25T13:52:49Z</time>
      </trkpt>
      <trkpt lat="45.291" lon="4.20328">
        <ele>727.3</ele>
        <time>2015-10-25T13:52:52Z</time>
      </trkpt>
      <trkpt lat="45.29101" lon="4.203">
        <ele>725.97</ele>
        <time>2015-10-25T13:52:56Z</time>
      </trkpt>
      <trkpt lat="45.29102" lon="4.20266">
        <ele>724.57</ele>
        <time>2015-10-25T13:53:00Z</time>
      </trkpt>
      <trkpt lat="45.29102" lon="4.20235">
        <ele>723.6</ele>
        <time>2015-10-25T13:53:03Z</time>
      </trkpt>
      <trkpt lat="45.29102" lon="4.20201">
        <ele>721.92</ele>
        <time>2015-10-25T13:53:06Z</time>
      </trkpt>
      <trkpt lat="45.29103" lon="4.20167">
        <ele>720.66</ele>
        <time>2015-10-25T13:53:09Z</time>
      </trkpt>
      <trkpt lat="45.29104" lon="4.20131">
        <ele>719.55</ele>
        <time>2015-10-25T13:53:12Z</time>
      </trkpt>
      <trkpt lat="45.29106" lon="4.20095">
        <ele>718.42</ele>
        <time>2015-10-25T13:53:15Z</time>
      </trkpt>
      <trkpt lat="45.29112" lon="4.20062">
        <ele>716.84</ele>
        <time>2015-10-25T13:53:18Z</time>
      </trkpt>
      <trkpt lat="45.29111" lon="4.20027">
        <ele>715.31</ele>
        <time>2015-10-25T13:53:21Z</time>
      </trkpt>
      <trkpt lat="45.29106" lon="4.2">
        <ele>714.22</ele>
        <time>2015-10-25T13:53:23Z</time>
      </trkpt>
      <trkpt lat="45.29102" lon="4.19973">
        <ele>712.73</ele>
        <time>2015-10-25T13:53:25Z</time>
      </trkpt>
      <trkpt lat="45.29097" lon="4.19948">
        <ele>711.23</ele>
        <time>2015-10-25T13:53:27Z</time>
      </trkpt>
      <trkpt lat="45.29092" lon="4.19912">
        <ele>708.47</ele>
        <time>2015-10-25T13:53:30Z</time>
      </trkpt>
      <trkpt lat="45.29094" lon="4.19877">
        <ele>706.43</ele>
        <time>2015-10-25T13:53:33Z</time>
      </trkpt>
      <trkpt lat="45.29095" lon="4.19849">
        <ele>703.98</ele>
        <time>2015-10-25T13:53:36Z</time>
      </trkpt>
      <trkpt lat="45.29092" lon="4.19816">
        <ele>700.66</ele>
        <time>2015-10-25T13:53:40Z</time>
      </trkpt>
      <trkpt lat="45.29089" lon="4.19788">
        <ele>697.87</ele>
        <time>2015-10-25T13:53:43Z</time>
      </trkpt>
      <trkpt lat="45.29086" lon="4.19755">
        <ele>695.33</ele>
        <time>2015-10-25T13:53:46Z</time>
      </trkpt>
      <trkpt lat="45.29087" lon="4.19722">
        <ele>693.11</ele>
        <time>2015-10-25T13:53:49Z</time>
      </trkpt>
      <trkpt lat="45.29093" lon="4.19688">
        <ele>691.09</ele>
        <time>2015-10-25T13:53:52Z</time>
      </trkpt>
      <trkpt lat="45.29098" lon="4.19653">
        <ele>688.89</ele>
        <time>2015-10-25T13:53:55Z</time>
      </trkpt>
      <trkpt lat="45.291" lon="4.19618">
        <ele>687.51</ele>
        <time>2015-10-25T13:53:58Z</time>
      </trkpt>
      <trkpt lat="45.29099" lon="4.19581">
        <ele>686.26</ele>
        <time>2015-10-25T13:54:01Z</time>
      </trkpt>
      <trkpt lat="45.291" lon="4.19554">
        <ele>685.37</ele>
        <time>2015-10-25T13:54:03Z</time>
      </trkpt>
      <trkpt lat="45.29103" lon="4.19525">
        <ele>684.07</ele>
        <time>2015-10-25T13:54:05Z</time>
      </trkpt>
      <trkpt lat="45.29106" lon="4.19498">
        <ele>682.4</ele>
        <time>2015-10-25T13:54:07Z</time>
      </trkpt>
      <trkpt lat="45.29112" lon="4.19461">
        <ele>680.14</ele>
        <time>2015-10-25T13:54:10Z</time>
      </trkpt>
      <trkpt lat="45.29122" lon="4.1943">
        <ele>678.17</ele>
        <time>2015-10-25T13:54:13Z</time>
      </trkpt>
      <trkpt lat="45.29131" lon="4.19403">
        <ele>676.59</ele>
        <time>2015-10-25T13:54:16Z</time>
      </trkpt>
      <trkpt lat="45.29137" lon="4.19377">
        <ele>675.12</ele>
        <time>2015-10-25T13:54:20Z</time>
      </trkpt>
      <trkpt lat="45.29127" lon="4.19356">
        <ele>674.17</ele>
        <time>2015-10-25T13:54:23Z</time>
      </trkpt>
      <trkpt lat="45.29111" lon="4.1933">
        <ele>672.58</ele>
        <time>2015-10-25T13:54:26Z</time>
      </trkpt>
      <trkpt lat="45.29098" lon="4.1931">
        <ele>670.87</ele>
        <time>2015-10-25T13:54:28Z</time>
      </trkpt>
      <trkpt lat="45.29083" lon="4.1929">
        <ele>669.36</ele>
        <time>2015-10-25T13:54:30Z</time>
      </trkpt>
      <trkpt lat="45.29068" lon="4.19272">
        <ele>668.07</ele>
        <time>2015-10-25T13:54:32Z</time>
      </trkpt>
      <trkpt lat="45.29053" lon="4.19251">
        <ele>666.78</ele>
        <time>2015-10-25T13:54:34Z</time>
      </trkpt>
      <trkpt lat="45.29039" lon="4.19231">
        <ele>664.87</ele>
        <time>2015-10-25T13:54:36Z</time>
      </trkpt>
      <trkpt lat="45.29026" lon="4.19213">
        <ele>663.11</ele>
        <time>2015-10-25T13:54:38Z</time>
      </trkpt>
      <trkpt lat="45.29011" lon="4.19193">
        <ele>661.15</ele>
        <time>2015-10-25T13:54:41Z</time>
      </trkpt>
      <trkpt lat="45.28998" lon="4.19174">
        <ele>658</ele>
        <time>2015-10-25T13:54:45Z</time>
      </trkpt>
      <trkpt lat="45.29014" lon="4.19131">
        <ele>655.67</ele>
        <time>2015-10-25T13:54:58Z</time>
      </trkpt>
      <trkpt lat="45.29032" lon="4.19114">
        <ele>655.52</ele>
        <time>2015-10-25T13:55:02Z</time>
      </trkpt>
      <trkpt lat="45.2905" lon="4.19094">
        <ele>655.49</ele>
        <time>2015-10-25T13:55:06Z</time>
      </trkpt>
      <trkpt lat="45.29067" lon="4.19078">
        <ele>654.69</ele>
        <time>2015-10-25T13:55:10Z</time>
      </trkpt>
      <trkpt lat="45.29079" lon="4.19056">
        <ele>651.29</ele>
        <time>2015-10-25T13:55:16Z</time>
      </trkpt>
      <trkpt lat="45.29075" lon="4.19027">
        <ele>649.38</ele>
        <time>2015-10-25T13:55:20Z</time>
      </trkpt>
      <trkpt lat="45.29069" lon="4.18996">
        <ele>648.48</ele>
        <time>2015-10-25T13:55:24Z</time>
      </trkpt>
      <trkpt lat="45.29059" lon="4.18966">
        <ele>648.07</ele>
        <time>2015-10-25T13:55:28Z</time>
      </trkpt>
      <trkpt lat="45.29048" lon="4.18939">
        <ele>647.96</ele>
        <time>2015-10-25T13:55:32Z</time>
      </trkpt>
      <trkpt lat="45.29031" lon="4.18917">
        <ele>648.1</ele>
        <time>2015-10-25T13:55:36Z</time>
      </trkpt>
      <trkpt lat="45.29028" lon="4.18885">
        <ele>648.02</ele>
        <time>2015-10-25T13:55:40Z</time>
      </trkpt>
      <trkpt lat="45.29031" lon="4.18851">
        <ele>648.05</ele>
        <time>2015-10-25T13:55:44Z</time>
      </trkpt>
      <trkpt lat="45.29034" lon="4.18818">
        <ele>648.37</ele>
        <time>2015-10-25T13:55:48Z</time>
      </trkpt>
      <trkpt lat="45.29042" lon="4.18791">
        <ele>649.05</ele>
        <time>2015-10-25T13:55:52Z</time>
      </trkpt>
      <trkpt lat="45.29051" lon="4.18762">
        <ele>649.58</ele>
        <time>2015-10-25T13:55:56Z</time>
      </trkpt>
      <trkpt lat="45.29058" lon="4.18735">
        <ele>649.84</ele>
        <time>2015-10-25T13:55:59Z</time>
      </trkpt>
      <trkpt lat="45.29063" lon="4.18707">
        <ele>649.45</ele>
        <time>2015-10-25T13:56:02Z</time>
      </trkpt>
      <trkpt lat="45.2906" lon="4.18675">
        <ele>648.64</ele>
        <time>2015-10-25T13:56:05Z</time>
      </trkpt>
      <trkpt lat="45.29049" lon="4.18646">
        <ele>647.66</ele>
        <time>2015-10-25T13:56:08Z</time>
      </trkpt>
      <trkpt lat="45.29037" lon="4.18616">
        <ele>646.55</ele>
        <time>2015-10-25T13:56:11Z</time>
      </trkpt>
      <trkpt lat="45.29032" lon="4.18583">
        <ele>645.56</ele>
        <time>2015-10-25T13:56:14Z</time>
      </trkpt>
      <trkpt lat="45.29035" lon="4.1855">
        <ele>644.79</ele>
        <time>2015-10-25T13:56:17Z</time>
      </trkpt>
      <trkpt lat="45.29037" lon="4.18515">
        <ele>644.28</ele>
        <time>2015-10-25T13:56:20Z</time>
      </trkpt>
      <trkpt lat="45.29037" lon="4.18479">
        <ele>643.46</ele>
        <time>2015-10-25T13:56:23Z</time>
      </trkpt>
      <trkpt lat="45.29037" lon="4.18443">
        <ele>642.6</ele>
        <time>2015-10-25T13:56:26Z</time>
      </trkpt>
      <trkpt lat="45.29041" lon="4.1841">
        <ele>641.87</ele>
        <time>2015-10-25T13:56:29Z</time>
      </trkpt>
      <trkpt lat="45.29045" lon="4.1838">
        <ele>641.41</ele>
        <time>2015-10-25T13:56:32Z</time>
      </trkpt>
      <trkpt lat="45.2905" lon="4.18349">
        <ele>640.98</ele>
        <time>2015-10-25T13:56:35Z</time>
      </trkpt>
      <trkpt lat="45.29055" lon="4.18313">
        <ele>640.23</ele>
        <time>2015-10-25T13:56:38Z</time>
      </trkpt>
      <trkpt lat="45.29055" lon="4.18286">
        <ele>639.22</ele>
        <time>2015-10-25T13:56:40Z</time>
      </trkpt>
      <trkpt lat="45.2905" lon="4.18257">
        <ele>637.81</ele>
        <time>2015-10-25T13:56:42Z</time>
      </trkpt>
      <trkpt lat="45.29045" lon="4.18228">
        <ele>636.22</ele>
        <time>2015-10-25T13:56:44Z</time>
      </trkpt>
      <trkpt lat="45.2904" lon="4.18201">
        <ele>634.07</ele>
        <time>2015-10-25T13:56:46Z</time>
      </trkpt>
      <trkpt lat="45.2904" lon="4.18174">
        <ele>633.05</ele>
        <time>2015-10-25T13:56:48Z</time>
      </trkpt>
      <trkpt lat="45.2904" lon="4.18147">
        <ele>632.15</ele>
        <time>2015-10-25T13:56:50Z</time>
      </trkpt>
      <trkpt lat="45.29041" lon="4.18121">
        <ele>631.43</ele>
        <time>2015-10-25T13:56:52Z</time>
      </trkpt>
      <trkpt lat="45.2904" lon="4.18091">
        <ele>630.71</ele>
        <time>2015-10-25T13:56:54Z</time>
      </trkpt>
      <trkpt lat="45.29034" lon="4.1806">
        <ele>629.96</ele>
        <time>2015-10-25T13:56:56Z</time>
      </trkpt>
      <trkpt lat="45.29026" lon="4.18029">
        <ele>628.69</ele>
        <time>2015-10-25T13:56:58Z</time>
      </trkpt>
      <trkpt lat="45.29018" lon="4.17999">
        <ele>627.45</ele>
        <time>2015-10-25T13:57:00Z</time>
      </trkpt>
      <trkpt lat="45.29009" lon="4.1797">
        <ele>626.18</ele>
        <time>2015-10-25T13:57:02Z</time>
      </trkpt>
      <trkpt lat="45.29001" lon="4.17942">
        <ele>624.88</ele>
        <time>2015-10-25T13:57:04Z</time>
      </trkpt>
      <trkpt lat="45.28993" lon="4.17914">
        <ele>623.34</ele>
        <time>2015-10-25T13:57:06Z</time>
      </trkpt>
      <trkpt lat="45.28986" lon="4.17888">
        <ele>621.56</ele>
        <time>2015-10-25T13:57:08Z</time>
      </trkpt>
      <trkpt lat="45.28983" lon="4.17854">
        <ele>618.66</ele>
        <time>2015-10-25T13:57:11Z</time>
      </trkpt>
      <trkpt lat="45.28992" lon="4.1783">
        <ele>615.62</ele>
        <time>2015-10-25T13:57:13Z</time>
      </trkpt>
      <trkpt lat="45.29007" lon="4.17812">
        <ele>613.5</ele>
        <time>2015-10-25T13:57:15Z</time>
      </trkpt>
      <trkpt lat="45.29019" lon="4.17788">
        <ele>611.1</ele>
        <time>2015-10-25T13:57:17Z</time>
      </trkpt>
      <trkpt lat="45.29023" lon="4.1776">
        <ele>608.54</ele>
        <time>2015-10-25T13:57:19Z</time>
      </trkpt>
      <trkpt lat="45.29019" lon="4.17729">
        <ele>605.7</ele>
        <time>2015-10-25T13:57:22Z</time>
      </trkpt>
      <trkpt lat="45.29009" lon="4.17704">
        <ele>604.63</ele>
        <time>2015-10-25T13:57:28Z</time>
      </trkpt>
      <trkpt lat="45.28991" lon="4.17699">
        <ele>605.14</ele>
        <time>2015-10-25T13:57:34Z</time>
      </trkpt>
      <trkpt lat="45.28972" lon="4.17701">
        <ele>605.99</ele>
        <time>2015-10-25T13:57:39Z</time>
      </trkpt>
      <trkpt lat="45.28953" lon="4.17702">
        <ele>607.06</ele>
        <time>2015-10-25T13:57:44Z</time>
      </trkpt>
      <trkpt lat="45.28934" lon="4.17703">
        <ele>608.39</ele>
        <time>2015-10-25T13:57:49Z</time>
      </trkpt>
      <trkpt lat="45.28915" lon="4.17704">
        <ele>609.5</ele>
        <time>2015-10-25T13:57:54Z</time>
      </trkpt>
      <trkpt lat="45.28896" lon="4.17705">
        <ele>610.4</ele>
        <time>2015-10-25T13:57:59Z</time>
      </trkpt>
      <trkpt lat="45.28876" lon="4.17706">
        <ele>611.74</ele>
        <time>2015-10-25T13:58:04Z</time>
      </trkpt>
      <trkpt lat="45.28857" lon="4.17707">
        <ele>613.24</ele>
        <time>2015-10-25T13:58:09Z</time>
      </trkpt>
      <trkpt lat="45.28836" lon="4.17711">
        <ele>614.62</ele>
        <time>2015-10-25T13:58:14Z</time>
      </trkpt>
      <trkpt lat="45.28816" lon="4.17716">
        <ele>615.88</ele>
        <time>2015-10-25T13:58:19Z</time>
      </trkpt>
      <trkpt lat="45.28797" lon="4.17723">
        <ele>617.15</ele>
        <time>2015-10-25T13:58:24Z</time>
      </trkpt>
      <trkpt lat="45.28779" lon="4.1773">
        <ele>618.49</ele>
        <time>2015-10-25T13:58:29Z</time>
      </trkpt>
      <trkpt lat="45.28758" lon="4.17737">
        <ele>619.66</ele>
        <time>2015-10-25T13:58:35Z</time>
      </trkpt>
      <trkpt lat="45.28738" lon="4.17746">
        <ele>620.88</ele>
        <time>2015-10-25T13:58:41Z</time>
      </trkpt>
      <trkpt lat="45.28719" lon="4.17754">
        <ele>622</ele>
        <time>2015-10-25T13:58:47Z</time>
      </trkpt>
      <trkpt lat="45.28702" lon="4.17751">
        <ele>623.24</ele>
        <time>2015-10-25T13:58:53Z</time>
      </trkpt>
      <trkpt lat="45.28682" lon="4.17754">
        <ele>624.92</ele>
        <time>2015-10-25T13:59:00Z</time>
      </trkpt>
      <trkpt lat="45.28662" lon="4.17757">
        <ele>626.69</ele>
        <time>2015-10-25T13:59:06Z</time>
      </trkpt>
      <trkpt lat="45.28643" lon="4.17759">
        <ele>628.38</ele>
        <time>2015-10-25T13:59:12Z</time>
      </trkpt>
      <trkpt lat="45.28625" lon="4.17762">
        <ele>630.78</ele>
        <time>2015-10-25T13:59:18Z</time>
      </trkpt>
      <trkpt lat="45.28606" lon="4.17762">
        <ele>632.92</ele>
        <time>2015-10-25T13:59:24Z</time>
      </trkpt>
      <trkpt lat="45.28587" lon="4.17767">
        <ele>635.22</ele>
        <time>2015-10-25T13:59:30Z</time>
      </trkpt>
      <trkpt lat="45.28568" lon="4.17771">
        <ele>637.35</ele>
        <time>2015-10-25T13:59:36Z</time>
      </trkpt>
      <trkpt lat="45.2855" lon="4.17775">
        <ele>639.92</ele>
        <time>2015-10-25T13:59:43Z</time>
      </trkpt>
      <trkpt lat="45.28531" lon="4.1779">
        <ele>642.49</ele>
        <time>2015-10-25T13:59:51Z</time>
      </trkpt>
      <trkpt lat="45.28512" lon="4.17802">
        <ele>644.35</ele>
        <time>2015-10-25T13:59:59Z</time>
      </trkpt>
      <trkpt lat="45.28492" lon="4.17811">
        <ele>646.06</ele>
        <time>2015-10-25T14:00:06Z</time>
      </trkpt>
      <trkpt lat="45.28472" lon="4.17821">
        <ele>647.72</ele>
        <time>2015-10-25T14:00:13Z</time>
      </trkpt>
      <trkpt lat="45.28452" lon="4.17828">
        <ele>649.34</ele>
        <time>2015-10-25T14:00:19Z</time>
      </trkpt>
      <trkpt lat="45.28431" lon="4.17832">
        <ele>650.75</ele>
        <time>2015-10-25T14:00:25Z</time>
      </trkpt>
      <trkpt lat="45.28412" lon="4.17838">
        <ele>652.34</ele>
        <time>2015-10-25T14:00:31Z</time>
      </trkpt>
      <trkpt lat="45.28392" lon="4.17843">
        <ele>653.26</ele>
        <time>2015-10-25T14:00:37Z</time>
      </trkpt>
      <trkpt lat="45.28372" lon="4.17849">
        <ele>654.16</ele>
        <time>2015-10-25T14:00:43Z</time>
      </trkpt>
      <trkpt lat="45.28351" lon="4.17856">
        <ele>655.11</ele>
        <time>2015-10-25T14:00:49Z</time>
      </trkpt>
      <trkpt lat="45.28333" lon="4.17863">
        <ele>656.29</ele>
        <time>2015-10-25T14:00:54Z</time>
      </trkpt>
      <trkpt lat="45.28317" lon="4.17869">
        <ele>657.15</ele>
        <time>2015-10-25T14:00:59Z</time>
      </trkpt>
      <trkpt lat="45.28295" lon="4.1788">
        <ele>657.64</ele>
        <time>2015-10-25T14:01:06Z</time>
      </trkpt>
      <trkpt lat="45.28281" lon="4.17888">
        <ele>656.57</ele>
        <time>2015-10-25T14:01:57Z</time>
      </trkpt>
      <trkpt lat="45.28265" lon="4.17875">
        <ele>656.91</ele>
        <time>2015-10-25T14:04:13Z</time>
      </trkpt>
      <trkpt lat="45.28265" lon="4.1785">
        <ele>656.93</ele>
        <time>2015-10-25T14:04:19Z</time>
      </trkpt>
      <trkpt lat="45.28277" lon="4.17827">
        <ele>657.11</ele>
        <time>2015-10-25T14:04:25Z</time>
      </trkpt>
      <trkpt lat="45.28288" lon="4.17807">
        <ele>657.32</ele>
        <time>2015-10-25T14:04:31Z</time>
      </trkpt>
      <trkpt lat="45.28299" lon="4.17783">
        <ele>657.61</ele>
        <time>2015-10-25T14:04:37Z</time>
      </trkpt>
      <trkpt lat="45.28312" lon="4.17764">
        <ele>657.72</ele>
        <time>2015-10-25T14:04:42Z</time>
      </trkpt>
      <trkpt lat="45.28326" lon="4.17743">
        <ele>658.01</ele>
        <time>2015-10-25T14:04:47Z</time>
      </trkpt>
      <trkpt lat="45.28335" lon="4.1772">
        <ele>658.41</ele>
        <time>2015-10-25T14:04:52Z</time>
      </trkpt>
      <trkpt lat="45.28335" lon="4.17694">
        <ele>659.01</ele>
        <time>2015-10-25T14:04:57Z</time>
      </trkpt>
      <trkpt lat="45.28327" lon="4.17668">
        <ele>659.66</ele>
        <time>2015-10-25T14:05:02Z</time>
      </trkpt>
      <trkpt lat="45.28318" lon="4.17643">
        <ele>659.17</ele>
        <time>2015-10-25T14:05:06Z</time>
      </trkpt>
      <trkpt lat="45.28305" lon="4.17615">
        <ele>658.39</ele>
        <time>2015-10-25T14:05:10Z</time>
      </trkpt>
      <trkpt lat="45.28295" lon="4.17591">
        <ele>657.93</ele>
        <time>2015-10-25T14:05:13Z</time>
      </trkpt>
      <trkpt lat="45.28287" lon="4.17567">
        <ele>657.36</ele>
        <time>2015-10-25T14:05:16Z</time>
      </trkpt>
      <trkpt lat="45.28282" lon="4.17541">
        <ele>656.72</ele>
        <time>2015-10-25T14:05:19Z</time>
      </trkpt>
      <trkpt lat="45.28279" lon="4.17513">
        <ele>656.17</ele>
        <time>2015-10-25T14:05:22Z</time>
      </trkpt>
      <trkpt lat="45.28277" lon="4.17481">
        <ele>655.22</ele>
        <time>2015-10-25T14:05:26Z</time>
      </trkpt>
      <trkpt lat="45.28281" lon="4.17451">
        <ele>654.74</ele>
        <time>2015-10-25T14:05:30Z</time>
      </trkpt>
      <trkpt lat="45.28289" lon="4.17419">
        <ele>654.57</ele>
        <time>2015-10-25T14:05:34Z</time>
      </trkpt>
      <trkpt lat="45.28299" lon="4.17392">
        <ele>654.61</ele>
        <time>2015-10-25T14:05:38Z</time>
      </trkpt>
      <trkpt lat="45.28314" lon="4.17372">
        <ele>654.72</ele>
        <time>2015-10-25T14:05:43Z</time>
      </trkpt>
      <trkpt lat="45.28329" lon="4.17355">
        <ele>654.85</ele>
        <time>2015-10-25T14:05:48Z</time>
      </trkpt>
      <trkpt lat="45.28341" lon="4.17332">
        <ele>655.02</ele>
        <time>2015-10-25T14:05:53Z</time>
      </trkpt>
      <trkpt lat="45.28356" lon="4.17302">
        <ele>654.54</ele>
        <time>2015-10-25T14:05:57Z</time>
      </trkpt>
      <trkpt lat="45.28369" lon="4.17273">
        <ele>653.66</ele>
        <time>2015-10-25T14:06:00Z</time>
      </trkpt>
      <trkpt lat="45.2838" lon="4.17249">
        <ele>652.66</ele>
        <time>2015-10-25T14:06:02Z</time>
      </trkpt>
      <trkpt lat="45.28391" lon="4.17225">
        <ele>651.45</ele>
        <time>2015-10-25T14:06:04Z</time>
      </trkpt>
      <trkpt lat="45.28402" lon="4.17204">
        <ele>649.95</ele>
        <time>2015-10-25T14:06:06Z</time>
      </trkpt>
      <trkpt lat="45.28416" lon="4.17177">
        <ele>647.31</ele>
        <time>2015-10-25T14:06:09Z</time>
      </trkpt>
      <trkpt lat="45.28427" lon="4.17153">
        <ele>643.78</ele>
        <time>2015-10-25T14:06:13Z</time>
      </trkpt>
      <trkpt lat="45.28412" lon="4.17135">
        <ele>639.96</ele>
        <time>2015-10-25T14:06:18Z</time>
      </trkpt>
      <trkpt lat="45.28396" lon="4.1712">
        <ele>639.24</ele>
        <time>2015-10-25T14:06:22Z</time>
      </trkpt>
      <trkpt lat="45.28381" lon="4.17105">
        <ele>639.5</ele>
        <time>2015-10-25T14:06:26Z</time>
      </trkpt>
      <trkpt lat="45.28362" lon="4.17087">
        <ele>639.95</ele>
        <time>2015-10-25T14:06:30Z</time>
      </trkpt>
      <trkpt lat="45.28344" lon="4.1707">
        <ele>640.62</ele>
        <time>2015-10-25T14:06:34Z</time>
      </trkpt>
      <trkpt lat="45.28328" lon="4.17049">
        <ele>641.51</ele>
        <time>2015-10-25T14:06:39Z</time>
      </trkpt>
      <trkpt lat="45.28312" lon="4.17035">
        <ele>642.02</ele>
        <time>2015-10-25T14:06:43Z</time>
      </trkpt>
      <trkpt lat="45.28295" lon="4.17018">
        <ele>641.99</ele>
        <time>2015-10-25T14:06:47Z</time>
      </trkpt>
      <trkpt lat="45.28277" lon="4.16999">
        <ele>641.53</ele>
        <time>2015-10-25T14:06:51Z</time>
      </trkpt>
      <trkpt lat="45.28258" lon="4.16981">
        <ele>641.09</ele>
        <time>2015-10-25T14:06:55Z</time>
      </trkpt>
      <trkpt lat="45.28244" lon="4.16966">
        <ele>640.64</ele>
        <time>2015-10-25T14:06:58Z</time>
      </trkpt>
      <trkpt lat="45.28225" lon="4.16946">
        <ele>639.98</ele>
        <time>2015-10-25T14:07:02Z</time>
      </trkpt>
      <trkpt lat="45.2821" lon="4.1693">
        <ele>639.46</ele>
        <time>2015-10-25T14:07:05Z</time>
      </trkpt>
      <trkpt lat="45.28196" lon="4.16914">
        <ele>639.06</ele>
        <time>2015-10-25T14:07:08Z</time>
      </trkpt>
      <trkpt lat="45.28181" lon="4.16898">
        <ele>638.5</ele>
        <time>2015-10-25T14:07:11Z</time>
      </trkpt>
      <trkpt lat="45.28166" lon="4.16883">
        <ele>637.91</ele>
        <time>2015-10-25T14:07:14Z</time>
      </trkpt>
      <trkpt lat="45.2815" lon="4.16866">
        <ele>636.98</ele>
        <time>2015-10-25T14:07:17Z</time>
      </trkpt>
      <trkpt lat="45.28136" lon="4.1685">
        <ele>635.92</ele>
        <time>2015-10-25T14:07:20Z</time>
      </trkpt>
      <trkpt lat="45.28122" lon="4.16835">
        <ele>634.32</ele>
        <time>2015-10-25T14:07:24Z</time>
      </trkpt>
      <trkpt lat="45.28122" lon="4.1681">
        <ele>631.46</ele>
        <time>2015-10-25T14:07:28Z</time>
      </trkpt>
      <trkpt lat="45.28128" lon="4.16781">
        <ele>629.62</ele>
        <time>2015-10-25T14:07:32Z</time>
      </trkpt>
      <trkpt lat="45.28138" lon="4.16754">
        <ele>628.45</ele>
        <time>2015-10-25T14:07:36Z</time>
      </trkpt>
      <trkpt lat="45.28154" lon="4.16728">
        <ele>627.58</ele>
        <time>2015-10-25T14:07:40Z</time>
      </trkpt>
      <trkpt lat="45.28168" lon="4.16711">
        <ele>626.64</ele>
        <time>2015-10-25T14:07:43Z</time>
      </trkpt>
      <trkpt lat="45.28184" lon="4.16693">
        <ele>625.4</ele>
        <time>2015-10-25T14:07:46Z</time>
      </trkpt>
      <trkpt lat="45.282" lon="4.16677">
        <ele>624.42</ele>
        <time>2015-10-25T14:07:49Z</time>
      </trkpt>
      <trkpt lat="45.28214" lon="4.16661">
        <ele>623.2</ele>
        <time>2015-10-25T14:07:52Z</time>
      </trkpt>
      <trkpt lat="45.28231" lon="4.16647">
        <ele>622.07</ele>
        <time>2015-10-25T14:07:56Z</time>
      </trkpt>
      <trkpt lat="45.28232" lon="4.16636">
        <ele>619.38</ele>
        <time>2015-10-25T14:08:03Z</time>
      </trkpt>
      <trkpt lat="45.28211" lon="4.16633">
        <ele>618.26</ele>
        <time>2015-10-25T14:08:08Z</time>
      </trkpt>
      <trkpt lat="45.28191" lon="4.16631">
        <ele>617.56</ele>
        <time>2015-10-25T14:08:12Z</time>
      </trkpt>
      <trkpt lat="45.28166" lon="4.16629">
        <ele>616.61</ele>
        <time>2015-10-25T14:08:16Z</time>
      </trkpt>
      <trkpt lat="45.28145" lon="4.16628">
        <ele>615.72</ele>
        <time>2015-10-25T14:08:19Z</time>
      </trkpt>
      <trkpt lat="45.28123" lon="4.16631">
        <ele>614.71</ele>
        <time>2015-10-25T14:08:22Z</time>
      </trkpt>
      <trkpt lat="45.281" lon="4.16645">
        <ele>613.39</ele>
        <time>2015-10-25T14:08:25Z</time>
      </trkpt>
      <trkpt lat="45.28085" lon="4.16661">
        <ele>612.59</ele>
        <time>2015-10-25T14:08:27Z</time>
      </trkpt>
      <trkpt lat="45.2807" lon="4.16681">
        <ele>611.61</ele>
        <time>2015-10-25T14:08:29Z</time>
      </trkpt>
      <trkpt lat="45.28055" lon="4.16702">
        <ele>610.52</ele>
        <time>2015-10-25T14:08:31Z</time>
      </trkpt>
      <trkpt lat="45.28039" lon="4.1672">
        <ele>609.48</ele>
        <time>2015-10-25T14:08:33Z</time>
      </trkpt>
      <trkpt lat="45.2802" lon="4.16729">
        <ele>608.55</ele>
        <time>2015-10-25T14:08:35Z</time>
      </trkpt>
      <trkpt lat="45.28001" lon="4.1673">
        <ele>607.84</ele>
        <time>2015-10-25T14:08:37Z</time>
      </trkpt>
      <trkpt lat="45.27983" lon="4.16729">
        <ele>607.25</ele>
        <time>2015-10-25T14:08:39Z</time>
      </trkpt>
      <trkpt lat="45.27958" lon="4.16734">
        <ele>606.34</ele>
        <time>2015-10-25T14:08:42Z</time>
      </trkpt>
      <trkpt lat="45.27936" lon="4.16745">
        <ele>605.78</ele>
        <time>2015-10-25T14:08:45Z</time>
      </trkpt>
      <trkpt lat="45.27917" lon="4.16759">
        <ele>605.17</ele>
        <time>2015-10-25T14:08:48Z</time>
      </trkpt>
      <trkpt lat="45.27897" lon="4.16764">
        <ele>604.46</ele>
        <time>2015-10-25T14:08:52Z</time>
      </trkpt>
      <trkpt lat="45.27887" lon="4.16738">
        <ele>603.73</ele>
        <time>2015-10-25T14:08:56Z</time>
      </trkpt>
      <trkpt lat="45.2788" lon="4.16712">
        <ele>603.15</ele>
        <time>2015-10-25T14:08:59Z</time>
      </trkpt>
      <trkpt lat="45.27874" lon="4.16688">
        <ele>602.77</ele>
        <time>2015-10-25T14:09:02Z</time>
      </trkpt>
      <trkpt lat="45.27867" lon="4.16657">
        <ele>602.53</ele>
        <time>2015-10-25T14:09:06Z</time>
      </trkpt>
      <trkpt lat="45.27863" lon="4.16631">
        <ele>602.35</ele>
        <time>2015-10-25T14:09:09Z</time>
      </trkpt>
      <trkpt lat="45.2786" lon="4.16602">
        <ele>602.13</ele>
        <time>2015-10-25T14:09:12Z</time>
      </trkpt>
      <trkpt lat="45.27859" lon="4.16572">
        <ele>601.77</ele>
        <time>2015-10-25T14:09:15Z</time>
      </trkpt>
      <trkpt lat="45.27862" lon="4.16544">
        <ele>601.28</ele>
        <time>2015-10-25T14:09:18Z</time>
      </trkpt>
      <trkpt lat="45.27866" lon="4.16517">
        <ele>600.82</ele>
        <time>2015-10-25T14:09:21Z</time>
      </trkpt>
      <trkpt lat="45.27878" lon="4.1649">
        <ele>600.4</ele>
        <time>2015-10-25T14:09:25Z</time>
      </trkpt>
      <trkpt lat="45.27893" lon="4.16472">
        <ele>600.16</ele>
        <time>2015-10-25T14:09:30Z</time>
      </trkpt>
      <trkpt lat="45.27916" lon="4.16458">
        <ele>599.24</ele>
        <time>2015-10-25T14:09:34Z</time>
      </trkpt>
      <trkpt lat="45.27942" lon="4.16445">
        <ele>597.78</ele>
        <time>2015-10-25T14:09:38Z</time>
      </trkpt>
      <trkpt lat="45.27961" lon="4.16434">
        <ele>597.29</ele>
        <time>2015-10-25T14:09:41Z</time>
      </trkpt>
      <trkpt lat="45.2798" lon="4.16419">
        <ele>597.09</ele>
        <time>2015-10-25T14:09:44Z</time>
      </trkpt>
      <trkpt lat="45.27999" lon="4.16405">
        <ele>596.83</ele>
        <time>2015-10-25T14:09:47Z</time>
      </trkpt>
      <trkpt lat="45.2802" lon="4.16395">
        <ele>596.53</ele>
        <time>2015-10-25T14:09:50Z</time>
      </trkpt>
      <trkpt lat="45.28042" lon="4.16388">
        <ele>596.1</ele>
        <time>2015-10-25T14:09:53Z</time>
      </trkpt>
      <trkpt lat="45.28069" lon="4.16381">
        <ele>595.41</ele>
        <time>2015-10-25T14:09:56Z</time>
      </trkpt>
      <trkpt lat="45.28087" lon="4.16383">
        <ele>594.97</ele>
        <time>2015-10-25T14:09:58Z</time>
      </trkpt>
      <trkpt lat="45.28112" lon="4.16394">
        <ele>594.43</ele>
        <time>2015-10-25T14:10:01Z</time>
      </trkpt>
      <trkpt lat="45.28135" lon="4.16398">
        <ele>594.21</ele>
        <time>2015-10-25T14:10:04Z</time>
      </trkpt>
      <trkpt lat="45.28157" lon="4.16397">
        <ele>594.57</ele>
        <time>2015-10-25T14:10:07Z</time>
      </trkpt>
      <trkpt lat="45.2818" lon="4.16392">
        <ele>594.9</ele>
        <time>2015-10-25T14:10:10Z</time>
      </trkpt>
      <trkpt lat="45.28203" lon="4.16388">
        <ele>595.09</ele>
        <time>2015-10-25T14:10:13Z</time>
      </trkpt>
      <trkpt lat="45.28224" lon="4.16382">
        <ele>595.18</ele>
        <time>2015-10-25T14:10:16Z</time>
      </trkpt>
      <trkpt lat="45.28243" lon="4.16377">
        <ele>595.21</ele>
        <time>2015-10-25T14:10:19Z</time>
      </trkpt>
      <trkpt lat="45.28261" lon="4.16372">
        <ele>595.47</ele>
        <time>2015-10-25T14:10:23Z</time>
      </trkpt>
      <trkpt lat="45.28282" lon="4.16364">
        <ele>595.6</ele>
        <time>2015-10-25T14:10:27Z</time>
      </trkpt>
      <trkpt lat="45.28304" lon="4.16354">
        <ele>595.35</ele>
        <time>2015-10-25T14:10:31Z</time>
      </trkpt>
      <trkpt lat="45.28327" lon="4.16345">
        <ele>594.99</ele>
        <time>2015-10-25T14:10:35Z</time>
      </trkpt>
      <trkpt lat="45.2835" lon="4.16335">
        <ele>594.99</ele>
        <time>2015-10-25T14:10:39Z</time>
      </trkpt>
      <trkpt lat="45.28371" lon="4.16326">
        <ele>594.95</ele>
        <time>2015-10-25T14:10:43Z</time>
      </trkpt>
      <trkpt lat="45.28389" lon="4.16316">
        <ele>594.93</ele>
        <time>2015-10-25T14:10:47Z</time>
      </trkpt>
      <trkpt lat="45.28411" lon="4.16316">
        <ele>594.6</ele>
        <time>2015-10-25T14:10:51Z</time>
      </trkpt>
      <trkpt lat="45.28429" lon="4.16321">
        <ele>594.38</ele>
        <time>2015-10-25T14:10:54Z</time>
      </trkpt>
      <trkpt lat="45.28449" lon="4.16326">
        <ele>594.04</ele>
        <time>2015-10-25T14:10:57Z</time>
      </trkpt>
      <trkpt lat="45.2847" lon="4.1633">
        <ele>593.73</ele>
        <time>2015-10-25T14:11:00Z</time>
      </trkpt>
      <trkpt lat="45.28491" lon="4.16335">
        <ele>593.32</ele>
        <time>2015-10-25T14:11:03Z</time>
      </trkpt>
      <trkpt lat="45.28513" lon="4.16341">
        <ele>592.89</ele>
        <time>2015-10-25T14:11:06Z</time>
      </trkpt>
      <trkpt lat="45.28534" lon="4.16348">
        <ele>592.56</ele>
        <time>2015-10-25T14:11:09Z</time>
      </trkpt>
      <trkpt lat="45.28556" lon="4.16357">
        <ele>592.34</ele>
        <time>2015-10-25T14:11:12Z</time>
      </trkpt>
      <trkpt lat="45.28577" lon="4.16369">
        <ele>592.25</ele>
        <time>2015-10-25T14:11:15Z</time>
      </trkpt>
      <trkpt lat="45.28596" lon="4.1638">
        <ele>592.03</ele>
        <time>2015-10-25T14:11:19Z</time>
      </trkpt>
      <trkpt lat="45.28613" lon="4.16391">
        <ele>592.15</ele>
        <time>2015-10-25T14:16:52Z</time>
      </trkpt>
      <trkpt lat="45.28633" lon="4.16401">
        <ele>592.44</ele>
        <time>2015-10-25T14:17:02Z</time>
      </trkpt>
      <trkpt lat="45.28651" lon="4.16406">
        <ele>592.5</ele>
        <time>2015-10-25T14:17:08Z</time>
      </trkpt>
      <trkpt lat="45.28665" lon="4.16401">
        <ele>592.75</ele>
        <time>2015-10-25T14:17:14Z</time>
      </trkpt>
      <trkpt lat="45.2867" lon="4.1637">
        <ele>592.62</ele>
        <time>2015-10-25T14:17:20Z</time>
      </trkpt>
      <trkpt lat="45.28677" lon="4.16343">
        <ele>592.56</ele>
        <time>2015-10-25T14:17:24Z</time>
      </trkpt>
      <trkpt lat="45.28688" lon="4.16314">
        <ele>592.41</ele>
        <time>2015-10-25T14:17:28Z</time>
      </trkpt>
      <trkpt lat="45.28699" lon="4.16285">
        <ele>592.07</ele>
        <time>2015-10-25T14:17:32Z</time>
      </trkpt>
      <trkpt lat="45.28711" lon="4.16256">
        <ele>591.81</ele>
        <time>2015-10-25T14:17:36Z</time>
      </trkpt>
      <trkpt lat="45.28719" lon="4.16233">
        <ele>591.3</ele>
        <time>2015-10-25T14:17:39Z</time>
      </trkpt>
      <trkpt lat="45.28729" lon="4.16208">
        <ele>590.65</ele>
        <time>2015-10-25T14:17:42Z</time>
      </trkpt>
      <trkpt lat="45.28738" lon="4.16185">
        <ele>590.08</ele>
        <time>2015-10-25T14:17:45Z</time>
      </trkpt>
      <trkpt lat="45.28746" lon="4.16162">
        <ele>589.27</ele>
        <time>2015-10-25T14:17:48Z</time>
      </trkpt>
      <trkpt lat="45.28741" lon="4.16134">
        <ele>587.43</ele>
        <time>2015-10-25T14:17:53Z</time>
      </trkpt>
      <trkpt lat="45.28724" lon="4.16118">
        <ele>586.14</ele>
        <time>2015-10-25T14:17:57Z</time>
      </trkpt>
      <trkpt lat="45.28705" lon="4.16103">
        <ele>585.48</ele>
        <time>2015-10-25T14:18:01Z</time>
      </trkpt>
      <trkpt lat="45.28687" lon="4.16084">
        <ele>585.15</ele>
        <time>2015-10-25T14:18:05Z</time>
      </trkpt>
      <trkpt lat="45.28687" lon="4.16057">
        <ele>584.79</ele>
        <time>2015-10-25T14:18:08Z</time>
      </trkpt>
      <trkpt lat="45.28698" lon="4.16032">
        <ele>584.35</ele>
        <time>2015-10-25T14:18:11Z</time>
      </trkpt>
      <trkpt lat="45.28706" lon="4.16008">
        <ele>583.64</ele>
        <time>2015-10-25T14:18:14Z</time>
      </trkpt>
      <trkpt lat="45.28697" lon="4.15985">
        <ele>582.38</ele>
        <time>2015-10-25T14:18:17Z</time>
      </trkpt>
      <trkpt lat="45.28684" lon="4.15964">
        <ele>581.22</ele>
        <time>2015-10-25T14:18:20Z</time>
      </trkpt>
      <trkpt lat="45.28672" lon="4.15938">
        <ele>580.13</ele>
        <time>2015-10-25T14:18:23Z</time>
      </trkpt>
      <trkpt lat="45.28656" lon="4.15912">
        <ele>579.25</ele>
        <time>2015-10-25T14:18:26Z</time>
      </trkpt>
      <trkpt lat="45.28638" lon="4.15885">
        <ele>578.12</ele>
        <time>2015-10-25T14:18:29Z</time>
      </trkpt>
      <trkpt lat="45.28625" lon="4.15854">
        <ele>576.58</ele>
        <time>2015-10-25T14:18:32Z</time>
      </trkpt>
      <trkpt lat="45.28615" lon="4.15821">
        <ele>575.58</ele>
        <time>2015-10-25T14:18:35Z</time>
      </trkpt>
      <trkpt lat="45.28606" lon="4.15789">
        <ele>574.57</ele>
        <time>2015-10-25T14:18:38Z</time>
      </trkpt>
      <trkpt lat="45.28596" lon="4.1576">
        <ele>573.74</ele>
        <time>2015-10-25T14:18:41Z</time>
      </trkpt>
      <trkpt lat="45.28581" lon="4.15736">
        <ele>573.19</ele>
        <time>2015-10-25T14:18:44Z</time>
      </trkpt>
      <trkpt lat="45.28562" lon="4.15725">
        <ele>572.77</ele>
        <time>2015-10-25T14:18:47Z</time>
      </trkpt>
      <trkpt lat="45.28542" lon="4.15727">
        <ele>572.58</ele>
        <time>2015-10-25T14:18:50Z</time>
      </trkpt>
      <trkpt lat="45.28519" lon="4.15734">
        <ele>573.04</ele>
        <time>2015-10-25T14:18:54Z</time>
      </trkpt>
      <trkpt lat="45.28497" lon="4.15742">
        <ele>574.49</ele>
        <time>2015-10-25T14:18:58Z</time>
      </trkpt>
      <trkpt lat="45.28474" lon="4.15755">
        <ele>575.99</ele>
        <time>2015-10-25T14:19:02Z</time>
      </trkpt>
      <trkpt lat="45.28458" lon="4.1577">
        <ele>577.05</ele>
        <time>2015-10-25T14:19:05Z</time>
      </trkpt>
      <trkpt lat="45.28445" lon="4.15791">
        <ele>578.8</ele>
        <time>2015-10-25T14:19:09Z</time>
      </trkpt>
      <trkpt lat="45.28447" lon="4.15822">
        <ele>580.56</ele>
        <time>2015-10-25T14:19:14Z</time>
      </trkpt>
      <trkpt lat="45.28454" lon="4.15852">
        <ele>581.8</ele>
        <time>2015-10-25T14:19:19Z</time>
      </trkpt>
      <trkpt lat="45.28446" lon="4.15879">
        <ele>582.74</ele>
        <time>2015-10-25T14:19:25Z</time>
      </trkpt>
    </trkseg>
  </trk>
</gpx>